<?xml version='1.0' encoding='UTF-8'?><gpx version="1.1" creator="JPX - https://github.com/jenetics/jpx" xmlns="http://www.topografix.com/GPX/1/1"><trk><trkseg><trkpt lat="45.449686" lon="10.9813856"><ele>63.0</ele><time>2026-04-18T12:12:59.108Z</time></trkpt><trkpt lat="45.4492951" lon="10.9814521"><ele>63.0</ele><time>2026-04-18T12:13:02.075Z</time></trkpt><trkpt lat="45.4490199" lon="10.9816477"><ele>63.0</ele><time>2026-04-18T12:13:07.983Z</time></trkpt><trkpt lat="45.4488702" lon="10.981355"><ele>63.0</ele><time>2026-04-18T12:13:09.037Z</time></trkpt><trkpt lat="45.4488118" lon="10.9813052"><ele>63.0</ele><time>2026-04-18T12:13:20.058Z</time></trkpt><trkpt lat="45.448762" lon="10.9813648"><ele>63.0</ele><time>2026-04-18T12:13:25.065Z</time></trkpt><trkpt lat="45.4487617" lon="10.9815886"><ele>62.0</ele><time>2026-04-18T12:13:27.067Z</time></trkpt><trkpt lat="45.4487868" lon="10.9817482"><ele>61.0</ele><time>2026-04-18T12:13:28.06Z</time></trkpt><trkpt lat="45.4488016" lon="10.9819345"><ele>60.0</ele><time>2026-04-18T12:13:29.082Z</time></trkpt><trkpt lat="45.4488469" lon="10.9823657"><ele>59.75</ele><time>2026-04-18T12:13:30.982Z</time></trkpt><trkpt lat="45.4488736" lon="10.9825572"><ele>59.5</ele><time>2026-04-18T12:13:31.976Z</time></trkpt><trkpt lat="45.4488988" lon="10.9827352"><ele>59.25</ele><time>2026-04-18T12:13:32.982Z</time></trkpt><trkpt lat="45.4489196" lon="10.9829007"><ele>59.0</ele><time>2026-04-18T12:13:33.981Z</time></trkpt><trkpt lat="45.4489386" lon="10.9830494"><ele>59.0</ele><time>2026-04-18T12:13:34.978Z</time></trkpt><trkpt lat="45.4489562" lon="10.9831842"><ele>59.00000000000001</ele><time>2026-04-18T12:13:35.976Z</time></trkpt><trkpt lat="45.4489674" lon="10.9832947"><ele>59.00000000000001</ele><time>2026-04-18T12:13:36.976Z</time></trkpt><trkpt lat="45.4489519" lon="10.9834424"><ele>59.0</ele><time>2026-04-18T12:13:38.986Z</time></trkpt><trkpt lat="45.4488585" lon="10.9835327"><ele>59.0</ele><time>2026-04-18T12:13:40.989Z</time></trkpt><trkpt lat="45.4487992" lon="10.9835668"><ele>60.25</ele><time>2026-04-18T12:13:41.983Z</time></trkpt><trkpt lat="45.4487186" lon="10.9836009"><ele>61.5</ele><time>2026-04-18T12:13:42.983Z</time></trkpt><trkpt lat="45.4485979" lon="10.9836205"><ele>62.75</ele><time>2026-04-18T12:13:43.977Z</time></trkpt><trkpt lat="45.4484723" lon="10.9836286"><ele>64.0</ele><time>2026-04-18T12:13:44.977Z</time></trkpt><trkpt lat="45.4483497" lon="10.9836161"><ele>64.0</ele><time>2026-04-18T12:13:45.985Z</time></trkpt><trkpt lat="45.4482428" lon="10.9835986"><ele>64.0</ele><time>2026-04-18T12:13:46.975Z</time></trkpt><trkpt lat="45.4481518" lon="10.9835845"><ele>64.0</ele><time>2026-04-18T12:13:47.972Z</time></trkpt><trkpt lat="45.4480554" lon="10.983597"><ele>64.0</ele><time>2026-04-18T12:13:48.978Z</time></trkpt><trkpt lat="45.4479943" lon="10.983665"><ele>64.0</ele><time>2026-04-18T12:13:49.973Z</time></trkpt><trkpt lat="45.4479622" lon="10.9837919"><ele>63.800000000000004</ele><time>2026-04-18T12:13:50.964Z</time></trkpt><trkpt lat="45.4479398" lon="10.9839428"><ele>63.60000000000001</ele><time>2026-04-18T12:13:51.969Z</time></trkpt><trkpt lat="45.4479312" lon="10.9841003"><ele>63.4</ele><time>2026-04-18T12:13:52.974Z</time></trkpt><trkpt lat="45.4479249" lon="10.9842614"><ele>63.2</ele><time>2026-04-18T12:13:53.988Z</time></trkpt><trkpt lat="45.4479297" lon="10.9844188"><ele>63.0</ele><time>2026-04-18T12:13:54.979Z</time></trkpt><trkpt lat="45.4479305" lon="10.9845652"><ele>63.0</ele><time>2026-04-18T12:13:55.977Z</time></trkpt><trkpt lat="45.4479267" lon="10.9846848"><ele>63.0</ele><time>2026-04-18T12:13:56.979Z</time></trkpt><trkpt lat="45.4479314" lon="10.9848116"><ele>63.0</ele><time>2026-04-18T12:13:57.983Z</time></trkpt><trkpt lat="45.4479288" lon="10.9849471"><ele>63.0</ele><time>2026-04-18T12:13:58.988Z</time></trkpt><trkpt lat="45.4479258" lon="10.9850991"><ele>63.0</ele><time>2026-04-18T12:14:00.006Z</time></trkpt><trkpt lat="45.4479215" lon="10.9852805"><ele>63.0</ele><time>2026-04-18T12:14:00.978Z</time></trkpt><trkpt lat="45.4479171" lon="10.9854705"><ele>63.0</ele><time>2026-04-18T12:14:01.985Z</time></trkpt><trkpt lat="45.4479104" lon="10.9856573"><ele>63.0</ele><time>2026-04-18T12:14:02.98Z</time></trkpt><trkpt lat="45.4478961" lon="10.9858317"><ele>63.0</ele><time>2026-04-18T12:14:03.975Z</time></trkpt><trkpt lat="45.4478792" lon="10.9860046"><ele>63.0</ele><time>2026-04-18T12:14:04.978Z</time></trkpt><trkpt lat="45.4478625" lon="10.9861781"><ele>63.0</ele><time>2026-04-18T12:14:05.983Z</time></trkpt><trkpt lat="45.4478553" lon="10.9863502"><ele>63.0</ele><time>2026-04-18T12:14:06.977Z</time></trkpt><trkpt lat="45.4478348" lon="10.9865165"><ele>63.0</ele><time>2026-04-18T12:14:07.98Z</time></trkpt><trkpt lat="45.4478078" lon="10.9866805"><ele>63.4</ele><time>2026-04-18T12:14:08.977Z</time></trkpt><trkpt lat="45.44778" lon="10.9868251"><ele>63.8</ele><time>2026-04-18T12:14:09.978Z</time></trkpt><trkpt lat="45.447757" lon="10.9869609"><ele>64.2</ele><time>2026-04-18T12:14:10.988Z</time></trkpt><trkpt lat="45.447737" lon="10.9870988"><ele>64.6</ele><time>2026-04-18T12:14:11.989Z</time></trkpt><trkpt lat="45.4477249" lon="10.9872517"><ele>65.0</ele><time>2026-04-18T12:14:12.983Z</time></trkpt><trkpt lat="45.4477049" lon="10.9874199"><ele>65.0</ele><time>2026-04-18T12:14:13.985Z</time></trkpt><trkpt lat="45.4476807" lon="10.987613"><ele>65.0</ele><time>2026-04-18T12:14:14.983Z</time></trkpt><trkpt lat="45.4476627" lon="10.9877992"><ele>65.0</ele><time>2026-04-18T12:14:15.987Z</time></trkpt><trkpt lat="45.4476417" lon="10.9879695"><ele>65.0</ele><time>2026-04-18T12:14:16.98Z</time></trkpt><trkpt lat="45.4476159" lon="10.9881176"><ele>65.0</ele><time>2026-04-18T12:14:17.988Z</time></trkpt><trkpt lat="45.447569" lon="10.9882186"><ele>65.0</ele><time>2026-04-18T12:14:18.981Z</time></trkpt><trkpt lat="45.4474862" lon="10.9883047"><ele>65.0</ele><time>2026-04-18T12:14:19.988Z</time></trkpt><trkpt lat="45.4473599" lon="10.9883873"><ele>65.0</ele><time>2026-04-18T12:14:20.982Z</time></trkpt><trkpt lat="45.4471988" lon="10.9884705"><ele>66.0</ele><time>2026-04-18T12:14:21.974Z</time></trkpt><trkpt lat="45.4470367" lon="10.9885472"><ele>67.0</ele><time>2026-04-18T12:14:22.973Z</time></trkpt><trkpt lat="45.4468949" lon="10.9886122"><ele>68.0</ele><time>2026-04-18T12:14:23.982Z</time></trkpt><trkpt lat="45.4467465" lon="10.9886754"><ele>68.0</ele><time>2026-04-18T12:14:24.978Z</time></trkpt><trkpt lat="45.4465955" lon="10.9887131"><ele>68.0</ele><time>2026-04-18T12:14:25.984Z</time></trkpt><trkpt lat="45.4464346" lon="10.9887653"><ele>68.0</ele><time>2026-04-18T12:14:26.978Z</time></trkpt><trkpt lat="45.4462828" lon="10.9888386"><ele>67.66666666666667</ele><time>2026-04-18T12:14:27.977Z</time></trkpt><trkpt lat="45.4461308" lon="10.988904"><ele>67.33333333333333</ele><time>2026-04-18T12:14:28.982Z</time></trkpt><trkpt lat="45.4459733" lon="10.9889847"><ele>67.0</ele><time>2026-04-18T12:14:29.983Z</time></trkpt><trkpt lat="45.4458215" lon="10.9890628"><ele>67.0</ele><time>2026-04-18T12:14:30.993Z</time></trkpt><trkpt lat="45.4456895" lon="10.9891697"><ele>67.0</ele><time>2026-04-18T12:14:31.979Z</time></trkpt><trkpt lat="45.4455284" lon="10.9892301"><ele>67.0</ele><time>2026-04-18T12:14:32.979Z</time></trkpt><trkpt lat="45.4453782" lon="10.9893041"><ele>67.33333333333333</ele><time>2026-04-18T12:14:33.981Z</time></trkpt><trkpt lat="45.4452296" lon="10.9893707"><ele>67.66666666666667</ele><time>2026-04-18T12:14:34.979Z</time></trkpt><trkpt lat="45.4450811" lon="10.9894384"><ele>68.0</ele><time>2026-04-18T12:14:35.982Z</time></trkpt><trkpt lat="45.4449266" lon="10.9895124"><ele>68.0</ele><time>2026-04-18T12:14:36.978Z</time></trkpt><trkpt lat="45.4446397" lon="10.9896841"><ele>68.0</ele><time>2026-04-18T12:14:38.982Z</time></trkpt><trkpt lat="45.4444812" lon="10.9897456"><ele>67.0</ele><time>2026-04-18T12:14:39.978Z</time></trkpt><trkpt lat="45.4443187" lon="10.9897992"><ele>66.0</ele><time>2026-04-18T12:14:40.978Z</time></trkpt><trkpt lat="45.4441665" lon="10.9898556"><ele>65.0</ele><time>2026-04-18T12:14:41.975Z</time></trkpt><trkpt lat="45.4440299" lon="10.9899168"><ele>65.0</ele><time>2026-04-18T12:14:42.982Z</time></trkpt><trkpt lat="45.4438894" lon="10.9899758"><ele>65.0</ele><time>2026-04-18T12:14:43.974Z</time></trkpt><trkpt lat="45.4437663" lon="10.9900184"><ele>65.0</ele><time>2026-04-18T12:14:44.975Z</time></trkpt><trkpt lat="45.4436505" lon="10.9900729"><ele>65.0</ele><time>2026-04-18T12:14:45.976Z</time></trkpt><trkpt lat="45.4435446" lon="10.9901373"><ele>64.2</ele><time>2026-04-18T12:14:46.974Z</time></trkpt><trkpt lat="45.4434294" lon="10.9902195"><ele>63.4</ele><time>2026-04-18T12:14:47.974Z</time></trkpt><trkpt lat="45.4433354" lon="10.9903236"><ele>62.599999999999994</ele><time>2026-04-18T12:14:48.981Z</time></trkpt><trkpt lat="45.4432781" lon="10.9904174"><ele>61.8</ele><time>2026-04-18T12:14:49.976Z</time></trkpt><trkpt lat="45.4432175" lon="10.9905058"><ele>61.0</ele><time>2026-04-18T12:14:50.976Z</time></trkpt><trkpt lat="45.443192" lon="10.9905992"><ele>61.0</ele><time>2026-04-18T12:14:51.982Z</time></trkpt><trkpt lat="45.4431364" lon="10.9907644"><ele>60.99999999999999</ele><time>2026-04-18T12:14:53.991Z</time></trkpt><trkpt lat="45.4430916" lon="10.9908549"><ele>60.99999999999999</ele><time>2026-04-18T12:14:54.987Z</time></trkpt><trkpt lat="45.4430417" lon="10.9909519"><ele>61.0</ele><time>2026-04-18T12:14:55.995Z</time></trkpt><trkpt lat="45.442984" lon="10.9911075"><ele>61.0</ele><time>2026-04-18T12:14:57.002Z</time></trkpt><trkpt lat="45.4429186" lon="10.9913113"><ele>61.0</ele><time>2026-04-18T12:14:58.004Z</time></trkpt><trkpt lat="45.4428568" lon="10.9915354"><ele>61.0</ele><time>2026-04-18T12:14:58.995Z</time></trkpt><trkpt lat="45.4428007" lon="10.9917454"><ele>61.0</ele><time>2026-04-18T12:15:00.007Z</time></trkpt><trkpt lat="45.4427475" lon="10.9919016"><ele>61.0</ele><time>2026-04-18T12:15:00.993Z</time></trkpt><trkpt lat="45.4427228" lon="10.9920213"><ele>61.33333333333333</ele><time>2026-04-18T12:15:02.007Z</time></trkpt><trkpt lat="45.4426802" lon="10.9921706"><ele>61.666666666666664</ele><time>2026-04-18T12:15:03.986Z</time></trkpt><trkpt lat="45.4427189" lon="10.9922813"><ele>62.0</ele><time>2026-04-18T12:15:05.982Z</time></trkpt><trkpt lat="45.442813" lon="10.992351"><ele>62.33333333333333</ele><time>2026-04-18T12:15:07.978Z</time></trkpt><trkpt lat="45.4428747" lon="10.9923889"><ele>62.666666666666664</ele><time>2026-04-18T12:15:08.977Z</time></trkpt><trkpt lat="45.4429392" lon="10.9924253"><ele>63.0</ele><time>2026-04-18T12:15:09.973Z</time></trkpt><trkpt lat="45.4430003" lon="10.9924642"><ele>63.4</ele><time>2026-04-18T12:15:10.971Z</time></trkpt><trkpt lat="45.4430586" lon="10.9925096"><ele>63.8</ele><time>2026-04-18T12:15:11.966Z</time></trkpt><trkpt lat="45.4431232" lon="10.992548"><ele>64.2</ele><time>2026-04-18T12:15:12.97Z</time></trkpt><trkpt lat="45.443184" lon="10.9925996"><ele>64.6</ele><time>2026-04-18T12:15:13.974Z</time></trkpt><trkpt lat="45.443184" lon="10.9925996"><ele>65.0</ele><time>2026-04-18T12:15:13.974Z</time></trkpt><trkpt lat="45.4434479" lon="10.9928926"><ele>65.0</ele><time>2026-04-18T12:15:22.969Z</time></trkpt><trkpt lat="45.4433804" lon="10.9929396"><ele>65.0</ele><time>2026-04-18T12:15:23.977Z</time></trkpt><trkpt lat="45.4433109" lon="10.9929919"><ele>65.0</ele><time>2026-04-18T12:15:24.979Z</time></trkpt><trkpt lat="45.4432421" lon="10.9930038"><ele>65.0</ele><time>2026-04-18T12:15:25.974Z</time></trkpt><trkpt lat="45.4431406" lon="10.9931022"><ele>65.0</ele><time>2026-04-18T12:15:27.984Z</time></trkpt><trkpt lat="45.4430831" lon="10.993182"><ele>65.0</ele><time>2026-04-18T12:15:28.984Z</time></trkpt><trkpt lat="45.4430266" lon="10.9932498"><ele>65.0</ele><time>2026-04-18T12:15:29.99Z</time></trkpt><trkpt lat="45.4429744" lon="10.9933079"><ele>65.0</ele><time>2026-04-18T12:15:30.982Z</time></trkpt><trkpt lat="45.4429052" lon="10.9934145"><ele>65.0</ele><time>2026-04-18T12:15:32.995Z</time></trkpt><trkpt lat="45.4428189" lon="10.9934558"><ele>65.0</ele><time>2026-04-18T12:15:34.986Z</time></trkpt><trkpt lat="45.442713" lon="10.9935445"><ele>65.0</ele><time>2026-04-18T12:15:36.975Z</time></trkpt><trkpt lat="45.4426625" lon="10.9936073"><ele>65.0</ele><time>2026-04-18T12:15:37.973Z</time></trkpt><trkpt lat="45.442603" lon="10.9936791"><ele>65.8</ele><time>2026-04-18T12:15:38.973Z</time></trkpt><trkpt lat="45.4425081" lon="10.9937561"><ele>66.6</ele><time>2026-04-18T12:15:39.977Z</time></trkpt><trkpt lat="45.4424161" lon="10.9938315"><ele>67.4</ele><time>2026-04-18T12:15:40.976Z</time></trkpt><trkpt lat="45.4423409" lon="10.9939018"><ele>68.2</ele><time>2026-04-18T12:15:41.986Z</time></trkpt><trkpt lat="45.4422584" lon="10.9939588"><ele>69.0</ele><time>2026-04-18T12:15:42.992Z</time></trkpt><trkpt lat="45.4421948" lon="10.9939862"><ele>69.0</ele><time>2026-04-18T12:15:43.993Z</time></trkpt><trkpt lat="45.4421365" lon="10.994026"><ele>69.0</ele><time>2026-04-18T12:15:44.99Z</time></trkpt><trkpt lat="45.4420532" lon="10.9940784"><ele>69.0</ele><time>2026-04-18T12:15:45.994Z</time></trkpt><trkpt lat="45.4419796" lon="10.9941314"><ele>69.0</ele><time>2026-04-18T12:15:46.984Z</time></trkpt><trkpt lat="45.4418989" lon="10.9941715"><ele>69.0</ele><time>2026-04-18T12:15:47.988Z</time></trkpt><trkpt lat="45.4418123" lon="10.9942281"><ele>69.0</ele><time>2026-04-18T12:15:48.988Z</time></trkpt><trkpt lat="45.4417364" lon="10.9942872"><ele>69.16666666666667</ele><time>2026-04-18T12:15:49.984Z</time></trkpt><trkpt lat="45.441654" lon="10.9943485"><ele>69.33333333333333</ele><time>2026-04-18T12:15:50.985Z</time></trkpt><trkpt lat="45.4415785" lon="10.9944144"><ele>69.5</ele><time>2026-04-18T12:15:51.988Z</time></trkpt><trkpt lat="45.4414998" lon="10.9944584"><ele>69.66666666666666</ele><time>2026-04-18T12:15:52.984Z</time></trkpt><trkpt lat="45.4414202" lon="10.9945229"><ele>69.83333333333333</ele><time>2026-04-18T12:15:53.989Z</time></trkpt><trkpt lat="45.4413491" lon="10.9945994"><ele>70.0</ele><time>2026-04-18T12:15:54.991Z</time></trkpt><trkpt lat="45.4412914" lon="10.994677"><ele>69.66666666666666</ele><time>2026-04-18T12:15:55.986Z</time></trkpt><trkpt lat="45.4412359" lon="10.9947548"><ele>69.33333333333333</ele><time>2026-04-18T12:15:56.987Z</time></trkpt><trkpt lat="45.4411777" lon="10.9948221"><ele>69.0</ele><time>2026-04-18T12:15:57.993Z</time></trkpt><trkpt lat="45.4411273" lon="10.9948829"><ele>68.66666666666667</ele><time>2026-04-18T12:15:58.986Z</time></trkpt><trkpt lat="45.4410695" lon="10.9949449"><ele>68.33333333333334</ele><time>2026-04-18T12:15:59.996Z</time></trkpt><trkpt lat="45.441021" lon="10.9950077"><ele>68.0</ele><time>2026-04-18T12:16:00.977Z</time></trkpt><trkpt lat="45.4409537" lon="10.99512"><ele>68.0</ele><time>2026-04-18T12:16:02.966Z</time></trkpt><trkpt lat="45.4408923" lon="10.995205"><ele>68.0</ele><time>2026-04-18T12:16:04.981Z</time></trkpt><trkpt lat="45.4408584" lon="10.9953056"><ele>68.0</ele><time>2026-04-18T12:16:06.993Z</time></trkpt><trkpt lat="45.4407761" lon="10.9954085"><ele>68.0</ele><time>2026-04-18T12:16:09.98Z</time></trkpt><trkpt lat="45.4406945" lon="10.9955053"><ele>68.0</ele><time>2026-04-18T12:16:11.98Z</time></trkpt><trkpt lat="45.4405834" lon="10.9956206"><ele>68.0</ele><time>2026-04-18T12:16:13.983Z</time></trkpt><trkpt lat="45.4405038" lon="10.9956927"><ele>68.0</ele><time>2026-04-18T12:16:14.985Z</time></trkpt><trkpt lat="45.4404285" lon="10.99579"><ele>68.0</ele><time>2026-04-18T12:16:16.974Z</time></trkpt><trkpt lat="45.4403714" lon="10.9958421"><ele>68.0</ele><time>2026-04-18T12:16:17.985Z</time></trkpt><trkpt lat="45.4402714" lon="10.9958771"><ele>68.0</ele><time>2026-04-18T12:16:20.999Z</time></trkpt><trkpt lat="45.4402076" lon="10.9959019"><ele>68.0</ele><time>2026-04-18T12:16:22Z</time></trkpt><trkpt lat="45.4401027" lon="10.9959421"><ele>67.83333333333334</ele><time>2026-04-18T12:16:24.005Z</time></trkpt><trkpt lat="45.4400094" lon="10.9959913"><ele>67.66666666666667</ele><time>2026-04-18T12:16:26.004Z</time></trkpt><trkpt lat="45.4399364" lon="10.9960316"><ele>67.5</ele><time>2026-04-18T12:16:27.998Z</time></trkpt><trkpt lat="45.4398635" lon="10.9960364"><ele>67.33333333333333</ele><time>2026-04-18T12:16:30.007Z</time></trkpt><trkpt lat="45.4398154" lon="10.9959755"><ele>67.16666666666666</ele><time>2026-04-18T12:16:32.996Z</time></trkpt><trkpt lat="45.4397326" lon="10.9960104"><ele>67.0</ele><time>2026-04-18T12:16:35.984Z</time></trkpt><trkpt lat="45.4396277" lon="10.9961105"><ele>66.75</ele><time>2026-04-18T12:16:37.988Z</time></trkpt><trkpt lat="45.4395412" lon="10.9961778"><ele>66.5</ele><time>2026-04-18T12:16:39.983Z</time></trkpt><trkpt lat="45.439449" lon="10.9962724"><ele>66.25</ele><time>2026-04-18T12:16:41.99Z</time></trkpt><trkpt lat="45.4393576" lon="10.9963629"><ele>66.0</ele><time>2026-04-18T12:16:43.995Z</time></trkpt><trkpt lat="45.4392661" lon="10.9965102"><ele>66.0</ele><time>2026-04-18T12:17:10.993Z</time></trkpt><trkpt lat="45.4391884" lon="10.9966217"><ele>66.0</ele><time>2026-04-18T12:17:11.989Z</time></trkpt><trkpt lat="45.4390873" lon="10.9966983"><ele>66.0</ele><time>2026-04-18T12:17:12.992Z</time></trkpt><trkpt lat="45.4389815" lon="10.9967422"><ele>66.0</ele><time>2026-04-18T12:17:13.986Z</time></trkpt><trkpt lat="45.4389044" lon="10.996773"><ele>66.0</ele><time>2026-04-18T12:17:14.987Z</time></trkpt><trkpt lat="45.438852" lon="10.9968446"><ele>65.5</ele><time>2026-04-18T12:17:16.997Z</time></trkpt><trkpt lat="45.4387834" lon="10.9966796"><ele>65.0</ele><time>2026-04-18T12:17:21.991Z</time></trkpt><trkpt lat="45.4387524" lon="10.9965347"><ele>64.5</ele><time>2026-04-18T12:17:22.997Z</time></trkpt><trkpt lat="45.4387233" lon="10.9963665"><ele>64.0</ele><time>2026-04-18T12:17:23.996Z</time></trkpt><trkpt lat="45.4386518" lon="10.9962636"><ele>64.0</ele><time>2026-04-18T12:17:25.987Z</time></trkpt><trkpt lat="45.4385395" lon="10.9962912"><ele>64.0</ele><time>2026-04-18T12:17:28.986Z</time></trkpt><trkpt lat="45.438445" lon="10.9963661"><ele>64.0</ele><time>2026-04-18T12:17:30.995Z</time></trkpt><trkpt lat="45.4383779" lon="10.9964131"><ele>64.0</ele><time>2026-04-18T12:17:31.988Z</time></trkpt><trkpt lat="45.4383241" lon="10.9964706"><ele>64.0</ele><time>2026-04-18T12:17:32.996Z</time></trkpt><trkpt lat="45.4382324" lon="10.9965854"><ele>63.6</ele><time>2026-04-18T12:17:34.993Z</time></trkpt><trkpt lat="45.438134" lon="10.9966757"><ele>63.2</ele><time>2026-04-18T12:17:37.003Z</time></trkpt><trkpt lat="45.438039" lon="10.9967559"><ele>62.800000000000004</ele><time>2026-04-18T12:17:38.985Z</time></trkpt><trkpt lat="45.4379692" lon="10.9968193"><ele>62.400000000000006</ele><time>2026-04-18T12:17:40.983Z</time></trkpt><trkpt lat="45.4378933" lon="10.9968877"><ele>62.0</ele><time>2026-04-18T12:17:42.989Z</time></trkpt><trkpt lat="45.4378097" lon="10.9969116"><ele>62.0</ele><time>2026-04-18T12:17:45.005Z</time></trkpt><trkpt lat="45.4378202" lon="10.9970027"><ele>62.0</ele><time>2026-04-18T12:17:57.011Z</time></trkpt><trkpt lat="45.437883" lon="10.9971149"><ele>62.0</ele><time>2026-04-18T12:17:59.011Z</time></trkpt><trkpt lat="45.4379309" lon="10.9971996"><ele>62.0</ele><time>2026-04-18T12:18:00.015Z</time></trkpt><trkpt lat="45.4379813" lon="10.9973113"><ele>62.0</ele><time>2026-04-18T12:18:01.011Z</time></trkpt><trkpt lat="45.4380451" lon="10.9974595"><ele>61.75</ele><time>2026-04-18T12:18:02.004Z</time></trkpt><trkpt lat="45.4381101" lon="10.9976072"><ele>61.5</ele><time>2026-04-18T12:18:03.014Z</time></trkpt><trkpt lat="45.4381714" lon="10.9977501"><ele>61.25</ele><time>2026-04-18T12:18:04.001Z</time></trkpt><trkpt lat="45.4382389" lon="10.9978985"><ele>61.0</ele><time>2026-04-18T12:18:05.002Z</time></trkpt><trkpt lat="45.4383198" lon="10.9980547"><ele>61.0</ele><time>2026-04-18T12:18:06.005Z</time></trkpt><trkpt lat="45.4384041" lon="10.9982092"><ele>61.0</ele><time>2026-04-18T12:18:07.004Z</time></trkpt><trkpt lat="45.4384888" lon="10.9983757"><ele>61.0</ele><time>2026-04-18T12:18:08.022Z</time></trkpt><trkpt lat="45.4385809" lon="10.9985482"><ele>61.0</ele><time>2026-04-18T12:18:09Z</time></trkpt><trkpt lat="45.4386686" lon="10.9987326"><ele>61.33333333333333</ele><time>2026-04-18T12:18:10.007Z</time></trkpt><trkpt lat="45.4387669" lon="10.9989086"><ele>61.66666666666667</ele><time>2026-04-18T12:18:11.007Z</time></trkpt><trkpt lat="45.4388637" lon="10.9990954"><ele>62.0</ele><time>2026-04-18T12:18:12.007Z</time></trkpt><trkpt lat="45.4389631" lon="10.9992815"><ele>62.0</ele><time>2026-04-18T12:18:13.013Z</time></trkpt><trkpt lat="45.4390673" lon="10.9994402"><ele>62.0</ele><time>2026-04-18T12:18:14.015Z</time></trkpt><trkpt lat="45.4391827" lon="10.9995777"><ele>62.0</ele><time>2026-04-18T12:18:15.011Z</time></trkpt><trkpt lat="45.439292" lon="10.9997193"><ele>62.0</ele><time>2026-04-18T12:18:16.009Z</time></trkpt><trkpt lat="45.4393961" lon="10.9998437"><ele>62.0</ele><time>2026-04-18T12:18:17.009Z</time></trkpt><trkpt lat="45.4394942" lon="10.9999528"><ele>62.0</ele><time>2026-04-18T12:18:18.009Z</time></trkpt><trkpt lat="45.4395503" lon="11.0000888"><ele>62.0</ele><time>2026-04-18T12:18:19.006Z</time></trkpt><trkpt lat="45.4395931" lon="11.0002206"><ele>62.0</ele><time>2026-04-18T12:18:20.006Z</time></trkpt><trkpt lat="45.4396079" lon="11.0004788"><ele>62.0</ele><time>2026-04-18T12:18:22.006Z</time></trkpt><trkpt lat="45.4395783" lon="11.0005843"><ele>62.0</ele><time>2026-04-18T12:18:23.009Z</time></trkpt><trkpt lat="45.4395186" lon="11.0006641"><ele>62.0</ele><time>2026-04-18T12:18:24.008Z</time></trkpt><trkpt lat="45.439447" lon="11.0007088"><ele>62.0</ele><time>2026-04-18T12:18:25.006Z</time></trkpt><trkpt lat="45.4393688" lon="11.0007412"><ele>62.0</ele><time>2026-04-18T12:18:26.009Z</time></trkpt><trkpt lat="45.4392947" lon="11.0007772"><ele>62.0</ele><time>2026-04-18T12:18:27.013Z</time></trkpt><trkpt lat="45.4392112" lon="11.0007932"><ele>62.0</ele><time>2026-04-18T12:18:28.015Z</time></trkpt><trkpt lat="45.4391203" lon="11.000791"><ele>62.0</ele><time>2026-04-18T12:18:29.014Z</time></trkpt><trkpt lat="45.4390303" lon="11.0007637"><ele>62.0</ele><time>2026-04-18T12:18:30.024Z</time></trkpt><trkpt lat="45.4389289" lon="11.0007281"><ele>62.0</ele><time>2026-04-18T12:18:31.018Z</time></trkpt><trkpt lat="45.4388137" lon="11.0006786"><ele>62.0</ele><time>2026-04-18T12:18:32.014Z</time></trkpt><trkpt lat="45.4385899" lon="11.0005424"><ele>62.0</ele><time>2026-04-18T12:18:34.005Z</time></trkpt><trkpt lat="45.4384643" lon="11.0004609"><ele>61.25</ele><time>2026-04-18T12:18:35.012Z</time></trkpt><trkpt lat="45.4383493" lon="11.0004043"><ele>60.5</ele><time>2026-04-18T12:18:36.011Z</time></trkpt><trkpt lat="45.4382355" lon="11.0003533"><ele>59.75</ele><time>2026-04-18T12:18:37.006Z</time></trkpt><trkpt lat="45.4381163" lon="11.0002962"><ele>59.0</ele><time>2026-04-18T12:18:38.009Z</time></trkpt><trkpt lat="45.4380065" lon="11.0002333"><ele>58.66666666666667</ele><time>2026-04-18T12:18:39.03Z</time></trkpt><trkpt lat="45.4379055" lon="11.0001709"><ele>58.33333333333333</ele><time>2026-04-18T12:18:40.002Z</time></trkpt><trkpt lat="45.4376678" lon="11.0000887"><ele>58.0</ele><time>2026-04-18T12:18:42Z</time></trkpt><trkpt lat="45.4375269" lon="11.0000498"><ele>58.0</ele><time>2026-04-18T12:18:43.004Z</time></trkpt><trkpt lat="45.4373843" lon="11.0000003"><ele>58.0</ele><time>2026-04-18T12:18:44.01Z</time></trkpt><trkpt lat="45.4372375" lon="10.9999356"><ele>58.0</ele><time>2026-04-18T12:18:45.005Z</time></trkpt><trkpt lat="45.4370824" lon="10.9998512"><ele>58.33333333333333</ele><time>2026-04-18T12:18:46.009Z</time></trkpt><trkpt lat="45.4369122" lon="10.9997845"><ele>58.66666666666667</ele><time>2026-04-18T12:18:47.008Z</time></trkpt><trkpt lat="45.4367567" lon="10.9997168"><ele>59.0</ele><time>2026-04-18T12:18:48.009Z</time></trkpt><trkpt lat="45.4366057" lon="10.9996665"><ele>59.0</ele><time>2026-04-18T12:18:49.014Z</time></trkpt><trkpt lat="45.4364767" lon="10.9996345"><ele>59.0</ele><time>2026-04-18T12:18:50.009Z</time></trkpt><trkpt lat="45.4363572" lon="10.99959"><ele>59.0</ele><time>2026-04-18T12:18:51.004Z</time></trkpt><trkpt lat="45.4362502" lon="10.9995019"><ele>59.0</ele><time>2026-04-18T12:18:52.014Z</time></trkpt><trkpt lat="45.436125" lon="10.9994758"><ele>58.25</ele><time>2026-04-18T12:18:53.007Z</time></trkpt><trkpt lat="45.4360126" lon="10.9994365"><ele>57.5</ele><time>2026-04-18T12:18:54.011Z</time></trkpt><trkpt lat="45.4358798" lon="10.9993926"><ele>56.75</ele><time>2026-04-18T12:18:55.014Z</time></trkpt><trkpt lat="45.4357737" lon="10.9993546"><ele>56.0</ele><time>2026-04-18T12:18:56.011Z</time></trkpt><trkpt lat="45.4356562" lon="10.999317"><ele>56.00000000000001</ele><time>2026-04-18T12:18:57.019Z</time></trkpt><trkpt lat="45.4355622" lon="10.9992676"><ele>56.0</ele><time>2026-04-18T12:18:58.014Z</time></trkpt><trkpt lat="45.4354776" lon="10.9991923"><ele>56.0</ele><time>2026-04-18T12:18:59.018Z</time></trkpt><trkpt lat="45.4354209" lon="10.9990897"><ele>56.0</ele><time>2026-04-18T12:19:00.025Z</time></trkpt><trkpt lat="45.4353971" lon="10.9989889"><ele>56.00000000000001</ele><time>2026-04-18T12:19:01Z</time></trkpt><trkpt lat="45.4353926" lon="10.9988756"><ele>56.0</ele><time>2026-04-18T12:19:02.008Z</time></trkpt><trkpt lat="45.4354178" lon="10.9986084"><ele>56.0</ele><time>2026-04-18T12:19:04.013Z</time></trkpt><trkpt lat="45.4354411" lon="10.998427"><ele>56.0</ele><time>2026-04-18T12:19:05.009Z</time></trkpt><trkpt lat="45.4355652" lon="10.9979737"><ele>56.25</ele><time>2026-04-18T12:19:07.003Z</time></trkpt><trkpt lat="45.4356408" lon="10.997724"><ele>56.5</ele><time>2026-04-18T12:19:08.017Z</time></trkpt><trkpt lat="45.4357096" lon="10.997527"><ele>56.75</ele><time>2026-04-18T12:19:09.014Z</time></trkpt><trkpt lat="45.4357366" lon="10.9974085"><ele>57.0</ele><time>2026-04-18T12:19:10.029Z</time></trkpt><trkpt lat="45.4357853" lon="10.9972729"><ele>57.0</ele><time>2026-04-18T12:19:12.011Z</time></trkpt><trkpt lat="45.4357829" lon="10.9971186"><ele>57.0</ele><time>2026-04-18T12:20:14.049Z</time></trkpt><trkpt lat="45.435761" lon="10.9970294"><ele>57.0</ele><time>2026-04-18T12:20:15.056Z</time></trkpt><trkpt lat="45.4357008" lon="10.9969531"><ele>57.0</ele><time>2026-04-18T12:20:16.046Z</time></trkpt><trkpt lat="45.4355042" lon="10.9968026"><ele>56.33333333333333</ele><time>2026-04-18T12:20:18.049Z</time></trkpt><trkpt lat="45.4353722" lon="10.9967428"><ele>55.666666666666664</ele><time>2026-04-18T12:20:19.047Z</time></trkpt><trkpt lat="45.435217" lon="10.9966827"><ele>55.0</ele><time>2026-04-18T12:20:20.049Z</time></trkpt><trkpt lat="45.4350317" lon="10.9966228"><ele>56.33333333333333</ele><time>2026-04-18T12:20:21.04Z</time></trkpt><trkpt lat="45.4348371" lon="10.9965847"><ele>57.66666666666667</ele><time>2026-04-18T12:20:22.035Z</time></trkpt><trkpt lat="45.4346709" lon="10.9965454"><ele>59.0</ele><time>2026-04-18T12:20:23.045Z</time></trkpt><trkpt lat="45.4345151" lon="10.9965127"><ele>59.0</ele><time>2026-04-18T12:20:24.044Z</time></trkpt><trkpt lat="45.4343682" lon="10.9964773"><ele>59.0</ele><time>2026-04-18T12:20:25.044Z</time></trkpt><trkpt lat="45.4342116" lon="10.996438"><ele>59.0</ele><time>2026-04-18T12:20:26.049Z</time></trkpt><trkpt lat="45.4340668" lon="10.9963971"><ele>59.0</ele><time>2026-04-18T12:20:27.045Z</time></trkpt><trkpt lat="45.4339326" lon="10.9963496"><ele>59.0</ele><time>2026-04-18T12:20:28.044Z</time></trkpt><trkpt lat="45.4338004" lon="10.996308"><ele>59.0</ele><time>2026-04-18T12:20:29.044Z</time></trkpt><trkpt lat="45.4336624" lon="10.99626"><ele>59.0</ele><time>2026-04-18T12:20:30.051Z</time></trkpt><trkpt lat="45.4335348" lon="10.9962304"><ele>59.0</ele><time>2026-04-18T12:20:31.055Z</time></trkpt><trkpt lat="45.4334194" lon="10.9961844"><ele>59.0</ele><time>2026-04-18T12:20:32.047Z</time></trkpt><trkpt lat="45.433289" lon="10.9961616"><ele>59.0</ele><time>2026-04-18T12:20:33.042Z</time></trkpt><trkpt lat="45.4331781" lon="10.9961357"><ele>59.0</ele><time>2026-04-18T12:20:34.044Z</time></trkpt><trkpt lat="45.4330538" lon="10.9961046"><ele>59.5</ele><time>2026-04-18T12:20:35.045Z</time></trkpt><trkpt lat="45.4329317" lon="10.9960542"><ele>60.0</ele><time>2026-04-18T12:20:36.046Z</time></trkpt><trkpt lat="45.4327956" lon="10.9960015"><ele>60.5</ele><time>2026-04-18T12:20:37.047Z</time></trkpt><trkpt lat="45.4326515" lon="10.9959347"><ele>61.0</ele><time>2026-04-18T12:20:38.048Z</time></trkpt><trkpt lat="45.4324976" lon="10.9958553"><ele>60.0</ele><time>2026-04-18T12:20:39.042Z</time></trkpt><trkpt lat="45.4323413" lon="10.9957455"><ele>59.0</ele><time>2026-04-18T12:20:40.041Z</time></trkpt><trkpt lat="45.4321795" lon="10.9956246"><ele>58.0</ele><time>2026-04-18T12:20:41.04Z</time></trkpt><trkpt lat="45.4320022" lon="10.9954989"><ele>58.0</ele><time>2026-04-18T12:20:42.04Z</time></trkpt><trkpt lat="45.4318203" lon="10.9953825"><ele>58.0</ele><time>2026-04-18T12:20:43.053Z</time></trkpt><trkpt lat="45.4316201" lon="10.9952608"><ele>58.0</ele><time>2026-04-18T12:20:44.046Z</time></trkpt><trkpt lat="45.431425" lon="10.9951906"><ele>57.33333333333333</ele><time>2026-04-18T12:20:45.043Z</time></trkpt><trkpt lat="45.43126" lon="10.9950862"><ele>56.66666666666667</ele><time>2026-04-18T12:20:46.045Z</time></trkpt><trkpt lat="45.4310959" lon="10.9949746"><ele>56.0</ele><time>2026-04-18T12:20:47.048Z</time></trkpt><trkpt lat="45.4309587" lon="10.9948586"><ele>56.0</ele><time>2026-04-18T12:20:48.051Z</time></trkpt><trkpt lat="45.4308481" lon="10.9947662"><ele>56.0</ele><time>2026-04-18T12:20:49.048Z</time></trkpt><trkpt lat="45.4307333" lon="10.9946834"><ele>56.0</ele><time>2026-04-18T12:20:50.052Z</time></trkpt><trkpt lat="45.4306228" lon="10.9946237"><ele>56.0</ele><time>2026-04-18T12:20:51.052Z</time></trkpt><trkpt lat="45.4305456" lon="10.9945535"><ele>56.00000000000001</ele><time>2026-04-18T12:20:52.054Z</time></trkpt><trkpt lat="45.4304763" lon="10.9944732"><ele>56.0</ele><time>2026-04-18T12:20:53.063Z</time></trkpt><trkpt lat="45.4304194" lon="10.9944318"><ele>56.0</ele><time>2026-04-18T12:20:54.065Z</time></trkpt><trkpt lat="45.4303524" lon="10.9943786"><ele>56.0</ele><time>2026-04-18T12:20:56.058Z</time></trkpt><trkpt lat="45.4302686" lon="10.9942906"><ele>56.00000000000001</ele><time>2026-04-18T12:21:34.083Z</time></trkpt><trkpt lat="45.4301737" lon="10.9942214"><ele>56.0</ele><time>2026-04-18T12:21:35.082Z</time></trkpt><trkpt lat="45.430047" lon="10.99414"><ele>56.66666666666667</ele><time>2026-04-18T12:21:36.075Z</time></trkpt><trkpt lat="45.4299058" lon="10.9940715"><ele>57.33333333333333</ele><time>2026-04-18T12:21:37.076Z</time></trkpt><trkpt lat="45.4297408" lon="10.9940228"><ele>58.0</ele><time>2026-04-18T12:21:38.076Z</time></trkpt><trkpt lat="45.429554" lon="10.9939945"><ele>58.0</ele><time>2026-04-18T12:21:39.081Z</time></trkpt><trkpt lat="45.429338" lon="10.9940153"><ele>58.0</ele><time>2026-04-18T12:21:40.075Z</time></trkpt><trkpt lat="45.4291354" lon="10.9940194"><ele>58.0</ele><time>2026-04-18T12:21:41.082Z</time></trkpt><trkpt lat="45.4289296" lon="10.9940365"><ele>57.0</ele><time>2026-04-18T12:21:42.075Z</time></trkpt><trkpt lat="45.4287287" lon="10.9940418"><ele>56.0</ele><time>2026-04-18T12:21:43.072Z</time></trkpt><trkpt lat="45.4285494" lon="10.9940389"><ele>55.0</ele><time>2026-04-18T12:21:44.066Z</time></trkpt><trkpt lat="45.4284015" lon="10.994039"><ele>55.0</ele><time>2026-04-18T12:21:45.09Z</time></trkpt><trkpt lat="45.4282774" lon="10.9940206"><ele>55.0</ele><time>2026-04-18T12:21:46.076Z</time></trkpt><trkpt lat="45.4281503" lon="10.9939754"><ele>55.0</ele><time>2026-04-18T12:21:47.078Z</time></trkpt><trkpt lat="45.428028" lon="10.9938862"><ele>55.0</ele><time>2026-04-18T12:21:48.08Z</time></trkpt><trkpt lat="45.4278114" lon="10.9937021"><ele>54.4</ele><time>2026-04-18T12:21:50.071Z</time></trkpt><trkpt lat="45.4277141" lon="10.9936169"><ele>53.8</ele><time>2026-04-18T12:21:51.068Z</time></trkpt><trkpt lat="45.4276614" lon="10.9935188"><ele>53.2</ele><time>2026-04-18T12:21:52.068Z</time></trkpt><trkpt lat="45.427595" lon="10.9934091"><ele>52.6</ele><time>2026-04-18T12:21:54.075Z</time></trkpt><trkpt lat="45.4275105" lon="10.9933821"><ele>52.0</ele><time>2026-04-18T12:21:56.081Z</time></trkpt><trkpt lat="45.4274548" lon="10.993511"><ele>51.99999999999999</ele><time>2026-04-18T12:21:58.07Z</time></trkpt><trkpt lat="45.4274957" lon="10.9936495"><ele>52.0</ele><time>2026-04-18T12:22:00.084Z</time></trkpt><trkpt lat="45.4275695" lon="10.9937453"><ele>52.0</ele><time>2026-04-18T12:22:01.081Z</time></trkpt><trkpt lat="45.4276441" lon="10.9938276"><ele>52.0</ele><time>2026-04-18T12:22:02.077Z</time></trkpt><trkpt lat="45.4276945" lon="10.9938926"><ele>51.99999999999999</ele><time>2026-04-18T12:22:03.068Z</time></trkpt><trkpt lat="45.4276908" lon="10.9939951"><ele>52.0</ele><time>2026-04-18T12:22:05.063Z</time></trkpt><trkpt lat="45.4275864" lon="10.9940185"><ele>52.0</ele><time>2026-04-18T12:22:07.063Z</time></trkpt><trkpt lat="45.4274935" lon="10.9940114"><ele>52.0</ele><time>2026-04-18T12:22:08.071Z</time></trkpt><trkpt lat="45.4273834" lon="10.9939898"><ele>52.0</ele><time>2026-04-18T12:22:09.071Z</time></trkpt><trkpt lat="45.4272695" lon="10.993963"><ele>52.0</ele><time>2026-04-18T12:22:10.067Z</time></trkpt><trkpt lat="45.427151" lon="10.9939312"><ele>52.0</ele><time>2026-04-18T12:22:11.067Z</time></trkpt><trkpt lat="45.4270253" lon="10.9938983"><ele>51.5</ele><time>2026-04-18T12:22:12.07Z</time></trkpt><trkpt lat="45.4267628" lon="10.9938546"><ele>51.0</ele><time>2026-04-18T12:22:14.077Z</time></trkpt><trkpt lat="45.4265354" lon="10.9938527"><ele>51.0</ele><time>2026-04-18T12:22:16.09Z</time></trkpt><trkpt lat="45.4264375" lon="10.9938575"><ele>51.0</ele><time>2026-04-18T12:22:17.076Z</time></trkpt><trkpt lat="45.4263469" lon="10.9938591"><ele>51.0</ele><time>2026-04-18T12:22:18.075Z</time></trkpt><trkpt lat="45.4262652" lon="10.9938701"><ele>51.0</ele><time>2026-04-18T12:22:19.086Z</time></trkpt><trkpt lat="45.4261814" lon="10.9938787"><ele>51.0</ele><time>2026-04-18T12:22:20.081Z</time></trkpt><trkpt lat="45.4260954" lon="10.993894"><ele>51.0</ele><time>2026-04-18T12:22:21.085Z</time></trkpt><trkpt lat="45.4260089" lon="10.9939123"><ele>50.75</ele><time>2026-04-18T12:22:22.08Z</time></trkpt><trkpt lat="45.4259165" lon="10.9939309"><ele>50.5</ele><time>2026-04-18T12:22:23.082Z</time></trkpt><trkpt lat="45.4258041" lon="10.9939605"><ele>50.25</ele><time>2026-04-18T12:22:24.082Z</time></trkpt><trkpt lat="45.4256701" lon="10.9940037"><ele>50.0</ele><time>2026-04-18T12:22:25.08Z</time></trkpt><trkpt lat="45.4255448" lon="10.9940483"><ele>50.25</ele><time>2026-04-18T12:22:26.083Z</time></trkpt><trkpt lat="45.4254286" lon="10.9940989"><ele>50.5</ele><time>2026-04-18T12:22:27.074Z</time></trkpt><trkpt lat="45.4253279" lon="10.9941477"><ele>50.75</ele><time>2026-04-18T12:22:28.076Z</time></trkpt><trkpt lat="45.4251226" lon="10.9942449"><ele>51.0</ele><time>2026-04-18T12:22:30.081Z</time></trkpt><trkpt lat="45.425016" lon="10.9943069"><ele>51.0</ele><time>2026-04-18T12:22:31.08Z</time></trkpt><trkpt lat="45.4249047" lon="10.9943748"><ele>51.0</ele><time>2026-04-18T12:22:32.088Z</time></trkpt><trkpt lat="45.4247875" lon="10.9944423"><ele>51.0</ele><time>2026-04-18T12:22:33.084Z</time></trkpt><trkpt lat="45.4246712" lon="10.994507"><ele>51.0</ele><time>2026-04-18T12:22:34.083Z</time></trkpt><trkpt lat="45.4245629" lon="10.994573"><ele>50.75</ele><time>2026-04-18T12:22:35.08Z</time></trkpt><trkpt lat="45.424454" lon="10.9946397"><ele>50.5</ele><time>2026-04-18T12:22:36.08Z</time></trkpt><trkpt lat="45.4243501" lon="10.994714"><ele>50.25</ele><time>2026-04-18T12:22:37.082Z</time></trkpt><trkpt lat="45.4242479" lon="10.9947924"><ele>50.0</ele><time>2026-04-18T12:22:38.081Z</time></trkpt><trkpt lat="45.4241432" lon="10.9948678"><ele>50.0</ele><time>2026-04-18T12:22:39.076Z</time></trkpt><trkpt lat="45.4240374" lon="10.9949458"><ele>50.0</ele><time>2026-04-18T12:22:40.079Z</time></trkpt><trkpt lat="45.423934" lon="10.9950264"><ele>50.0</ele><time>2026-04-18T12:22:41.076Z</time></trkpt><trkpt lat="45.4238283" lon="10.995105"><ele>50.0</ele><time>2026-04-18T12:22:42.076Z</time></trkpt><trkpt lat="45.4237317" lon="10.9951816"><ele>50.2</ele><time>2026-04-18T12:22:43.078Z</time></trkpt><trkpt lat="45.4236445" lon="10.9952539"><ele>50.4</ele><time>2026-04-18T12:22:44.076Z</time></trkpt><trkpt lat="45.4235628" lon="10.9953283"><ele>50.599999999999994</ele><time>2026-04-18T12:22:45.075Z</time></trkpt><trkpt lat="45.4234809" lon="10.9953947"><ele>50.8</ele><time>2026-04-18T12:22:46.081Z</time></trkpt><trkpt lat="45.4233986" lon="10.9954675"><ele>51.0</ele><time>2026-04-18T12:22:47.099Z</time></trkpt><trkpt lat="45.4233164" lon="10.9955377"><ele>51.0</ele><time>2026-04-18T12:22:48.085Z</time></trkpt><trkpt lat="45.4232382" lon="10.9956063"><ele>51.0</ele><time>2026-04-18T12:22:49.084Z</time></trkpt><trkpt lat="45.423166" lon="10.9956755"><ele>51.0</ele><time>2026-04-18T12:22:50.083Z</time></trkpt><trkpt lat="45.4230936" lon="10.9957568"><ele>51.0</ele><time>2026-04-18T12:22:51.08Z</time></trkpt><trkpt lat="45.4230265" lon="10.9958458"><ele>51.0</ele><time>2026-04-18T12:22:52.078Z</time></trkpt><trkpt lat="45.4229523" lon="10.9959369"><ele>50.4</ele><time>2026-04-18T12:22:53.081Z</time></trkpt><trkpt lat="45.4228644" lon="10.9960245"><ele>49.8</ele><time>2026-04-18T12:22:54.072Z</time></trkpt><trkpt lat="45.4227688" lon="10.9961119"><ele>49.199999999999996</ele><time>2026-04-18T12:22:55.075Z</time></trkpt><trkpt lat="45.4226733" lon="10.9961911"><ele>48.599999999999994</ele><time>2026-04-18T12:22:56.076Z</time></trkpt><trkpt lat="45.422577" lon="10.996278"><ele>48.0</ele><time>2026-04-18T12:22:57.072Z</time></trkpt><trkpt lat="45.4224816" lon="10.99637"><ele>48.0</ele><time>2026-04-18T12:22:58.072Z</time></trkpt><trkpt lat="45.4223814" lon="10.996461"><ele>48.0</ele><time>2026-04-18T12:22:59.077Z</time></trkpt><trkpt lat="45.4222845" lon="10.9965597"><ele>48.0</ele><time>2026-04-18T12:23:00.09Z</time></trkpt><trkpt lat="45.4221846" lon="10.9966611"><ele>48.0</ele><time>2026-04-18T12:23:01.078Z</time></trkpt><trkpt lat="45.4220818" lon="10.9967691"><ele>48.0</ele><time>2026-04-18T12:23:02.08Z</time></trkpt><trkpt lat="45.4219789" lon="10.9968838"><ele>48.0</ele><time>2026-04-18T12:23:03.074Z</time></trkpt><trkpt lat="45.4218762" lon="10.9970076"><ele>48.0</ele><time>2026-04-18T12:23:04.071Z</time></trkpt><trkpt lat="45.4217773" lon="10.9971418"><ele>48.0</ele><time>2026-04-18T12:23:05.073Z</time></trkpt><trkpt lat="45.4216784" lon="10.997281"><ele>48.0</ele><time>2026-04-18T12:23:06.071Z</time></trkpt><trkpt lat="45.421584" lon="10.997425"><ele>48.0</ele><time>2026-04-18T12:23:07.072Z</time></trkpt><trkpt lat="45.4214971" lon="10.9975868"><ele>48.0</ele><time>2026-04-18T12:23:08.072Z</time></trkpt><trkpt lat="45.421404" lon="10.9977457"><ele>48.0</ele><time>2026-04-18T12:23:09.072Z</time></trkpt><trkpt lat="45.42132" lon="10.9979106"><ele>49.33333333333333</ele><time>2026-04-18T12:23:10.065Z</time></trkpt><trkpt lat="45.421243" lon="10.9980858"><ele>50.666666666666664</ele><time>2026-04-18T12:23:11.067Z</time></trkpt><trkpt lat="45.4211644" lon="10.9982708"><ele>52.0</ele><time>2026-04-18T12:23:12.071Z</time></trkpt><trkpt lat="45.4210865" lon="10.9984822"><ele>52.666666666666664</ele><time>2026-04-18T12:23:13.066Z</time></trkpt><trkpt lat="45.4210015" lon="10.9986964"><ele>53.33333333333333</ele><time>2026-04-18T12:23:14.068Z</time></trkpt><trkpt lat="45.4209257" lon="10.9988916"><ele>54.0</ele><time>2026-04-18T12:23:15.058Z</time></trkpt><trkpt lat="45.420851" lon="10.999064"><ele>54.0</ele><time>2026-04-18T12:23:16.063Z</time></trkpt><trkpt lat="45.4207759" lon="10.9992344"><ele>54.0</ele><time>2026-04-18T12:23:17.061Z</time></trkpt><trkpt lat="45.4207149" lon="10.9994149"><ele>54.0</ele><time>2026-04-18T12:23:18.08Z</time></trkpt><trkpt lat="45.4206682" lon="10.999576"><ele>54.0</ele><time>2026-04-18T12:23:19.074Z</time></trkpt><trkpt lat="45.4206102" lon="10.9997018"><ele>54.0</ele><time>2026-04-18T12:23:20.069Z</time></trkpt><trkpt lat="45.4205364" lon="10.999816"><ele>54.0</ele><time>2026-04-18T12:23:21.076Z</time></trkpt><trkpt lat="45.420481" lon="10.9999528"><ele>54.0</ele><time>2026-04-18T12:23:22.076Z</time></trkpt><trkpt lat="45.4204031" lon="11.0001056"><ele>54.0</ele><time>2026-04-18T12:23:23.08Z</time></trkpt><trkpt lat="45.4203221" lon="11.0002602"><ele>53.5</ele><time>2026-04-18T12:23:24.076Z</time></trkpt><trkpt lat="45.4202327" lon="11.0004191"><ele>53.0</ele><time>2026-04-18T12:23:25.079Z</time></trkpt><trkpt lat="45.4201392" lon="11.0005763"><ele>52.5</ele><time>2026-04-18T12:23:26.075Z</time></trkpt><trkpt lat="45.420059" lon="11.0007183"><ele>52.0</ele><time>2026-04-18T12:23:27.073Z</time></trkpt><trkpt lat="45.4199919" lon="11.0008306"><ele>51.8</ele><time>2026-04-18T12:23:28.068Z</time></trkpt><trkpt lat="45.4199127" lon="11.000935"><ele>51.6</ele><time>2026-04-18T12:23:29.083Z</time></trkpt><trkpt lat="45.4198277" lon="11.0010153"><ele>51.4</ele><time>2026-04-18T12:23:30.095Z</time></trkpt><trkpt lat="45.4197332" lon="11.0010479"><ele>51.199999999999996</ele><time>2026-04-18T12:23:31.086Z</time></trkpt><trkpt lat="45.4196562" lon="11.001038"><ele>51.0</ele><time>2026-04-18T12:23:32.08Z</time></trkpt><trkpt lat="45.4195797" lon="11.0010079"><ele>51.0</ele><time>2026-04-18T12:23:33.078Z</time></trkpt><trkpt lat="45.4195031" lon="11.0009598"><ele>51.0</ele><time>2026-04-18T12:23:34.091Z</time></trkpt><trkpt lat="45.4194276" lon="11.0008587"><ele>51.0</ele><time>2026-04-18T12:23:35.082Z</time></trkpt><trkpt lat="45.4193628" lon="11.0007588"><ele>51.0</ele><time>2026-04-18T12:23:36.086Z</time></trkpt><trkpt lat="45.4193094" lon="11.0006825"><ele>51.0</ele><time>2026-04-18T12:23:37.09Z</time></trkpt><trkpt lat="45.4192229" lon="11.0006461"><ele>51.0</ele><time>2026-04-18T12:23:39.085Z</time></trkpt><trkpt lat="45.41915" lon="11.0007468"><ele>51.0</ele><time>2026-04-18T12:23:41.086Z</time></trkpt><trkpt lat="45.4190955" lon="11.0008515"><ele>51.0</ele><time>2026-04-18T12:23:42.084Z</time></trkpt><trkpt lat="45.4190369" lon="11.0009395"><ele>51.0</ele><time>2026-04-18T12:23:43.083Z</time></trkpt><trkpt lat="45.4189905" lon="11.0010224"><ele>51.0</ele><time>2026-04-18T12:23:44.085Z</time></trkpt><trkpt lat="45.4189808" lon="11.0012006"><ele>51.0</ele><time>2026-04-18T12:23:46.08Z</time></trkpt><trkpt lat="45.4190172" lon="11.0013284"><ele>51.0</ele><time>2026-04-18T12:23:47.084Z</time></trkpt><trkpt lat="45.4190605" lon="11.0014817"><ele>51.0</ele><time>2026-04-18T12:23:48.081Z</time></trkpt><trkpt lat="45.419106" lon="11.001662"><ele>51.0</ele><time>2026-04-18T12:23:49.117Z</time></trkpt><trkpt lat="45.4191556" lon="11.0018726"><ele>51.0</ele><time>2026-04-18T12:23:50.088Z</time></trkpt><trkpt lat="45.4192184" lon="11.0020958"><ele>50.75</ele><time>2026-04-18T12:23:51.079Z</time></trkpt><trkpt lat="45.4192647" lon="11.0022943"><ele>50.5</ele><time>2026-04-18T12:23:52.082Z</time></trkpt><trkpt lat="45.4192882" lon="11.0024628"><ele>50.25</ele><time>2026-04-18T12:23:53.078Z</time></trkpt><trkpt lat="45.4192916" lon="11.0026044"><ele>50.0</ele><time>2026-04-18T12:23:54.082Z</time></trkpt><trkpt lat="45.4192912" lon="11.0027377"><ele>50.0</ele><time>2026-04-18T12:23:55.074Z</time></trkpt><trkpt lat="45.4192852" lon="11.0029059"><ele>50.0</ele><time>2026-04-18T12:23:56.077Z</time></trkpt><trkpt lat="45.4192743" lon="11.003094"><ele>50.0</ele><time>2026-04-18T12:23:57.073Z</time></trkpt><trkpt lat="45.4192687" lon="11.0032998"><ele>50.0</ele><time>2026-04-18T12:23:58.078Z</time></trkpt><trkpt lat="45.4192682" lon="11.0035014"><ele>50.0</ele><time>2026-04-18T12:23:59.075Z</time></trkpt><trkpt lat="45.4192711" lon="11.0036816"><ele>50.0</ele><time>2026-04-18T12:24:00.081Z</time></trkpt><trkpt lat="45.419292" lon="11.0038644"><ele>50.0</ele><time>2026-04-18T12:24:01.083Z</time></trkpt><trkpt lat="45.4193214" lon="11.0040541"><ele>50.0</ele><time>2026-04-18T12:24:02.078Z</time></trkpt><trkpt lat="45.4193534" lon="11.0042343"><ele>50.0</ele><time>2026-04-18T12:24:03.077Z</time></trkpt><trkpt lat="45.4194097" lon="11.0044234"><ele>50.0</ele><time>2026-04-18T12:24:04.078Z</time></trkpt><trkpt lat="45.4194668" lon="11.0046042"><ele>50.0</ele><time>2026-04-18T12:24:05.08Z</time></trkpt><trkpt lat="45.419526" lon="11.0047913"><ele>50.0</ele><time>2026-04-18T12:24:06.08Z</time></trkpt><trkpt lat="45.4195824" lon="11.0049763"><ele>50.5</ele><time>2026-04-18T12:24:07.082Z</time></trkpt><trkpt lat="45.4196475" lon="11.0051567"><ele>51.0</ele><time>2026-04-18T12:24:08.084Z</time></trkpt><trkpt lat="45.4197078" lon="11.0053122"><ele>51.5</ele><time>2026-04-18T12:24:09.089Z</time></trkpt><trkpt lat="45.4197753" lon="11.0054741"><ele>52.0</ele><time>2026-04-18T12:24:10.079Z</time></trkpt><trkpt lat="45.4198493" lon="11.0056489"><ele>52.33333333333333</ele><time>2026-04-18T12:24:11.088Z</time></trkpt><trkpt lat="45.4199411" lon="11.0058174"><ele>52.66666666666667</ele><time>2026-04-18T12:24:12.093Z</time></trkpt><trkpt lat="45.4200453" lon="11.0059857"><ele>53.0</ele><time>2026-04-18T12:24:13.092Z</time></trkpt><trkpt lat="45.4201593" lon="11.0061493"><ele>53.0</ele><time>2026-04-18T12:24:14.091Z</time></trkpt><trkpt lat="45.4202841" lon="11.0063221"><ele>53.0</ele><time>2026-04-18T12:24:15.088Z</time></trkpt><trkpt lat="45.42041" lon="11.0064906"><ele>53.0</ele><time>2026-04-18T12:24:16.091Z</time></trkpt><trkpt lat="45.4205344" lon="11.0066606"><ele>53.5</ele><time>2026-04-18T12:24:17.092Z</time></trkpt><trkpt lat="45.4206627" lon="11.0068362"><ele>54.0</ele><time>2026-04-18T12:24:18.092Z</time></trkpt><trkpt lat="45.4209494" lon="11.0071799"><ele>54.0</ele><time>2026-04-18T12:24:20.088Z</time></trkpt><trkpt lat="45.421098" lon="11.0073392"><ele>54.0</ele><time>2026-04-18T12:24:21.083Z</time></trkpt><trkpt lat="45.4212317" lon="11.007494"><ele>54.0</ele><time>2026-04-18T12:24:22.08Z</time></trkpt><trkpt lat="45.4213716" lon="11.0076585"><ele>54.0</ele><time>2026-04-18T12:24:23.08Z</time></trkpt><trkpt lat="45.421518" lon="11.0078267"><ele>54.0</ele><time>2026-04-18T12:24:24.08Z</time></trkpt><trkpt lat="45.4216626" lon="11.0079842"><ele>54.0</ele><time>2026-04-18T12:24:25.072Z</time></trkpt><trkpt lat="45.4218247" lon="11.0081406"><ele>54.0</ele><time>2026-04-18T12:24:26.071Z</time></trkpt><trkpt lat="45.4219908" lon="11.0082845"><ele>54.0</ele><time>2026-04-18T12:24:27.07Z</time></trkpt><trkpt lat="45.4221466" lon="11.0084272"><ele>54.0</ele><time>2026-04-18T12:24:28.073Z</time></trkpt><trkpt lat="45.4223042" lon="11.0085447"><ele>54.5</ele><time>2026-04-18T12:24:29.072Z</time></trkpt><trkpt lat="45.4224373" lon="11.0086431"><ele>55.0</ele><time>2026-04-18T12:24:30.079Z</time></trkpt><trkpt lat="45.422566" lon="11.0087389"><ele>55.5</ele><time>2026-04-18T12:24:31.082Z</time></trkpt><trkpt lat="45.4226822" lon="11.008835"><ele>56.0</ele><time>2026-04-18T12:24:32.077Z</time></trkpt><trkpt lat="45.4227858" lon="11.0089101"><ele>56.00000000000001</ele><time>2026-04-18T12:24:33.083Z</time></trkpt><trkpt lat="45.422867" lon="11.0089653"><ele>56.0</ele><time>2026-04-18T12:24:34.078Z</time></trkpt><trkpt lat="45.4229419" lon="11.0090224"><ele>56.0</ele><time>2026-04-18T12:24:35.081Z</time></trkpt><trkpt lat="45.4230009" lon="11.0090592"><ele>56.0</ele><time>2026-04-18T12:24:36.085Z</time></trkpt><trkpt lat="45.4230842" lon="11.0091038"><ele>56.00000000000001</ele><time>2026-04-18T12:24:38.088Z</time></trkpt><trkpt lat="45.4231686" lon="11.0092095"><ele>56.0</ele><time>2026-04-18T12:24:46.082Z</time></trkpt><trkpt lat="45.4232312" lon="11.0092699"><ele>54.8</ele><time>2026-04-18T12:24:47.08Z</time></trkpt><trkpt lat="45.4232959" lon="11.0093389"><ele>53.599999999999994</ele><time>2026-04-18T12:24:48.079Z</time></trkpt><trkpt lat="45.4233727" lon="11.0094075"><ele>52.4</ele><time>2026-04-18T12:24:49.075Z</time></trkpt><trkpt lat="45.4234604" lon="11.0094781"><ele>51.2</ele><time>2026-04-18T12:24:50.092Z</time></trkpt><trkpt lat="45.4235641" lon="11.0095506"><ele>50.0</ele><time>2026-04-18T12:24:51.079Z</time></trkpt><trkpt lat="45.4236893" lon="11.0096236"><ele>50.0</ele><time>2026-04-18T12:24:52.077Z</time></trkpt><trkpt lat="45.4238294" lon="11.0096957"><ele>50.0</ele><time>2026-04-18T12:24:53.08Z</time></trkpt><trkpt lat="45.4239679" lon="11.0097528"><ele>50.0</ele><time>2026-04-18T12:24:54.077Z</time></trkpt><trkpt lat="45.4240866" lon="11.0098002"><ele>50.0</ele><time>2026-04-18T12:24:55.079Z</time></trkpt><trkpt lat="45.4241851" lon="11.0098418"><ele>50.0</ele><time>2026-04-18T12:24:56.083Z</time></trkpt><trkpt lat="45.4242581" lon="11.0098833"><ele>50.0</ele><time>2026-04-18T12:24:57.074Z</time></trkpt><trkpt lat="45.4243457" lon="11.0099548"><ele>50.0</ele><time>2026-04-18T12:24:59.075Z</time></trkpt><trkpt lat="45.4243196" lon="11.010046"><ele>50.0</ele><time>2026-04-18T12:25:03.085Z</time></trkpt><trkpt lat="45.424345" lon="11.0102369"><ele>50.0</ele><time>2026-04-18T12:25:05.087Z</time></trkpt><trkpt lat="45.4243734" lon="11.0103539"><ele>50.66666666666667</ele><time>2026-04-18T12:25:06.089Z</time></trkpt><trkpt lat="45.4244149" lon="11.0104819"><ele>51.33333333333333</ele><time>2026-04-18T12:25:07.09Z</time></trkpt><trkpt lat="45.4245195" lon="11.0108304"><ele>52.0</ele><time>2026-04-18T12:25:09.079Z</time></trkpt><trkpt lat="45.4245806" lon="11.0110384"><ele>51.33333333333333</ele><time>2026-04-18T12:25:10.077Z</time></trkpt><trkpt lat="45.4246648" lon="11.0113033"><ele>50.66666666666667</ele><time>2026-04-18T12:25:11.073Z</time></trkpt><trkpt lat="45.4247414" lon="11.0115398"><ele>50.0</ele><time>2026-04-18T12:25:12.072Z</time></trkpt><trkpt lat="45.4248025" lon="11.0117438"><ele>50.0</ele><time>2026-04-18T12:25:13.072Z</time></trkpt><trkpt lat="45.4248464" lon="11.0119538"><ele>50.0</ele><time>2026-04-18T12:25:14.072Z</time></trkpt><trkpt lat="45.4248773" lon="11.01214"><ele>50.0</ele><time>2026-04-18T12:25:15.08Z</time></trkpt><trkpt lat="45.4249092" lon="11.0122821"><ele>50.0</ele><time>2026-04-18T12:25:16.077Z</time></trkpt><trkpt lat="45.4249296" lon="11.0123783"><ele>49.66666666666667</ele><time>2026-04-18T12:25:17.081Z</time></trkpt><trkpt lat="45.4250034" lon="11.0125093"><ele>49.333333333333336</ele><time>2026-04-18T12:25:19.088Z</time></trkpt><trkpt lat="45.4250805" lon="11.0125885"><ele>49.0</ele><time>2026-04-18T12:25:21.098Z</time></trkpt><trkpt lat="45.4251434" lon="11.0126476"><ele>48.66666666666667</ele><time>2026-04-18T12:25:23.087Z</time></trkpt><trkpt lat="45.4252244" lon="11.0126869"><ele>48.333333333333336</ele><time>2026-04-18T12:25:39.079Z</time></trkpt><trkpt lat="45.4252835" lon="11.0126518"><ele>48.0</ele><time>2026-04-18T12:25:41.076Z</time></trkpt><trkpt lat="45.4253706" lon="11.0125491"><ele>48.0</ele><time>2026-04-18T12:25:43.077Z</time></trkpt><trkpt lat="45.4254484" lon="11.0124788"><ele>48.0</ele><time>2026-04-18T12:25:44.074Z</time></trkpt><trkpt lat="45.4255415" lon="11.0124083"><ele>48.0</ele><time>2026-04-18T12:25:45.091Z</time></trkpt><trkpt lat="45.4256586" lon="11.0123155"><ele>48.0</ele><time>2026-04-18T12:25:46.09Z</time></trkpt><trkpt lat="45.4257954" lon="11.0121962"><ele>48.0</ele><time>2026-04-18T12:25:47.087Z</time></trkpt><trkpt lat="45.4259478" lon="11.0120708"><ele>48.0</ele><time>2026-04-18T12:25:48.091Z</time></trkpt><trkpt lat="45.4261025" lon="11.0119473"><ele>48.0</ele><time>2026-04-18T12:25:49.093Z</time></trkpt><trkpt lat="45.4262446" lon="11.0118236"><ele>47.25</ele><time>2026-04-18T12:25:50.091Z</time></trkpt><trkpt lat="45.4263647" lon="11.0117221"><ele>46.5</ele><time>2026-04-18T12:25:51.091Z</time></trkpt><trkpt lat="45.4264665" lon="11.0116395"><ele>45.75</ele><time>2026-04-18T12:25:52.099Z</time></trkpt><trkpt lat="45.4265455" lon="11.0115801"><ele>45.0</ele><time>2026-04-18T12:25:53.09Z</time></trkpt><trkpt lat="45.4266369" lon="11.0115003"><ele>45.0</ele><time>2026-04-18T12:25:55.09Z</time></trkpt><trkpt lat="45.4267086" lon="11.011475"><ele>45.0</ele><time>2026-04-18T12:25:57.08Z</time></trkpt><trkpt lat="45.426777" lon="11.0115655"><ele>45.0</ele><time>2026-04-18T12:25:59.09Z</time></trkpt><trkpt lat="45.4268186" lon="11.0117075"><ele>45.0</ele><time>2026-04-18T12:26:00.103Z</time></trkpt><trkpt lat="45.4268597" lon="11.0118607"><ele>45.0</ele><time>2026-04-18T12:26:01.097Z</time></trkpt><trkpt lat="45.4269068" lon="11.0120258"><ele>45.0</ele><time>2026-04-18T12:26:02.087Z</time></trkpt><trkpt lat="45.4269555" lon="11.0121986"><ele>45.0</ele><time>2026-04-18T12:26:03.085Z</time></trkpt><trkpt lat="45.4270028" lon="11.0123785"><ele>45.0</ele><time>2026-04-18T12:26:04.083Z</time></trkpt><trkpt lat="45.42705" lon="11.0125593"><ele>45.0</ele><time>2026-04-18T12:26:05.089Z</time></trkpt><trkpt lat="45.4270902" lon="11.0127496"><ele>45.25</ele><time>2026-04-18T12:26:06.089Z</time></trkpt><trkpt lat="45.4271253" lon="11.0129362"><ele>45.5</ele><time>2026-04-18T12:26:07.091Z</time></trkpt><trkpt lat="45.427153" lon="11.0131264"><ele>45.75</ele><time>2026-04-18T12:26:08.094Z</time></trkpt><trkpt lat="45.4271757" lon="11.0133222"><ele>46.0</ele><time>2026-04-18T12:26:09.091Z</time></trkpt><trkpt lat="45.4271988" lon="11.0135148"><ele>46.0</ele><time>2026-04-18T12:26:10.091Z</time></trkpt><trkpt lat="45.4272142" lon="11.0137115"><ele>46.0</ele><time>2026-04-18T12:26:11.093Z</time></trkpt><trkpt lat="45.4272175" lon="11.0139247"><ele>46.0</ele><time>2026-04-18T12:26:12.092Z</time></trkpt><trkpt lat="45.4272153" lon="11.014134"><ele>46.0</ele><time>2026-04-18T12:26:13.093Z</time></trkpt><trkpt lat="45.4272102" lon="11.0143546"><ele>45.66666666666667</ele><time>2026-04-18T12:26:14.093Z</time></trkpt><trkpt lat="45.4271957" lon="11.0145935"><ele>45.333333333333336</ele><time>2026-04-18T12:26:15.091Z</time></trkpt><trkpt lat="45.4271727" lon="11.0148474"><ele>45.0</ele><time>2026-04-18T12:26:16.09Z</time></trkpt><trkpt lat="45.4271547" lon="11.0151137"><ele>45.666666666666664</ele><time>2026-04-18T12:26:17.099Z</time></trkpt><trkpt lat="45.4271508" lon="11.0153808"><ele>46.33333333333333</ele><time>2026-04-18T12:26:18.086Z</time></trkpt><trkpt lat="45.4271454" lon="11.0156249"><ele>47.0</ele><time>2026-04-18T12:26:19.094Z</time></trkpt><trkpt lat="45.4271403" lon="11.0158732"><ele>47.33333333333333</ele><time>2026-04-18T12:26:20.09Z</time></trkpt><trkpt lat="45.4271376" lon="11.0161245"><ele>47.666666666666664</ele><time>2026-04-18T12:26:21.093Z</time></trkpt><trkpt lat="45.4271371" lon="11.0163709"><ele>48.0</ele><time>2026-04-18T12:26:22.083Z</time></trkpt><trkpt lat="45.4271316" lon="11.0166225"><ele>48.0</ele><time>2026-04-18T12:26:23.097Z</time></trkpt><trkpt lat="45.4271201" lon="11.0168635"><ele>48.0</ele><time>2026-04-18T12:26:24.09Z</time></trkpt><trkpt lat="45.4271069" lon="11.0170935"><ele>48.0</ele><time>2026-04-18T12:26:25.093Z</time></trkpt><trkpt lat="45.4271012" lon="11.017337"><ele>47.666666666666664</ele><time>2026-04-18T12:26:26.102Z</time></trkpt><trkpt lat="45.4270929" lon="11.0175706"><ele>47.33333333333333</ele><time>2026-04-18T12:26:27.105Z</time></trkpt><trkpt lat="45.427078" lon="11.0178008"><ele>47.0</ele><time>2026-04-18T12:26:28.087Z</time></trkpt><trkpt lat="45.4270683" lon="11.0180443"><ele>47.0</ele><time>2026-04-18T12:26:29.11Z</time></trkpt><trkpt lat="45.4270698" lon="11.0182835"><ele>47.0</ele><time>2026-04-18T12:26:30.103Z</time></trkpt><trkpt lat="45.4270676" lon="11.0185277"><ele>47.0</ele><time>2026-04-18T12:26:31.103Z</time></trkpt><trkpt lat="45.427072" lon="11.0187731"><ele>47.0</ele><time>2026-04-18T12:26:32.1Z</time></trkpt><trkpt lat="45.4270744" lon="11.0190244"><ele>47.0</ele><time>2026-04-18T12:26:33.092Z</time></trkpt><trkpt lat="45.4270675" lon="11.0192796"><ele>47.0</ele><time>2026-04-18T12:26:34.089Z</time></trkpt><trkpt lat="45.4270638" lon="11.019539"><ele>47.0</ele><time>2026-04-18T12:26:35.091Z</time></trkpt><trkpt lat="45.427063" lon="11.0198003"><ele>47.0</ele><time>2026-04-18T12:26:36.094Z</time></trkpt><trkpt lat="45.4270594" lon="11.0200614"><ele>47.0</ele><time>2026-04-18T12:26:37.091Z</time></trkpt><trkpt lat="45.4270605" lon="11.0203212"><ele>47.0</ele><time>2026-04-18T12:26:38.087Z</time></trkpt><trkpt lat="45.4270573" lon="11.0205618"><ele>47.0</ele><time>2026-04-18T12:26:39.094Z</time></trkpt><trkpt lat="45.4270575" lon="11.0207762"><ele>47.0</ele><time>2026-04-18T12:26:40.095Z</time></trkpt><trkpt lat="45.4270567" lon="11.0209677"><ele>47.0</ele><time>2026-04-18T12:26:41.089Z</time></trkpt><trkpt lat="45.4270623" lon="11.0211437"><ele>47.0</ele><time>2026-04-18T12:26:42.098Z</time></trkpt><trkpt lat="45.4270611" lon="11.021292"><ele>47.0</ele><time>2026-04-18T12:26:43.09Z</time></trkpt><trkpt lat="45.4270309" lon="11.0214097"><ele>47.0</ele><time>2026-04-18T12:26:44.094Z</time></trkpt><trkpt lat="45.4269702" lon="11.0215155"><ele>47.0</ele><time>2026-04-18T12:26:45.09Z</time></trkpt><trkpt lat="45.4269079" lon="11.0216019"><ele>47.166666666666664</ele><time>2026-04-18T12:26:46.092Z</time></trkpt><trkpt lat="45.4268577" lon="11.0216603"><ele>47.33333333333333</ele><time>2026-04-18T12:26:47.089Z</time></trkpt><trkpt lat="45.4267844" lon="11.021759"><ele>47.5</ele><time>2026-04-18T12:26:49.077Z</time></trkpt><trkpt lat="45.4267371" lon="11.0218194"><ele>47.666666666666664</ele><time>2026-04-18T12:26:51.089Z</time></trkpt><trkpt lat="45.4266426" lon="11.0218223"><ele>47.833333333333336</ele><time>2026-04-18T12:26:53.092Z</time></trkpt><trkpt lat="45.4265483" lon="11.0218197"><ele>48.0</ele><time>2026-04-18T12:26:54.106Z</time></trkpt><trkpt lat="45.4264134" lon="11.021826"><ele>48.0</ele><time>2026-04-18T12:26:55.086Z</time></trkpt><trkpt lat="45.4262453" lon="11.0218305"><ele>48.0</ele><time>2026-04-18T12:26:56.09Z</time></trkpt><trkpt lat="45.4260355" lon="11.0218187"><ele>48.0</ele><time>2026-04-18T12:26:57.092Z</time></trkpt><trkpt lat="45.4258197" lon="11.0218299"><ele>48.0</ele><time>2026-04-18T12:26:58.09Z</time></trkpt><trkpt lat="45.4256125" lon="11.0218256"><ele>48.0</ele><time>2026-04-18T12:26:59.09Z</time></trkpt><trkpt lat="45.4254055" lon="11.0218326"><ele>48.0</ele><time>2026-04-18T12:27:00.088Z</time></trkpt><trkpt lat="45.4252026" lon="11.0218504"><ele>48.66666666666667</ele><time>2026-04-18T12:27:01.089Z</time></trkpt><trkpt lat="45.4250306" lon="11.0218525"><ele>49.333333333333336</ele><time>2026-04-18T12:27:02.081Z</time></trkpt><trkpt lat="45.4248648" lon="11.0218519"><ele>50.0</ele><time>2026-04-18T12:27:03.087Z</time></trkpt><trkpt lat="45.4247136" lon="11.0218601"><ele>50.0</ele><time>2026-04-18T12:27:04.085Z</time></trkpt><trkpt lat="45.4245742" lon="11.0218527"><ele>50.0</ele><time>2026-04-18T12:27:05.081Z</time></trkpt><trkpt lat="45.4244661" lon="11.0218634"><ele>50.0</ele><time>2026-04-18T12:27:06.084Z</time></trkpt><trkpt lat="45.4243634" lon="11.0218831"><ele>50.0</ele><time>2026-04-18T12:27:07.088Z</time></trkpt><trkpt lat="45.4242509" lon="11.0219049"><ele>50.00000000000001</ele><time>2026-04-18T12:27:08.081Z</time></trkpt><trkpt lat="45.4241717" lon="11.0219339"><ele>50.0</ele><time>2026-04-18T12:27:09.089Z</time></trkpt><trkpt lat="45.4240715" lon="11.0219133"><ele>50.0</ele><time>2026-04-18T12:27:11.085Z</time></trkpt><trkpt lat="45.4240105" lon="11.0220118"><ele>50.0</ele><time>2026-04-18T12:27:13.094Z</time></trkpt><trkpt lat="45.4240045" lon="11.0221099"><ele>50.00000000000001</ele><time>2026-04-18T12:27:14.094Z</time></trkpt><trkpt lat="45.424013" lon="11.022252"><ele>50.0</ele><time>2026-04-18T12:27:15.091Z</time></trkpt><trkpt lat="45.4240143" lon="11.022434"><ele>50.333333333333336</ele><time>2026-04-18T12:27:16.088Z</time></trkpt><trkpt lat="45.4240071" lon="11.0226187"><ele>50.66666666666667</ele><time>2026-04-18T12:27:17.086Z</time></trkpt><trkpt lat="45.4240005" lon="11.0228342"><ele>51.0</ele><time>2026-04-18T12:27:18.085Z</time></trkpt><trkpt lat="45.4240055" lon="11.0230801"><ele>51.0</ele><time>2026-04-18T12:27:19.091Z</time></trkpt><trkpt lat="45.4240251" lon="11.0233638"><ele>51.0</ele><time>2026-04-18T12:27:20.088Z</time></trkpt><trkpt lat="45.42405" lon="11.0236426"><ele>51.0</ele><time>2026-04-18T12:27:21.086Z</time></trkpt><trkpt lat="45.4240703" lon="11.0239385"><ele>50.33333333333333</ele><time>2026-04-18T12:27:22.089Z</time></trkpt><trkpt lat="45.4240904" lon="11.0242143"><ele>49.666666666666664</ele><time>2026-04-18T12:27:23.092Z</time></trkpt><trkpt lat="45.4241029" lon="11.0244607"><ele>49.0</ele><time>2026-04-18T12:27:24.091Z</time></trkpt><trkpt lat="45.4241195" lon="11.0247125"><ele>49.0</ele><time>2026-04-18T12:27:25.109Z</time></trkpt><trkpt lat="45.4241298" lon="11.0249725"><ele>49.0</ele><time>2026-04-18T12:27:26.092Z</time></trkpt><trkpt lat="45.4241578" lon="11.0254754"><ele>48.5</ele><time>2026-04-18T12:27:28.09Z</time></trkpt><trkpt lat="45.4241672" lon="11.0256906"><ele>48.0</ele><time>2026-04-18T12:27:29.096Z</time></trkpt><trkpt lat="45.4241772" lon="11.0258965"><ele>47.5</ele><time>2026-04-18T12:27:30.1Z</time></trkpt><trkpt lat="45.4241858" lon="11.0260696"><ele>47.0</ele><time>2026-04-18T12:27:31.097Z</time></trkpt><trkpt lat="45.4242046" lon="11.0261973"><ele>47.0</ele><time>2026-04-18T12:27:32.093Z</time></trkpt><trkpt lat="45.4242165" lon="11.0263071"><ele>47.0</ele><time>2026-04-18T12:27:33.09Z</time></trkpt><trkpt lat="45.4242001" lon="11.0263983"><ele>47.0</ele><time>2026-04-18T12:27:35.092Z</time></trkpt><trkpt lat="45.424127" lon="11.0264046"><ele>47.0</ele><time>2026-04-18T12:27:37.09Z</time></trkpt><trkpt lat="45.4240314" lon="11.0263218"><ele>47.0</ele><time>2026-04-18T12:27:39.095Z</time></trkpt><trkpt lat="45.4239732" lon="11.0262722"><ele>47.0</ele><time>2026-04-18T12:27:40.094Z</time></trkpt><trkpt lat="45.4239147" lon="11.0262237"><ele>46.8</ele><time>2026-04-18T12:27:41.091Z</time></trkpt><trkpt lat="45.4237985" lon="11.0261344"><ele>46.6</ele><time>2026-04-18T12:27:43.097Z</time></trkpt><trkpt lat="45.4237259" lon="11.0260745"><ele>46.4</ele><time>2026-04-18T12:27:44.098Z</time></trkpt><trkpt lat="45.423639" lon="11.0259953"><ele>46.199999999999996</ele><time>2026-04-18T12:27:45.098Z</time></trkpt><trkpt lat="45.423547" lon="11.0259075"><ele>46.0</ele><time>2026-04-18T12:27:46.099Z</time></trkpt><trkpt lat="45.4234537" lon="11.0258224"><ele>46.5</ele><time>2026-04-18T12:27:47.094Z</time></trkpt><trkpt lat="45.423352" lon="11.0257302"><ele>47.0</ele><time>2026-04-18T12:27:48.099Z</time></trkpt><trkpt lat="45.423242" lon="11.0256375"><ele>47.5</ele><time>2026-04-18T12:27:49.091Z</time></trkpt><trkpt lat="45.4231264" lon="11.0255516"><ele>48.0</ele><time>2026-04-18T12:27:50.106Z</time></trkpt><trkpt lat="45.4230139" lon="11.0254675"><ele>48.33333333333333</ele><time>2026-04-18T12:27:51.096Z</time></trkpt><trkpt lat="45.4229039" lon="11.0253776"><ele>48.666666666666664</ele><time>2026-04-18T12:27:52.096Z</time></trkpt><trkpt lat="45.4226886" lon="11.0252157"><ele>49.0</ele><time>2026-04-18T12:27:54.093Z</time></trkpt><trkpt lat="45.4225809" lon="11.0251487"><ele>49.0</ele><time>2026-04-18T12:27:55.094Z</time></trkpt><trkpt lat="45.4224739" lon="11.0250957"><ele>49.0</ele><time>2026-04-18T12:27:56.112Z</time></trkpt><trkpt lat="45.422363" lon="11.0250553"><ele>49.0</ele><time>2026-04-18T12:27:57.096Z</time></trkpt><trkpt lat="45.4222465" lon="11.0250354"><ele>49.0</ele><time>2026-04-18T12:27:58.098Z</time></trkpt><trkpt lat="45.4221339" lon="11.0250256"><ele>48.75</ele><time>2026-04-18T12:27:59.1Z</time></trkpt><trkpt lat="45.4220254" lon="11.0250268"><ele>48.5</ele><time>2026-04-18T12:28:00.101Z</time></trkpt><trkpt lat="45.4219139" lon="11.0250384"><ele>48.25</ele><time>2026-04-18T12:28:01.103Z</time></trkpt><trkpt lat="45.4217928" lon="11.0250642"><ele>48.0</ele><time>2026-04-18T12:28:02.096Z</time></trkpt><trkpt lat="45.4216661" lon="11.0250873"><ele>48.0</ele><time>2026-04-18T12:28:03.096Z</time></trkpt><trkpt lat="45.4215466" lon="11.0251022"><ele>48.0</ele><time>2026-04-18T12:28:04.096Z</time></trkpt><trkpt lat="45.4214326" lon="11.0251028"><ele>48.0</ele><time>2026-04-18T12:28:05.098Z</time></trkpt><trkpt lat="45.4213238" lon="11.0250752"><ele>48.0</ele><time>2026-04-18T12:28:06.094Z</time></trkpt><trkpt lat="45.4212095" lon="11.02501"><ele>48.0</ele><time>2026-04-18T12:28:07.095Z</time></trkpt><trkpt lat="45.4210818" lon="11.0249376"><ele>48.0</ele><time>2026-04-18T12:28:08.093Z</time></trkpt><trkpt lat="45.4209644" lon="11.0248722"><ele>48.0</ele><time>2026-04-18T12:28:09.094Z</time></trkpt><trkpt lat="45.4208474" lon="11.0248128"><ele>48.0</ele><time>2026-04-18T12:28:10.095Z</time></trkpt><trkpt lat="45.4207262" lon="11.0247609"><ele>48.0</ele><time>2026-04-18T12:28:11.091Z</time></trkpt><trkpt lat="45.4206001" lon="11.0247314"><ele>48.0</ele><time>2026-04-18T12:28:12.095Z</time></trkpt><trkpt lat="45.4204628" lon="11.0247032"><ele>48.0</ele><time>2026-04-18T12:28:13.09Z</time></trkpt><trkpt lat="45.4203126" lon="11.024681"><ele>48.0</ele><time>2026-04-18T12:28:14.09Z</time></trkpt><trkpt lat="45.4201503" lon="11.0246622"><ele>48.0</ele><time>2026-04-18T12:28:15.092Z</time></trkpt><trkpt lat="45.4199958" lon="11.0246306"><ele>48.0</ele><time>2026-04-18T12:28:16.085Z</time></trkpt><trkpt lat="45.419851" lon="11.0246042"><ele>48.0</ele><time>2026-04-18T12:28:17.099Z</time></trkpt><trkpt lat="45.4197174" lon="11.024578"><ele>48.0</ele><time>2026-04-18T12:28:18.1Z</time></trkpt><trkpt lat="45.4195858" lon="11.0245428"><ele>47.8</ele><time>2026-04-18T12:28:19.094Z</time></trkpt><trkpt lat="45.4194734" lon="11.0245053"><ele>47.599999999999994</ele><time>2026-04-18T12:28:20.097Z</time></trkpt><trkpt lat="45.419378" lon="11.0244647"><ele>47.400000000000006</ele><time>2026-04-18T12:28:21.099Z</time></trkpt><trkpt lat="45.4192838" lon="11.0244115"><ele>47.2</ele><time>2026-04-18T12:28:22.093Z</time></trkpt><trkpt lat="45.4191826" lon="11.024359"><ele>47.0</ele><time>2026-04-18T12:28:23.101Z</time></trkpt><trkpt lat="45.4190952" lon="11.0243123"><ele>47.0</ele><time>2026-04-18T12:28:24.101Z</time></trkpt><trkpt lat="45.4190151" lon="11.0242801"><ele>47.0</ele><time>2026-04-18T12:28:25.098Z</time></trkpt><trkpt lat="45.4189387" lon="11.024272"><ele>47.0</ele><time>2026-04-18T12:28:26.09Z</time></trkpt><trkpt lat="45.4188611" lon="11.0242614"><ele>47.0</ele><time>2026-04-18T12:28:27.106Z</time></trkpt><trkpt lat="45.4187825" lon="11.0242262"><ele>47.0</ele><time>2026-04-18T12:28:28.089Z</time></trkpt><trkpt lat="45.4187026" lon="11.0241653"><ele>47.0</ele><time>2026-04-18T12:28:29.094Z</time></trkpt><trkpt lat="45.4186053" lon="11.0240647"><ele>47.33333333333333</ele><time>2026-04-18T12:28:30.09Z</time></trkpt><trkpt lat="45.4184856" lon="11.0239441"><ele>47.666666666666664</ele><time>2026-04-18T12:28:31.089Z</time></trkpt><trkpt lat="45.4183536" lon="11.0238344"><ele>48.0</ele><time>2026-04-18T12:28:32.081Z</time></trkpt><trkpt lat="45.4182214" lon="11.0237231"><ele>48.0</ele><time>2026-04-18T12:28:33.08Z</time></trkpt><trkpt lat="45.4180816" lon="11.0235964"><ele>48.0</ele><time>2026-04-18T12:28:34.089Z</time></trkpt><trkpt lat="45.4179334" lon="11.0234566"><ele>48.0</ele><time>2026-04-18T12:28:35.085Z</time></trkpt><trkpt lat="45.4177875" lon="11.0233279"><ele>48.0</ele><time>2026-04-18T12:28:36.084Z</time></trkpt><trkpt lat="45.4176756" lon="11.0232225"><ele>48.0</ele><time>2026-04-18T12:28:37.079Z</time></trkpt><trkpt lat="45.4175507" lon="11.0231205"><ele>48.0</ele><time>2026-04-18T12:28:38.082Z</time></trkpt><trkpt lat="45.4174446" lon="11.0230352"><ele>48.0</ele><time>2026-04-18T12:28:39.079Z</time></trkpt><trkpt lat="45.4173467" lon="11.0229646"><ele>48.0</ele><time>2026-04-18T12:28:40.09Z</time></trkpt><trkpt lat="45.4172475" lon="11.0228988"><ele>48.0</ele><time>2026-04-18T12:28:41.09Z</time></trkpt><trkpt lat="45.4171407" lon="11.0228259"><ele>48.0</ele><time>2026-04-18T12:28:42.088Z</time></trkpt><trkpt lat="45.4170281" lon="11.0227334"><ele>48.0</ele><time>2026-04-18T12:28:43.094Z</time></trkpt><trkpt lat="45.4169137" lon="11.0226558"><ele>48.25</ele><time>2026-04-18T12:28:44.091Z</time></trkpt><trkpt lat="45.4168077" lon="11.0225708"><ele>48.5</ele><time>2026-04-18T12:28:45.081Z</time></trkpt><trkpt lat="45.4166839" lon="11.0224997"><ele>48.75</ele><time>2026-04-18T12:28:46.081Z</time></trkpt><trkpt lat="45.4165476" lon="11.0224414"><ele>49.0</ele><time>2026-04-18T12:28:47.085Z</time></trkpt><trkpt lat="45.4164092" lon="11.0223697"><ele>49.0</ele><time>2026-04-18T12:28:48.08Z</time></trkpt><trkpt lat="45.4162707" lon="11.0222952"><ele>49.0</ele><time>2026-04-18T12:28:49.079Z</time></trkpt><trkpt lat="45.4161304" lon="11.022209"><ele>49.0</ele><time>2026-04-18T12:28:50.07Z</time></trkpt><trkpt lat="45.4160039" lon="11.0221547"><ele>49.0</ele><time>2026-04-18T12:28:51.074Z</time></trkpt><trkpt lat="45.4158852" lon="11.0221243"><ele>49.0</ele><time>2026-04-18T12:28:52.072Z</time></trkpt><trkpt lat="45.4157708" lon="11.0221048"><ele>49.0</ele><time>2026-04-18T12:28:53.08Z</time></trkpt><trkpt lat="45.4156631" lon="11.0220914"><ele>49.0</ele><time>2026-04-18T12:28:54.078Z</time></trkpt><trkpt lat="45.4155514" lon="11.0220873"><ele>49.0</ele><time>2026-04-18T12:28:55.083Z</time></trkpt><trkpt lat="45.4154347" lon="11.0220769"><ele>48.5</ele><time>2026-04-18T12:28:56.093Z</time></trkpt><trkpt lat="45.4153191" lon="11.0220608"><ele>48.0</ele><time>2026-04-18T12:28:57.091Z</time></trkpt><trkpt lat="45.4151969" lon="11.0220359"><ele>47.5</ele><time>2026-04-18T12:28:58.103Z</time></trkpt><trkpt lat="45.4150749" lon="11.0220115"><ele>47.0</ele><time>2026-04-18T12:28:59.091Z</time></trkpt><trkpt lat="45.4149718" lon="11.0219792"><ele>47.0</ele><time>2026-04-18T12:29:00.094Z</time></trkpt><trkpt lat="45.4148886" lon="11.0219489"><ele>47.0</ele><time>2026-04-18T12:29:01.096Z</time></trkpt><trkpt lat="45.414823" lon="11.0219171"><ele>47.0</ele><time>2026-04-18T12:29:02.091Z</time></trkpt><trkpt lat="45.4148856" lon="11.0219045"><ele>47.0</ele><time>2026-04-18T12:29:12.1Z</time></trkpt><trkpt lat="45.4149725" lon="11.0219403"><ele>47.0</ele><time>2026-04-18T12:29:19.093Z</time></trkpt><trkpt lat="45.4150383" lon="11.0219612"><ele>47.0</ele><time>2026-04-18T12:29:20.09Z</time></trkpt><trkpt lat="45.415121" lon="11.0219928"><ele>47.0</ele><time>2026-04-18T12:29:21.094Z</time></trkpt><trkpt lat="45.4152137" lon="11.0220344"><ele>47.0</ele><time>2026-04-18T12:29:22.088Z</time></trkpt><trkpt lat="45.4153131" lon="11.0220737"><ele>47.0</ele><time>2026-04-18T12:29:23.088Z</time></trkpt><trkpt lat="45.4154129" lon="11.022116"><ele>47.0</ele><time>2026-04-18T12:29:24.094Z</time></trkpt><trkpt lat="45.4155174" lon="11.0221479"><ele>47.0</ele><time>2026-04-18T12:29:25.097Z</time></trkpt><trkpt lat="45.4157091" lon="11.0221968"><ele>47.33333333333333</ele><time>2026-04-18T12:29:27.087Z</time></trkpt><trkpt lat="45.4157863" lon="11.0222194"><ele>47.666666666666664</ele><time>2026-04-18T12:29:28.096Z</time></trkpt><trkpt lat="45.4158824" lon="11.0222347"><ele>48.0</ele><time>2026-04-18T12:29:30.097Z</time></trkpt><trkpt lat="45.4159811" lon="11.022242"><ele>48.33333333333333</ele><time>2026-04-18T12:29:32.087Z</time></trkpt><trkpt lat="45.416081" lon="11.0222805"><ele>48.666666666666664</ele><time>2026-04-18T12:29:34.085Z</time></trkpt><trkpt lat="45.4161428" lon="11.0223154"><ele>49.0</ele><time>2026-04-18T12:29:36.09Z</time></trkpt><trkpt lat="45.4161275" lon="11.022225"><ele>49.0</ele><time>2026-04-18T12:29:52.072Z</time></trkpt><trkpt lat="45.416066" lon="11.0221721"><ele>49.0</ele><time>2026-04-18T12:29:57.096Z</time></trkpt><trkpt lat="45.4159854" lon="11.0221547"><ele>49.0</ele><time>2026-04-18T12:30:00.109Z</time></trkpt><trkpt lat="45.4159129" lon="11.0221381"><ele>49.0</ele><time>2026-04-18T12:30:01.097Z</time></trkpt><trkpt lat="45.4157958" lon="11.0221209"><ele>49.0</ele><time>2026-04-18T12:30:02.086Z</time></trkpt><trkpt lat="45.4156662" lon="11.022116"><ele>49.0</ele><time>2026-04-18T12:30:03.086Z</time></trkpt><trkpt lat="45.4155283" lon="11.0221064"><ele>49.0</ele><time>2026-04-18T12:30:04.087Z</time></trkpt><trkpt lat="45.4153879" lon="11.022088"><ele>49.0</ele><time>2026-04-18T12:30:05.082Z</time></trkpt><trkpt lat="45.4152625" lon="11.0220718"><ele>49.0</ele><time>2026-04-18T12:30:06.082Z</time></trkpt><trkpt lat="45.4151504" lon="11.0220465"><ele>48.6</ele><time>2026-04-18T12:30:07.079Z</time></trkpt><trkpt lat="45.415058" lon="11.0220202"><ele>48.2</ele><time>2026-04-18T12:30:08.077Z</time></trkpt><trkpt lat="45.414987" lon="11.0219904"><ele>47.800000000000004</ele><time>2026-04-18T12:30:09.081Z</time></trkpt><trkpt lat="45.4149172" lon="11.0218922"><ele>47.400000000000006</ele><time>2026-04-18T12:30:11.097Z</time></trkpt><trkpt lat="45.4149616" lon="11.0217397"><ele>47.0</ele><time>2026-04-18T12:30:13.085Z</time></trkpt><trkpt lat="45.4150138" lon="11.0216735"><ele>47.166666666666664</ele><time>2026-04-18T12:30:14.094Z</time></trkpt><trkpt lat="45.4150638" lon="11.021612"><ele>47.33333333333333</ele><time>2026-04-18T12:30:15.092Z</time></trkpt><trkpt lat="45.4150972" lon="11.0215242"><ele>47.5</ele><time>2026-04-18T12:30:16.085Z</time></trkpt><trkpt lat="45.4151222" lon="11.0214373"><ele>47.666666666666664</ele><time>2026-04-18T12:30:17.095Z</time></trkpt><trkpt lat="45.4151093" lon="11.0212958"><ele>47.833333333333336</ele><time>2026-04-18T12:30:19.098Z</time></trkpt><trkpt lat="45.4149935" lon="11.021253"><ele>48.0</ele><time>2026-04-18T12:30:21.094Z</time></trkpt><trkpt lat="45.4148787" lon="11.0212565"><ele>48.0</ele><time>2026-04-18T12:30:22.097Z</time></trkpt><trkpt lat="45.4147485" lon="11.021266"><ele>48.0</ele><time>2026-04-18T12:30:23.091Z</time></trkpt><trkpt lat="45.4146127" lon="11.0212645"><ele>48.0</ele><time>2026-04-18T12:30:24.102Z</time></trkpt><trkpt lat="45.4144874" lon="11.0212613"><ele>48.0</ele><time>2026-04-18T12:30:25.09Z</time></trkpt><trkpt lat="45.4143857" lon="11.0212546"><ele>48.333333333333336</ele><time>2026-04-18T12:30:26.095Z</time></trkpt><trkpt lat="45.4143061" lon="11.0212351"><ele>48.66666666666667</ele><time>2026-04-18T12:30:27.095Z</time></trkpt><trkpt lat="45.41424" lon="11.0212163"><ele>49.0</ele><time>2026-04-18T12:30:28.091Z</time></trkpt><trkpt lat="45.4141526" lon="11.0212033"><ele>49.333333333333336</ele><time>2026-04-18T12:30:30.094Z</time></trkpt><trkpt lat="45.4140476" lon="11.0212392"><ele>49.66666666666667</ele><time>2026-04-18T12:30:34.097Z</time></trkpt><trkpt lat="45.4139741" lon="11.0212725"><ele>50.0</ele><time>2026-04-18T12:30:35.092Z</time></trkpt><trkpt lat="45.4138916" lon="11.0213044"><ele>50.75</ele><time>2026-04-18T12:30:36.09Z</time></trkpt><trkpt lat="45.4137978" lon="11.0213374"><ele>51.5</ele><time>2026-04-18T12:30:37.086Z</time></trkpt><trkpt lat="45.4136843" lon="11.0213792"><ele>52.25</ele><time>2026-04-18T12:30:38.088Z</time></trkpt><trkpt lat="45.4135605" lon="11.0214166"><ele>53.0</ele><time>2026-04-18T12:30:39.087Z</time></trkpt><trkpt lat="45.413451" lon="11.0214543"><ele>53.0</ele><time>2026-04-18T12:30:40.092Z</time></trkpt><trkpt lat="45.4133292" lon="11.0214844"><ele>53.0</ele><time>2026-04-18T12:30:41.092Z</time></trkpt><trkpt lat="45.4132103" lon="11.0215188"><ele>53.0</ele><time>2026-04-18T12:30:42.091Z</time></trkpt><trkpt lat="45.4130956" lon="11.0215474"><ele>53.0</ele><time>2026-04-18T12:30:43.085Z</time></trkpt><trkpt lat="45.4129983" lon="11.021578"><ele>53.00000000000001</ele><time>2026-04-18T12:30:44.087Z</time></trkpt><trkpt lat="45.4129133" lon="11.0216087"><ele>53.0</ele><time>2026-04-18T12:30:45.088Z</time></trkpt><trkpt lat="45.4128286" lon="11.0216428"><ele>53.0</ele><time>2026-04-18T12:30:46.092Z</time></trkpt><trkpt lat="45.4127491" lon="11.021686"><ele>53.0</ele><time>2026-04-18T12:30:47.093Z</time></trkpt><trkpt lat="45.4126703" lon="11.021719"><ele>53.00000000000001</ele><time>2026-04-18T12:30:48.095Z</time></trkpt><trkpt lat="45.412596" lon="11.0217342"><ele>53.0</ele><time>2026-04-18T12:30:49.091Z</time></trkpt><trkpt lat="45.4125088" lon="11.0217252"><ele>53.0</ele><time>2026-04-18T12:30:50.101Z</time></trkpt><trkpt lat="45.4124189" lon="11.0216587"><ele>53.0</ele><time>2026-04-18T12:30:51.099Z</time></trkpt><trkpt lat="45.4123175" lon="11.0215752"><ele>53.0</ele><time>2026-04-18T12:30:52.094Z</time></trkpt><trkpt lat="45.412197" lon="11.0214758"><ele>53.0</ele><time>2026-04-18T12:30:53.107Z</time></trkpt><trkpt lat="45.4120558" lon="11.0213628"><ele>53.66666666666667</ele><time>2026-04-18T12:30:54.095Z</time></trkpt><trkpt lat="45.4118875" lon="11.0212587"><ele>54.33333333333333</ele><time>2026-04-18T12:30:55.091Z</time></trkpt><trkpt lat="45.4117019" lon="11.0211477"><ele>55.0</ele><time>2026-04-18T12:30:56.099Z</time></trkpt><trkpt lat="45.4115098" lon="11.0210397"><ele>55.0</ele><time>2026-04-18T12:30:57.104Z</time></trkpt><trkpt lat="45.4113308" lon="11.0209426"><ele>55.0</ele><time>2026-04-18T12:30:58.101Z</time></trkpt><trkpt lat="45.4111686" lon="11.0208586"><ele>55.0</ele><time>2026-04-18T12:30:59.112Z</time></trkpt><trkpt lat="45.4110335" lon="11.020783"><ele>54.5</ele><time>2026-04-18T12:31:00.115Z</time></trkpt><trkpt lat="45.4109124" lon="11.0207061"><ele>54.0</ele><time>2026-04-18T12:31:01.118Z</time></trkpt><trkpt lat="45.4108139" lon="11.0206175"><ele>53.5</ele><time>2026-04-18T12:31:02.124Z</time></trkpt><trkpt lat="45.4107424" lon="11.0205241"><ele>53.0</ele><time>2026-04-18T12:31:03.111Z</time></trkpt><trkpt lat="45.4106821" lon="11.0204019"><ele>53.0</ele><time>2026-04-18T12:31:04.11Z</time></trkpt><trkpt lat="45.4106346" lon="11.0202323"><ele>53.0</ele><time>2026-04-18T12:31:05.101Z</time></trkpt><trkpt lat="45.4105995" lon="11.0200399"><ele>53.0</ele><time>2026-04-18T12:31:06.114Z</time></trkpt><trkpt lat="45.4105558" lon="11.0198416"><ele>53.0</ele><time>2026-04-18T12:31:07.113Z</time></trkpt><trkpt lat="45.4104961" lon="11.0196616"><ele>52.66666666666667</ele><time>2026-04-18T12:31:08.11Z</time></trkpt><trkpt lat="45.4104179" lon="11.0194887"><ele>52.33333333333333</ele><time>2026-04-18T12:31:09.121Z</time></trkpt><trkpt lat="45.4103411" lon="11.0192998"><ele>52.0</ele><time>2026-04-18T12:31:10.114Z</time></trkpt><trkpt lat="45.4102463" lon="11.0191055"><ele>52.0</ele><time>2026-04-18T12:31:11.114Z</time></trkpt><trkpt lat="45.4101148" lon="11.018911"><ele>52.0</ele><time>2026-04-18T12:31:12.104Z</time></trkpt><trkpt lat="45.4099701" lon="11.0186978"><ele>52.0</ele><time>2026-04-18T12:31:13.113Z</time></trkpt><trkpt lat="45.4098304" lon="11.0184462"><ele>52.0</ele><time>2026-04-18T12:31:14.107Z</time></trkpt><trkpt lat="45.4096967" lon="11.0181703"><ele>52.0</ele><time>2026-04-18T12:31:15.101Z</time></trkpt><trkpt lat="45.4095659" lon="11.0178833"><ele>52.0</ele><time>2026-04-18T12:31:16.101Z</time></trkpt><trkpt lat="45.4094334" lon="11.0175939"><ele>52.0</ele><time>2026-04-18T12:31:17.109Z</time></trkpt><trkpt lat="45.4092932" lon="11.0173153"><ele>53.0</ele><time>2026-04-18T12:31:18.111Z</time></trkpt><trkpt lat="45.4091553" lon="11.0170306"><ele>54.0</ele><time>2026-04-18T12:31:19.108Z</time></trkpt><trkpt lat="45.4090154" lon="11.0167532"><ele>53.5</ele><time>2026-04-18T12:31:20.114Z</time></trkpt><trkpt lat="45.4088738" lon="11.0164848"><ele>53.0</ele><time>2026-04-18T12:31:21.106Z</time></trkpt><trkpt lat="45.4087341" lon="11.0162133"><ele>54.0</ele><time>2026-04-18T12:31:22.109Z</time></trkpt><trkpt lat="45.408588" lon="11.0159435"><ele>55.0</ele><time>2026-04-18T12:31:23.12Z</time></trkpt><trkpt lat="45.4084301" lon="11.015684"><ele>54.5</ele><time>2026-04-18T12:31:24.109Z</time></trkpt><trkpt lat="45.4082714" lon="11.0154333"><ele>54.0</ele><time>2026-04-18T12:31:25.106Z</time></trkpt><trkpt lat="45.407884" lon="11.0149909"><ele>55.5</ele><time>2026-04-18T12:31:27.098Z</time></trkpt><trkpt lat="45.4076915" lon="11.0147721"><ele>57.0</ele><time>2026-04-18T12:31:28.11Z</time></trkpt><trkpt lat="45.4075052" lon="11.0145619"><ele>57.0</ele><time>2026-04-18T12:31:29.107Z</time></trkpt><trkpt lat="45.4073051" lon="11.0143459"><ele>57.0</ele><time>2026-04-18T12:31:30.118Z</time></trkpt><trkpt lat="45.4071105" lon="11.0141281"><ele>57.0</ele><time>2026-04-18T12:31:31.122Z</time></trkpt><trkpt lat="45.4069185" lon="11.013914"><ele>57.0</ele><time>2026-04-18T12:31:32.11Z</time></trkpt><trkpt lat="45.406726" lon="11.0136981"><ele>57.0</ele><time>2026-04-18T12:31:33.128Z</time></trkpt><trkpt lat="45.4065337" lon="11.0134882"><ele>57.0</ele><time>2026-04-18T12:31:34.105Z</time></trkpt><trkpt lat="45.4063382" lon="11.013274"><ele>57.5</ele><time>2026-04-18T12:31:35.111Z</time></trkpt><trkpt lat="45.406142" lon="11.013078"><ele>58.0</ele><time>2026-04-18T12:31:36.112Z</time></trkpt><trkpt lat="45.4059591" lon="11.0128634"><ele>58.0</ele><time>2026-04-18T12:31:37.11Z</time></trkpt><trkpt lat="45.4057896" lon="11.0126742"><ele>58.0</ele><time>2026-04-18T12:31:38.111Z</time></trkpt><trkpt lat="45.405639" lon="11.0124888"><ele>58.0</ele><time>2026-04-18T12:31:39.119Z</time></trkpt><trkpt lat="45.4055066" lon="11.0123293"><ele>56.75</ele><time>2026-04-18T12:31:40.116Z</time></trkpt><trkpt lat="45.4053982" lon="11.0121875"><ele>55.5</ele><time>2026-04-18T12:31:41.109Z</time></trkpt><trkpt lat="45.4052997" lon="11.0120766"><ele>54.25</ele><time>2026-04-18T12:31:42.115Z</time></trkpt><trkpt lat="45.4052179" lon="11.0119716"><ele>53.0</ele><time>2026-04-18T12:31:43.111Z</time></trkpt><trkpt lat="45.4051575" lon="11.011878"><ele>53.0</ele><time>2026-04-18T12:31:44.114Z</time></trkpt><trkpt lat="45.4051057" lon="11.0117922"><ele>53.0</ele><time>2026-04-18T12:31:45.112Z</time></trkpt><trkpt lat="45.4050636" lon="11.0116672"><ele>53.0</ele><time>2026-04-18T12:31:47.12Z</time></trkpt><trkpt lat="45.4051006" lon="11.0114926"><ele>53.0</ele><time>2026-04-18T12:31:49.126Z</time></trkpt><trkpt lat="45.4051752" lon="11.0113618"><ele>53.0</ele><time>2026-04-18T12:31:50.118Z</time></trkpt><trkpt lat="45.4052662" lon="11.0112349"><ele>53.333333333333336</ele><time>2026-04-18T12:31:51.124Z</time></trkpt><trkpt lat="45.4053804" lon="11.0110665"><ele>53.66666666666667</ele><time>2026-04-18T12:31:52.115Z</time></trkpt><trkpt lat="45.4055087" lon="11.0108726"><ele>54.0</ele><time>2026-04-18T12:31:53.114Z</time></trkpt><trkpt lat="45.4056451" lon="11.0106569"><ele>54.0</ele><time>2026-04-18T12:31:54.121Z</time></trkpt><trkpt lat="45.4057815" lon="11.0104616"><ele>54.0</ele><time>2026-04-18T12:31:55.12Z</time></trkpt><trkpt lat="45.4059025" lon="11.0102582"><ele>54.0</ele><time>2026-04-18T12:31:56.122Z</time></trkpt><trkpt lat="45.4060199" lon="11.0100633"><ele>54.33333333333333</ele><time>2026-04-18T12:31:57.119Z</time></trkpt><trkpt lat="45.4061321" lon="11.0098655"><ele>54.666666666666664</ele><time>2026-04-18T12:31:58.115Z</time></trkpt><trkpt lat="45.4062451" lon="11.0096652"><ele>55.0</ele><time>2026-04-18T12:31:59.121Z</time></trkpt><trkpt lat="45.4063604" lon="11.0094667"><ele>55.0</ele><time>2026-04-18T12:32:00.122Z</time></trkpt><trkpt lat="45.4064773" lon="11.0092663"><ele>55.0</ele><time>2026-04-18T12:32:01.124Z</time></trkpt><trkpt lat="45.4066003" lon="11.009055"><ele>55.0</ele><time>2026-04-18T12:32:02.117Z</time></trkpt><trkpt lat="45.4067361" lon="11.0088172"><ele>55.0</ele><time>2026-04-18T12:32:03.117Z</time></trkpt><trkpt lat="45.4068783" lon="11.0085846"><ele>55.0</ele><time>2026-04-18T12:32:04.134Z</time></trkpt><trkpt lat="45.4070175" lon="11.0083487"><ele>55.0</ele><time>2026-04-18T12:32:05.122Z</time></trkpt><trkpt lat="45.4071573" lon="11.0081026"><ele>55.666666666666664</ele><time>2026-04-18T12:32:06.117Z</time></trkpt><trkpt lat="45.407304" lon="11.0078588"><ele>56.33333333333333</ele><time>2026-04-18T12:32:07.114Z</time></trkpt><trkpt lat="45.4074357" lon="11.0076384"><ele>57.0</ele><time>2026-04-18T12:32:08.123Z</time></trkpt><trkpt lat="45.4075681" lon="11.0074264"><ele>57.33333333333333</ele><time>2026-04-18T12:32:09.131Z</time></trkpt><trkpt lat="45.4076841" lon="11.0072387"><ele>57.666666666666664</ele><time>2026-04-18T12:32:10.117Z</time></trkpt><trkpt lat="45.4077928" lon="11.0070537"><ele>58.0</ele><time>2026-04-18T12:32:11.12Z</time></trkpt><trkpt lat="45.4078884" lon="11.0068928"><ele>58.0</ele><time>2026-04-18T12:32:12.116Z</time></trkpt><trkpt lat="45.4079775" lon="11.0067487"><ele>58.0</ele><time>2026-04-18T12:32:13.121Z</time></trkpt><trkpt lat="45.4080609" lon="11.0066088"><ele>58.0</ele><time>2026-04-18T12:32:14.117Z</time></trkpt><trkpt lat="45.4081483" lon="11.0064577"><ele>58.0</ele><time>2026-04-18T12:32:15.117Z</time></trkpt><trkpt lat="45.4082212" lon="11.0063191"><ele>57.599999999999994</ele><time>2026-04-18T12:32:16.115Z</time></trkpt><trkpt lat="45.4082973" lon="11.006201"><ele>57.199999999999996</ele><time>2026-04-18T12:32:17.124Z</time></trkpt><trkpt lat="45.4083758" lon="11.0060935"><ele>56.8</ele><time>2026-04-18T12:32:18.112Z</time></trkpt><trkpt lat="45.4084477" lon="11.0059743"><ele>56.4</ele><time>2026-04-18T12:32:19.122Z</time></trkpt><trkpt lat="45.4085168" lon="11.0058733"><ele>56.0</ele><time>2026-04-18T12:32:20.117Z</time></trkpt><trkpt lat="45.4085735" lon="11.0057738"><ele>56.0</ele><time>2026-04-18T12:32:21.114Z</time></trkpt><trkpt lat="45.4086132" lon="11.0056832"><ele>55.99999999999999</ele><time>2026-04-18T12:32:22.117Z</time></trkpt><trkpt lat="45.4085652" lon="11.005557"><ele>55.99999999999999</ele><time>2026-04-18T12:32:24.114Z</time></trkpt><trkpt lat="45.4085032" lon="11.0055067"><ele>56.0</ele><time>2026-04-18T12:32:25.11Z</time></trkpt><trkpt lat="45.408435" lon="11.0054346"><ele>56.0</ele><time>2026-04-18T12:32:26.121Z</time></trkpt><trkpt lat="45.4083472" lon="11.0053222"><ele>56.0</ele><time>2026-04-18T12:32:27.119Z</time></trkpt><trkpt lat="45.4082358" lon="11.0051959"><ele>56.0</ele><time>2026-04-18T12:32:28.113Z</time></trkpt><trkpt lat="45.408129" lon="11.0050678"><ele>56.0</ele><time>2026-04-18T12:32:29.117Z</time></trkpt><trkpt lat="45.4080399" lon="11.0049627"><ele>56.0</ele><time>2026-04-18T12:32:30.117Z</time></trkpt><trkpt lat="45.4079603" lon="11.0048679"><ele>56.0</ele><time>2026-04-18T12:32:31.115Z</time></trkpt><trkpt lat="45.4078968" lon="11.0047971"><ele>55.99999999999999</ele><time>2026-04-18T12:32:32.1Z</time></trkpt><trkpt lat="45.4078776" lon="11.0046582"><ele>55.99999999999999</ele><time>2026-04-18T12:32:34.116Z</time></trkpt><trkpt lat="45.4079284" lon="11.004564"><ele>56.0</ele><time>2026-04-18T12:32:35.125Z</time></trkpt><trkpt lat="45.408013" lon="11.0044556"><ele>56.0</ele><time>2026-04-18T12:32:36.109Z</time></trkpt><trkpt lat="45.4081017" lon="11.0043453"><ele>56.00000000000001</ele><time>2026-04-18T12:32:37.109Z</time></trkpt><trkpt lat="45.4081721" lon="11.0042576"><ele>56.0</ele><time>2026-04-18T12:32:38.109Z</time></trkpt><trkpt lat="45.4082304" lon="11.0041753"><ele>56.0</ele><time>2026-04-18T12:32:39.113Z</time></trkpt><trkpt lat="45.4082707" lon="11.0041044"><ele>56.0</ele><time>2026-04-18T12:32:40.115Z</time></trkpt><trkpt lat="45.408235" lon="11.0039652"><ele>56.00000000000001</ele><time>2026-04-18T12:32:42.109Z</time></trkpt><trkpt lat="45.4081605" lon="11.0038988"><ele>56.0</ele><time>2026-04-18T12:32:43.109Z</time></trkpt><trkpt lat="45.4080865" lon="11.0038239"><ele>55.833333333333336</ele><time>2026-04-18T12:32:44.108Z</time></trkpt><trkpt lat="45.4080316" lon="11.0037413"><ele>55.66666666666667</ele><time>2026-04-18T12:32:45.105Z</time></trkpt><trkpt lat="45.4080195" lon="11.0036485"><ele>55.5</ele><time>2026-04-18T12:32:46.118Z</time></trkpt><trkpt lat="45.4080482" lon="11.0035537"><ele>55.33333333333333</ele><time>2026-04-18T12:32:47.115Z</time></trkpt><trkpt lat="45.4081212" lon="11.0034436"><ele>55.166666666666664</ele><time>2026-04-18T12:32:48.112Z</time></trkpt><trkpt lat="45.408219" lon="11.0033342"><ele>55.0</ele><time>2026-04-18T12:32:49.11Z</time></trkpt><trkpt lat="45.4083116" lon="11.0032216"><ele>55.6</ele><time>2026-04-18T12:32:50.112Z</time></trkpt><trkpt lat="45.4083944" lon="11.003113"><ele>56.2</ele><time>2026-04-18T12:32:51.113Z</time></trkpt><trkpt lat="45.4084713" lon="11.0030111"><ele>56.8</ele><time>2026-04-18T12:32:52.117Z</time></trkpt><trkpt lat="45.4085454" lon="11.002904"><ele>57.4</ele><time>2026-04-18T12:32:53.122Z</time></trkpt><trkpt lat="45.4086184" lon="11.0027815"><ele>58.0</ele><time>2026-04-18T12:32:54.118Z</time></trkpt><trkpt lat="45.4087027" lon="11.0026433"><ele>58.0</ele><time>2026-04-18T12:32:55.12Z</time></trkpt><trkpt lat="45.4087941" lon="11.0025012"><ele>58.0</ele><time>2026-04-18T12:32:56.117Z</time></trkpt><trkpt lat="45.4088947" lon="11.002357"><ele>58.0</ele><time>2026-04-18T12:32:57.117Z</time></trkpt><trkpt lat="45.4090067" lon="11.002191"><ele>58.0</ele><time>2026-04-18T12:32:58.113Z</time></trkpt><trkpt lat="45.4091303" lon="11.0020124"><ele>57.75</ele><time>2026-04-18T12:32:59.122Z</time></trkpt><trkpt lat="45.4092328" lon="11.0018589"><ele>57.5</ele><time>2026-04-18T12:33:00.121Z</time></trkpt><trkpt lat="45.4093202" lon="11.001718"><ele>57.25</ele><time>2026-04-18T12:33:01.123Z</time></trkpt><trkpt lat="45.4093893" lon="11.0016036"><ele>57.0</ele><time>2026-04-18T12:33:02.118Z</time></trkpt><trkpt lat="45.4094467" lon="11.0015275"><ele>56.400000000000006</ele><time>2026-04-18T12:33:03.119Z</time></trkpt><trkpt lat="45.4094482" lon="11.0014141"><ele>55.800000000000004</ele><time>2026-04-18T12:33:05.107Z</time></trkpt><trkpt lat="45.4094234" lon="11.001282"><ele>55.2</ele><time>2026-04-18T12:33:07.115Z</time></trkpt><trkpt lat="45.4093659" lon="11.0011935"><ele>54.6</ele><time>2026-04-18T12:33:08.107Z</time></trkpt><trkpt lat="45.4092857" lon="11.0010867"><ele>54.0</ele><time>2026-04-18T12:33:09.108Z</time></trkpt><trkpt lat="45.4091909" lon="11.000952"><ele>54.5</ele><time>2026-04-18T12:33:10.111Z</time></trkpt><trkpt lat="45.4090944" lon="11.0008019"><ele>55.0</ele><time>2026-04-18T12:33:11.114Z</time></trkpt><trkpt lat="45.4090105" lon="11.0006793"><ele>55.5</ele><time>2026-04-18T12:33:12.107Z</time></trkpt><trkpt lat="45.4089318" lon="11.0005787"><ele>56.0</ele><time>2026-04-18T12:33:13.105Z</time></trkpt><trkpt lat="45.4088666" lon="11.0005013"><ele>56.4</ele><time>2026-04-18T12:33:14.115Z</time></trkpt><trkpt lat="45.4088199" lon="11.0004294"><ele>56.8</ele><time>2026-04-18T12:33:15.111Z</time></trkpt><trkpt lat="45.4087521" lon="11.0003358"><ele>57.199999999999996</ele><time>2026-04-18T12:33:17.11Z</time></trkpt><trkpt lat="45.408665" lon="11.0002506"><ele>57.599999999999994</ele><time>2026-04-18T12:34:59.119Z</time></trkpt><trkpt lat="45.4085788" lon="11.0002477"><ele>58.0</ele><time>2026-04-18T12:35:00.123Z</time></trkpt><trkpt lat="45.4084711" lon="11.0002802"><ele>58.0</ele><time>2026-04-18T12:35:01.13Z</time></trkpt><trkpt lat="45.4083424" lon="11.0003722"><ele>58.0</ele><time>2026-04-18T12:35:02.123Z</time></trkpt><trkpt lat="45.4082066" lon="11.0005146"><ele>58.0</ele><time>2026-04-18T12:35:03.109Z</time></trkpt><trkpt lat="45.4080783" lon="11.0006528"><ele>57.8</ele><time>2026-04-18T12:35:04.116Z</time></trkpt><trkpt lat="45.4079653" lon="11.000763"><ele>57.599999999999994</ele><time>2026-04-18T12:35:05.123Z</time></trkpt><trkpt lat="45.4078776" lon="11.0007771"><ele>57.400000000000006</ele><time>2026-04-18T12:35:06.115Z</time></trkpt><trkpt lat="45.4078196" lon="11.0006255"><ele>57.2</ele><time>2026-04-18T12:35:08.119Z</time></trkpt><trkpt lat="45.407783" lon="11.0005123"><ele>57.0</ele><time>2026-04-18T12:35:09.107Z</time></trkpt><trkpt lat="45.4077574" lon="11.0004118"><ele>57.0</ele><time>2026-04-18T12:35:10.117Z</time></trkpt><trkpt lat="45.4077327" lon="11.0003254"><ele>57.0</ele><time>2026-04-18T12:35:11.111Z</time></trkpt><trkpt lat="45.4076953" lon="11.0002213"><ele>57.0</ele><time>2026-04-18T12:35:12.111Z</time></trkpt><trkpt lat="45.4076437" lon="11.0000889"><ele>57.0</ele><time>2026-04-18T12:35:13.112Z</time></trkpt><trkpt lat="45.4075798" lon="10.9999429"><ele>57.0</ele><time>2026-04-18T12:35:14.119Z</time></trkpt><trkpt lat="45.4075133" lon="10.9997977"><ele>57.0</ele><time>2026-04-18T12:35:15.118Z</time></trkpt><trkpt lat="45.407442" lon="10.9996399"><ele>57.0</ele><time>2026-04-18T12:35:16.119Z</time></trkpt><trkpt lat="45.4073678" lon="10.9994721"><ele>57.0</ele><time>2026-04-18T12:35:17.125Z</time></trkpt><trkpt lat="45.4072947" lon="10.9992964"><ele>57.0</ele><time>2026-04-18T12:35:18.12Z</time></trkpt><trkpt lat="45.4072223" lon="10.9991129"><ele>56.75</ele><time>2026-04-18T12:35:19.121Z</time></trkpt><trkpt lat="45.4071518" lon="10.9989379"><ele>56.5</ele><time>2026-04-18T12:35:20.125Z</time></trkpt><trkpt lat="45.4070721" lon="10.9987843"><ele>56.25</ele><time>2026-04-18T12:35:21.119Z</time></trkpt><trkpt lat="45.4070103" lon="10.9986545"><ele>56.0</ele><time>2026-04-18T12:35:22.119Z</time></trkpt><trkpt lat="45.406947" lon="10.9985384"><ele>56.0</ele><time>2026-04-18T12:35:23.123Z</time></trkpt><trkpt lat="45.4068649" lon="10.9984531"><ele>55.99999999999999</ele><time>2026-04-18T12:35:24.128Z</time></trkpt><trkpt lat="45.4067767" lon="10.9983974"><ele>55.99999999999999</ele><time>2026-04-18T12:35:25.116Z</time></trkpt><trkpt lat="45.406667" lon="10.998362"><ele>56.0</ele><time>2026-04-18T12:35:26.117Z</time></trkpt><trkpt lat="45.4065579" lon="10.9983525"><ele>56.0</ele><time>2026-04-18T12:35:27.116Z</time></trkpt><trkpt lat="45.4064559" lon="10.9983325"><ele>56.199999999999996</ele><time>2026-04-18T12:35:28.121Z</time></trkpt><trkpt lat="45.4063699" lon="10.9982902"><ele>56.39999999999999</ele><time>2026-04-18T12:35:29.121Z</time></trkpt><trkpt lat="45.4062917" lon="10.9982291"><ele>56.6</ele><time>2026-04-18T12:35:30.129Z</time></trkpt><trkpt lat="45.4062178" lon="10.9981196"><ele>56.8</ele><time>2026-04-18T12:35:31.126Z</time></trkpt><trkpt lat="45.4061638" lon="10.9979652"><ele>57.0</ele><time>2026-04-18T12:35:32.121Z</time></trkpt><trkpt lat="45.4061292" lon="10.997768"><ele>57.0</ele><time>2026-04-18T12:35:33.119Z</time></trkpt><trkpt lat="45.4061048" lon="10.9975546"><ele>57.0</ele><time>2026-04-18T12:35:34.119Z</time></trkpt><trkpt lat="45.406091" lon="10.9973229"><ele>57.0</ele><time>2026-04-18T12:35:35.117Z</time></trkpt><trkpt lat="45.4060681" lon="10.9971242"><ele>56.833333333333336</ele><time>2026-04-18T12:35:36.117Z</time></trkpt><trkpt lat="45.4060289" lon="10.9969609"><ele>56.66666666666667</ele><time>2026-04-18T12:35:37.121Z</time></trkpt><trkpt lat="45.4060113" lon="10.9968451"><ele>56.5</ele><time>2026-04-18T12:35:38.118Z</time></trkpt><trkpt lat="45.4059896" lon="10.9967513"><ele>56.333333333333336</ele><time>2026-04-18T12:35:39.119Z</time></trkpt><trkpt lat="45.4059396" lon="10.9966527"><ele>56.16666666666667</ele><time>2026-04-18T12:35:41.13Z</time></trkpt><trkpt lat="45.4058914" lon="10.9965735"><ele>56.0</ele><time>2026-04-18T12:36:34.12Z</time></trkpt><trkpt lat="45.4058006" lon="10.9965168"><ele>56.0</ele><time>2026-04-18T12:36:36.123Z</time></trkpt><trkpt lat="45.4056903" lon="10.9966064"><ele>56.0</ele><time>2026-04-18T12:36:38.127Z</time></trkpt><trkpt lat="45.4056255" lon="10.9967279"><ele>56.0</ele><time>2026-04-18T12:36:39.119Z</time></trkpt><trkpt lat="45.4055602" lon="10.9968723"><ele>56.0</ele><time>2026-04-18T12:36:40.116Z</time></trkpt><trkpt lat="45.4054983" lon="10.9970093"><ele>56.00000000000001</ele><time>2026-04-18T12:36:41.127Z</time></trkpt><trkpt lat="45.4054333" lon="10.9971483"><ele>56.0</ele><time>2026-04-18T12:36:42.116Z</time></trkpt><trkpt lat="45.4053689" lon="10.9972597"><ele>56.0</ele><time>2026-04-18T12:36:43.143Z</time></trkpt><trkpt lat="45.4053065" lon="10.9973172"><ele>56.0</ele><time>2026-04-18T12:36:44.127Z</time></trkpt><trkpt lat="45.4052374" lon="10.9973325"><ele>56.00000000000001</ele><time>2026-04-18T12:36:45.128Z</time></trkpt><trkpt lat="45.4051584" lon="10.9973221"><ele>56.0</ele><time>2026-04-18T12:36:46.131Z</time></trkpt><trkpt lat="45.4050761" lon="10.9972717"><ele>56.0</ele><time>2026-04-18T12:36:47.125Z</time></trkpt><trkpt lat="45.4049663" lon="10.9972046"><ele>56.0</ele><time>2026-04-18T12:36:48.119Z</time></trkpt><trkpt lat="45.4048295" lon="10.9971604"><ele>56.0</ele><time>2026-04-18T12:36:49.108Z</time></trkpt><trkpt lat="45.4046763" lon="10.9971366"><ele>56.0</ele><time>2026-04-18T12:36:50.115Z</time></trkpt><trkpt lat="45.4045233" lon="10.9971283"><ele>55.66666666666667</ele><time>2026-04-18T12:36:51.107Z</time></trkpt><trkpt lat="45.4043486" lon="10.997145"><ele>55.33333333333333</ele><time>2026-04-18T12:36:52.107Z</time></trkpt><trkpt lat="45.404187" lon="10.9972223"><ele>55.0</ele><time>2026-04-18T12:36:53.111Z</time></trkpt><trkpt lat="45.4040407" lon="10.9972991"><ele>55.0</ele><time>2026-04-18T12:36:54.112Z</time></trkpt><trkpt lat="45.4038939" lon="10.9973577"><ele>55.0</ele><time>2026-04-18T12:36:55.12Z</time></trkpt><trkpt lat="45.4037556" lon="10.9974122"><ele>55.0</ele><time>2026-04-18T12:36:56.126Z</time></trkpt><trkpt lat="45.4036095" lon="10.9974761"><ele>55.0</ele><time>2026-04-18T12:36:57.119Z</time></trkpt><trkpt lat="45.4034569" lon="10.9975455"><ele>55.0</ele><time>2026-04-18T12:36:58.125Z</time></trkpt><trkpt lat="45.4033025" lon="10.9976044"><ele>55.0</ele><time>2026-04-18T12:36:59.125Z</time></trkpt><trkpt lat="45.4031386" lon="10.9976706"><ele>55.0</ele><time>2026-04-18T12:37:00.133Z</time></trkpt><trkpt lat="45.4029715" lon="10.9977391"><ele>55.0</ele><time>2026-04-18T12:37:01.125Z</time></trkpt><trkpt lat="45.4027845" lon="10.9977995"><ele>55.0</ele><time>2026-04-18T12:37:02.119Z</time></trkpt><trkpt lat="45.40261" lon="10.9978714"><ele>55.0</ele><time>2026-04-18T12:37:03.118Z</time></trkpt><trkpt lat="45.4024364" lon="10.9979301"><ele>55.0</ele><time>2026-04-18T12:37:04.12Z</time></trkpt><trkpt lat="45.4022566" lon="10.9979858"><ele>55.0</ele><time>2026-04-18T12:37:05.119Z</time></trkpt><trkpt lat="45.4020853" lon="10.9980449"><ele>55.0</ele><time>2026-04-18T12:37:06.121Z</time></trkpt><trkpt lat="45.4019274" lon="10.9980976"><ele>54.5</ele><time>2026-04-18T12:37:07.12Z</time></trkpt><trkpt lat="45.4017852" lon="10.9981552"><ele>54.0</ele><time>2026-04-18T12:37:08.125Z</time></trkpt><trkpt lat="45.4016499" lon="10.9982072"><ele>53.5</ele><time>2026-04-18T12:37:09.127Z</time></trkpt><trkpt lat="45.4015193" lon="10.9982487"><ele>53.0</ele><time>2026-04-18T12:37:10.126Z</time></trkpt><trkpt lat="45.4013744" lon="10.9982847"><ele>53.25</ele><time>2026-04-18T12:37:11.13Z</time></trkpt><trkpt lat="45.4012403" lon="10.9983223"><ele>53.5</ele><time>2026-04-18T12:37:12.125Z</time></trkpt><trkpt lat="45.4011091" lon="10.9983625"><ele>53.75</ele><time>2026-04-18T12:37:13.127Z</time></trkpt><trkpt lat="45.4009693" lon="10.9984118"><ele>54.0</ele><time>2026-04-18T12:37:14.14Z</time></trkpt><trkpt lat="45.4008139" lon="10.998472"><ele>54.0</ele><time>2026-04-18T12:37:15.128Z</time></trkpt><trkpt lat="45.4006708" lon="10.9985303"><ele>54.0</ele><time>2026-04-18T12:37:16.131Z</time></trkpt><trkpt lat="45.4005334" lon="10.9985804"><ele>54.0</ele><time>2026-04-18T12:37:17.131Z</time></trkpt><trkpt lat="45.4004009" lon="10.9986371"><ele>54.0</ele><time>2026-04-18T12:37:18.129Z</time></trkpt><trkpt lat="45.4002743" lon="10.9986963"><ele>55.0</ele><time>2026-04-18T12:37:19.131Z</time></trkpt><trkpt lat="45.4001365" lon="10.9987539"><ele>56.0</ele><time>2026-04-18T12:37:20.129Z</time></trkpt><trkpt lat="45.3999971" lon="10.9988191"><ele>57.0</ele><time>2026-04-18T12:37:21.134Z</time></trkpt><trkpt lat="45.3998763" lon="10.9988686"><ele>58.0</ele><time>2026-04-18T12:37:22.132Z</time></trkpt><trkpt lat="45.3997525" lon="10.9989284"><ele>56.8</ele><time>2026-04-18T12:37:23.132Z</time></trkpt><trkpt lat="45.3996349" lon="10.9989848"><ele>55.599999999999994</ele><time>2026-04-18T12:37:24.136Z</time></trkpt><trkpt lat="45.3995253" lon="10.999052"><ele>54.400000000000006</ele><time>2026-04-18T12:37:25.134Z</time></trkpt><trkpt lat="45.3994329" lon="10.9991078"><ele>53.2</ele><time>2026-04-18T12:37:26.135Z</time></trkpt><trkpt lat="45.3993653" lon="10.9991536"><ele>52.0</ele><time>2026-04-18T12:37:27.124Z</time></trkpt><trkpt lat="45.3993045" lon="10.9991787"><ele>52.0</ele><time>2026-04-18T12:37:28.124Z</time></trkpt><trkpt lat="45.3991908" lon="10.9991273"><ele>52.0</ele><time>2026-04-18T12:37:30.144Z</time></trkpt><trkpt lat="45.3991417" lon="10.9990412"><ele>52.0</ele><time>2026-04-18T12:37:31.135Z</time></trkpt><trkpt lat="45.3991334" lon="10.9988948"><ele>52.0</ele><time>2026-04-18T12:37:32.126Z</time></trkpt><trkpt lat="45.3991309" lon="10.9986515"><ele>52.0</ele><time>2026-04-18T12:37:33.127Z</time></trkpt><trkpt lat="45.3991267" lon="10.9983721"><ele>52.0</ele><time>2026-04-18T12:37:34.118Z</time></trkpt><trkpt lat="45.3991208" lon="10.9980535"><ele>52.0</ele><time>2026-04-18T12:37:35.126Z</time></trkpt><trkpt lat="45.3991267" lon="10.9976738"><ele>51.0</ele><time>2026-04-18T12:37:36.112Z</time></trkpt><trkpt lat="45.3991179" lon="10.997315"><ele>50.0</ele><time>2026-04-18T12:37:37.121Z</time></trkpt><trkpt lat="45.3991011" lon="10.9969707"><ele>50.66666666666667</ele><time>2026-04-18T12:37:38.123Z</time></trkpt><trkpt lat="45.3990782" lon="10.996661"><ele>51.33333333333333</ele><time>2026-04-18T12:37:39.124Z</time></trkpt><trkpt lat="45.3990465" lon="10.9964268"><ele>52.0</ele><time>2026-04-18T12:37:40.121Z</time></trkpt><trkpt lat="45.3990089" lon="10.9962616"><ele>51.99999999999999</ele><time>2026-04-18T12:37:41.12Z</time></trkpt><trkpt lat="45.3989825" lon="10.9961367"><ele>52.0</ele><time>2026-04-18T12:37:42.111Z</time></trkpt><trkpt lat="45.3989733" lon="10.9960306"><ele>52.0</ele><time>2026-04-18T12:37:43.118Z</time></trkpt><trkpt lat="45.3989811" lon="10.9959344"><ele>52.0</ele><time>2026-04-18T12:37:45.153Z</time></trkpt><trkpt lat="45.398994" lon="10.9958259"><ele>51.99999999999999</ele><time>2026-04-18T12:37:48.12Z</time></trkpt><trkpt lat="45.3989707" lon="10.9957407"><ele>52.0</ele><time>2026-04-18T12:37:50.121Z</time></trkpt><trkpt lat="45.3988916" lon="10.9957183"><ele>52.6</ele><time>2026-04-18T12:37:54.123Z</time></trkpt><trkpt lat="45.3987905" lon="10.9957421"><ele>53.2</ele><time>2026-04-18T12:37:57.076Z</time></trkpt><trkpt lat="45.3987088" lon="10.9957688"><ele>53.8</ele><time>2026-04-18T12:37:59.064Z</time></trkpt><trkpt lat="45.3985893" lon="10.9957773"><ele>54.4</ele><time>2026-04-18T12:38:00.05Z</time></trkpt><trkpt lat="45.3984508" lon="10.9957681"><ele>55.0</ele><time>2026-04-18T12:38:01.034Z</time></trkpt><trkpt lat="45.3981997" lon="10.9957842"><ele>54.99999999999999</ele><time>2026-04-18T12:38:02.085Z</time></trkpt><trkpt lat="45.3981002" lon="10.9958837"><ele>55.0</ele><time>2026-04-18T12:38:03.128Z</time></trkpt><trkpt lat="45.3980798" lon="10.9959699"><ele>55.0</ele><time>2026-04-18T12:38:04.121Z</time></trkpt><trkpt lat="45.3980717" lon="10.9960609"><ele>55.0</ele><time>2026-04-18T12:38:05.132Z</time></trkpt><trkpt lat="45.3981337" lon="10.9961905"><ele>54.99999999999999</ele><time>2026-04-18T12:38:07.142Z</time></trkpt><trkpt lat="45.3981567" lon="10.9962809"><ele>55.0</ele><time>2026-04-18T12:38:08.166Z</time></trkpt><trkpt lat="45.39817" lon="10.996396"><ele>55.0</ele><time>2026-04-18T12:38:09.134Z</time></trkpt><trkpt lat="45.398207" lon="10.9966602"><ele>55.0</ele><time>2026-04-18T12:38:11.14Z</time></trkpt><trkpt lat="45.3982319" lon="10.9968203"><ele>55.0</ele><time>2026-04-18T12:38:12.132Z</time></trkpt><trkpt lat="45.3982469" lon="10.9969563"><ele>55.0</ele><time>2026-04-18T12:38:13.126Z</time></trkpt><trkpt lat="45.3982603" lon="10.9970672"><ele>55.0</ele><time>2026-04-18T12:38:14.137Z</time></trkpt><trkpt lat="45.3982723" lon="10.9971755"><ele>55.0</ele><time>2026-04-18T12:38:16.134Z</time></trkpt><trkpt lat="45.3982711" lon="10.9970119"><ele>55.0</ele><time>2026-04-18T12:38:24.142Z</time></trkpt><trkpt lat="45.3982578" lon="10.996871"><ele>55.0</ele><time>2026-04-18T12:38:25.13Z</time></trkpt><trkpt lat="45.3982534" lon="10.9967167"><ele>55.0</ele><time>2026-04-18T12:38:26.132Z</time></trkpt><trkpt lat="45.3982473" lon="10.996568"><ele>54.99999999999999</ele><time>2026-04-18T12:38:27.132Z</time></trkpt><trkpt lat="45.3982346" lon="10.9964318"><ele>55.0</ele><time>2026-04-18T12:38:28.136Z</time></trkpt><trkpt lat="45.3982206" lon="10.9963077"><ele>55.0</ele><time>2026-04-18T12:38:29.133Z</time></trkpt><trkpt lat="45.3982024" lon="10.9962026"><ele>55.0</ele><time>2026-04-18T12:38:30.139Z</time></trkpt><trkpt lat="45.3981909" lon="10.996104"><ele>54.99999999999999</ele><time>2026-04-18T12:38:31.135Z</time></trkpt><trkpt lat="45.3981681" lon="10.9959924"><ele>55.0</ele><time>2026-04-18T12:38:33.129Z</time></trkpt><trkpt lat="45.3981214" lon="10.9959151"><ele>55.0</ele><time>2026-04-18T12:38:39.135Z</time></trkpt><trkpt lat="45.3980893" lon="10.9960162"><ele>55.0</ele><time>2026-04-18T12:39:04.135Z</time></trkpt><trkpt lat="45.3981216" lon="10.9961598"><ele>55.0</ele><time>2026-04-18T12:39:06.141Z</time></trkpt><trkpt lat="45.3981459" lon="10.9962854"><ele>55.0</ele><time>2026-04-18T12:39:07.141Z</time></trkpt><trkpt lat="45.3981663" lon="10.996431"><ele>55.0</ele><time>2026-04-18T12:39:08.141Z</time></trkpt><trkpt lat="45.3981813" lon="10.9965955"><ele>54.25</ele><time>2026-04-18T12:39:09.144Z</time></trkpt><trkpt lat="45.3981964" lon="10.9967784"><ele>53.5</ele><time>2026-04-18T12:39:10.143Z</time></trkpt><trkpt lat="45.3982173" lon="10.9969831"><ele>52.75</ele><time>2026-04-18T12:39:11.148Z</time></trkpt><trkpt lat="45.3982496" lon="10.9972152"><ele>52.0</ele><time>2026-04-18T12:39:12.142Z</time></trkpt><trkpt lat="45.3982814" lon="10.9974417"><ele>50.5</ele><time>2026-04-18T12:39:13.142Z</time></trkpt><trkpt lat="45.39834" lon="10.9978979"><ele>49.0</ele><time>2026-04-18T12:39:15.131Z</time></trkpt><trkpt lat="45.3983798" lon="10.998129"><ele>49.0</ele><time>2026-04-18T12:39:16.142Z</time></trkpt><trkpt lat="45.3984519" lon="10.9986115"><ele>49.0</ele><time>2026-04-18T12:39:18.139Z</time></trkpt><trkpt lat="45.3984728" lon="10.9988302"><ele>49.0</ele><time>2026-04-18T12:39:19.139Z</time></trkpt><trkpt lat="45.3984964" lon="10.99903"><ele>49.0</ele><time>2026-04-18T12:39:20.141Z</time></trkpt><trkpt lat="45.398516" lon="10.999202"><ele>49.0</ele><time>2026-04-18T12:39:21.145Z</time></trkpt><trkpt lat="45.3985307" lon="10.9993447"><ele>49.0</ele><time>2026-04-18T12:39:22.143Z</time></trkpt><trkpt lat="45.3985412" lon="10.9994513"><ele>49.0</ele><time>2026-04-18T12:39:23.137Z</time></trkpt><trkpt lat="45.3985154" lon="10.9995708"><ele>48.75</ele><time>2026-04-18T12:39:25.15Z</time></trkpt><trkpt lat="45.3984476" lon="10.9996148"><ele>48.5</ele><time>2026-04-18T12:39:26.148Z</time></trkpt><trkpt lat="45.3983433" lon="10.9996535"><ele>48.25</ele><time>2026-04-18T12:39:27.147Z</time></trkpt><trkpt lat="45.3982056" lon="10.9996827"><ele>48.0</ele><time>2026-04-18T12:39:28.145Z</time></trkpt><trkpt lat="45.3980754" lon="10.9997398"><ele>50.5</ele><time>2026-04-18T12:39:29.136Z</time></trkpt><trkpt lat="45.3977769" lon="10.9998786"><ele>53.0</ele><time>2026-04-18T12:39:31.134Z</time></trkpt><trkpt lat="45.3976175" lon="10.9999503"><ele>53.0</ele><time>2026-04-18T12:39:32.127Z</time></trkpt><trkpt lat="45.397452" lon="11.000025"><ele>53.0</ele><time>2026-04-18T12:39:33.124Z</time></trkpt><trkpt lat="45.3973129" lon="11.0000997"><ele>53.0</ele><time>2026-04-18T12:39:34.129Z</time></trkpt><trkpt lat="45.3971875" lon="11.0001702"><ele>51.75</ele><time>2026-04-18T12:39:35.139Z</time></trkpt><trkpt lat="45.3970741" lon="11.0002321"><ele>50.5</ele><time>2026-04-18T12:39:36.145Z</time></trkpt><trkpt lat="45.3969524" lon="11.0002902"><ele>49.25</ele><time>2026-04-18T12:39:37.144Z</time></trkpt><trkpt lat="45.3968267" lon="11.0003463"><ele>48.0</ele><time>2026-04-18T12:39:38.143Z</time></trkpt><trkpt lat="45.3967009" lon="11.0003952"><ele>48.0</ele><time>2026-04-18T12:39:39.14Z</time></trkpt><trkpt lat="45.3965832" lon="11.000445"><ele>48.0</ele><time>2026-04-18T12:39:40.141Z</time></trkpt><trkpt lat="45.3964672" lon="11.0004887"><ele>48.0</ele><time>2026-04-18T12:39:41.143Z</time></trkpt><trkpt lat="45.3963622" lon="11.0005332"><ele>48.0</ele><time>2026-04-18T12:39:42.144Z</time></trkpt><trkpt lat="45.3962606" lon="11.0005765"><ele>47.8</ele><time>2026-04-18T12:39:43.144Z</time></trkpt><trkpt lat="45.396156" lon="11.000608"><ele>47.599999999999994</ele><time>2026-04-18T12:39:44.146Z</time></trkpt><trkpt lat="45.3960604" lon="11.0006291"><ele>47.400000000000006</ele><time>2026-04-18T12:39:45.144Z</time></trkpt><trkpt lat="45.3959676" lon="11.0006476"><ele>47.2</ele><time>2026-04-18T12:39:46.141Z</time></trkpt><trkpt lat="45.3958765" lon="11.000664"><ele>47.0</ele><time>2026-04-18T12:39:47.14Z</time></trkpt><trkpt lat="45.3957775" lon="11.0006978"><ele>47.0</ele><time>2026-04-18T12:39:48.156Z</time></trkpt><trkpt lat="45.395665" lon="11.0007413"><ele>47.0</ele><time>2026-04-18T12:39:49.143Z</time></trkpt><trkpt lat="45.3955451" lon="11.0007914"><ele>47.0</ele><time>2026-04-18T12:39:50.142Z</time></trkpt><trkpt lat="45.3954117" lon="11.0008422"><ele>47.0</ele><time>2026-04-18T12:39:51.141Z</time></trkpt><trkpt lat="45.3952772" lon="11.0008967"><ele>48.0</ele><time>2026-04-18T12:39:52.144Z</time></trkpt><trkpt lat="45.3951385" lon="11.0009459"><ele>49.0</ele><time>2026-04-18T12:39:53.144Z</time></trkpt><trkpt lat="45.3950001" lon="11.001"><ele>50.0</ele><time>2026-04-18T12:39:54.145Z</time></trkpt><trkpt lat="45.3948681" lon="11.0010486"><ele>51.0</ele><time>2026-04-18T12:39:55.145Z</time></trkpt><trkpt lat="45.3947416" lon="11.0010939"><ele>50.5</ele><time>2026-04-18T12:39:56.146Z</time></trkpt><trkpt lat="45.394606" lon="11.0011516"><ele>50.0</ele><time>2026-04-18T12:39:57.147Z</time></trkpt><trkpt lat="45.3944848" lon="11.0012078"><ele>49.5</ele><time>2026-04-18T12:39:58.143Z</time></trkpt><trkpt lat="45.3943697" lon="11.0012588"><ele>49.0</ele><time>2026-04-18T12:39:59.148Z</time></trkpt><trkpt lat="45.3942658" lon="11.0013106"><ele>49.0</ele><time>2026-04-18T12:40:00.153Z</time></trkpt><trkpt lat="45.3941674" lon="11.0013664"><ele>49.0</ele><time>2026-04-18T12:40:01.148Z</time></trkpt><trkpt lat="45.3940711" lon="11.00142"><ele>49.0</ele><time>2026-04-18T12:40:02.142Z</time></trkpt><trkpt lat="45.3939691" lon="11.001477"><ele>49.0</ele><time>2026-04-18T12:40:03.144Z</time></trkpt><trkpt lat="45.39386" lon="11.0015406"><ele>49.0</ele><time>2026-04-18T12:40:04.139Z</time></trkpt><trkpt lat="45.3937391" lon="11.0016058"><ele>49.0</ele><time>2026-04-18T12:40:05.143Z</time></trkpt><trkpt lat="45.3935956" lon="11.0016793"><ele>49.0</ele><time>2026-04-18T12:40:06.151Z</time></trkpt><trkpt lat="45.3934265" lon="11.0017627"><ele>49.0</ele><time>2026-04-18T12:40:07.144Z</time></trkpt><trkpt lat="45.3932497" lon="11.0018379"><ele>49.0</ele><time>2026-04-18T12:40:08.135Z</time></trkpt><trkpt lat="45.3930602" lon="11.0019211"><ele>49.0</ele><time>2026-04-18T12:40:09.142Z</time></trkpt><trkpt lat="45.3928591" lon="11.0020157"><ele>49.0</ele><time>2026-04-18T12:40:10.143Z</time></trkpt><trkpt lat="45.3926567" lon="11.0021054"><ele>49.0</ele><time>2026-04-18T12:40:11.136Z</time></trkpt><trkpt lat="45.3924442" lon="11.0022068"><ele>49.0</ele><time>2026-04-18T12:40:12.136Z</time></trkpt><trkpt lat="45.3922309" lon="11.0023026"><ele>49.0</ele><time>2026-04-18T12:40:13.144Z</time></trkpt><trkpt lat="45.3920158" lon="11.0024012"><ele>48.0</ele><time>2026-04-18T12:40:14.143Z</time></trkpt><trkpt lat="45.3918017" lon="11.0024931"><ele>47.0</ele><time>2026-04-18T12:40:15.143Z</time></trkpt><trkpt lat="45.3915759" lon="11.0026111"><ele>46.5</ele><time>2026-04-18T12:40:16.147Z</time></trkpt><trkpt lat="45.3913517" lon="11.0027262"><ele>46.0</ele><time>2026-04-18T12:40:17.156Z</time></trkpt><trkpt lat="45.3911226" lon="11.0028514"><ele>47.0</ele><time>2026-04-18T12:40:18.138Z</time></trkpt><trkpt lat="45.3909017" lon="11.0029702"><ele>48.0</ele><time>2026-04-18T12:40:19.168Z</time></trkpt><trkpt lat="45.3906875" lon="11.0030925"><ele>48.0</ele><time>2026-04-18T12:40:20.147Z</time></trkpt><trkpt lat="45.3904767" lon="11.0031968"><ele>48.0</ele><time>2026-04-18T12:40:21.145Z</time></trkpt><trkpt lat="45.3902869" lon="11.0032878"><ele>48.0</ele><time>2026-04-18T12:40:22.144Z</time></trkpt><trkpt lat="45.3901015" lon="11.003381"><ele>48.0</ele><time>2026-04-18T12:40:23.15Z</time></trkpt><trkpt lat="45.389925" lon="11.0034836"><ele>48.0</ele><time>2026-04-18T12:40:24.148Z</time></trkpt><trkpt lat="45.3897464" lon="11.0035697"><ele>48.0</ele><time>2026-04-18T12:40:25.149Z</time></trkpt><trkpt lat="45.3895961" lon="11.0036348"><ele>48.2</ele><time>2026-04-18T12:40:26.134Z</time></trkpt><trkpt lat="45.3894773" lon="11.0036865"><ele>48.4</ele><time>2026-04-18T12:40:27.151Z</time></trkpt><trkpt lat="45.3893998" lon="11.0037221"><ele>48.6</ele><time>2026-04-18T12:40:28.147Z</time></trkpt><trkpt lat="45.3893385" lon="11.0037576"><ele>48.800000000000004</ele><time>2026-04-18T12:40:29.143Z</time></trkpt><trkpt lat="45.3892136" lon="11.0037084"><ele>49.0</ele><time>2026-04-18T12:40:31.154Z</time></trkpt><trkpt lat="45.3891492" lon="11.0036449"><ele>49.0</ele><time>2026-04-18T12:40:32.148Z</time></trkpt><trkpt lat="45.3890904" lon="11.0035472"><ele>49.0</ele><time>2026-04-18T12:40:33.146Z</time></trkpt><trkpt lat="45.3890433" lon="11.0034318"><ele>49.0</ele><time>2026-04-18T12:40:34.143Z</time></trkpt><trkpt lat="45.3890292" lon="11.0032904"><ele>49.0</ele><time>2026-04-18T12:40:35.146Z</time></trkpt><trkpt lat="45.3890407" lon="11.0031292"><ele>49.0</ele><time>2026-04-18T12:40:36.144Z</time></trkpt><trkpt lat="45.389064" lon="11.0029321"><ele>48.33333333333333</ele><time>2026-04-18T12:40:37.137Z</time></trkpt><trkpt lat="45.3890688" lon="11.0027193"><ele>47.666666666666664</ele><time>2026-04-18T12:40:38.146Z</time></trkpt><trkpt lat="45.3890789" lon="11.0024875"><ele>47.0</ele><time>2026-04-18T12:40:39.143Z</time></trkpt><trkpt lat="45.3890849" lon="11.0022438"><ele>46.666666666666664</ele><time>2026-04-18T12:40:40.149Z</time></trkpt><trkpt lat="45.3890808" lon="11.001996"><ele>46.333333333333336</ele><time>2026-04-18T12:40:41.143Z</time></trkpt><trkpt lat="45.389071" lon="11.001742"><ele>46.0</ele><time>2026-04-18T12:40:42.143Z</time></trkpt><trkpt lat="45.3890559" lon="11.00149"><ele>47.0</ele><time>2026-04-18T12:40:43.14Z</time></trkpt><trkpt lat="45.3890398" lon="11.0012471"><ele>48.0</ele><time>2026-04-18T12:40:44.145Z</time></trkpt><trkpt lat="45.3890226" lon="11.001026"><ele>49.0</ele><time>2026-04-18T12:40:45.146Z</time></trkpt><trkpt lat="45.3890006" lon="11.0008168"><ele>49.0</ele><time>2026-04-18T12:40:46.145Z</time></trkpt><trkpt lat="45.388972" lon="11.0005967"><ele>49.0</ele><time>2026-04-18T12:40:47.15Z</time></trkpt><trkpt lat="45.3889445" lon="11.000386"><ele>49.0</ele><time>2026-04-18T12:40:48.145Z</time></trkpt><trkpt lat="45.3889258" lon="11.0001679"><ele>49.0</ele><time>2026-04-18T12:40:49.147Z</time></trkpt><trkpt lat="45.3889102" lon="10.9999585"><ele>49.0</ele><time>2026-04-18T12:40:50.164Z</time></trkpt><trkpt lat="45.3888931" lon="10.9997653"><ele>49.0</ele><time>2026-04-18T12:40:51.147Z</time></trkpt><trkpt lat="45.3888635" lon="10.9995956"><ele>49.0</ele><time>2026-04-18T12:40:52.142Z</time></trkpt><trkpt lat="45.388845" lon="10.9994276"><ele>49.0</ele><time>2026-04-18T12:40:53.15Z</time></trkpt><trkpt lat="45.3888255" lon="10.9992569"><ele>49.0</ele><time>2026-04-18T12:40:54.152Z</time></trkpt><trkpt lat="45.3888133" lon="10.9990939"><ele>49.0</ele><time>2026-04-18T12:40:55.149Z</time></trkpt><trkpt lat="45.3887987" lon="10.9989282"><ele>49.0</ele><time>2026-04-18T12:40:56.148Z</time></trkpt><trkpt lat="45.388784" lon="10.9987571"><ele>49.0</ele><time>2026-04-18T12:40:57.143Z</time></trkpt><trkpt lat="45.3887693" lon="10.9985812"><ele>49.0</ele><time>2026-04-18T12:40:58.148Z</time></trkpt><trkpt lat="45.3887553" lon="10.99842"><ele>49.0</ele><time>2026-04-18T12:40:59.148Z</time></trkpt><trkpt lat="45.3887325" lon="10.9982775"><ele>49.0</ele><time>2026-04-18T12:41:00.155Z</time></trkpt><trkpt lat="45.3887131" lon="10.9981385"><ele>49.0</ele><time>2026-04-18T12:41:01.154Z</time></trkpt><trkpt lat="45.3886967" lon="10.9980103"><ele>48.99999999999999</ele><time>2026-04-18T12:41:02.139Z</time></trkpt><trkpt lat="45.3886806" lon="10.9978963"><ele>49.0</ele><time>2026-04-18T12:41:03.143Z</time></trkpt><trkpt lat="45.3886594" lon="10.9978047"><ele>49.0</ele><time>2026-04-18T12:41:04.138Z</time></trkpt><trkpt lat="45.3886371" lon="10.9976785"><ele>49.0</ele><time>2026-04-18T12:41:06.145Z</time></trkpt><trkpt lat="45.3885315" lon="10.9976444"><ele>48.99999999999999</ele><time>2026-04-18T12:41:10.147Z</time></trkpt><trkpt lat="45.3884522" lon="10.9976492"><ele>49.0</ele><time>2026-04-18T12:41:11.141Z</time></trkpt><trkpt lat="45.3883852" lon="10.9976638"><ele>49.0</ele><time>2026-04-18T12:41:12.146Z</time></trkpt><trkpt lat="45.3883124" lon="10.9976721"><ele>49.0</ele><time>2026-04-18T12:41:13.144Z</time></trkpt><trkpt lat="45.388234" lon="10.9976811"><ele>49.0</ele><time>2026-04-18T12:41:14.149Z</time></trkpt><trkpt lat="45.388136" lon="10.997694"><ele>49.0</ele><time>2026-04-18T12:41:15.141Z</time></trkpt><trkpt lat="45.3880295" lon="10.9977096"><ele>49.0</ele><time>2026-04-18T12:41:16.136Z</time></trkpt><trkpt lat="45.3879239" lon="10.9977187"><ele>48.83333333333333</ele><time>2026-04-18T12:41:17.145Z</time></trkpt><trkpt lat="45.3878185" lon="10.9977277"><ele>48.666666666666664</ele><time>2026-04-18T12:41:18.145Z</time></trkpt><trkpt lat="45.3877212" lon="10.9977285"><ele>48.5</ele><time>2026-04-18T12:41:19.139Z</time></trkpt><trkpt lat="45.3876251" lon="10.9977313"><ele>48.33333333333333</ele><time>2026-04-18T12:41:20.152Z</time></trkpt><trkpt lat="45.3875532" lon="10.9977291"><ele>48.166666666666664</ele><time>2026-04-18T12:41:21.163Z</time></trkpt><trkpt lat="45.3874861" lon="10.9977324"><ele>48.0</ele><time>2026-04-18T12:41:22.151Z</time></trkpt><trkpt lat="45.3874189" lon="10.9977364"><ele>48.0</ele><time>2026-04-18T12:41:23.149Z</time></trkpt><trkpt lat="45.3873452" lon="10.9977352"><ele>48.0</ele><time>2026-04-18T12:41:24.152Z</time></trkpt><trkpt lat="45.3872627" lon="10.997741"><ele>48.0</ele><time>2026-04-18T12:41:25.156Z</time></trkpt><trkpt lat="45.3871619" lon="10.9977412"><ele>48.0</ele><time>2026-04-18T12:41:26.152Z</time></trkpt><trkpt lat="45.3870433" lon="10.9977427"><ele>48.0</ele><time>2026-04-18T12:41:27.151Z</time></trkpt><trkpt lat="45.3869195" lon="10.9977485"><ele>48.5</ele><time>2026-04-18T12:41:28.151Z</time></trkpt><trkpt lat="45.3868023" lon="10.9977515"><ele>49.0</ele><time>2026-04-18T12:41:29.15Z</time></trkpt><trkpt lat="45.3866852" lon="10.9977573"><ele>49.5</ele><time>2026-04-18T12:41:30.158Z</time></trkpt><trkpt lat="45.3865702" lon="10.9977648"><ele>50.0</ele><time>2026-04-18T12:41:31.153Z</time></trkpt><trkpt lat="45.3864596" lon="10.9977755"><ele>50.0</ele><time>2026-04-18T12:41:32.153Z</time></trkpt><trkpt lat="45.3863542" lon="10.9977833"><ele>50.0</ele><time>2026-04-18T12:41:33.151Z</time></trkpt><trkpt lat="45.3862557" lon="10.9977961"><ele>50.0</ele><time>2026-04-18T12:41:34.154Z</time></trkpt><trkpt lat="45.3861527" lon="10.9978094"><ele>50.0</ele><time>2026-04-18T12:41:35.15Z</time></trkpt><trkpt lat="45.3860495" lon="10.9978256"><ele>50.0</ele><time>2026-04-18T12:41:36.15Z</time></trkpt><trkpt lat="45.3859465" lon="10.9978395"><ele>50.16666666666667</ele><time>2026-04-18T12:41:37.141Z</time></trkpt><trkpt lat="45.3858496" lon="10.997852"><ele>50.333333333333336</ele><time>2026-04-18T12:41:38.144Z</time></trkpt><trkpt lat="45.3857625" lon="10.9978652"><ele>50.5</ele><time>2026-04-18T12:41:39.148Z</time></trkpt><trkpt lat="45.3856788" lon="10.9978622"><ele>50.66666666666667</ele><time>2026-04-18T12:41:40.145Z</time></trkpt><trkpt lat="45.3856085" lon="10.9978626"><ele>50.833333333333336</ele><time>2026-04-18T12:41:41.139Z</time></trkpt><trkpt lat="45.3855224" lon="10.9978552"><ele>51.0</ele><time>2026-04-18T12:41:43.143Z</time></trkpt><trkpt lat="45.3854525" lon="10.9978436"><ele>51.0</ele><time>2026-04-18T12:41:46.142Z</time></trkpt><trkpt lat="45.3854673" lon="10.9979353"><ele>51.0</ele><time>2026-04-18T12:41:51.139Z</time></trkpt><trkpt lat="45.3855611" lon="10.9979477"><ele>51.0</ele><time>2026-04-18T12:41:53.136Z</time></trkpt><trkpt lat="45.3856276" lon="10.997942"><ele>51.0</ele><time>2026-04-18T12:41:54.142Z</time></trkpt><trkpt lat="45.3857116" lon="10.9979353"><ele>51.0</ele><time>2026-04-18T12:41:55.144Z</time></trkpt><trkpt lat="45.3858135" lon="10.9979293"><ele>51.0</ele><time>2026-04-18T12:41:56.145Z</time></trkpt><trkpt lat="45.3859181" lon="10.9979115"><ele>51.0</ele><time>2026-04-18T12:41:57.144Z</time></trkpt><trkpt lat="45.3860216" lon="10.9978836"><ele>51.0</ele><time>2026-04-18T12:41:58.146Z</time></trkpt><trkpt lat="45.3861328" lon="10.9978607"><ele>51.0</ele><time>2026-04-18T12:41:59.138Z</time></trkpt><trkpt lat="45.386249" lon="10.9978486"><ele>51.0</ele><time>2026-04-18T12:42:00.145Z</time></trkpt><trkpt lat="45.3863877" lon="10.9978352"><ele>50.75</ele><time>2026-04-18T12:42:01.156Z</time></trkpt><trkpt lat="45.386539" lon="10.9978395"><ele>50.5</ele><time>2026-04-18T12:42:02.147Z</time></trkpt><trkpt lat="45.386688" lon="10.9978361"><ele>50.25</ele><time>2026-04-18T12:42:03.147Z</time></trkpt><trkpt lat="45.3868255" lon="10.9978303"><ele>50.0</ele><time>2026-04-18T12:42:04.142Z</time></trkpt><trkpt lat="45.3869551" lon="10.9978252"><ele>50.0</ele><time>2026-04-18T12:42:05.144Z</time></trkpt><trkpt lat="45.3870804" lon="10.9978213"><ele>50.0</ele><time>2026-04-18T12:42:06.142Z</time></trkpt><trkpt lat="45.3871907" lon="10.9978097"><ele>50.0</ele><time>2026-04-18T12:42:07.152Z</time></trkpt><trkpt lat="45.3872871" lon="10.9978067"><ele>50.0</ele><time>2026-04-18T12:42:08.139Z</time></trkpt><trkpt lat="45.3873711" lon="10.9977923"><ele>50.0</ele><time>2026-04-18T12:42:09.15Z</time></trkpt><trkpt lat="45.3874394" lon="10.9977638"><ele>49.6</ele><time>2026-04-18T12:42:10.147Z</time></trkpt><trkpt lat="45.3874926" lon="10.9977017"><ele>49.2</ele><time>2026-04-18T12:42:11.144Z</time></trkpt><trkpt lat="45.3875194" lon="10.9976011"><ele>48.8</ele><time>2026-04-18T12:42:12.147Z</time></trkpt><trkpt lat="45.387522" lon="10.9974666"><ele>48.4</ele><time>2026-04-18T12:42:13.146Z</time></trkpt><trkpt lat="45.3875032" lon="10.9973027"><ele>48.0</ele><time>2026-04-18T12:42:14.132Z</time></trkpt><trkpt lat="45.3874953" lon="10.9971369"><ele>48.0</ele><time>2026-04-18T12:42:15.135Z</time></trkpt><trkpt lat="45.3874824" lon="10.9969851"><ele>48.0</ele><time>2026-04-18T12:42:16.138Z</time></trkpt><trkpt lat="45.3874636" lon="10.9968344"><ele>48.0</ele><time>2026-04-18T12:42:17.139Z</time></trkpt><trkpt lat="45.3874498" lon="10.9966882"><ele>48.0</ele><time>2026-04-18T12:42:18.137Z</time></trkpt><trkpt lat="45.3874375" lon="10.9965391"><ele>48.0</ele><time>2026-04-18T12:42:19.147Z</time></trkpt><trkpt lat="45.3874326" lon="10.9963789"><ele>48.0</ele><time>2026-04-18T12:42:20.14Z</time></trkpt><trkpt lat="45.3874234" lon="10.9962067"><ele>48.0</ele><time>2026-04-18T12:42:21.141Z</time></trkpt><trkpt lat="45.3874135" lon="10.9960267"><ele>48.0</ele><time>2026-04-18T12:42:22.14Z</time></trkpt><trkpt lat="45.387408" lon="10.9958745"><ele>48.0</ele><time>2026-04-18T12:42:23.153Z</time></trkpt><trkpt lat="45.3874041" lon="10.9957599"><ele>48.0</ele><time>2026-04-18T12:42:24.139Z</time></trkpt><trkpt lat="45.387398" lon="10.995663"><ele>48.0</ele><time>2026-04-18T12:42:25.134Z</time></trkpt><trkpt lat="45.3874026" lon="10.9955107"><ele>48.0</ele><time>2026-04-18T12:42:27.138Z</time></trkpt><trkpt lat="45.3874" lon="10.9953926"><ele>48.0</ele><time>2026-04-18T12:42:29.14Z</time></trkpt><trkpt lat="45.3873956" lon="10.9953011"><ele>48.0</ele><time>2026-04-18T12:42:31.147Z</time></trkpt><trkpt lat="45.38739" lon="10.9951464"><ele>48.0</ele><time>2026-04-18T12:42:34.139Z</time></trkpt><trkpt lat="45.3873837" lon="10.9950162"><ele>48.0</ele><time>2026-04-18T12:42:35.136Z</time></trkpt><trkpt lat="45.3873741" lon="10.9948759"><ele>48.0</ele><time>2026-04-18T12:42:36.132Z</time></trkpt><trkpt lat="45.3873728" lon="10.9947107"><ele>48.0</ele><time>2026-04-18T12:42:37.133Z</time></trkpt><trkpt lat="45.3873711" lon="10.9945555"><ele>48.0</ele><time>2026-04-18T12:42:38.133Z</time></trkpt><trkpt lat="45.3873661" lon="10.9944304"><ele>48.0</ele><time>2026-04-18T12:42:39.133Z</time></trkpt><trkpt lat="45.3873635" lon="10.9943296"><ele>48.0</ele><time>2026-04-18T12:42:40.15Z</time></trkpt><trkpt lat="45.3873379" lon="10.9942341"><ele>48.0</ele><time>2026-04-18T12:42:57.138Z</time></trkpt><trkpt lat="45.3872353" lon="10.994194"><ele>48.0</ele><time>2026-04-18T12:42:59.139Z</time></trkpt><trkpt lat="45.3871203" lon="10.9942101"><ele>48.0</ele><time>2026-04-18T12:43:00.137Z</time></trkpt><trkpt lat="45.38701" lon="10.9942208"><ele>48.0</ele><time>2026-04-18T12:43:01.145Z</time></trkpt><trkpt lat="45.3869028" lon="10.9942367"><ele>48.0</ele><time>2026-04-18T12:43:02.131Z</time></trkpt><trkpt lat="45.386785" lon="10.9942503"><ele>48.0</ele><time>2026-04-18T12:43:03.132Z</time></trkpt><trkpt lat="45.3866597" lon="10.9942771"><ele>48.0</ele><time>2026-04-18T12:43:04.142Z</time></trkpt><trkpt lat="45.3865227" lon="10.994306"><ele>48.0</ele><time>2026-04-18T12:43:05.142Z</time></trkpt><trkpt lat="45.3863821" lon="10.9943335"><ele>48.0</ele><time>2026-04-18T12:43:06.14Z</time></trkpt><trkpt lat="45.3862341" lon="10.994358"><ele>48.0</ele><time>2026-04-18T12:43:07.143Z</time></trkpt><trkpt lat="45.3860895" lon="10.9943867"><ele>48.0</ele><time>2026-04-18T12:43:08.143Z</time></trkpt><trkpt lat="45.3859329" lon="10.9944197"><ele>48.0</ele><time>2026-04-18T12:43:09.146Z</time></trkpt><trkpt lat="45.3857803" lon="10.9944559"><ele>48.0</ele><time>2026-04-18T12:43:10.141Z</time></trkpt><trkpt lat="45.3856306" lon="10.9944886"><ele>48.0</ele><time>2026-04-18T12:43:11.14Z</time></trkpt><trkpt lat="45.3854804" lon="10.9945228"><ele>48.0</ele><time>2026-04-18T12:43:12.14Z</time></trkpt><trkpt lat="45.3853265" lon="10.9945637"><ele>48.0</ele><time>2026-04-18T12:43:13.148Z</time></trkpt><trkpt lat="45.3851782" lon="10.9945912"><ele>48.0</ele><time>2026-04-18T12:43:14.147Z</time></trkpt><trkpt lat="45.3850324" lon="10.9946149"><ele>48.0</ele><time>2026-04-18T12:43:15.152Z</time></trkpt><trkpt lat="45.3848899" lon="10.9946389"><ele>48.0</ele><time>2026-04-18T12:43:16.146Z</time></trkpt><trkpt lat="45.3847547" lon="10.9946756"><ele>48.0</ele><time>2026-04-18T12:43:17.146Z</time></trkpt><trkpt lat="45.3846105" lon="10.9947089"><ele>48.0</ele><time>2026-04-18T12:43:18.147Z</time></trkpt><trkpt lat="45.3844629" lon="10.9947453"><ele>48.0</ele><time>2026-04-18T12:43:19.146Z</time></trkpt><trkpt lat="45.3843095" lon="10.994783"><ele>48.0</ele><time>2026-04-18T12:43:20.146Z</time></trkpt><trkpt lat="45.3841614" lon="10.9948145"><ele>48.0</ele><time>2026-04-18T12:43:21.146Z</time></trkpt><trkpt lat="45.3840211" lon="10.9948438"><ele>48.0</ele><time>2026-04-18T12:43:22.145Z</time></trkpt><trkpt lat="45.383882" lon="10.9948817"><ele>48.25</ele><time>2026-04-18T12:43:23.141Z</time></trkpt><trkpt lat="45.3837581" lon="10.9949153"><ele>48.5</ele><time>2026-04-18T12:43:24.138Z</time></trkpt><trkpt lat="45.3836338" lon="10.994939"><ele>48.75</ele><time>2026-04-18T12:43:25.157Z</time></trkpt><trkpt lat="45.383516" lon="10.9949563"><ele>49.0</ele><time>2026-04-18T12:43:26.135Z</time></trkpt><trkpt lat="45.383418" lon="10.9949675"><ele>48.99999999999999</ele><time>2026-04-18T12:43:27.136Z</time></trkpt><trkpt lat="45.3833232" lon="10.9949829"><ele>49.0</ele><time>2026-04-18T12:43:28.139Z</time></trkpt><trkpt lat="45.3832441" lon="10.9949804"><ele>49.0</ele><time>2026-04-18T12:43:29.139Z</time></trkpt><trkpt lat="45.3831473" lon="10.9949892"><ele>49.0</ele><time>2026-04-18T12:43:31.141Z</time></trkpt><trkpt lat="45.3830754" lon="10.9950216"><ele>48.99999999999999</ele><time>2026-04-18T12:43:33.137Z</time></trkpt><trkpt lat="45.3830161" lon="10.9950783"><ele>49.0</ele><time>2026-04-18T12:43:37.146Z</time></trkpt><trkpt lat="45.3829537" lon="10.995099"><ele>48.99999999999999</ele><time>2026-04-18T12:43:43.135Z</time></trkpt><trkpt lat="45.3830206" lon="10.9951622"><ele>49.0</ele><time>2026-04-18T12:43:52.122Z</time></trkpt><trkpt lat="45.3830823" lon="10.9951997"><ele>49.0</ele><time>2026-04-18T12:43:56.155Z</time></trkpt><trkpt lat="45.3831823" lon="10.9951265"><ele>49.0</ele><time>2026-04-18T12:44:00.134Z</time></trkpt><trkpt lat="45.3832646" lon="10.9950655"><ele>48.99999999999999</ele><time>2026-04-18T12:44:01.132Z</time></trkpt><trkpt lat="45.3833538" lon="10.9950542"><ele>49.0</ele><time>2026-04-18T12:44:02.136Z</time></trkpt><trkpt lat="45.3834401" lon="10.9950466"><ele>48.99999999999999</ele><time>2026-04-18T12:44:03.132Z</time></trkpt><trkpt lat="45.3835302" lon="10.9950271"><ele>49.0</ele><time>2026-04-18T12:44:04.132Z</time></trkpt><trkpt lat="45.3835964" lon="10.9950098"><ele>49.0</ele><time>2026-04-18T12:44:05.129Z</time></trkpt><trkpt lat="45.3836502" lon="10.9948785"><ele>49.0</ele><time>2026-04-18T12:44:07.131Z</time></trkpt><trkpt lat="45.383666" lon="10.9947818"><ele>48.99999999999999</ele><time>2026-04-18T12:44:08.133Z</time></trkpt><trkpt lat="45.3836795" lon="10.9946334"><ele>49.0</ele><time>2026-04-18T12:44:09.132Z</time></trkpt><trkpt lat="45.3837022" lon="10.994457"><ele>49.0</ele><time>2026-04-18T12:44:10.125Z</time></trkpt><trkpt lat="45.3837161" lon="10.9942755"><ele>49.0</ele><time>2026-04-18T12:44:11.133Z</time></trkpt><trkpt lat="45.3837339" lon="10.9940826"><ele>49.0</ele><time>2026-04-18T12:44:12.129Z</time></trkpt><trkpt lat="45.3837632" lon="10.993897"><ele>49.0</ele><time>2026-04-18T12:44:13.146Z</time></trkpt><trkpt lat="45.3837845" lon="10.9937177"><ele>48.75</ele><time>2026-04-18T12:44:14.142Z</time></trkpt><trkpt lat="45.3837993" lon="10.9935285"><ele>48.5</ele><time>2026-04-18T12:44:15.149Z</time></trkpt><trkpt lat="45.3838033" lon="10.9933141"><ele>48.25</ele><time>2026-04-18T12:44:16.143Z</time></trkpt><trkpt lat="45.3837983" lon="10.9930849"><ele>48.0</ele><time>2026-04-18T12:44:17.145Z</time></trkpt><trkpt lat="45.383791" lon="10.9928936"><ele>47.8</ele><time>2026-04-18T12:44:18.136Z</time></trkpt><trkpt lat="45.3837934" lon="10.9927457"><ele>47.599999999999994</ele><time>2026-04-18T12:44:19.141Z</time></trkpt><trkpt lat="45.3837978" lon="10.9926341"><ele>47.400000000000006</ele><time>2026-04-18T12:44:20.142Z</time></trkpt><trkpt lat="45.3837846" lon="10.9924904"><ele>47.2</ele><time>2026-04-18T12:44:22.144Z</time></trkpt><trkpt lat="45.3837187" lon="10.9924017"><ele>47.0</ele><time>2026-04-18T12:44:25.149Z</time></trkpt><trkpt lat="45.3835579" lon="10.9923826"><ele>47.0</ele><time>2026-04-18T12:44:27.158Z</time></trkpt><trkpt lat="45.383445" lon="10.9923823"><ele>47.0</ele><time>2026-04-18T12:44:28.151Z</time></trkpt><trkpt lat="45.3833067" lon="10.9923821"><ele>47.0</ele><time>2026-04-18T12:44:29.142Z</time></trkpt><trkpt lat="45.3831584" lon="10.9923931"><ele>47.0</ele><time>2026-04-18T12:44:30.153Z</time></trkpt><trkpt lat="45.3830007" lon="10.9923962"><ele>47.0</ele><time>2026-04-18T12:44:31.149Z</time></trkpt><trkpt lat="45.3828158" lon="10.9923941"><ele>47.0</ele><time>2026-04-18T12:44:32.151Z</time></trkpt><trkpt lat="45.3826278" lon="10.9923781"><ele>47.0</ele><time>2026-04-18T12:44:33.149Z</time></trkpt><trkpt lat="45.3824467" lon="10.9923628"><ele>47.0</ele><time>2026-04-18T12:44:34.154Z</time></trkpt><trkpt lat="45.382277" lon="10.9923414"><ele>47.0</ele><time>2026-04-18T12:44:35.148Z</time></trkpt><trkpt lat="45.382127" lon="10.9923202"><ele>47.0</ele><time>2026-04-18T12:44:36.147Z</time></trkpt><trkpt lat="45.3819887" lon="10.9923037"><ele>47.0</ele><time>2026-04-18T12:44:37.148Z</time></trkpt><trkpt lat="45.3818475" lon="10.9923095"><ele>47.0</ele><time>2026-04-18T12:44:38.144Z</time></trkpt><trkpt lat="45.3816986" lon="10.9923305"><ele>47.0</ele><time>2026-04-18T12:44:39.142Z</time></trkpt><trkpt lat="45.3815339" lon="10.9923353"><ele>47.0</ele><time>2026-04-18T12:44:40.145Z</time></trkpt><trkpt lat="45.381379" lon="10.9923408"><ele>47.0</ele><time>2026-04-18T12:44:41.133Z</time></trkpt><trkpt lat="45.3812473" lon="10.9923383"><ele>47.0</ele><time>2026-04-18T12:44:42.134Z</time></trkpt><trkpt lat="45.3811208" lon="10.9923324"><ele>47.0</ele><time>2026-04-18T12:44:43.128Z</time></trkpt><trkpt lat="45.3809941" lon="10.9923225"><ele>47.2</ele><time>2026-04-18T12:44:44.129Z</time></trkpt><trkpt lat="45.3808875" lon="10.992318"><ele>47.400000000000006</ele><time>2026-04-18T12:44:45.127Z</time></trkpt><trkpt lat="45.3808032" lon="10.9923291"><ele>47.599999999999994</ele><time>2026-04-18T12:44:46.125Z</time></trkpt><trkpt lat="45.380723" lon="10.9923442"><ele>47.8</ele><time>2026-04-18T12:44:48.135Z</time></trkpt><trkpt lat="45.3807029" lon="10.9921666"><ele>48.0</ele><time>2026-04-18T12:44:52.137Z</time></trkpt><trkpt lat="45.3806682" lon="10.9920394"><ele>48.0</ele><time>2026-04-18T12:44:53.13Z</time></trkpt><trkpt lat="45.3806243" lon="10.9919042"><ele>48.0</ele><time>2026-04-18T12:44:54.144Z</time></trkpt><trkpt lat="45.3805803" lon="10.991741"><ele>48.0</ele><time>2026-04-18T12:44:55.131Z</time></trkpt><trkpt lat="45.3805125" lon="10.9915852"><ele>48.0</ele><time>2026-04-18T12:44:56.127Z</time></trkpt><trkpt lat="45.3804389" lon="10.9914129"><ele>47.666666666666664</ele><time>2026-04-18T12:44:57.132Z</time></trkpt><trkpt lat="45.3803591" lon="10.9912297"><ele>47.33333333333333</ele><time>2026-04-18T12:44:58.15Z</time></trkpt><trkpt lat="45.3802708" lon="10.9910432"><ele>47.0</ele><time>2026-04-18T12:44:59.139Z</time></trkpt><trkpt lat="45.3801826" lon="10.9908507"><ele>46.666666666666664</ele><time>2026-04-18T12:45:00.1Z</time></trkpt><trkpt lat="45.3800959" lon="10.9906541"><ele>46.333333333333336</ele><time>2026-04-18T12:45:01.091Z</time></trkpt><trkpt lat="45.3800016" lon="10.9904548"><ele>46.0</ele><time>2026-04-18T12:45:02.089Z</time></trkpt><trkpt lat="45.3799188" lon="10.9902502"><ele>46.0</ele><time>2026-04-18T12:45:03.092Z</time></trkpt><trkpt lat="45.3798507" lon="10.9900294"><ele>46.0</ele><time>2026-04-18T12:45:04.091Z</time></trkpt><trkpt lat="45.3798042" lon="10.9898044"><ele>46.0</ele><time>2026-04-18T12:45:05.093Z</time></trkpt><trkpt lat="45.3797576" lon="10.9895599"><ele>46.0</ele><time>2026-04-18T12:45:06.086Z</time></trkpt><trkpt lat="45.3797259" lon="10.9893223"><ele>46.0</ele><time>2026-04-18T12:45:07.093Z</time></trkpt><trkpt lat="45.3797054" lon="10.9890895"><ele>46.0</ele><time>2026-04-18T12:45:08.09Z</time></trkpt><trkpt lat="45.3796851" lon="10.9888574"><ele>46.0</ele><time>2026-04-18T12:45:09.09Z</time></trkpt><trkpt lat="45.3796644" lon="10.9886319"><ele>46.0</ele><time>2026-04-18T12:45:10.092Z</time></trkpt><trkpt lat="45.3796403" lon="10.9884236"><ele>46.0</ele><time>2026-04-18T12:45:11.096Z</time></trkpt><trkpt lat="45.3796071" lon="10.988206"><ele>46.0</ele><time>2026-04-18T12:45:12.098Z</time></trkpt><trkpt lat="45.3795775" lon="10.9879947"><ele>46.0</ele><time>2026-04-18T12:45:13.091Z</time></trkpt><trkpt lat="45.3795526" lon="10.9878256"><ele>46.0</ele><time>2026-04-18T12:45:14.099Z</time></trkpt><trkpt lat="45.3795436" lon="10.987722"><ele>46.0</ele><time>2026-04-18T12:45:15.092Z</time></trkpt><trkpt lat="45.3794766" lon="10.9876524"><ele>46.0</ele><time>2026-04-18T12:45:18.092Z</time></trkpt><trkpt lat="45.3793788" lon="10.987654"><ele>46.0</ele><time>2026-04-18T12:45:20.077Z</time></trkpt><trkpt lat="45.3792944" lon="10.9876374"><ele>46.0</ele><time>2026-04-18T12:45:21.072Z</time></trkpt><trkpt lat="45.3791995" lon="10.9876295"><ele>46.0</ele><time>2026-04-18T12:45:22.076Z</time></trkpt><trkpt lat="45.3790872" lon="10.987628"><ele>46.0</ele><time>2026-04-18T12:45:23.075Z</time></trkpt><trkpt lat="45.378965" lon="10.9876319"><ele>46.0</ele><time>2026-04-18T12:45:24.081Z</time></trkpt><trkpt lat="45.3788209" lon="10.9876398"><ele>45.66666666666667</ele><time>2026-04-18T12:45:25.086Z</time></trkpt><trkpt lat="45.3786617" lon="10.9876422"><ele>45.333333333333336</ele><time>2026-04-18T12:45:26.093Z</time></trkpt><trkpt lat="45.3785103" lon="10.9876448"><ele>45.0</ele><time>2026-04-18T12:45:27.096Z</time></trkpt><trkpt lat="45.3783484" lon="10.9876535"><ele>45.0</ele><time>2026-04-18T12:45:28.095Z</time></trkpt><trkpt lat="45.378174" lon="10.9876497"><ele>45.0</ele><time>2026-04-18T12:45:29.104Z</time></trkpt><trkpt lat="45.3780038" lon="10.9876653"><ele>45.0</ele><time>2026-04-18T12:45:30.099Z</time></trkpt><trkpt lat="45.3778333" lon="10.9876811"><ele>45.25</ele><time>2026-04-18T12:45:31.099Z</time></trkpt><trkpt lat="45.3776755" lon="10.9876862"><ele>45.5</ele><time>2026-04-18T12:45:32.099Z</time></trkpt><trkpt lat="45.3775293" lon="10.9876902"><ele>45.75</ele><time>2026-04-18T12:45:33.094Z</time></trkpt><trkpt lat="45.3773848" lon="10.9876835"><ele>46.0</ele><time>2026-04-18T12:45:34.099Z</time></trkpt><trkpt lat="45.3772317" lon="10.9876729"><ele>45.75</ele><time>2026-04-18T12:45:35.098Z</time></trkpt><trkpt lat="45.3770827" lon="10.9876565"><ele>45.5</ele><time>2026-04-18T12:45:36.097Z</time></trkpt><trkpt lat="45.3769326" lon="10.9876431"><ele>45.25</ele><time>2026-04-18T12:45:37.098Z</time></trkpt><trkpt lat="45.3767871" lon="10.987626"><ele>45.0</ele><time>2026-04-18T12:45:38.098Z</time></trkpt><trkpt lat="45.3766424" lon="10.9876103"><ele>45.0</ele><time>2026-04-18T12:45:39.101Z</time></trkpt><trkpt lat="45.3765036" lon="10.9876034"><ele>45.0</ele><time>2026-04-18T12:45:40.097Z</time></trkpt><trkpt lat="45.3763789" lon="10.9875942"><ele>45.0</ele><time>2026-04-18T12:45:41.097Z</time></trkpt><trkpt lat="45.3762586" lon="10.9875822"><ele>45.0</ele><time>2026-04-18T12:45:42.104Z</time></trkpt><trkpt lat="45.3761532" lon="10.987579"><ele>45.166666666666664</ele><time>2026-04-18T12:45:43.095Z</time></trkpt><trkpt lat="45.3760498" lon="10.9875679"><ele>45.333333333333336</ele><time>2026-04-18T12:45:44.095Z</time></trkpt><trkpt lat="45.3759747" lon="10.9875591"><ele>45.5</ele><time>2026-04-18T12:45:45.092Z</time></trkpt><trkpt lat="45.3759069" lon="10.9875412"><ele>45.66666666666667</ele><time>2026-04-18T12:45:46.091Z</time></trkpt><trkpt lat="45.3758618" lon="10.9874361"><ele>45.833333333333336</ele><time>2026-04-18T12:45:48.089Z</time></trkpt><trkpt lat="45.3758762" lon="10.987302"><ele>46.0</ele><time>2026-04-18T12:45:49.089Z</time></trkpt><trkpt lat="45.3758946" lon="10.9871071"><ele>46.0</ele><time>2026-04-18T12:45:50.081Z</time></trkpt><trkpt lat="45.3759232" lon="10.9868926"><ele>46.0</ele><time>2026-04-18T12:45:51.079Z</time></trkpt><trkpt lat="45.3759447" lon="10.9866656"><ele>46.0</ele><time>2026-04-18T12:45:52.087Z</time></trkpt><trkpt lat="45.3759512" lon="10.9864482"><ele>46.0</ele><time>2026-04-18T12:45:53.083Z</time></trkpt><trkpt lat="45.3759463" lon="10.986262"><ele>46.0</ele><time>2026-04-18T12:45:54.085Z</time></trkpt><trkpt lat="45.375939" lon="10.9861012"><ele>46.0</ele><time>2026-04-18T12:45:55.084Z</time></trkpt><trkpt lat="45.3759395" lon="10.9859585"><ele>46.0</ele><time>2026-04-18T12:45:56.077Z</time></trkpt><trkpt lat="45.3759456" lon="10.9858459"><ele>46.0</ele><time>2026-04-18T12:45:57.089Z</time></trkpt><trkpt lat="45.3759355" lon="10.9857412"><ele>45.833333333333336</ele><time>2026-04-18T12:45:58.082Z</time></trkpt><trkpt lat="45.3759104" lon="10.9856057"><ele>45.66666666666667</ele><time>2026-04-18T12:46:00.106Z</time></trkpt><trkpt lat="45.3758613" lon="10.9855476"><ele>45.5</ele><time>2026-04-18T12:46:02.073Z</time></trkpt><trkpt lat="45.375781" lon="10.9854949"><ele>45.333333333333336</ele><time>2026-04-18T12:46:04.091Z</time></trkpt><trkpt lat="45.3756933" lon="10.9854702"><ele>45.166666666666664</ele><time>2026-04-18T12:46:05.085Z</time></trkpt><trkpt lat="45.375594" lon="10.9854432"><ele>45.0</ele><time>2026-04-18T12:46:06.082Z</time></trkpt><trkpt lat="45.3754834" lon="10.9854143"><ele>44.75</ele><time>2026-04-18T12:46:07.083Z</time></trkpt><trkpt lat="45.3753605" lon="10.9853788"><ele>44.5</ele><time>2026-04-18T12:46:08.072Z</time></trkpt><trkpt lat="45.375227" lon="10.9853462"><ele>44.25</ele><time>2026-04-18T12:46:09.076Z</time></trkpt><trkpt lat="45.3750831" lon="10.9853058"><ele>44.0</ele><time>2026-04-18T12:46:10.081Z</time></trkpt><trkpt lat="45.3749326" lon="10.9852586"><ele>44.0</ele><time>2026-04-18T12:46:11.084Z</time></trkpt><trkpt lat="45.3747719" lon="10.9851903"><ele>44.0</ele><time>2026-04-18T12:46:12.08Z</time></trkpt><trkpt lat="45.3746127" lon="10.9851018"><ele>44.0</ele><time>2026-04-18T12:46:13.084Z</time></trkpt><trkpt lat="45.3744524" lon="10.9850228"><ele>44.0</ele><time>2026-04-18T12:46:14.086Z</time></trkpt><trkpt lat="45.3742842" lon="10.9849545"><ele>44.0</ele><time>2026-04-18T12:46:15.089Z</time></trkpt><trkpt lat="45.3741024" lon="10.9848957"><ele>44.0</ele><time>2026-04-18T12:46:16.091Z</time></trkpt><trkpt lat="45.373927" lon="10.9848283"><ele>43.666666666666664</ele><time>2026-04-18T12:46:17.092Z</time></trkpt><trkpt lat="45.3737505" lon="10.9847471"><ele>43.333333333333336</ele><time>2026-04-18T12:46:18.097Z</time></trkpt><trkpt lat="45.3735791" lon="10.984674"><ele>43.0</ele><time>2026-04-18T12:46:19.098Z</time></trkpt><trkpt lat="45.3734153" lon="10.9845951"><ele>43.0</ele><time>2026-04-18T12:46:20.095Z</time></trkpt><trkpt lat="45.3732517" lon="10.9845168"><ele>43.0</ele><time>2026-04-18T12:46:21.094Z</time></trkpt><trkpt lat="45.3730972" lon="10.9844634"><ele>43.0</ele><time>2026-04-18T12:46:22.096Z</time></trkpt><trkpt lat="45.3729419" lon="10.9844123"><ele>42.333333333333336</ele><time>2026-04-18T12:46:23.093Z</time></trkpt><trkpt lat="45.3727833" lon="10.9843685"><ele>41.666666666666664</ele><time>2026-04-18T12:46:24.096Z</time></trkpt><trkpt lat="45.372618" lon="10.9843235"><ele>41.0</ele><time>2026-04-18T12:46:25.094Z</time></trkpt><trkpt lat="45.3724512" lon="10.9843135"><ele>41.0</ele><time>2026-04-18T12:46:26.092Z</time></trkpt><trkpt lat="45.3722765" lon="10.9843302"><ele>41.0</ele><time>2026-04-18T12:46:27.096Z</time></trkpt><trkpt lat="45.3720901" lon="10.9843467"><ele>41.0</ele><time>2026-04-18T12:46:28.099Z</time></trkpt><trkpt lat="45.3718906" lon="10.9843489"><ele>41.666666666666664</ele><time>2026-04-18T12:46:29.099Z</time></trkpt><trkpt lat="45.3716901" lon="10.984356"><ele>42.333333333333336</ele><time>2026-04-18T12:46:30.113Z</time></trkpt><trkpt lat="45.3714875" lon="10.9843683"><ele>43.0</ele><time>2026-04-18T12:46:31.12Z</time></trkpt><trkpt lat="45.3712897" lon="10.9843775"><ele>43.333333333333336</ele><time>2026-04-18T12:46:32.098Z</time></trkpt><trkpt lat="45.3710891" lon="10.9843815"><ele>43.666666666666664</ele><time>2026-04-18T12:46:33.101Z</time></trkpt><trkpt lat="45.3708966" lon="10.9843868"><ele>44.0</ele><time>2026-04-18T12:46:34.098Z</time></trkpt><trkpt lat="45.3707178" lon="10.9843913"><ele>44.0</ele><time>2026-04-18T12:46:35.103Z</time></trkpt><trkpt lat="45.370548" lon="10.984397"><ele>44.0</ele><time>2026-04-18T12:46:36.101Z</time></trkpt><trkpt lat="45.3703731" lon="10.9843937"><ele>44.0</ele><time>2026-04-18T12:46:37.095Z</time></trkpt><trkpt lat="45.370191" lon="10.9843612"><ele>44.0</ele><time>2026-04-18T12:46:38.093Z</time></trkpt><trkpt lat="45.3699984" lon="10.9843065"><ele>44.0</ele><time>2026-04-18T12:46:39.089Z</time></trkpt><trkpt lat="45.3698108" lon="10.9842427"><ele>44.0</ele><time>2026-04-18T12:46:40.098Z</time></trkpt><trkpt lat="45.3696189" lon="10.9841738"><ele>43.666666666666664</ele><time>2026-04-18T12:46:41.099Z</time></trkpt><trkpt lat="45.3694264" lon="10.9841022"><ele>43.333333333333336</ele><time>2026-04-18T12:46:42.098Z</time></trkpt><trkpt lat="45.3692386" lon="10.9840234"><ele>43.0</ele><time>2026-04-18T12:46:43.093Z</time></trkpt><trkpt lat="45.3690407" lon="10.9839262"><ele>42.333333333333336</ele><time>2026-04-18T12:46:44.096Z</time></trkpt><trkpt lat="45.368847" lon="10.9838153"><ele>41.666666666666664</ele><time>2026-04-18T12:46:45.096Z</time></trkpt><trkpt lat="45.3686455" lon="10.9837072"><ele>41.0</ele><time>2026-04-18T12:46:46.094Z</time></trkpt><trkpt lat="45.3684425" lon="10.9835869"><ele>41.0</ele><time>2026-04-18T12:46:47.101Z</time></trkpt><trkpt lat="45.3682396" lon="10.9834733"><ele>41.0</ele><time>2026-04-18T12:46:48.097Z</time></trkpt><trkpt lat="45.3680465" lon="10.9833645"><ele>41.0</ele><time>2026-04-18T12:46:49.099Z</time></trkpt><trkpt lat="45.3678566" lon="10.9832657"><ele>41.33333333333333</ele><time>2026-04-18T12:46:50.098Z</time></trkpt><trkpt lat="45.3676676" lon="10.9831837"><ele>41.666666666666664</ele><time>2026-04-18T12:46:51.097Z</time></trkpt><trkpt lat="45.3674775" lon="10.9831195"><ele>42.0</ele><time>2026-04-18T12:46:52.097Z</time></trkpt><trkpt lat="45.3672723" lon="10.9830596"><ele>42.0</ele><time>2026-04-18T12:46:53.103Z</time></trkpt><trkpt lat="45.3670626" lon="10.9830095"><ele>42.0</ele><time>2026-04-18T12:46:54.105Z</time></trkpt><trkpt lat="45.3668564" lon="10.9829409"><ele>42.0</ele><time>2026-04-18T12:46:55.102Z</time></trkpt><trkpt lat="45.3666426" lon="10.9828724"><ele>42.0</ele><time>2026-04-18T12:46:56.091Z</time></trkpt><trkpt lat="45.3664283" lon="10.9828133"><ele>42.0</ele><time>2026-04-18T12:46:57.097Z</time></trkpt><trkpt lat="45.3662175" lon="10.9827525"><ele>42.0</ele><time>2026-04-18T12:46:58.099Z</time></trkpt><trkpt lat="45.3660111" lon="10.9826956"><ele>42.0</ele><time>2026-04-18T12:46:59.098Z</time></trkpt><trkpt lat="45.3658123" lon="10.9826366"><ele>42.0</ele><time>2026-04-18T12:47:00.103Z</time></trkpt><trkpt lat="45.3656138" lon="10.9825848"><ele>42.0</ele><time>2026-04-18T12:47:01.106Z</time></trkpt><trkpt lat="45.3654155" lon="10.9825308"><ele>42.333333333333336</ele><time>2026-04-18T12:47:02.114Z</time></trkpt><trkpt lat="45.3652208" lon="10.9824899"><ele>42.66666666666667</ele><time>2026-04-18T12:47:03.098Z</time></trkpt><trkpt lat="45.3650273" lon="10.9824479"><ele>43.0</ele><time>2026-04-18T12:47:04.098Z</time></trkpt><trkpt lat="45.3648433" lon="10.9824126"><ele>43.0</ele><time>2026-04-18T12:47:05.096Z</time></trkpt><trkpt lat="45.3646731" lon="10.9823904"><ele>43.0</ele><time>2026-04-18T12:47:06.095Z</time></trkpt><trkpt lat="45.364522" lon="10.9823635"><ele>43.0</ele><time>2026-04-18T12:47:07.098Z</time></trkpt><trkpt lat="45.3643712" lon="10.9823294"><ele>43.0</ele><time>2026-04-18T12:47:08.097Z</time></trkpt><trkpt lat="45.3642098" lon="10.9822901"><ele>43.0</ele><time>2026-04-18T12:47:09.096Z</time></trkpt><trkpt lat="45.3640421" lon="10.9822524"><ele>43.0</ele><time>2026-04-18T12:47:10.091Z</time></trkpt><trkpt lat="45.3638616" lon="10.9822117"><ele>42.0</ele><time>2026-04-18T12:47:11.098Z</time></trkpt><trkpt lat="45.3636718" lon="10.982172"><ele>41.0</ele><time>2026-04-18T12:47:12.094Z</time></trkpt><trkpt lat="45.3634882" lon="10.9821263"><ele>40.0</ele><time>2026-04-18T12:47:13.1Z</time></trkpt><trkpt lat="45.3632966" lon="10.9820901"><ele>40.0</ele><time>2026-04-18T12:47:14.096Z</time></trkpt><trkpt lat="45.3630916" lon="10.9820404"><ele>40.0</ele><time>2026-04-18T12:47:15.1Z</time></trkpt><trkpt lat="45.3628811" lon="10.9819848"><ele>40.0</ele><time>2026-04-18T12:47:16.101Z</time></trkpt><trkpt lat="45.3626649" lon="10.9819293"><ele>40.0</ele><time>2026-04-18T12:47:17.101Z</time></trkpt><trkpt lat="45.362465" lon="10.9818867"><ele>40.0</ele><time>2026-04-18T12:47:18.101Z</time></trkpt><trkpt lat="45.3622724" lon="10.9818537"><ele>40.0</ele><time>2026-04-18T12:47:19.102Z</time></trkpt><trkpt lat="45.3620874" lon="10.981797"><ele>40.0</ele><time>2026-04-18T12:47:20.103Z</time></trkpt><trkpt lat="45.3618958" lon="10.9817439"><ele>40.0</ele><time>2026-04-18T12:47:21.102Z</time></trkpt><trkpt lat="45.3617135" lon="10.9817026"><ele>40.0</ele><time>2026-04-18T12:47:22.096Z</time></trkpt><trkpt lat="45.3615558" lon="10.9816578"><ele>40.25</ele><time>2026-04-18T12:47:23.096Z</time></trkpt><trkpt lat="45.3614015" lon="10.9816187"><ele>40.5</ele><time>2026-04-18T12:47:24.099Z</time></trkpt><trkpt lat="45.361259" lon="10.9816083"><ele>40.75</ele><time>2026-04-18T12:47:25.098Z</time></trkpt><trkpt lat="45.3611432" lon="10.981605"><ele>41.0</ele><time>2026-04-18T12:47:26.098Z</time></trkpt><trkpt lat="45.3610198" lon="10.9816161"><ele>41.0</ele><time>2026-04-18T12:47:27.104Z</time></trkpt><trkpt lat="45.3608718" lon="10.9816652"><ele>41.0</ele><time>2026-04-18T12:47:28.098Z</time></trkpt><trkpt lat="45.3607071" lon="10.9817324"><ele>41.0</ele><time>2026-04-18T12:47:29.09Z</time></trkpt><trkpt lat="45.3605349" lon="10.9818013"><ele>40.666666666666664</ele><time>2026-04-18T12:47:30.111Z</time></trkpt><trkpt lat="45.3603429" lon="10.9818698"><ele>40.333333333333336</ele><time>2026-04-18T12:47:31.105Z</time></trkpt><trkpt lat="45.3601514" lon="10.9819158"><ele>40.0</ele><time>2026-04-18T12:47:32.099Z</time></trkpt><trkpt lat="45.3599488" lon="10.9819469"><ele>40.0</ele><time>2026-04-18T12:47:33.111Z</time></trkpt><trkpt lat="45.3597653" lon="10.9819613"><ele>40.0</ele><time>2026-04-18T12:47:34.094Z</time></trkpt><trkpt lat="45.3595883" lon="10.9819605"><ele>40.0</ele><time>2026-04-18T12:47:35.095Z</time></trkpt><trkpt lat="45.3594189" lon="10.9819562"><ele>40.333333333333336</ele><time>2026-04-18T12:47:36.095Z</time></trkpt><trkpt lat="45.3592545" lon="10.9819581"><ele>40.666666666666664</ele><time>2026-04-18T12:47:37.1Z</time></trkpt><trkpt lat="45.3590846" lon="10.981946"><ele>41.0</ele><time>2026-04-18T12:47:38.102Z</time></trkpt><trkpt lat="45.3588992" lon="10.98193"><ele>41.33333333333333</ele><time>2026-04-18T12:47:39.096Z</time></trkpt><trkpt lat="45.3587117" lon="10.981917"><ele>41.666666666666664</ele><time>2026-04-18T12:47:40.098Z</time></trkpt><trkpt lat="45.3585134" lon="10.9819123"><ele>42.0</ele><time>2026-04-18T12:47:41.102Z</time></trkpt><trkpt lat="45.3583154" lon="10.9818971"><ele>42.0</ele><time>2026-04-18T12:47:42.094Z</time></trkpt><trkpt lat="45.3581491" lon="10.9818883"><ele>42.0</ele><time>2026-04-18T12:47:43.095Z</time></trkpt><trkpt lat="45.3580139" lon="10.9818852"><ele>42.0</ele><time>2026-04-18T12:47:44.106Z</time></trkpt><trkpt lat="45.3579089" lon="10.98188"><ele>42.0</ele><time>2026-04-18T12:47:45.096Z</time></trkpt><trkpt lat="45.3578252" lon="10.981889"><ele>41.75</ele><time>2026-04-18T12:47:46.095Z</time></trkpt><trkpt lat="45.3577353" lon="10.9818937"><ele>41.5</ele><time>2026-04-18T12:47:47.097Z</time></trkpt><trkpt lat="45.3576291" lon="10.981882"><ele>41.25</ele><time>2026-04-18T12:47:48.102Z</time></trkpt><trkpt lat="45.3574804" lon="10.9818584"><ele>41.0</ele><time>2026-04-18T12:47:49.095Z</time></trkpt><trkpt lat="45.3573222" lon="10.9818499"><ele>40.666666666666664</ele><time>2026-04-18T12:47:50.094Z</time></trkpt><trkpt lat="45.3571462" lon="10.9818459"><ele>40.333333333333336</ele><time>2026-04-18T12:47:51.093Z</time></trkpt><trkpt lat="45.3569584" lon="10.9818446"><ele>40.0</ele><time>2026-04-18T12:47:52.089Z</time></trkpt><trkpt lat="45.3567585" lon="10.9818457"><ele>40.0</ele><time>2026-04-18T12:47:53.101Z</time></trkpt><trkpt lat="45.3565605" lon="10.98185"><ele>40.0</ele><time>2026-04-18T12:47:54.103Z</time></trkpt><trkpt lat="45.3563533" lon="10.9818549"><ele>40.0</ele><time>2026-04-18T12:47:55.099Z</time></trkpt><trkpt lat="45.3561539" lon="10.9818478"><ele>40.0</ele><time>2026-04-18T12:47:56.104Z</time></trkpt><trkpt lat="45.3559485" lon="10.9818454"><ele>40.0</ele><time>2026-04-18T12:47:57.1Z</time></trkpt><trkpt lat="45.355761" lon="10.9818342"><ele>40.0</ele><time>2026-04-18T12:47:58.101Z</time></trkpt><trkpt lat="45.3555726" lon="10.9818231"><ele>40.333333333333336</ele><time>2026-04-18T12:47:59.107Z</time></trkpt><trkpt lat="45.3553902" lon="10.9818081"><ele>40.666666666666664</ele><time>2026-04-18T12:48:00.112Z</time></trkpt><trkpt lat="45.3552184" lon="10.9818057"><ele>41.0</ele><time>2026-04-18T12:48:01.101Z</time></trkpt><trkpt lat="45.3550589" lon="10.9818007"><ele>41.0</ele><time>2026-04-18T12:48:02.103Z</time></trkpt><trkpt lat="45.3549" lon="10.9818081"><ele>41.0</ele><time>2026-04-18T12:48:03.102Z</time></trkpt><trkpt lat="45.3547317" lon="10.9818125"><ele>41.0</ele><time>2026-04-18T12:48:04.12Z</time></trkpt><trkpt lat="45.3545646" lon="10.9818164"><ele>41.0</ele><time>2026-04-18T12:48:05.098Z</time></trkpt><trkpt lat="45.3544051" lon="10.9818184"><ele>41.0</ele><time>2026-04-18T12:48:06.098Z</time></trkpt><trkpt lat="45.35428" lon="10.9818079"><ele>41.0</ele><time>2026-04-18T12:48:07.097Z</time></trkpt><trkpt lat="45.3541585" lon="10.9818014"><ele>41.0</ele><time>2026-04-18T12:48:08.104Z</time></trkpt><trkpt lat="45.3540409" lon="10.9818024"><ele>41.0</ele><time>2026-04-18T12:48:09.101Z</time></trkpt><trkpt lat="45.3539396" lon="10.9817994"><ele>41.0</ele><time>2026-04-18T12:48:10.101Z</time></trkpt><trkpt lat="45.3538478" lon="10.9817977"><ele>41.0</ele><time>2026-04-18T12:48:11.109Z</time></trkpt><trkpt lat="45.3537594" lon="10.981804"><ele>41.0</ele><time>2026-04-18T12:48:12.106Z</time></trkpt><trkpt lat="45.3536592" lon="10.9817897"><ele>41.0</ele><time>2026-04-18T12:48:13.109Z</time></trkpt><trkpt lat="45.3535486" lon="10.981787"><ele>41.0</ele><time>2026-04-18T12:48:14.102Z</time></trkpt><trkpt lat="45.3534264" lon="10.9817834"><ele>41.0</ele><time>2026-04-18T12:48:15.104Z</time></trkpt><trkpt lat="45.3532893" lon="10.9817737"><ele>41.0</ele><time>2026-04-18T12:48:16.1Z</time></trkpt><trkpt lat="45.3531382" lon="10.9817653"><ele>41.0</ele><time>2026-04-18T12:48:17.105Z</time></trkpt><trkpt lat="45.3529675" lon="10.9817632"><ele>41.0</ele><time>2026-04-18T12:48:18.106Z</time></trkpt><trkpt lat="45.3527738" lon="10.9817653"><ele>41.0</ele><time>2026-04-18T12:48:19.114Z</time></trkpt><trkpt lat="45.3525874" lon="10.9817599"><ele>41.0</ele><time>2026-04-18T12:48:20.113Z</time></trkpt><trkpt lat="45.3524244" lon="10.9817556"><ele>41.0</ele><time>2026-04-18T12:48:21.099Z</time></trkpt><trkpt lat="45.3522835" lon="10.9817407"><ele>41.0</ele><time>2026-04-18T12:48:22.104Z</time></trkpt><trkpt lat="45.3521539" lon="10.9817519"><ele>41.0</ele><time>2026-04-18T12:48:23.098Z</time></trkpt><trkpt lat="45.3520316" lon="10.9817729"><ele>41.0</ele><time>2026-04-18T12:48:24.101Z</time></trkpt><trkpt lat="45.3519124" lon="10.9818244"><ele>39.666666666666664</ele><time>2026-04-18T12:48:25.096Z</time></trkpt><trkpt lat="45.3517906" lon="10.9819241"><ele>38.333333333333336</ele><time>2026-04-18T12:48:26.1Z</time></trkpt><trkpt lat="45.3516576" lon="10.9820776"><ele>37.0</ele><time>2026-04-18T12:48:27.092Z</time></trkpt><trkpt lat="45.3515186" lon="10.9822168"><ele>37.0</ele><time>2026-04-18T12:48:28.087Z</time></trkpt><trkpt lat="45.3513681" lon="10.9823213"><ele>37.0</ele><time>2026-04-18T12:48:29.095Z</time></trkpt><trkpt lat="45.3511844" lon="10.9823813"><ele>37.0</ele><time>2026-04-18T12:48:30.101Z</time></trkpt><trkpt lat="45.3509928" lon="10.9824317"><ele>37.0</ele><time>2026-04-18T12:48:31.1Z</time></trkpt><trkpt lat="45.3508003" lon="10.9824808"><ele>37.0</ele><time>2026-04-18T12:48:32.099Z</time></trkpt><trkpt lat="45.3506097" lon="10.9825391"><ele>37.0</ele><time>2026-04-18T12:48:33.099Z</time></trkpt><trkpt lat="45.3504136" lon="10.9826273"><ele>37.333333333333336</ele><time>2026-04-18T12:48:34.104Z</time></trkpt><trkpt lat="45.3502079" lon="10.9827163"><ele>37.666666666666664</ele><time>2026-04-18T12:48:35.118Z</time></trkpt><trkpt lat="45.3499984" lon="10.9828144"><ele>38.0</ele><time>2026-04-18T12:48:36.101Z</time></trkpt><trkpt lat="45.3497759" lon="10.9829228"><ele>38.0</ele><time>2026-04-18T12:48:37.103Z</time></trkpt><trkpt lat="45.349546" lon="10.9830406"><ele>38.0</ele><time>2026-04-18T12:48:38.103Z</time></trkpt><trkpt lat="45.3493154" lon="10.9831512"><ele>38.0</ele><time>2026-04-18T12:48:39.102Z</time></trkpt><trkpt lat="45.3490923" lon="10.9832691"><ele>38.0</ele><time>2026-04-18T12:48:40.104Z</time></trkpt><trkpt lat="45.3488592" lon="10.9833836"><ele>37.0</ele><time>2026-04-18T12:48:41.103Z</time></trkpt><trkpt lat="45.3486183" lon="10.9834985"><ele>36.0</ele><time>2026-04-18T12:48:42.102Z</time></trkpt><trkpt lat="45.3483692" lon="10.983615"><ele>36.0</ele><time>2026-04-18T12:48:43.103Z</time></trkpt><trkpt lat="45.3481192" lon="10.9837386"><ele>36.0</ele><time>2026-04-18T12:48:44.109Z</time></trkpt><trkpt lat="45.3478669" lon="10.9838581"><ele>36.666666666666664</ele><time>2026-04-18T12:48:45.103Z</time></trkpt><trkpt lat="45.3476403" lon="10.9839583"><ele>37.33333333333333</ele><time>2026-04-18T12:48:46.104Z</time></trkpt><trkpt lat="45.3474434" lon="10.9840509"><ele>38.0</ele><time>2026-04-18T12:48:47.103Z</time></trkpt><trkpt lat="45.3472657" lon="10.9841354"><ele>38.0</ele><time>2026-04-18T12:48:48.107Z</time></trkpt><trkpt lat="45.3471034" lon="10.9842072"><ele>38.0</ele><time>2026-04-18T12:48:49.101Z</time></trkpt><trkpt lat="45.3469485" lon="10.984289"><ele>38.0</ele><time>2026-04-18T12:48:50.097Z</time></trkpt><trkpt lat="45.3468094" lon="10.9843514"><ele>38.0</ele><time>2026-04-18T12:48:51.106Z</time></trkpt><trkpt lat="45.3467163" lon="10.9843924"><ele>38.0</ele><time>2026-04-18T12:48:52.099Z</time></trkpt><trkpt lat="45.3466511" lon="10.9844517"><ele>38.0</ele><time>2026-04-18T12:48:53.094Z</time></trkpt><trkpt lat="45.3465823" lon="10.9845185"><ele>38.0</ele><time>2026-04-18T12:48:54.1Z</time></trkpt><trkpt lat="45.3465237" lon="10.9846159"><ele>38.0</ele><time>2026-04-18T12:48:55.095Z</time></trkpt><trkpt lat="45.3464758" lon="10.9847557"><ele>38.0</ele><time>2026-04-18T12:48:56.103Z</time></trkpt><trkpt lat="45.3464526" lon="10.9849492"><ele>38.0</ele><time>2026-04-18T12:48:57.097Z</time></trkpt><trkpt lat="45.3464548" lon="10.9851656"><ele>38.0</ele><time>2026-04-18T12:48:58.095Z</time></trkpt><trkpt lat="45.3464761" lon="10.9854151"><ele>37.33333333333333</ele><time>2026-04-18T12:48:59.091Z</time></trkpt><trkpt lat="45.3465117" lon="10.9856903"><ele>36.666666666666664</ele><time>2026-04-18T12:49:00.097Z</time></trkpt><trkpt lat="45.3465559" lon="10.985955"><ele>36.0</ele><time>2026-04-18T12:49:01.101Z</time></trkpt><trkpt lat="45.3465938" lon="10.9861918"><ele>36.0</ele><time>2026-04-18T12:49:02.095Z</time></trkpt><trkpt lat="45.346613" lon="10.9863834"><ele>36.0</ele><time>2026-04-18T12:49:03.094Z</time></trkpt><trkpt lat="45.3466071" lon="10.9865494"><ele>36.0</ele><time>2026-04-18T12:49:04.098Z</time></trkpt><trkpt lat="45.3465641" lon="10.9867003"><ele>36.0</ele><time>2026-04-18T12:49:05.099Z</time></trkpt><trkpt lat="45.3464868" lon="10.9868399"><ele>36.333333333333336</ele><time>2026-04-18T12:49:06.104Z</time></trkpt><trkpt lat="45.3463697" lon="10.9869891"><ele>36.66666666666667</ele><time>2026-04-18T12:49:07.097Z</time></trkpt><trkpt lat="45.3462298" lon="10.9871438"><ele>37.0</ele><time>2026-04-18T12:49:08.089Z</time></trkpt><trkpt lat="45.3460727" lon="10.9872917"><ele>37.0</ele><time>2026-04-18T12:49:09.099Z</time></trkpt><trkpt lat="45.3459084" lon="10.9874726"><ele>37.0</ele><time>2026-04-18T12:49:10.097Z</time></trkpt><trkpt lat="45.3457683" lon="10.9876578"><ele>37.0</ele><time>2026-04-18T12:49:11.091Z</time></trkpt><trkpt lat="45.3456574" lon="10.987837"><ele>36.66666666666667</ele><time>2026-04-18T12:49:12.098Z</time></trkpt><trkpt lat="45.3455382" lon="10.9879861"><ele>36.333333333333336</ele><time>2026-04-18T12:49:13.097Z</time></trkpt><trkpt lat="45.3453911" lon="10.9881275"><ele>36.0</ele><time>2026-04-18T12:49:14.09Z</time></trkpt><trkpt lat="45.345224" lon="10.9882741"><ele>35.333333333333336</ele><time>2026-04-18T12:49:15.094Z</time></trkpt><trkpt lat="45.3450502" lon="10.9884193"><ele>34.66666666666667</ele><time>2026-04-18T12:49:16.092Z</time></trkpt><trkpt lat="45.3449062" lon="10.9885491"><ele>34.0</ele><time>2026-04-18T12:49:17.104Z</time></trkpt><trkpt lat="45.3447757" lon="10.9886535"><ele>34.5</ele><time>2026-04-18T12:49:18.095Z</time></trkpt><trkpt lat="45.3446553" lon="10.9887646"><ele>35.0</ele><time>2026-04-18T12:49:19.095Z</time></trkpt><trkpt lat="45.3445395" lon="10.9888626"><ele>35.5</ele><time>2026-04-18T12:49:20.1Z</time></trkpt><trkpt lat="45.3444281" lon="10.9889299"><ele>36.0</ele><time>2026-04-18T12:49:21.094Z</time></trkpt><trkpt lat="45.3442828" lon="10.9889577"><ele>36.0</ele><time>2026-04-18T12:49:22.091Z</time></trkpt><trkpt lat="45.3441186" lon="10.9889625"><ele>36.0</ele><time>2026-04-18T12:49:23.09Z</time></trkpt><trkpt lat="45.3439302" lon="10.9889571"><ele>36.0</ele><time>2026-04-18T12:49:24.085Z</time></trkpt><trkpt lat="45.3437222" lon="10.9889499"><ele>36.333333333333336</ele><time>2026-04-18T12:49:25.091Z</time></trkpt><trkpt lat="45.3435095" lon="10.9889449"><ele>36.66666666666667</ele><time>2026-04-18T12:49:26.095Z</time></trkpt><trkpt lat="45.3432943" lon="10.9889455"><ele>37.0</ele><time>2026-04-18T12:49:27.094Z</time></trkpt><trkpt lat="45.3431059" lon="10.9889348"><ele>37.0</ele><time>2026-04-18T12:49:28.096Z</time></trkpt><trkpt lat="45.3429319" lon="10.9889231"><ele>37.0</ele><time>2026-04-18T12:49:29.095Z</time></trkpt><trkpt lat="45.3427756" lon="10.9889265"><ele>37.0</ele><time>2026-04-18T12:49:30.107Z</time></trkpt><trkpt lat="45.342634" lon="10.9889158"><ele>37.0</ele><time>2026-04-18T12:49:31.101Z</time></trkpt><trkpt lat="45.3425228" lon="10.9888993"><ele>37.0</ele><time>2026-04-18T12:49:32.102Z</time></trkpt><trkpt lat="45.3424508" lon="10.9888918"><ele>37.0</ele><time>2026-04-18T12:49:33.093Z</time></trkpt><trkpt lat="45.3423643" lon="10.9888687"><ele>37.0</ele><time>2026-04-18T12:49:35.092Z</time></trkpt><trkpt lat="45.3423696" lon="10.9887618"><ele>37.0</ele><time>2026-04-18T12:49:59.113Z</time></trkpt><trkpt lat="45.3423754" lon="10.9886245"><ele>37.0</ele><time>2026-04-18T12:50:00.119Z</time></trkpt><trkpt lat="45.3423923" lon="10.9884879"><ele>37.0</ele><time>2026-04-18T12:50:01.108Z</time></trkpt><trkpt lat="45.3424165" lon="10.9883442"><ele>37.0</ele><time>2026-04-18T12:50:02.115Z</time></trkpt><trkpt lat="45.3424571" lon="10.9881722"><ele>37.0</ele><time>2026-04-18T12:50:03.107Z</time></trkpt><trkpt lat="45.3425026" lon="10.9879854"><ele>37.0</ele><time>2026-04-18T12:50:04.097Z</time></trkpt><trkpt lat="45.342543" lon="10.9877835"><ele>37.0</ele><time>2026-04-18T12:50:05.109Z</time></trkpt><trkpt lat="45.3425858" lon="10.9875335"><ele>37.0</ele><time>2026-04-18T12:50:06.106Z</time></trkpt><trkpt lat="45.342616" lon="10.9872284"><ele>37.0</ele><time>2026-04-18T12:50:07.096Z</time></trkpt><trkpt lat="45.3426261" lon="10.9869424"><ele>36.66666666666667</ele><time>2026-04-18T12:50:08.12Z</time></trkpt><trkpt lat="45.3426017" lon="10.986659"><ele>36.333333333333336</ele><time>2026-04-18T12:50:09.086Z</time></trkpt><trkpt lat="45.3425507" lon="10.9863696"><ele>36.0</ele><time>2026-04-18T12:50:10.087Z</time></trkpt><trkpt lat="45.3424704" lon="10.9860919"><ele>35.666666666666664</ele><time>2026-04-18T12:50:11.09Z</time></trkpt><trkpt lat="45.3423855" lon="10.9858308"><ele>35.33333333333333</ele><time>2026-04-18T12:50:12.092Z</time></trkpt><trkpt lat="45.3422935" lon="10.9855777"><ele>35.0</ele><time>2026-04-18T12:50:13.1Z</time></trkpt><trkpt lat="45.3421862" lon="10.9853205"><ele>35.0</ele><time>2026-04-18T12:50:14.1Z</time></trkpt><trkpt lat="45.3420801" lon="10.9850779"><ele>35.0</ele><time>2026-04-18T12:50:15.1Z</time></trkpt><trkpt lat="45.3419774" lon="10.984856"><ele>35.0</ele><time>2026-04-18T12:50:16.096Z</time></trkpt><trkpt lat="45.3418839" lon="10.9846355"><ele>35.0</ele><time>2026-04-18T12:50:17.101Z</time></trkpt><trkpt lat="45.3418016" lon="10.9844074"><ele>35.0</ele><time>2026-04-18T12:50:18.098Z</time></trkpt><trkpt lat="45.341728" lon="10.9841657"><ele>35.0</ele><time>2026-04-18T12:50:19.102Z</time></trkpt><trkpt lat="45.3416762" lon="10.9839103"><ele>35.0</ele><time>2026-04-18T12:50:20.096Z</time></trkpt><trkpt lat="45.3416204" lon="10.983637"><ele>35.0</ele><time>2026-04-18T12:50:21.1Z</time></trkpt><trkpt lat="45.3415758" lon="10.9833619"><ele>35.0</ele><time>2026-04-18T12:50:22.092Z</time></trkpt><trkpt lat="45.3415576" lon="10.9830851"><ele>35.666666666666664</ele><time>2026-04-18T12:50:23.099Z</time></trkpt><trkpt lat="45.3415374" lon="10.9828032"><ele>36.333333333333336</ele><time>2026-04-18T12:50:24.099Z</time></trkpt><trkpt lat="45.3415049" lon="10.9825075"><ele>37.0</ele><time>2026-04-18T12:50:25.091Z</time></trkpt><trkpt lat="45.3414698" lon="10.9821984"><ele>37.0</ele><time>2026-04-18T12:50:26.1Z</time></trkpt><trkpt lat="45.3414313" lon="10.9819015"><ele>37.0</ele><time>2026-04-18T12:50:27.094Z</time></trkpt><trkpt lat="45.3413897" lon="10.981626"><ele>37.0</ele><time>2026-04-18T12:50:28.096Z</time></trkpt><trkpt lat="45.3413478" lon="10.9813501"><ele>36.333333333333336</ele><time>2026-04-18T12:50:29.097Z</time></trkpt><trkpt lat="45.3412855" lon="10.9810774"><ele>35.666666666666664</ele><time>2026-04-18T12:50:30.107Z</time></trkpt><trkpt lat="45.3412129" lon="10.9807959"><ele>35.0</ele><time>2026-04-18T12:50:31.099Z</time></trkpt><trkpt lat="45.341114" lon="10.9805207"><ele>34.5</ele><time>2026-04-18T12:50:32.095Z</time></trkpt><trkpt lat="45.3409946" lon="10.9802526"><ele>34.0</ele><time>2026-04-18T12:50:33.101Z</time></trkpt><trkpt lat="45.3408591" lon="10.9799851"><ele>33.5</ele><time>2026-04-18T12:50:34.105Z</time></trkpt><trkpt lat="45.3407241" lon="10.9797149"><ele>33.0</ele><time>2026-04-18T12:50:35.105Z</time></trkpt><trkpt lat="45.3406005" lon="10.9794367"><ele>33.5</ele><time>2026-04-18T12:50:36.106Z</time></trkpt><trkpt lat="45.3404693" lon="10.9791577"><ele>34.0</ele><time>2026-04-18T12:50:37.101Z</time></trkpt><trkpt lat="45.3403381" lon="10.9788806"><ele>34.0</ele><time>2026-04-18T12:50:38.105Z</time></trkpt><trkpt lat="45.3402012" lon="10.9786094"><ele>34.0</ele><time>2026-04-18T12:50:39.128Z</time></trkpt><trkpt lat="45.340073" lon="10.9783413"><ele>34.66666666666667</ele><time>2026-04-18T12:50:40.096Z</time></trkpt><trkpt lat="45.3399636" lon="10.9781055"><ele>35.333333333333336</ele><time>2026-04-18T12:50:41.102Z</time></trkpt><trkpt lat="45.3398537" lon="10.9778818"><ele>36.0</ele><time>2026-04-18T12:50:42.101Z</time></trkpt><trkpt lat="45.3397389" lon="10.9776743"><ele>36.333333333333336</ele><time>2026-04-18T12:50:43.097Z</time></trkpt><trkpt lat="45.3396523" lon="10.9774789"><ele>36.66666666666667</ele><time>2026-04-18T12:50:44.098Z</time></trkpt><trkpt lat="45.3395728" lon="10.9772961"><ele>37.0</ele><time>2026-04-18T12:50:45.099Z</time></trkpt><trkpt lat="45.3394993" lon="10.9771229"><ele>37.0</ele><time>2026-04-18T12:50:46.1Z</time></trkpt><trkpt lat="45.3394316" lon="10.9769604"><ele>37.0</ele><time>2026-04-18T12:50:47.103Z</time></trkpt><trkpt lat="45.3393645" lon="10.9768038"><ele>37.0</ele><time>2026-04-18T12:50:48.097Z</time></trkpt><trkpt lat="45.3393157" lon="10.9766491"><ele>37.0</ele><time>2026-04-18T12:50:49.098Z</time></trkpt><trkpt lat="45.3392756" lon="10.9765052"><ele>37.6</ele><time>2026-04-18T12:50:50.095Z</time></trkpt><trkpt lat="45.3392432" lon="10.9763713"><ele>38.2</ele><time>2026-04-18T12:50:51.101Z</time></trkpt><trkpt lat="45.3392182" lon="10.9762549"><ele>38.8</ele><time>2026-04-18T12:50:52.099Z</time></trkpt><trkpt lat="45.3392043" lon="10.9761658"><ele>39.4</ele><time>2026-04-18T12:50:53.109Z</time></trkpt><trkpt lat="45.3391578" lon="10.9760454"><ele>40.0</ele><time>2026-04-18T12:50:55.108Z</time></trkpt><trkpt lat="45.3390035" lon="10.9760388"><ele>39.0</ele><time>2026-04-18T12:50:57.105Z</time></trkpt><trkpt lat="45.3388761" lon="10.976091"><ele>38.0</ele><time>2026-04-18T12:50:58.103Z</time></trkpt><trkpt lat="45.3387266" lon="10.9761625"><ele>37.0</ele><time>2026-04-18T12:50:59.101Z</time></trkpt><trkpt lat="45.3385559" lon="10.9762416"><ele>37.0</ele><time>2026-04-18T12:51:00.097Z</time></trkpt><trkpt lat="45.3383571" lon="10.9763194"><ele>37.0</ele><time>2026-04-18T12:51:01.099Z</time></trkpt><trkpt lat="45.3381691" lon="10.9763883"><ele>37.0</ele><time>2026-04-18T12:51:02.092Z</time></trkpt><trkpt lat="45.3379722" lon="10.9764635"><ele>36.333333333333336</ele><time>2026-04-18T12:51:03.098Z</time></trkpt><trkpt lat="45.3377791" lon="10.9765413"><ele>35.666666666666664</ele><time>2026-04-18T12:51:04.102Z</time></trkpt><trkpt lat="45.3375803" lon="10.9766175"><ele>35.0</ele><time>2026-04-18T12:51:05.099Z</time></trkpt><trkpt lat="45.3373841" lon="10.9767013"><ele>34.33333333333333</ele><time>2026-04-18T12:51:06.103Z</time></trkpt><trkpt lat="45.3371762" lon="10.9767788"><ele>33.666666666666664</ele><time>2026-04-18T12:51:07.1Z</time></trkpt><trkpt lat="45.3369686" lon="10.976859"><ele>33.0</ele><time>2026-04-18T12:51:08.101Z</time></trkpt><trkpt lat="45.3365571" lon="10.9770251"><ele>33.333333333333336</ele><time>2026-04-18T12:51:10.114Z</time></trkpt><trkpt lat="45.3363594" lon="10.9771014"><ele>33.66666666666667</ele><time>2026-04-18T12:51:11.104Z</time></trkpt><trkpt lat="45.3361524" lon="10.9771754"><ele>34.0</ele><time>2026-04-18T12:51:12.105Z</time></trkpt><trkpt lat="45.3359518" lon="10.9772443"><ele>34.0</ele><time>2026-04-18T12:51:13.104Z</time></trkpt><trkpt lat="45.3357542" lon="10.9773205"><ele>34.0</ele><time>2026-04-18T12:51:14.103Z</time></trkpt><trkpt lat="45.3355572" lon="10.977387"><ele>34.0</ele><time>2026-04-18T12:51:15.104Z</time></trkpt><trkpt lat="45.3353554" lon="10.9774484"><ele>33.333333333333336</ele><time>2026-04-18T12:51:16.1Z</time></trkpt><trkpt lat="45.3351607" lon="10.9775222"><ele>32.666666666666664</ele><time>2026-04-18T12:51:17.108Z</time></trkpt><trkpt lat="45.3349617" lon="10.9775978"><ele>32.0</ele><time>2026-04-18T12:51:18.105Z</time></trkpt><trkpt lat="45.3347523" lon="10.9776726"><ele>32.33333333333333</ele><time>2026-04-18T12:51:19.111Z</time></trkpt><trkpt lat="45.3345403" lon="10.9777537"><ele>32.666666666666664</ele><time>2026-04-18T12:51:20.105Z</time></trkpt><trkpt lat="45.3343249" lon="10.9778296"><ele>33.0</ele><time>2026-04-18T12:51:21.105Z</time></trkpt><trkpt lat="45.3341047" lon="10.9779069"><ele>33.5</ele><time>2026-04-18T12:51:22.116Z</time></trkpt><trkpt lat="45.333881" lon="10.9779918"><ele>34.0</ele><time>2026-04-18T12:51:23.11Z</time></trkpt><trkpt lat="45.3336571" lon="10.9780773"><ele>34.0</ele><time>2026-04-18T12:51:24.11Z</time></trkpt><trkpt lat="45.3334327" lon="10.9781648"><ele>34.0</ele><time>2026-04-18T12:51:25.104Z</time></trkpt><trkpt lat="45.3332104" lon="10.9782577"><ele>34.0</ele><time>2026-04-18T12:51:26.111Z</time></trkpt><trkpt lat="45.3329887" lon="10.9783541"><ele>34.0</ele><time>2026-04-18T12:51:27.111Z</time></trkpt><trkpt lat="45.3327647" lon="10.9784393"><ele>34.0</ele><time>2026-04-18T12:51:28.114Z</time></trkpt><trkpt lat="45.3325516" lon="10.9785169"><ele>34.0</ele><time>2026-04-18T12:51:29.112Z</time></trkpt><trkpt lat="45.3321192" lon="10.9786915"><ele>33.0</ele><time>2026-04-18T12:51:31.11Z</time></trkpt><trkpt lat="45.3319001" lon="10.9787742"><ele>32.0</ele><time>2026-04-18T12:51:32.098Z</time></trkpt><trkpt lat="45.3316782" lon="10.9788593"><ele>32.0</ele><time>2026-04-18T12:51:33.094Z</time></trkpt><trkpt lat="45.3314467" lon="10.9789521"><ele>32.0</ele><time>2026-04-18T12:51:34.1Z</time></trkpt><trkpt lat="45.3312167" lon="10.979041"><ele>32.0</ele><time>2026-04-18T12:51:35.099Z</time></trkpt><trkpt lat="45.3309791" lon="10.9791342"><ele>32.0</ele><time>2026-04-18T12:51:36.1Z</time></trkpt><trkpt lat="45.3307398" lon="10.9792429"><ele>32.5</ele><time>2026-04-18T12:51:37.089Z</time></trkpt><trkpt lat="45.3304904" lon="10.9793435"><ele>33.0</ele><time>2026-04-18T12:51:38.099Z</time></trkpt><trkpt lat="45.3302405" lon="10.9794515"><ele>33.0</ele><time>2026-04-18T12:51:39.099Z</time></trkpt><trkpt lat="45.3299821" lon="10.9795622"><ele>33.0</ele><time>2026-04-18T12:51:40.101Z</time></trkpt><trkpt lat="45.3297228" lon="10.9796638"><ele>33.5</ele><time>2026-04-18T12:51:41.129Z</time></trkpt><trkpt lat="45.3294616" lon="10.9797725"><ele>34.0</ele><time>2026-04-18T12:51:42.105Z</time></trkpt><trkpt lat="45.3292057" lon="10.9798853"><ele>34.0</ele><time>2026-04-18T12:51:43.099Z</time></trkpt><trkpt lat="45.3289649" lon="10.979979"><ele>34.0</ele><time>2026-04-18T12:51:44.099Z</time></trkpt><trkpt lat="45.3287225" lon="10.9800842"><ele>35.0</ele><time>2026-04-18T12:51:45.101Z</time></trkpt><trkpt lat="45.3284749" lon="10.9801788"><ele>36.0</ele><time>2026-04-18T12:51:46.094Z</time></trkpt><trkpt lat="45.3282442" lon="10.9802668"><ele>35.666666666666664</ele><time>2026-04-18T12:51:47.093Z</time></trkpt><trkpt lat="45.3280416" lon="10.9803517"><ele>35.33333333333333</ele><time>2026-04-18T12:51:48.099Z</time></trkpt><trkpt lat="45.327854" lon="10.9804175"><ele>35.0</ele><time>2026-04-18T12:51:49.095Z</time></trkpt><trkpt lat="45.3276834" lon="10.9804854"><ele>35.0</ele><time>2026-04-18T12:51:50.09Z</time></trkpt><trkpt lat="45.3275277" lon="10.9805472"><ele>35.0</ele><time>2026-04-18T12:51:51.093Z</time></trkpt><trkpt lat="45.327378" lon="10.9806122"><ele>35.0</ele><time>2026-04-18T12:51:52.094Z</time></trkpt><trkpt lat="45.3272544" lon="10.9806727"><ele>35.0</ele><time>2026-04-18T12:51:53.104Z</time></trkpt><trkpt lat="45.3271496" lon="10.9807294"><ele>35.0</ele><time>2026-04-18T12:51:54.098Z</time></trkpt><trkpt lat="45.3270448" lon="10.9808004"><ele>35.0</ele><time>2026-04-18T12:51:55.101Z</time></trkpt><trkpt lat="45.3269316" lon="10.9810266"><ele>35.0</ele><time>2026-04-18T12:51:57.109Z</time></trkpt><trkpt lat="45.3269508" lon="10.9811785"><ele>35.0</ele><time>2026-04-18T12:51:58.104Z</time></trkpt><trkpt lat="45.3269874" lon="10.9813731"><ele>34.666666666666664</ele><time>2026-04-18T12:51:59.104Z</time></trkpt><trkpt lat="45.3270388" lon="10.981578"><ele>34.333333333333336</ele><time>2026-04-18T12:52:00.106Z</time></trkpt><trkpt lat="45.3270978" lon="10.981811"><ele>34.0</ele><time>2026-04-18T12:52:01.101Z</time></trkpt><trkpt lat="45.3271397" lon="10.9820488"><ele>34.0</ele><time>2026-04-18T12:52:02.102Z</time></trkpt><trkpt lat="45.3272038" lon="10.9823265"><ele>34.0</ele><time>2026-04-18T12:52:03.099Z</time></trkpt><trkpt lat="45.3272605" lon="10.9826085"><ele>34.0</ele><time>2026-04-18T12:52:04.1Z</time></trkpt><trkpt lat="45.3273296" lon="10.9829064"><ele>33.333333333333336</ele><time>2026-04-18T12:52:05.098Z</time></trkpt><trkpt lat="45.3273975" lon="10.9832092"><ele>32.666666666666664</ele><time>2026-04-18T12:52:06.098Z</time></trkpt><trkpt lat="45.3274592" lon="10.9835151"><ele>32.0</ele><time>2026-04-18T12:52:07.099Z</time></trkpt><trkpt lat="45.3275201" lon="10.983826"><ele>32.0</ele><time>2026-04-18T12:52:08.089Z</time></trkpt><trkpt lat="45.3275801" lon="10.9841456"><ele>32.0</ele><time>2026-04-18T12:52:09.101Z</time></trkpt><trkpt lat="45.3276527" lon="10.9844773"><ele>32.0</ele><time>2026-04-18T12:52:10.094Z</time></trkpt><trkpt lat="45.3277136" lon="10.9847862"><ele>32.0</ele><time>2026-04-18T12:52:11.104Z</time></trkpt><trkpt lat="45.3277528" lon="10.9850675"><ele>32.0</ele><time>2026-04-18T12:52:12.086Z</time></trkpt><trkpt lat="45.3277952" lon="10.9853497"><ele>32.0</ele><time>2026-04-18T12:52:13.087Z</time></trkpt><trkpt lat="45.3278289" lon="10.9855865"><ele>32.0</ele><time>2026-04-18T12:52:14.085Z</time></trkpt><trkpt lat="45.32787" lon="10.9858044"><ele>32.0</ele><time>2026-04-18T12:52:15.09Z</time></trkpt><trkpt lat="45.3279124" lon="10.9860157"><ele>32.0</ele><time>2026-04-18T12:52:16.089Z</time></trkpt><trkpt lat="45.3279706" lon="10.9862161"><ele>32.0</ele><time>2026-04-18T12:52:17.092Z</time></trkpt><trkpt lat="45.3280274" lon="10.9864081"><ele>32.0</ele><time>2026-04-18T12:52:18.094Z</time></trkpt><trkpt lat="45.3280742" lon="10.9865899"><ele>32.0</ele><time>2026-04-18T12:52:19.096Z</time></trkpt><trkpt lat="45.328124" lon="10.9867676"><ele>31.8</ele><time>2026-04-18T12:52:20.095Z</time></trkpt><trkpt lat="45.3281507" lon="10.9869058"><ele>31.6</ele><time>2026-04-18T12:52:21.1Z</time></trkpt><trkpt lat="45.3281511" lon="10.9870577"><ele>31.400000000000002</ele><time>2026-04-18T12:52:23.094Z</time></trkpt><trkpt lat="45.3280928" lon="10.9871426"><ele>31.200000000000003</ele><time>2026-04-18T12:52:25.091Z</time></trkpt><trkpt lat="45.3279899" lon="10.9871819"><ele>31.0</ele><time>2026-04-18T12:52:27.099Z</time></trkpt><trkpt lat="45.327911" lon="10.9872005"><ele>31.5</ele><time>2026-04-18T12:52:28.092Z</time></trkpt><trkpt lat="45.327814" lon="10.9872231"><ele>32.0</ele><time>2026-04-18T12:52:29.102Z</time></trkpt><trkpt lat="45.3276843" lon="10.9872603"><ele>32.5</ele><time>2026-04-18T12:52:30.112Z</time></trkpt><trkpt lat="45.3275256" lon="10.9873096"><ele>33.0</ele><time>2026-04-18T12:52:31.102Z</time></trkpt><trkpt lat="45.3273473" lon="10.987375"><ele>32.666666666666664</ele><time>2026-04-18T12:52:32.095Z</time></trkpt><trkpt lat="45.3271593" lon="10.9874544"><ele>32.33333333333333</ele><time>2026-04-18T12:52:33.091Z</time></trkpt><trkpt lat="45.326962" lon="10.9875324"><ele>32.0</ele><time>2026-04-18T12:52:34.095Z</time></trkpt><trkpt lat="45.3267639" lon="10.9876116"><ele>31.666666666666664</ele><time>2026-04-18T12:52:35.094Z</time></trkpt><trkpt lat="45.3265672" lon="10.9876944"><ele>31.333333333333336</ele><time>2026-04-18T12:52:36.098Z</time></trkpt><trkpt lat="45.3263688" lon="10.9877729"><ele>31.0</ele><time>2026-04-18T12:52:37.094Z</time></trkpt><trkpt lat="45.3261783" lon="10.9878515"><ele>31.0</ele><time>2026-04-18T12:52:38.093Z</time></trkpt><trkpt lat="45.3259936" lon="10.9879307"><ele>31.0</ele><time>2026-04-18T12:52:39.096Z</time></trkpt><trkpt lat="45.3258216" lon="10.9880052"><ele>31.0</ele><time>2026-04-18T12:52:40.1Z</time></trkpt><trkpt lat="45.3256499" lon="10.9880791"><ele>31.0</ele><time>2026-04-18T12:52:41.091Z</time></trkpt><trkpt lat="45.3254758" lon="10.9881382"><ele>31.0</ele><time>2026-04-18T12:52:42.107Z</time></trkpt><trkpt lat="45.3253067" lon="10.9882098"><ele>31.0</ele><time>2026-04-18T12:52:43.095Z</time></trkpt><trkpt lat="45.3251114" lon="10.9882759"><ele>31.0</ele><time>2026-04-18T12:52:44.086Z</time></trkpt><trkpt lat="45.3249154" lon="10.98835"><ele>31.0</ele><time>2026-04-18T12:52:45.09Z</time></trkpt><trkpt lat="45.3247207" lon="10.9884404"><ele>31.0</ele><time>2026-04-18T12:52:46.095Z</time></trkpt><trkpt lat="45.3245314" lon="10.9885388"><ele>31.0</ele><time>2026-04-18T12:52:47.096Z</time></trkpt><trkpt lat="45.3243385" lon="10.9886382"><ele>31.0</ele><time>2026-04-18T12:52:48.102Z</time></trkpt><trkpt lat="45.324143" lon="10.9887182"><ele>31.0</ele><time>2026-04-18T12:52:49.1Z</time></trkpt><trkpt lat="45.3239592" lon="10.9887951"><ele>31.0</ele><time>2026-04-18T12:52:50.1Z</time></trkpt><trkpt lat="45.3237908" lon="10.9888618"><ele>31.0</ele><time>2026-04-18T12:52:51.098Z</time></trkpt><trkpt lat="45.3236293" lon="10.9889152"><ele>31.0</ele><time>2026-04-18T12:52:52.098Z</time></trkpt><trkpt lat="45.3234711" lon="10.9889635"><ele>31.0</ele><time>2026-04-18T12:52:53.105Z</time></trkpt><trkpt lat="45.3233206" lon="10.9890216"><ele>31.0</ele><time>2026-04-18T12:52:54.101Z</time></trkpt><trkpt lat="45.3231806" lon="10.9890808"><ele>31.0</ele><time>2026-04-18T12:52:55.101Z</time></trkpt><trkpt lat="45.3230617" lon="10.9891388"><ele>31.0</ele><time>2026-04-18T12:52:56.093Z</time></trkpt><trkpt lat="45.3229591" lon="10.9892003"><ele>30.8</ele><time>2026-04-18T12:52:57.095Z</time></trkpt><trkpt lat="45.3228774" lon="10.9892638"><ele>30.6</ele><time>2026-04-18T12:52:58.09Z</time></trkpt><trkpt lat="45.3228164" lon="10.9893613"><ele>30.4</ele><time>2026-04-18T12:52:59.092Z</time></trkpt><trkpt lat="45.3227571" lon="10.9894649"><ele>30.2</ele><time>2026-04-18T12:53:00.101Z</time></trkpt><trkpt lat="45.322686" lon="10.9895436"><ele>30.0</ele><time>2026-04-18T12:53:01.112Z</time></trkpt><trkpt lat="45.3225626" lon="10.989594"><ele>30.0</ele><time>2026-04-18T12:53:02.104Z</time></trkpt><trkpt lat="45.3224147" lon="10.9896413"><ele>30.0</ele><time>2026-04-18T12:53:03.092Z</time></trkpt><trkpt lat="45.3222496" lon="10.9897015"><ele>30.0</ele><time>2026-04-18T12:53:04.093Z</time></trkpt><trkpt lat="45.3220661" lon="10.9897592"><ele>30.333333333333336</ele><time>2026-04-18T12:53:05.095Z</time></trkpt><trkpt lat="45.3218635" lon="10.9898245"><ele>30.666666666666668</ele><time>2026-04-18T12:53:06.097Z</time></trkpt><trkpt lat="45.3216614" lon="10.9899039"><ele>31.0</ele><time>2026-04-18T12:53:07.101Z</time></trkpt><trkpt lat="45.3214622" lon="10.9899882"><ele>30.666666666666668</ele><time>2026-04-18T12:53:08.102Z</time></trkpt><trkpt lat="45.3212767" lon="10.9900548"><ele>30.333333333333336</ele><time>2026-04-18T12:53:09.096Z</time></trkpt><trkpt lat="45.3211092" lon="10.9901258"><ele>30.0</ele><time>2026-04-18T12:53:10.104Z</time></trkpt><trkpt lat="45.3209328" lon="10.9901996"><ele>30.0</ele><time>2026-04-18T12:53:11.101Z</time></trkpt><trkpt lat="45.320742" lon="10.9902725"><ele>30.0</ele><time>2026-04-18T12:53:12.097Z</time></trkpt><trkpt lat="45.3205294" lon="10.9903519"><ele>30.0</ele><time>2026-04-18T12:53:13.112Z</time></trkpt><trkpt lat="45.320314" lon="10.9904338"><ele>29.5</ele><time>2026-04-18T12:53:14.105Z</time></trkpt><trkpt lat="45.3200917" lon="10.9905234"><ele>29.0</ele><time>2026-04-18T12:53:15.101Z</time></trkpt><trkpt lat="45.3198747" lon="10.9906065"><ele>29.666666666666664</ele><time>2026-04-18T12:53:16.103Z</time></trkpt><trkpt lat="45.3196624" lon="10.9906807"><ele>30.333333333333336</ele><time>2026-04-18T12:53:17.106Z</time></trkpt><trkpt lat="45.3194513" lon="10.9907551"><ele>31.0</ele><time>2026-04-18T12:53:18.1Z</time></trkpt><trkpt lat="45.3192629" lon="10.9908278"><ele>30.666666666666668</ele><time>2026-04-18T12:53:19.103Z</time></trkpt><trkpt lat="45.3190759" lon="10.9908926"><ele>30.333333333333336</ele><time>2026-04-18T12:53:20.1Z</time></trkpt><trkpt lat="45.3188901" lon="10.9909553"><ele>30.0</ele><time>2026-04-18T12:53:21.093Z</time></trkpt><trkpt lat="45.3187294" lon="10.9910185"><ele>31.666666666666664</ele><time>2026-04-18T12:53:22.093Z</time></trkpt><trkpt lat="45.3185831" lon="10.9910743"><ele>33.33333333333333</ele><time>2026-04-18T12:53:23.097Z</time></trkpt><trkpt lat="45.3184444" lon="10.9911305"><ele>35.0</ele><time>2026-04-18T12:53:24.106Z</time></trkpt><trkpt lat="45.3182911" lon="10.9911817"><ele>35.0</ele><time>2026-04-18T12:53:25.101Z</time></trkpt><trkpt lat="45.3181273" lon="10.9912186"><ele>35.0</ele><time>2026-04-18T12:53:26.105Z</time></trkpt><trkpt lat="45.3179644" lon="10.9912618"><ele>35.0</ele><time>2026-04-18T12:53:27.101Z</time></trkpt><trkpt lat="45.3177875" lon="10.9913097"><ele>34.0</ele><time>2026-04-18T12:53:28.101Z</time></trkpt><trkpt lat="45.3175981" lon="10.9913657"><ele>33.0</ele><time>2026-04-18T12:53:29.099Z</time></trkpt><trkpt lat="45.3174208" lon="10.9914242"><ele>32.0</ele><time>2026-04-18T12:53:30.105Z</time></trkpt><trkpt lat="45.3172602" lon="10.9914725"><ele>31.666666666666664</ele><time>2026-04-18T12:53:31.102Z</time></trkpt><trkpt lat="45.3171013" lon="10.9915245"><ele>31.333333333333336</ele><time>2026-04-18T12:53:32.097Z</time></trkpt><trkpt lat="45.3169374" lon="10.9915778"><ele>31.0</ele><time>2026-04-18T12:53:33.098Z</time></trkpt><trkpt lat="45.3167845" lon="10.9916254"><ele>31.0</ele><time>2026-04-18T12:53:34.097Z</time></trkpt><trkpt lat="45.316648" lon="10.9916683"><ele>31.0</ele><time>2026-04-18T12:53:35.097Z</time></trkpt><trkpt lat="45.3165142" lon="10.9917047"><ele>31.0</ele><time>2026-04-18T12:53:36.097Z</time></trkpt><trkpt lat="45.3163783" lon="10.9917402"><ele>31.0</ele><time>2026-04-18T12:53:37.095Z</time></trkpt><trkpt lat="45.316266" lon="10.9917758"><ele>31.25</ele><time>2026-04-18T12:53:38.096Z</time></trkpt><trkpt lat="45.3161551" lon="10.9918066"><ele>31.5</ele><time>2026-04-18T12:53:39.097Z</time></trkpt><trkpt lat="45.3160518" lon="10.9918512"><ele>31.75</ele><time>2026-04-18T12:53:40.096Z</time></trkpt><trkpt lat="45.315941" lon="10.9918952"><ele>32.0</ele><time>2026-04-18T12:53:41.092Z</time></trkpt><trkpt lat="45.3158223" lon="10.9919668"><ele>32.0</ele><time>2026-04-18T12:53:42.102Z</time></trkpt><trkpt lat="45.3156969" lon="10.9920665"><ele>32.0</ele><time>2026-04-18T12:53:43.094Z</time></trkpt><trkpt lat="45.3155626" lon="10.9921875"><ele>32.0</ele><time>2026-04-18T12:53:44.108Z</time></trkpt><trkpt lat="45.3154077" lon="10.9923194"><ele>31.0</ele><time>2026-04-18T12:53:45.092Z</time></trkpt><trkpt lat="45.315242" lon="10.992449"><ele>30.0</ele><time>2026-04-18T12:53:46.103Z</time></trkpt><trkpt lat="45.3150793" lon="10.9925755"><ele>29.0</ele><time>2026-04-18T12:53:47.1Z</time></trkpt><trkpt lat="45.3149077" lon="10.9927254"><ele>29.333333333333332</ele><time>2026-04-18T12:53:48.097Z</time></trkpt><trkpt lat="45.3147322" lon="10.9928799"><ele>29.666666666666664</ele><time>2026-04-18T12:53:49.1Z</time></trkpt><trkpt lat="45.3145535" lon="10.9930303"><ele>30.0</ele><time>2026-04-18T12:53:50.096Z</time></trkpt><trkpt lat="45.3143795" lon="10.9931892"><ele>30.0</ele><time>2026-04-18T12:53:51.1Z</time></trkpt><trkpt lat="45.3142077" lon="10.9933383"><ele>30.0</ele><time>2026-04-18T12:53:52.096Z</time></trkpt><trkpt lat="45.3140557" lon="10.9934758"><ele>30.0</ele><time>2026-04-18T12:53:53.093Z</time></trkpt><trkpt lat="45.313916" lon="10.9935961"><ele>30.5</ele><time>2026-04-18T12:53:54.103Z</time></trkpt><trkpt lat="45.3137898" lon="10.9937174"><ele>31.0</ele><time>2026-04-18T12:53:55.094Z</time></trkpt><trkpt lat="45.3136756" lon="10.9938366"><ele>31.5</ele><time>2026-04-18T12:53:56.095Z</time></trkpt><trkpt lat="45.3135753" lon="10.9939461"><ele>32.0</ele><time>2026-04-18T12:53:57.099Z</time></trkpt><trkpt lat="45.3134785" lon="10.9940521"><ele>32.0</ele><time>2026-04-18T12:53:58.093Z</time></trkpt><trkpt lat="45.313369" lon="10.9941505"><ele>32.0</ele><time>2026-04-18T12:53:59.094Z</time></trkpt><trkpt lat="45.3132505" lon="10.9942383"><ele>32.0</ele><time>2026-04-18T12:54:00.101Z</time></trkpt><trkpt lat="45.3131233" lon="10.9943205"><ele>32.0</ele><time>2026-04-18T12:54:01.099Z</time></trkpt><trkpt lat="45.3129623" lon="10.9944108"><ele>31.0</ele><time>2026-04-18T12:54:02.085Z</time></trkpt><trkpt lat="45.3127917" lon="10.9945206"><ele>30.0</ele><time>2026-04-18T12:54:03.094Z</time></trkpt><trkpt lat="45.3126176" lon="10.9946386"><ele>29.0</ele><time>2026-04-18T12:54:04.1Z</time></trkpt><trkpt lat="45.3124335" lon="10.9947695"><ele>29.0</ele><time>2026-04-18T12:54:05.102Z</time></trkpt><trkpt lat="45.3122351" lon="10.9949141"><ele>29.0</ele><time>2026-04-18T12:54:06.104Z</time></trkpt><trkpt lat="45.3120419" lon="10.9950584"><ele>29.0</ele><time>2026-04-18T12:54:07.105Z</time></trkpt><trkpt lat="45.3118548" lon="10.9951912"><ele>28.666666666666664</ele><time>2026-04-18T12:54:08.108Z</time></trkpt><trkpt lat="45.3116699" lon="10.9953133"><ele>28.333333333333336</ele><time>2026-04-18T12:54:09.108Z</time></trkpt><trkpt lat="45.3114846" lon="10.9954516"><ele>28.0</ele><time>2026-04-18T12:54:10.113Z</time></trkpt><trkpt lat="45.3112945" lon="10.9955986"><ele>27.666666666666668</ele><time>2026-04-18T12:54:11.109Z</time></trkpt><trkpt lat="45.3110958" lon="10.9957469"><ele>27.333333333333336</ele><time>2026-04-18T12:54:12.112Z</time></trkpt><trkpt lat="45.3108962" lon="10.9958813"><ele>27.0</ele><time>2026-04-18T12:54:13.11Z</time></trkpt><trkpt lat="45.3106827" lon="10.9960285"><ele>27.333333333333336</ele><time>2026-04-18T12:54:14.106Z</time></trkpt><trkpt lat="45.3104886" lon="10.9961729"><ele>27.666666666666668</ele><time>2026-04-18T12:54:15.121Z</time></trkpt><trkpt lat="45.3103135" lon="10.9963032"><ele>28.0</ele><time>2026-04-18T12:54:16.111Z</time></trkpt><trkpt lat="45.3101436" lon="10.9964255"><ele>28.0</ele><time>2026-04-18T12:54:17.114Z</time></trkpt><trkpt lat="45.3099822" lon="10.9965337"><ele>28.0</ele><time>2026-04-18T12:54:18.106Z</time></trkpt><trkpt lat="45.3098287" lon="10.9966298"><ele>28.0</ele><time>2026-04-18T12:54:19.109Z</time></trkpt><trkpt lat="45.3096953" lon="10.9967239"><ele>28.25</ele><time>2026-04-18T12:54:20.104Z</time></trkpt><trkpt lat="45.3095775" lon="10.9968097"><ele>28.5</ele><time>2026-04-18T12:54:21.105Z</time></trkpt><trkpt lat="45.3094656" lon="10.9968904"><ele>28.75</ele><time>2026-04-18T12:54:22.105Z</time></trkpt><trkpt lat="45.3093649" lon="10.996978"><ele>29.0</ele><time>2026-04-18T12:54:23.107Z</time></trkpt><trkpt lat="45.3092722" lon="10.9970886"><ele>29.0</ele><time>2026-04-18T12:54:24.105Z</time></trkpt><trkpt lat="45.3091963" lon="10.9972115"><ele>29.0</ele><time>2026-04-18T12:54:25.099Z</time></trkpt><trkpt lat="45.3091432" lon="10.9973352"><ele>29.0</ele><time>2026-04-18T12:54:26.104Z</time></trkpt><trkpt lat="45.3091045" lon="10.9974629"><ele>29.0</ele><time>2026-04-18T12:54:27.105Z</time></trkpt><trkpt lat="45.3090604" lon="10.9975907"><ele>29.0</ele><time>2026-04-18T12:54:28.103Z</time></trkpt><trkpt lat="45.309011" lon="10.9977072"><ele>29.0</ele><time>2026-04-18T12:54:29.098Z</time></trkpt><trkpt lat="45.308942" lon="10.9977984"><ele>29.0</ele><time>2026-04-18T12:54:30.113Z</time></trkpt><trkpt lat="45.3088308" lon="10.9978705"><ele>29.0</ele><time>2026-04-18T12:54:31.108Z</time></trkpt><trkpt lat="45.3086773" lon="10.9979303"><ele>29.0</ele><time>2026-04-18T12:54:32.098Z</time></trkpt><trkpt lat="45.3084982" lon="10.9979882"><ele>29.0</ele><time>2026-04-18T12:54:33.097Z</time></trkpt><trkpt lat="45.3083086" lon="10.9980725"><ele>29.0</ele><time>2026-04-18T12:54:34.098Z</time></trkpt><trkpt lat="45.3081173" lon="10.9981712"><ele>29.0</ele><time>2026-04-18T12:54:35.102Z</time></trkpt><trkpt lat="45.3079443" lon="10.9982622"><ele>28.666666666666664</ele><time>2026-04-18T12:54:36.102Z</time></trkpt><trkpt lat="45.307772" lon="10.9983559"><ele>28.333333333333336</ele><time>2026-04-18T12:54:37.1Z</time></trkpt><trkpt lat="45.3075948" lon="10.9984699"><ele>28.0</ele><time>2026-04-18T12:54:38.101Z</time></trkpt><trkpt lat="45.3074055" lon="10.9985844"><ele>28.666666666666668</ele><time>2026-04-18T12:54:39.106Z</time></trkpt><trkpt lat="45.3072088" lon="10.9986968"><ele>29.333333333333336</ele><time>2026-04-18T12:54:40.101Z</time></trkpt><trkpt lat="45.3070034" lon="10.998811"><ele>30.0</ele><time>2026-04-18T12:54:41.094Z</time></trkpt><trkpt lat="45.3067895" lon="10.9989316"><ele>30.0</ele><time>2026-04-18T12:54:42.094Z</time></trkpt><trkpt lat="45.3065703" lon="10.9990578"><ele>30.0</ele><time>2026-04-18T12:54:43.103Z</time></trkpt><trkpt lat="45.3063635" lon="10.999181"><ele>29.0</ele><time>2026-04-18T12:54:44.101Z</time></trkpt><trkpt lat="45.3061679" lon="10.999302"><ele>28.0</ele><time>2026-04-18T12:54:45.103Z</time></trkpt><trkpt lat="45.3059942" lon="10.9993985"><ele>27.0</ele><time>2026-04-18T12:54:46.114Z</time></trkpt><trkpt lat="45.3058227" lon="10.9995041"><ele>27.0</ele><time>2026-04-18T12:54:47.106Z</time></trkpt><trkpt lat="45.3056509" lon="10.999611"><ele>27.0</ele><time>2026-04-18T12:54:48.114Z</time></trkpt><trkpt lat="45.3054779" lon="10.9997099"><ele>27.0</ele><time>2026-04-18T12:54:49.104Z</time></trkpt><trkpt lat="45.3053135" lon="10.9998076"><ele>27.666666666666664</ele><time>2026-04-18T12:54:50.101Z</time></trkpt><trkpt lat="45.3051592" lon="10.999888"><ele>28.333333333333332</ele><time>2026-04-18T12:54:51.103Z</time></trkpt><trkpt lat="45.3050102" lon="10.9999709"><ele>29.0</ele><time>2026-04-18T12:54:52.11Z</time></trkpt><trkpt lat="45.3048694" lon="11.00006"><ele>29.5</ele><time>2026-04-18T12:54:53.11Z</time></trkpt><trkpt lat="45.3047258" lon="11.0001394"><ele>30.0</ele><time>2026-04-18T12:54:54.112Z</time></trkpt><trkpt lat="45.3046011" lon="11.0002093"><ele>30.5</ele><time>2026-04-18T12:54:55.107Z</time></trkpt><trkpt lat="45.3044844" lon="11.0002698"><ele>31.0</ele><time>2026-04-18T12:54:56.105Z</time></trkpt><trkpt lat="45.3043775" lon="11.000326"><ele>31.0</ele><time>2026-04-18T12:54:57.112Z</time></trkpt><trkpt lat="45.3042732" lon="11.0003796"><ele>31.0</ele><time>2026-04-18T12:54:58.117Z</time></trkpt><trkpt lat="45.3041771" lon="11.0004473"><ele>31.0</ele><time>2026-04-18T12:54:59.112Z</time></trkpt><trkpt lat="45.3040732" lon="11.0005013"><ele>31.0</ele><time>2026-04-18T12:55:00.118Z</time></trkpt><trkpt lat="45.303969" lon="11.000567"><ele>31.0</ele><time>2026-04-18T12:55:01.118Z</time></trkpt><trkpt lat="45.3038497" lon="11.0006462"><ele>30.75</ele><time>2026-04-18T12:55:02.109Z</time></trkpt><trkpt lat="45.3037308" lon="11.0007214"><ele>30.5</ele><time>2026-04-18T12:55:03.105Z</time></trkpt><trkpt lat="45.3035999" lon="11.0007826"><ele>30.25</ele><time>2026-04-18T12:55:04.112Z</time></trkpt><trkpt lat="45.3034662" lon="11.0008332"><ele>30.0</ele><time>2026-04-18T12:55:05.101Z</time></trkpt><trkpt lat="45.3032896" lon="11.0008617"><ele>29.666666666666664</ele><time>2026-04-18T12:55:06.113Z</time></trkpt><trkpt lat="45.3030788" lon="11.0008787"><ele>29.333333333333332</ele><time>2026-04-18T12:55:07.111Z</time></trkpt><trkpt lat="45.3028715" lon="11.0008914"><ele>29.0</ele><time>2026-04-18T12:55:08.115Z</time></trkpt><trkpt lat="45.3026547" lon="11.0009057"><ele>29.0</ele><time>2026-04-18T12:55:09.119Z</time></trkpt><trkpt lat="45.30244" lon="11.000934"><ele>29.0</ele><time>2026-04-18T12:55:10.125Z</time></trkpt><trkpt lat="45.3022275" lon="11.0009506"><ele>29.0</ele><time>2026-04-18T12:55:11.112Z</time></trkpt><trkpt lat="45.3020084" lon="11.0009683"><ele>28.666666666666664</ele><time>2026-04-18T12:55:12.119Z</time></trkpt><trkpt lat="45.3018023" lon="11.0010038"><ele>28.333333333333336</ele><time>2026-04-18T12:55:13.111Z</time></trkpt><trkpt lat="45.301613" lon="11.0010265"><ele>28.0</ele><time>2026-04-18T12:55:14.112Z</time></trkpt><trkpt lat="45.3014509" lon="11.00105"><ele>27.666666666666668</ele><time>2026-04-18T12:55:15.114Z</time></trkpt><trkpt lat="45.3013018" lon="11.0010684"><ele>27.333333333333336</ele><time>2026-04-18T12:55:16.111Z</time></trkpt><trkpt lat="45.3011438" lon="11.0010817"><ele>27.0</ele><time>2026-04-18T12:55:17.124Z</time></trkpt><trkpt lat="45.3009941" lon="11.0010927"><ele>27.0</ele><time>2026-04-18T12:55:18.117Z</time></trkpt><trkpt lat="45.3008456" lon="11.0010907"><ele>27.0</ele><time>2026-04-18T12:55:19.115Z</time></trkpt><trkpt lat="45.3006645" lon="11.0010791"><ele>27.0</ele><time>2026-04-18T12:55:20.112Z</time></trkpt><trkpt lat="45.300475" lon="11.0010784"><ele>26.666666666666664</ele><time>2026-04-18T12:55:21.113Z</time></trkpt><trkpt lat="45.3002597" lon="11.0010787"><ele>26.333333333333332</ele><time>2026-04-18T12:55:22.114Z</time></trkpt><trkpt lat="45.3000463" lon="11.0010691"><ele>26.0</ele><time>2026-04-18T12:55:23.112Z</time></trkpt><trkpt lat="45.2998347" lon="11.0010442"><ele>26.0</ele><time>2026-04-18T12:55:24.107Z</time></trkpt><trkpt lat="45.2996542" lon="11.0010351"><ele>26.0</ele><time>2026-04-18T12:55:25.09Z</time></trkpt><trkpt lat="45.2994835" lon="11.0010242"><ele>26.0</ele><time>2026-04-18T12:55:26.101Z</time></trkpt><trkpt lat="45.2993414" lon="11.0010163"><ele>26.0</ele><time>2026-04-18T12:55:27.093Z</time></trkpt><trkpt lat="45.2992154" lon="11.0010114"><ele>26.0</ele><time>2026-04-18T12:55:28.104Z</time></trkpt><trkpt lat="45.2990973" lon="11.0010093"><ele>26.0</ele><time>2026-04-18T12:55:29.108Z</time></trkpt><trkpt lat="45.2989765" lon="11.0010168"><ele>26.0</ele><time>2026-04-18T12:55:30.113Z</time></trkpt><trkpt lat="45.2988654" lon="11.0010261"><ele>26.166666666666664</ele><time>2026-04-18T12:55:31.111Z</time></trkpt><trkpt lat="45.2987814" lon="11.001017"><ele>26.333333333333332</ele><time>2026-04-18T12:55:32.116Z</time></trkpt><trkpt lat="45.2987064" lon="11.0010029"><ele>26.5</ele><time>2026-04-18T12:55:33.106Z</time></trkpt><trkpt lat="45.2986332" lon="11.0009589"><ele>26.666666666666664</ele><time>2026-04-18T12:55:34.124Z</time></trkpt><trkpt lat="45.2985911" lon="11.0008689"><ele>26.833333333333332</ele><time>2026-04-18T12:55:35.12Z</time></trkpt><trkpt lat="45.2985653" lon="11.0007388"><ele>27.0</ele><time>2026-04-18T12:55:36.114Z</time></trkpt><trkpt lat="45.2985543" lon="11.0005857"><ele>27.0</ele><time>2026-04-18T12:55:37.116Z</time></trkpt><trkpt lat="45.2985468" lon="11.0003946"><ele>27.0</ele><time>2026-04-18T12:55:38.12Z</time></trkpt><trkpt lat="45.2985134" lon="11.0001691"><ele>27.0</ele><time>2026-04-18T12:55:39.109Z</time></trkpt><trkpt lat="45.2984707" lon="10.9999322"><ele>27.0</ele><time>2026-04-18T12:55:40.111Z</time></trkpt><trkpt lat="45.2984073" lon="10.9996754"><ele>27.0</ele><time>2026-04-18T12:55:41.11Z</time></trkpt><trkpt lat="45.298343" lon="10.9993918"><ele>27.0</ele><time>2026-04-18T12:55:42.115Z</time></trkpt><trkpt lat="45.2982833" lon="10.9991084"><ele>26.666666666666664</ele><time>2026-04-18T12:55:43.106Z</time></trkpt><trkpt lat="45.2982176" lon="10.9988076"><ele>26.333333333333332</ele><time>2026-04-18T12:55:44.122Z</time></trkpt><trkpt lat="45.298167" lon="10.9985014"><ele>26.0</ele><time>2026-04-18T12:55:45.115Z</time></trkpt><trkpt lat="45.2981017" lon="10.9981865"><ele>26.0</ele><time>2026-04-18T12:55:46.117Z</time></trkpt><trkpt lat="45.2980421" lon="10.9978824"><ele>26.0</ele><time>2026-04-18T12:55:47.116Z</time></trkpt><trkpt lat="45.2979811" lon="10.9976003"><ele>26.0</ele><time>2026-04-18T12:55:48.127Z</time></trkpt><trkpt lat="45.2979293" lon="10.9973377"><ele>26.0</ele><time>2026-04-18T12:55:49.117Z</time></trkpt><trkpt lat="45.2978843" lon="10.9970916"><ele>26.0</ele><time>2026-04-18T12:55:50.118Z</time></trkpt><trkpt lat="45.2978317" lon="10.9968417"><ele>26.0</ele><time>2026-04-18T12:55:51.118Z</time></trkpt><trkpt lat="45.2977839" lon="10.9966054"><ele>26.0</ele><time>2026-04-18T12:55:52.119Z</time></trkpt><trkpt lat="45.2977429" lon="10.9963902"><ele>26.0</ele><time>2026-04-18T12:55:53.119Z</time></trkpt><trkpt lat="45.2977006" lon="10.9961902"><ele>26.0</ele><time>2026-04-18T12:55:54.124Z</time></trkpt><trkpt lat="45.2976726" lon="10.9960098"><ele>26.0</ele><time>2026-04-18T12:55:55.12Z</time></trkpt><trkpt lat="45.2976584" lon="10.9958483"><ele>25.999999999999996</ele><time>2026-04-18T12:55:56.12Z</time></trkpt><trkpt lat="45.297644" lon="10.9957165"><ele>26.0</ele><time>2026-04-18T12:55:57.117Z</time></trkpt><trkpt lat="45.297614" lon="10.9956311"><ele>26.0</ele><time>2026-04-18T12:55:58.113Z</time></trkpt><trkpt lat="45.2975583" lon="10.9955633"><ele>26.0</ele><time>2026-04-18T12:55:59.119Z</time></trkpt><trkpt lat="45.297494" lon="10.9955337"><ele>25.999999999999996</ele><time>2026-04-18T12:56:00.128Z</time></trkpt><trkpt lat="45.2973603" lon="10.9955474"><ele>26.0</ele><time>2026-04-18T12:56:02.121Z</time></trkpt><trkpt lat="45.297251" lon="10.9955915"><ele>26.5</ele><time>2026-04-18T12:56:03.11Z</time></trkpt><trkpt lat="45.2971244" lon="10.995638"><ele>27.0</ele><time>2026-04-18T12:56:04.112Z</time></trkpt><trkpt lat="45.2969837" lon="10.9956786"><ele>27.5</ele><time>2026-04-18T12:56:05.113Z</time></trkpt><trkpt lat="45.296828" lon="10.9957139"><ele>28.0</ele><time>2026-04-18T12:56:06.113Z</time></trkpt><trkpt lat="45.296636" lon="10.9957669"><ele>27.0</ele><time>2026-04-18T12:56:07.122Z</time></trkpt><trkpt lat="45.2964043" lon="10.9958309"><ele>26.0</ele><time>2026-04-18T12:56:08.113Z</time></trkpt><trkpt lat="45.2961891" lon="10.9958908"><ele>25.666666666666664</ele><time>2026-04-18T12:56:09.118Z</time></trkpt><trkpt lat="45.2959755" lon="10.9959459"><ele>25.333333333333336</ele><time>2026-04-18T12:56:10.119Z</time></trkpt><trkpt lat="45.2957528" lon="10.9960114"><ele>25.0</ele><time>2026-04-18T12:56:11.116Z</time></trkpt><trkpt lat="45.2955199" lon="10.9960621"><ele>26.0</ele><time>2026-04-18T12:56:12.119Z</time></trkpt><trkpt lat="45.2952923" lon="10.9961229"><ele>27.0</ele><time>2026-04-18T12:56:13.121Z</time></trkpt><trkpt lat="45.2950759" lon="10.9961749"><ele>27.0</ele><time>2026-04-18T12:56:14.123Z</time></trkpt><trkpt lat="45.2948502" lon="10.9962358"><ele>27.0</ele><time>2026-04-18T12:56:15.12Z</time></trkpt><trkpt lat="45.2946304" lon="10.9962897"><ele>27.333333333333336</ele><time>2026-04-18T12:56:16.121Z</time></trkpt><trkpt lat="45.2944127" lon="10.9963441"><ele>27.666666666666668</ele><time>2026-04-18T12:56:17.119Z</time></trkpt><trkpt lat="45.2941894" lon="10.9964051"><ele>28.0</ele><time>2026-04-18T12:56:18.116Z</time></trkpt><trkpt lat="45.2939614" lon="10.9964634"><ele>27.5</ele><time>2026-04-18T12:56:19.129Z</time></trkpt><trkpt lat="45.293732" lon="10.9965236"><ele>27.0</ele><time>2026-04-18T12:56:20.119Z</time></trkpt><trkpt lat="45.2935044" lon="10.9965874"><ele>27.0</ele><time>2026-04-18T12:56:21.121Z</time></trkpt><trkpt lat="45.2932748" lon="10.9966528"><ele>27.0</ele><time>2026-04-18T12:56:22.123Z</time></trkpt><trkpt lat="45.2930376" lon="10.9967148"><ele>26.666666666666664</ele><time>2026-04-18T12:56:23.123Z</time></trkpt><trkpt lat="45.2928056" lon="10.9967679"><ele>26.333333333333332</ele><time>2026-04-18T12:56:24.122Z</time></trkpt><trkpt lat="45.2925954" lon="10.9968196"><ele>26.0</ele><time>2026-04-18T12:56:25.115Z</time></trkpt><trkpt lat="45.2924" lon="10.996878"><ele>26.333333333333332</ele><time>2026-04-18T12:56:26.124Z</time></trkpt><trkpt lat="45.2922071" lon="10.9969318"><ele>26.666666666666664</ele><time>2026-04-18T12:56:27.116Z</time></trkpt><trkpt lat="45.2920147" lon="10.9969811"><ele>27.0</ele><time>2026-04-18T12:56:28.12Z</time></trkpt><trkpt lat="45.291829" lon="10.9970379"><ele>27.0</ele><time>2026-04-18T12:56:29.124Z</time></trkpt><trkpt lat="45.2916289" lon="10.9970947"><ele>27.0</ele><time>2026-04-18T12:56:30.13Z</time></trkpt><trkpt lat="45.2914228" lon="10.9971547"><ele>27.0</ele><time>2026-04-18T12:56:31.124Z</time></trkpt><trkpt lat="45.2912177" lon="10.9972023"><ele>27.0</ele><time>2026-04-18T12:56:32.121Z</time></trkpt><trkpt lat="45.2909986" lon="10.9972555"><ele>27.0</ele><time>2026-04-18T12:56:33.12Z</time></trkpt><trkpt lat="45.2907747" lon="10.9973057"><ele>27.0</ele><time>2026-04-18T12:56:34.118Z</time></trkpt><trkpt lat="45.2905374" lon="10.997361"><ele>28.5</ele><time>2026-04-18T12:56:35.119Z</time></trkpt><trkpt lat="45.2903115" lon="10.9974221"><ele>30.0</ele><time>2026-04-18T12:56:36.13Z</time></trkpt><trkpt lat="45.2900785" lon="10.9974825"><ele>28.5</ele><time>2026-04-18T12:56:37.124Z</time></trkpt><trkpt lat="45.2898452" lon="10.9975421"><ele>27.0</ele><time>2026-04-18T12:56:38.125Z</time></trkpt><trkpt lat="45.289608" lon="10.9976058"><ele>27.0</ele><time>2026-04-18T12:56:39.123Z</time></trkpt><trkpt lat="45.2893768" lon="10.9976613"><ele>27.0</ele><time>2026-04-18T12:56:40.129Z</time></trkpt><trkpt lat="45.2891398" lon="10.9977208"><ele>26.5</ele><time>2026-04-18T12:56:41.125Z</time></trkpt><trkpt lat="45.2889132" lon="10.9977793"><ele>26.0</ele><time>2026-04-18T12:56:42.126Z</time></trkpt><trkpt lat="45.288696" lon="10.9978416"><ele>26.0</ele><time>2026-04-18T12:56:43.12Z</time></trkpt><trkpt lat="45.288314" lon="10.9979475"><ele>26.0</ele><time>2026-04-18T12:56:45.116Z</time></trkpt><trkpt lat="45.2881317" lon="10.9979971"><ele>26.0</ele><time>2026-04-18T12:56:46.119Z</time></trkpt><trkpt lat="45.2879737" lon="10.9980518"><ele>26.0</ele><time>2026-04-18T12:56:47.118Z</time></trkpt><trkpt lat="45.2878239" lon="10.998101"><ele>26.0</ele><time>2026-04-18T12:56:48.114Z</time></trkpt><trkpt lat="45.2876768" lon="10.998155"><ele>26.0</ele><time>2026-04-18T12:56:49.112Z</time></trkpt><trkpt lat="45.2875417" lon="10.9981967"><ele>26.0</ele><time>2026-04-18T12:56:50.127Z</time></trkpt><trkpt lat="45.2874172" lon="10.9982252"><ele>26.0</ele><time>2026-04-18T12:56:51.108Z</time></trkpt><trkpt lat="45.2872784" lon="10.9982418"><ele>26.0</ele><time>2026-04-18T12:56:52.108Z</time></trkpt><trkpt lat="45.2871448" lon="10.9982583"><ele>26.25</ele><time>2026-04-18T12:56:53.111Z</time></trkpt><trkpt lat="45.2870106" lon="10.9982625"><ele>26.5</ele><time>2026-04-18T12:56:54.118Z</time></trkpt><trkpt lat="45.2868769" lon="10.9982738"><ele>26.75</ele><time>2026-04-18T12:56:55.113Z</time></trkpt><trkpt lat="45.2867262" lon="10.9982786"><ele>27.0</ele><time>2026-04-18T12:56:56.114Z</time></trkpt><trkpt lat="45.2865801" lon="10.9982939"><ele>27.0</ele><time>2026-04-18T12:56:57.115Z</time></trkpt><trkpt lat="45.286426" lon="10.9983034"><ele>27.0</ele><time>2026-04-18T12:56:58.117Z</time></trkpt><trkpt lat="45.2862648" lon="10.9983148"><ele>27.0</ele><time>2026-04-18T12:56:59.118Z</time></trkpt><trkpt lat="45.2861151" lon="10.9983299"><ele>27.0</ele><time>2026-04-18T12:57:00.117Z</time></trkpt><trkpt lat="45.285963" lon="10.9983392"><ele>27.0</ele><time>2026-04-18T12:57:01.127Z</time></trkpt><trkpt lat="45.2858051" lon="10.9983691"><ele>27.0</ele><time>2026-04-18T12:57:02.125Z</time></trkpt><trkpt lat="45.2856578" lon="10.9983989"><ele>27.333333333333336</ele><time>2026-04-18T12:57:03.122Z</time></trkpt><trkpt lat="45.2854981" lon="10.9984168"><ele>27.666666666666668</ele><time>2026-04-18T12:57:04.115Z</time></trkpt><trkpt lat="45.2853332" lon="10.9984543"><ele>28.0</ele><time>2026-04-18T12:57:05.12Z</time></trkpt><trkpt lat="45.2851698" lon="10.9985027"><ele>28.0</ele><time>2026-04-18T12:57:06.121Z</time></trkpt><trkpt lat="45.2850115" lon="10.9985412"><ele>28.0</ele><time>2026-04-18T12:57:07.117Z</time></trkpt><trkpt lat="45.2848619" lon="10.9985692"><ele>28.0</ele><time>2026-04-18T12:57:08.116Z</time></trkpt><trkpt lat="45.2847024" lon="10.9986049"><ele>27.0</ele><time>2026-04-18T12:57:09.123Z</time></trkpt><trkpt lat="45.2845364" lon="10.9986399"><ele>26.0</ele><time>2026-04-18T12:57:10.128Z</time></trkpt><trkpt lat="45.2843634" lon="10.9986773"><ele>25.0</ele><time>2026-04-18T12:57:11.126Z</time></trkpt><trkpt lat="45.2841945" lon="10.9987204"><ele>25.0</ele><time>2026-04-18T12:57:12.13Z</time></trkpt><trkpt lat="45.284024" lon="10.9987663"><ele>25.0</ele><time>2026-04-18T12:57:13.131Z</time></trkpt><trkpt lat="45.2838453" lon="10.9988069"><ele>25.0</ele><time>2026-04-18T12:57:14.132Z</time></trkpt><trkpt lat="45.2836715" lon="10.9988597"><ele>25.666666666666668</ele><time>2026-04-18T12:57:15.128Z</time></trkpt><trkpt lat="45.2835145" lon="10.9989118"><ele>26.333333333333336</ele><time>2026-04-18T12:57:16.127Z</time></trkpt><trkpt lat="45.2833605" lon="10.9989496"><ele>27.0</ele><time>2026-04-18T12:57:17.121Z</time></trkpt><trkpt lat="45.2832252" lon="10.9989809"><ele>27.0</ele><time>2026-04-18T12:57:18.121Z</time></trkpt><trkpt lat="45.2831049" lon="10.9990109"><ele>27.0</ele><time>2026-04-18T12:57:19.122Z</time></trkpt><trkpt lat="45.2829872" lon="10.999032"><ele>27.0</ele><time>2026-04-18T12:57:20.126Z</time></trkpt><trkpt lat="45.2828683" lon="10.9990528"><ele>27.0</ele><time>2026-04-18T12:57:21.14Z</time></trkpt><trkpt lat="45.282735" lon="10.9990774"><ele>26.75</ele><time>2026-04-18T12:57:22.129Z</time></trkpt><trkpt lat="45.2825953" lon="10.9990974"><ele>26.5</ele><time>2026-04-18T12:57:23.128Z</time></trkpt><trkpt lat="45.2824578" lon="10.9991187"><ele>26.25</ele><time>2026-04-18T12:57:24.123Z</time></trkpt><trkpt lat="45.2823066" lon="10.999132"><ele>26.0</ele><time>2026-04-18T12:57:25.124Z</time></trkpt><trkpt lat="45.2821422" lon="10.9991468"><ele>25.666666666666664</ele><time>2026-04-18T12:57:26.116Z</time></trkpt><trkpt lat="45.2819789" lon="10.9991581"><ele>25.333333333333336</ele><time>2026-04-18T12:57:27.127Z</time></trkpt><trkpt lat="45.2818245" lon="10.9991786"><ele>25.0</ele><time>2026-04-18T12:57:28.117Z</time></trkpt><trkpt lat="45.2816748" lon="10.9992037"><ele>24.666666666666668</ele><time>2026-04-18T12:57:29.121Z</time></trkpt><trkpt lat="45.2815222" lon="10.9992351"><ele>24.333333333333336</ele><time>2026-04-18T12:57:30.126Z</time></trkpt><trkpt lat="45.2813668" lon="10.9992718"><ele>24.0</ele><time>2026-04-18T12:57:31.125Z</time></trkpt><trkpt lat="45.2812152" lon="10.9993174"><ele>24.666666666666664</ele><time>2026-04-18T12:57:32.119Z</time></trkpt><trkpt lat="45.2810614" lon="10.9993632"><ele>25.333333333333332</ele><time>2026-04-18T12:57:33.115Z</time></trkpt><trkpt lat="45.2809057" lon="10.9994056"><ele>26.0</ele><time>2026-04-18T12:57:34.117Z</time></trkpt><trkpt lat="45.2807362" lon="10.9994421"><ele>25.666666666666664</ele><time>2026-04-18T12:57:35.116Z</time></trkpt><trkpt lat="45.2805714" lon="10.9994827"><ele>25.333333333333336</ele><time>2026-04-18T12:57:36.112Z</time></trkpt><trkpt lat="45.2803999" lon="10.999519"><ele>25.0</ele><time>2026-04-18T12:57:37.112Z</time></trkpt><trkpt lat="45.2802372" lon="10.9995542"><ele>25.0</ele><time>2026-04-18T12:57:38.114Z</time></trkpt><trkpt lat="45.280084" lon="10.9995934"><ele>25.0</ele><time>2026-04-18T12:57:39.113Z</time></trkpt><trkpt lat="45.2799256" lon="10.9996232"><ele>25.0</ele><time>2026-04-18T12:57:40.113Z</time></trkpt><trkpt lat="45.2797685" lon="10.9996479"><ele>25.333333333333336</ele><time>2026-04-18T12:57:41.104Z</time></trkpt><trkpt lat="45.2796125" lon="10.9996762"><ele>25.666666666666664</ele><time>2026-04-18T12:57:42.113Z</time></trkpt><trkpt lat="45.2794629" lon="10.9997031"><ele>26.0</ele><time>2026-04-18T12:57:43.116Z</time></trkpt><trkpt lat="45.2792989" lon="10.9997381"><ele>26.0</ele><time>2026-04-18T12:57:44.115Z</time></trkpt><trkpt lat="45.2791458" lon="10.9997877"><ele>26.0</ele><time>2026-04-18T12:57:45.117Z</time></trkpt><trkpt lat="45.2789989" lon="10.9998283"><ele>26.0</ele><time>2026-04-18T12:57:46.107Z</time></trkpt><trkpt lat="45.2788586" lon="10.9998585"><ele>26.0</ele><time>2026-04-18T12:57:47.107Z</time></trkpt><trkpt lat="45.2787403" lon="10.999881"><ele>26.4</ele><time>2026-04-18T12:57:48.105Z</time></trkpt><trkpt lat="45.2786224" lon="10.999902"><ele>26.8</ele><time>2026-04-18T12:57:49.11Z</time></trkpt><trkpt lat="45.2785084" lon="10.9999042"><ele>27.199999999999996</ele><time>2026-04-18T12:57:50.116Z</time></trkpt><trkpt lat="45.2783991" lon="10.9999007"><ele>27.599999999999998</ele><time>2026-04-18T12:57:51.115Z</time></trkpt><trkpt lat="45.2782976" lon="10.9998879"><ele>28.0</ele><time>2026-04-18T12:57:52.127Z</time></trkpt><trkpt lat="45.2782026" lon="10.9998768"><ele>28.0</ele><time>2026-04-18T12:57:53.119Z</time></trkpt><trkpt lat="45.2781143" lon="10.9998672"><ele>27.999999999999996</ele><time>2026-04-18T12:57:54.116Z</time></trkpt><trkpt lat="45.2780208" lon="10.9998735"><ele>27.999999999999996</ele><time>2026-04-18T12:57:55.111Z</time></trkpt><trkpt lat="45.2779292" lon="10.9999062"><ele>28.0</ele><time>2026-04-18T12:57:56.12Z</time></trkpt><trkpt lat="45.2778437" lon="10.9999728"><ele>28.0</ele><time>2026-04-18T12:57:57.118Z</time></trkpt><trkpt lat="45.2777766" lon="11.0000532"><ele>27.833333333333336</ele><time>2026-04-18T12:57:58.107Z</time></trkpt><trkpt lat="45.2777244" lon="11.0001336"><ele>27.666666666666668</ele><time>2026-04-18T12:57:59.104Z</time></trkpt><trkpt lat="45.2776337" lon="11.0001895"><ele>27.5</ele><time>2026-04-18T12:58:01.116Z</time></trkpt><trkpt lat="45.2775416" lon="11.0001332"><ele>27.333333333333336</ele><time>2026-04-18T12:58:03.114Z</time></trkpt><trkpt lat="45.2774875" lon="11.0000762"><ele>27.166666666666668</ele><time>2026-04-18T12:58:04.121Z</time></trkpt><trkpt lat="45.2774266" lon="10.9999808"><ele>27.0</ele><time>2026-04-18T12:58:05.114Z</time></trkpt><trkpt lat="45.2773568" lon="10.9998543"><ele>27.0</ele><time>2026-04-18T12:58:06.107Z</time></trkpt><trkpt lat="45.2772848" lon="10.9997395"><ele>27.000000000000004</ele><time>2026-04-18T12:58:07.112Z</time></trkpt><trkpt lat="45.2772058" lon="10.999637"><ele>27.000000000000004</ele><time>2026-04-18T12:58:08.118Z</time></trkpt><trkpt lat="45.2771242" lon="10.9995431"><ele>27.0</ele><time>2026-04-18T12:58:09.112Z</time></trkpt><trkpt lat="45.277046" lon="10.9994636"><ele>27.0</ele><time>2026-04-18T12:58:10.109Z</time></trkpt><trkpt lat="45.276957" lon="10.9993858"><ele>27.0</ele><time>2026-04-18T12:58:11.113Z</time></trkpt><trkpt lat="45.2768592" lon="10.9993148"><ele>27.0</ele><time>2026-04-18T12:58:12.109Z</time></trkpt><trkpt lat="45.2767464" lon="10.9992512"><ele>27.0</ele><time>2026-04-18T12:58:13.115Z</time></trkpt><trkpt lat="45.2766358" lon="10.9992013"><ele>27.0</ele><time>2026-04-18T12:58:14.113Z</time></trkpt><trkpt lat="45.2765365" lon="10.9991573"><ele>27.0</ele><time>2026-04-18T12:58:15.111Z</time></trkpt><trkpt lat="45.2764544" lon="10.9991236"><ele>27.0</ele><time>2026-04-18T12:58:16.119Z</time></trkpt><trkpt lat="45.2763841" lon="10.9990958"><ele>27.0</ele><time>2026-04-18T12:58:17.12Z</time></trkpt><trkpt lat="45.2763103" lon="10.9990672"><ele>27.0</ele><time>2026-04-18T12:58:18.114Z</time></trkpt><trkpt lat="45.276226" lon="10.9990293"><ele>27.0</ele><time>2026-04-18T12:58:19.112Z</time></trkpt><trkpt lat="45.2761295" lon="10.9989826"><ele>27.0</ele><time>2026-04-18T12:58:20.108Z</time></trkpt><trkpt lat="45.2760247" lon="10.9989284"><ele>26.75</ele><time>2026-04-18T12:58:21.106Z</time></trkpt><trkpt lat="45.2759124" lon="10.9988767"><ele>26.5</ele><time>2026-04-18T12:58:22.118Z</time></trkpt><trkpt lat="45.2757938" lon="10.9988158"><ele>26.25</ele><time>2026-04-18T12:58:23.138Z</time></trkpt><trkpt lat="45.2756764" lon="10.9987551"><ele>26.0</ele><time>2026-04-18T12:58:24.119Z</time></trkpt><trkpt lat="45.2755591" lon="10.9986998"><ele>26.5</ele><time>2026-04-18T12:58:25.126Z</time></trkpt><trkpt lat="45.2754414" lon="10.9986524"><ele>27.0</ele><time>2026-04-18T12:58:26.123Z</time></trkpt><trkpt lat="45.2753237" lon="10.9986008"><ele>27.5</ele><time>2026-04-18T12:58:27.124Z</time></trkpt><trkpt lat="45.2752136" lon="10.9985503"><ele>28.0</ele><time>2026-04-18T12:58:28.124Z</time></trkpt><trkpt lat="45.2751185" lon="10.9984967"><ele>28.000000000000004</ele><time>2026-04-18T12:58:29.123Z</time></trkpt><trkpt lat="45.2750384" lon="10.9984481"><ele>28.0</ele><time>2026-04-18T12:58:30.107Z</time></trkpt><trkpt lat="45.2749659" lon="10.9983904"><ele>28.0</ele><time>2026-04-18T12:58:31.123Z</time></trkpt><trkpt lat="45.2749036" lon="10.9983411"><ele>28.0</ele><time>2026-04-18T12:58:32.126Z</time></trkpt><trkpt lat="45.2748282" lon="10.9983039"><ele>28.000000000000004</ele><time>2026-04-18T12:58:34.107Z</time></trkpt><trkpt lat="45.2747661" lon="10.9983468"><ele>28.0</ele><time>2026-04-18T12:58:36.102Z</time></trkpt><trkpt lat="45.2746925" lon="10.9984928"><ele>27.599999999999998</ele><time>2026-04-18T12:58:38.109Z</time></trkpt><trkpt lat="45.2746757" lon="10.9986224"><ele>27.199999999999996</ele><time>2026-04-18T12:58:39.106Z</time></trkpt><trkpt lat="45.2746589" lon="10.9987561"><ele>26.8</ele><time>2026-04-18T12:58:40.104Z</time></trkpt><trkpt lat="45.2746447" lon="10.99891"><ele>26.4</ele><time>2026-04-18T12:58:41.105Z</time></trkpt><trkpt lat="45.2746386" lon="10.9991"><ele>26.0</ele><time>2026-04-18T12:58:42.102Z</time></trkpt><trkpt lat="45.2746447" lon="10.9992825"><ele>25.75</ele><time>2026-04-18T12:58:43.108Z</time></trkpt><trkpt lat="45.2746581" lon="10.9994707"><ele>25.5</ele><time>2026-04-18T12:58:44.106Z</time></trkpt><trkpt lat="45.2746774" lon="10.9996789"><ele>25.25</ele><time>2026-04-18T12:58:45.102Z</time></trkpt><trkpt lat="45.274714" lon="10.9998803"><ele>25.0</ele><time>2026-04-18T12:58:46.104Z</time></trkpt><trkpt lat="45.274757" lon="11.0000842"><ele>25.0</ele><time>2026-04-18T12:58:47.114Z</time></trkpt><trkpt lat="45.2747945" lon="11.0002765"><ele>25.0</ele><time>2026-04-18T12:58:48.108Z</time></trkpt><trkpt lat="45.2748399" lon="11.0004722"><ele>25.0</ele><time>2026-04-18T12:58:49.112Z</time></trkpt><trkpt lat="45.2748767" lon="11.0006789"><ele>25.0</ele><time>2026-04-18T12:58:50.109Z</time></trkpt><trkpt lat="45.274921" lon="11.0008832"><ele>25.0</ele><time>2026-04-18T12:58:51.113Z</time></trkpt><trkpt lat="45.2749511" lon="11.0010812"><ele>25.0</ele><time>2026-04-18T12:58:52.109Z</time></trkpt><trkpt lat="45.2749525" lon="11.0012724"><ele>25.0</ele><time>2026-04-18T12:58:53.116Z</time></trkpt><trkpt lat="45.2749505" lon="11.0014673"><ele>25.0</ele><time>2026-04-18T12:58:54.128Z</time></trkpt><trkpt lat="45.2749284" lon="11.0016613"><ele>25.25</ele><time>2026-04-18T12:58:55.109Z</time></trkpt><trkpt lat="45.2748945" lon="11.0018451"><ele>25.5</ele><time>2026-04-18T12:58:56.113Z</time></trkpt><trkpt lat="45.2748562" lon="11.0020311"><ele>25.75</ele><time>2026-04-18T12:58:57.114Z</time></trkpt><trkpt lat="45.2748047" lon="11.0022191"><ele>26.0</ele><time>2026-04-18T12:58:58.113Z</time></trkpt><trkpt lat="45.2747405" lon="11.0024005"><ele>25.75</ele><time>2026-04-18T12:58:59.113Z</time></trkpt><trkpt lat="45.2746859" lon="11.0025894"><ele>25.5</ele><time>2026-04-18T12:59:00.114Z</time></trkpt><trkpt lat="45.2746307" lon="11.0027703"><ele>25.25</ele><time>2026-04-18T12:59:01.108Z</time></trkpt><trkpt lat="45.27458" lon="11.0029419"><ele>25.0</ele><time>2026-04-18T12:59:02.11Z</time></trkpt><trkpt lat="45.2745222" lon="11.0031132"><ele>25.0</ele><time>2026-04-18T12:59:03.109Z</time></trkpt><trkpt lat="45.2744709" lon="11.003283"><ele>25.0</ele><time>2026-04-18T12:59:04.107Z</time></trkpt><trkpt lat="45.2744246" lon="11.0034642"><ele>25.0</ele><time>2026-04-18T12:59:05.118Z</time></trkpt><trkpt lat="45.2743884" lon="11.0036389"><ele>25.0</ele><time>2026-04-18T12:59:06.11Z</time></trkpt><trkpt lat="45.274346" lon="11.0038164"><ele>25.0</ele><time>2026-04-18T12:59:07.112Z</time></trkpt><trkpt lat="45.2743065" lon="11.0040022"><ele>25.0</ele><time>2026-04-18T12:59:08.105Z</time></trkpt><trkpt lat="45.2742626" lon="11.0041877"><ele>25.0</ele><time>2026-04-18T12:59:09.106Z</time></trkpt><trkpt lat="45.274227" lon="11.0043707"><ele>25.0</ele><time>2026-04-18T12:59:10.111Z</time></trkpt><trkpt lat="45.2741892" lon="11.0045463"><ele>25.25</ele><time>2026-04-18T12:59:11.103Z</time></trkpt><trkpt lat="45.2741489" lon="11.0047227"><ele>25.5</ele><time>2026-04-18T12:59:12.102Z</time></trkpt><trkpt lat="45.2741087" lon="11.0049163"><ele>25.75</ele><time>2026-04-18T12:59:13.113Z</time></trkpt><trkpt lat="45.2740678" lon="11.0051283"><ele>26.0</ele><time>2026-04-18T12:59:14.1Z</time></trkpt><trkpt lat="45.274027" lon="11.005326"><ele>26.200000000000003</ele><time>2026-04-18T12:59:15.105Z</time></trkpt><trkpt lat="45.2739888" lon="11.0055099"><ele>26.400000000000002</ele><time>2026-04-18T12:59:16.101Z</time></trkpt><trkpt lat="45.2739586" lon="11.0056772"><ele>26.6</ele><time>2026-04-18T12:59:17.109Z</time></trkpt><trkpt lat="45.2739361" lon="11.0057807"><ele>26.8</ele><time>2026-04-18T12:59:18.103Z</time></trkpt><trkpt lat="45.2738926" lon="11.0058875"><ele>27.0</ele><time>2026-04-18T12:59:19.091Z</time></trkpt><trkpt lat="45.2738606" lon="11.0060246"><ele>27.75</ele><time>2026-04-18T12:59:20.109Z</time></trkpt><trkpt lat="45.2738377" lon="11.0061917"><ele>28.5</ele><time>2026-04-18T12:59:21.101Z</time></trkpt><trkpt lat="45.2738084" lon="11.0063782"><ele>29.25</ele><time>2026-04-18T12:59:22.094Z</time></trkpt><trkpt lat="45.2737771" lon="11.0065713"><ele>30.0</ele><time>2026-04-18T12:59:23.097Z</time></trkpt><trkpt lat="45.2737423" lon="11.0067423"><ele>30.0</ele><time>2026-04-18T12:59:24.089Z</time></trkpt><trkpt lat="45.2737111" lon="11.0068935"><ele>30.0</ele><time>2026-04-18T12:59:25.105Z</time></trkpt><trkpt lat="45.27369" lon="11.0070176"><ele>30.0</ele><time>2026-04-18T12:59:26.091Z</time></trkpt><trkpt lat="45.2736709" lon="11.0071141"><ele>30.0</ele><time>2026-04-18T12:59:27.093Z</time></trkpt><trkpt lat="45.273622" lon="11.0072027"><ele>30.0</ele><time>2026-04-18T12:59:29.098Z</time></trkpt><trkpt lat="45.2735141" lon="11.0071033"><ele>30.0</ele><time>2026-04-18T12:59:31.087Z</time></trkpt><trkpt lat="45.2734325" lon="11.0070248"><ele>30.0</ele><time>2026-04-18T12:59:32.088Z</time></trkpt><trkpt lat="45.2733324" lon="11.0069545"><ele>30.0</ele><time>2026-04-18T12:59:33.084Z</time></trkpt><trkpt lat="45.2732341" lon="11.006895"><ele>30.0</ele><time>2026-04-18T12:59:34.087Z</time></trkpt><trkpt lat="45.2731377" lon="11.0068441"><ele>30.0</ele><time>2026-04-18T12:59:35.09Z</time></trkpt><trkpt lat="45.2730447" lon="11.0068061"><ele>30.2</ele><time>2026-04-18T12:59:36.092Z</time></trkpt><trkpt lat="45.27296" lon="11.0067788"><ele>30.4</ele><time>2026-04-18T12:59:37.098Z</time></trkpt><trkpt lat="45.2728789" lon="11.0067666"><ele>30.6</ele><time>2026-04-18T12:59:38.093Z</time></trkpt><trkpt lat="45.2727922" lon="11.0067726"><ele>30.8</ele><time>2026-04-18T12:59:39.095Z</time></trkpt><trkpt lat="45.272699" lon="11.0067841"><ele>31.0</ele><time>2026-04-18T12:59:40.089Z</time></trkpt><trkpt lat="45.272594" lon="11.0068099"><ele>31.0</ele><time>2026-04-18T12:59:41.09Z</time></trkpt><trkpt lat="45.2724824" lon="11.0068489"><ele>31.0</ele><time>2026-04-18T12:59:42.084Z</time></trkpt><trkpt lat="45.2723573" lon="11.0068951"><ele>31.0</ele><time>2026-04-18T12:59:43.088Z</time></trkpt><trkpt lat="45.2722293" lon="11.00695"><ele>31.0</ele><time>2026-04-18T12:59:44.085Z</time></trkpt><trkpt lat="45.272094" lon="11.0070046"><ele>30.75</ele><time>2026-04-18T12:59:45.092Z</time></trkpt><trkpt lat="45.2719657" lon="11.0070541"><ele>30.5</ele><time>2026-04-18T12:59:46.082Z</time></trkpt><trkpt lat="45.2718447" lon="11.0070949"><ele>30.25</ele><time>2026-04-18T12:59:47.08Z</time></trkpt><trkpt lat="45.2717313" lon="11.0071277"><ele>30.0</ele><time>2026-04-18T12:59:48.083Z</time></trkpt><trkpt lat="45.271625" lon="11.0071527"><ele>30.0</ele><time>2026-04-18T12:59:49.09Z</time></trkpt><trkpt lat="45.2715235" lon="11.0071793"><ele>30.0</ele><time>2026-04-18T12:59:50.085Z</time></trkpt><trkpt lat="45.2714216" lon="11.0072028"><ele>30.0</ele><time>2026-04-18T12:59:51.077Z</time></trkpt><trkpt lat="45.2713173" lon="11.0072166"><ele>30.0</ele><time>2026-04-18T12:59:52.074Z</time></trkpt><trkpt lat="45.2711994" lon="11.0072369"><ele>30.0</ele><time>2026-04-18T12:59:53.065Z</time></trkpt><trkpt lat="45.2710786" lon="11.0072537"><ele>29.75</ele><time>2026-04-18T12:59:54.075Z</time></trkpt><trkpt lat="45.2709437" lon="11.0072608"><ele>29.5</ele><time>2026-04-18T12:59:55.082Z</time></trkpt><trkpt lat="45.2708173" lon="11.0072873"><ele>29.25</ele><time>2026-04-18T12:59:56.099Z</time></trkpt><trkpt lat="45.2706827" lon="11.0073139"><ele>29.0</ele><time>2026-04-18T12:59:57.091Z</time></trkpt><trkpt lat="45.27055" lon="11.0073361"><ele>28.75</ele><time>2026-04-18T12:59:58.087Z</time></trkpt><trkpt lat="45.2704193" lon="11.0073602"><ele>28.5</ele><time>2026-04-18T12:59:59.089Z</time></trkpt><trkpt lat="45.2702924" lon="11.0073836"><ele>28.25</ele><time>2026-04-18T13:00:00.1Z</time></trkpt><trkpt lat="45.2701832" lon="11.0073987"><ele>28.0</ele><time>2026-04-18T13:00:01.095Z</time></trkpt><trkpt lat="45.2700841" lon="11.0074137"><ele>28.000000000000004</ele><time>2026-04-18T13:00:02.081Z</time></trkpt><trkpt lat="45.269992" lon="11.0074259"><ele>28.0</ele><time>2026-04-18T13:00:03.087Z</time></trkpt><trkpt lat="45.2699091" lon="11.0074405"><ele>28.0</ele><time>2026-04-18T13:00:04.091Z</time></trkpt><trkpt lat="45.2698281" lon="11.0074503"><ele>28.0</ele><time>2026-04-18T13:00:05.093Z</time></trkpt><trkpt lat="45.2697548" lon="11.0074654"><ele>28.000000000000004</ele><time>2026-04-18T13:00:06.091Z</time></trkpt><trkpt lat="45.2696726" lon="11.0074721"><ele>28.0</ele><time>2026-04-18T13:00:07.098Z</time></trkpt><trkpt lat="45.2695874" lon="11.0074813"><ele>28.000000000000004</ele><time>2026-04-18T13:00:08.103Z</time></trkpt><trkpt lat="45.269511" lon="11.0075009"><ele>28.0</ele><time>2026-04-18T13:00:09.103Z</time></trkpt><trkpt lat="45.2694401" lon="11.0075264"><ele>28.0</ele><time>2026-04-18T13:00:10.101Z</time></trkpt><trkpt lat="45.2693955" lon="11.0076214"><ele>28.0</ele><time>2026-04-18T13:00:12.102Z</time></trkpt><trkpt lat="45.2694483" lon="11.0076911"><ele>28.000000000000004</ele><time>2026-04-18T13:00:14.084Z</time></trkpt><trkpt lat="45.2695333" lon="11.0076979"><ele>28.0</ele><time>2026-04-18T13:00:16.09Z</time></trkpt><trkpt lat="45.2696177" lon="11.0076728"><ele>28.000000000000004</ele><time>2026-04-18T13:00:18.091Z</time></trkpt><trkpt lat="45.2696866" lon="11.0076493"><ele>28.0</ele><time>2026-04-18T13:00:21.095Z</time></trkpt><trkpt lat="45.2697478" lon="11.0076259"><ele>28.0</ele><time>2026-04-18T13:05:02.084Z</time></trkpt><trkpt lat="45.2698141" lon="11.007596"><ele>28.0</ele><time>2026-04-18T13:05:04.092Z</time></trkpt><trkpt lat="45.2698893" lon="11.007533"><ele>28.000000000000004</ele><time>2026-04-18T13:05:06.103Z</time></trkpt><trkpt lat="45.2699518" lon="11.0074979"><ele>28.0</ele><time>2026-04-18T13:05:07.097Z</time></trkpt><trkpt lat="45.2700438" lon="11.0074742"><ele>28.0</ele><time>2026-04-18T13:05:08.091Z</time></trkpt><trkpt lat="45.2701356" lon="11.0074588"><ele>27.999999999999996</ele><time>2026-04-18T13:05:09.086Z</time></trkpt><trkpt lat="45.2702308" lon="11.0074445"><ele>27.999999999999996</ele><time>2026-04-18T13:05:10.083Z</time></trkpt><trkpt lat="45.2703329" lon="11.0074266"><ele>28.0</ele><time>2026-04-18T13:05:11.08Z</time></trkpt><trkpt lat="45.2704444" lon="11.0074166"><ele>28.0</ele><time>2026-04-18T13:05:12.08Z</time></trkpt><trkpt lat="45.2705672" lon="11.0073998"><ele>28.25</ele><time>2026-04-18T13:05:13.088Z</time></trkpt><trkpt lat="45.2706992" lon="11.0073743"><ele>28.5</ele><time>2026-04-18T13:05:14.085Z</time></trkpt><trkpt lat="45.2708415" lon="11.0073507"><ele>28.75</ele><time>2026-04-18T13:05:15.081Z</time></trkpt><trkpt lat="45.2709903" lon="11.0073248"><ele>29.0</ele><time>2026-04-18T13:05:16.083Z</time></trkpt><trkpt lat="45.2711453" lon="11.0072998"><ele>29.0</ele><time>2026-04-18T13:05:17.087Z</time></trkpt><trkpt lat="45.2713008" lon="11.0072652"><ele>29.0</ele><time>2026-04-18T13:05:18.091Z</time></trkpt><trkpt lat="45.2714372" lon="11.0072177"><ele>29.0</ele><time>2026-04-18T13:05:19.081Z</time></trkpt><trkpt lat="45.2715653" lon="11.0071859"><ele>29.0</ele><time>2026-04-18T13:05:20.07Z</time></trkpt><trkpt lat="45.2716796" lon="11.007148"><ele>29.25</ele><time>2026-04-18T13:05:21.068Z</time></trkpt><trkpt lat="45.2718002" lon="11.007131"><ele>29.5</ele><time>2026-04-18T13:05:22.068Z</time></trkpt><trkpt lat="45.2719304" lon="11.0071205"><ele>29.75</ele><time>2026-04-18T13:05:23.07Z</time></trkpt><trkpt lat="45.272065" lon="11.0070988"><ele>30.0</ele><time>2026-04-18T13:05:24.069Z</time></trkpt><trkpt lat="45.2722007" lon="11.0070549"><ele>30.25</ele><time>2026-04-18T13:05:25.072Z</time></trkpt><trkpt lat="45.2723336" lon="11.0070104"><ele>30.5</ele><time>2026-04-18T13:05:26.077Z</time></trkpt><trkpt lat="45.2724503" lon="11.0069652"><ele>30.75</ele><time>2026-04-18T13:05:27.079Z</time></trkpt><trkpt lat="45.2725662" lon="11.0069431"><ele>31.0</ele><time>2026-04-18T13:05:28.073Z</time></trkpt><trkpt lat="45.272659" lon="11.0069228"><ele>31.000000000000004</ele><time>2026-04-18T13:05:29.076Z</time></trkpt><trkpt lat="45.2727308" lon="11.006904"><ele>31.0</ele><time>2026-04-18T13:05:30.078Z</time></trkpt><trkpt lat="45.2728056" lon="11.0069025"><ele>31.0</ele><time>2026-04-18T13:05:31.082Z</time></trkpt><trkpt lat="45.2728727" lon="11.0069028"><ele>31.0</ele><time>2026-04-18T13:05:32.075Z</time></trkpt><trkpt lat="45.2729423" lon="11.0070108"><ele>31.000000000000004</ele><time>2026-04-18T13:05:34.081Z</time></trkpt><trkpt lat="45.2729338" lon="11.0071849"><ele>31.0</ele><time>2026-04-18T13:05:36.082Z</time></trkpt><trkpt lat="45.272895" lon="11.0073058"><ele>31.0</ele><time>2026-04-18T13:05:37.101Z</time></trkpt><trkpt lat="45.2728441" lon="11.00745"><ele>31.0</ele><time>2026-04-18T13:05:38.07Z</time></trkpt><trkpt lat="45.2727927" lon="11.0076017"><ele>31.0</ele><time>2026-04-18T13:05:39.076Z</time></trkpt><trkpt lat="45.2727372" lon="11.0077728"><ele>31.0</ele><time>2026-04-18T13:05:40.075Z</time></trkpt><trkpt lat="45.272683" lon="11.0079415"><ele>30.8</ele><time>2026-04-18T13:05:41.069Z</time></trkpt><trkpt lat="45.2726271" lon="11.0080928"><ele>30.6</ele><time>2026-04-18T13:05:42.069Z</time></trkpt><trkpt lat="45.2725698" lon="11.0082281"><ele>30.4</ele><time>2026-04-18T13:05:43.072Z</time></trkpt><trkpt lat="45.2725172" lon="11.0083495"><ele>30.2</ele><time>2026-04-18T13:05:44.077Z</time></trkpt><trkpt lat="45.2724605" lon="11.0084685"><ele>30.0</ele><time>2026-04-18T13:05:45.076Z</time></trkpt><trkpt lat="45.2723966" lon="11.0085975"><ele>29.75</ele><time>2026-04-18T13:05:46.084Z</time></trkpt><trkpt lat="45.2723275" lon="11.0087401"><ele>29.5</ele><time>2026-04-18T13:05:47.087Z</time></trkpt><trkpt lat="45.2722521" lon="11.0088925"><ele>29.25</ele><time>2026-04-18T13:05:48.085Z</time></trkpt><trkpt lat="45.2721736" lon="11.0090582"><ele>29.0</ele><time>2026-04-18T13:05:49.093Z</time></trkpt><trkpt lat="45.2720909" lon="11.0092257"><ele>28.75</ele><time>2026-04-18T13:05:50.091Z</time></trkpt><trkpt lat="45.2720011" lon="11.0093814"><ele>28.5</ele><time>2026-04-18T13:05:51.085Z</time></trkpt><trkpt lat="45.2719003" lon="11.0095399"><ele>28.25</ele><time>2026-04-18T13:05:52.083Z</time></trkpt><trkpt lat="45.2717883" lon="11.0096891"><ele>28.0</ele><time>2026-04-18T13:05:53.083Z</time></trkpt><trkpt lat="45.2716616" lon="11.0098574"><ele>28.0</ele><time>2026-04-18T13:05:54.084Z</time></trkpt><trkpt lat="45.2715428" lon="11.0100035"><ele>28.0</ele><time>2026-04-18T13:05:55.097Z</time></trkpt><trkpt lat="45.2714343" lon="11.0101624"><ele>28.0</ele><time>2026-04-18T13:05:56.099Z</time></trkpt><trkpt lat="45.2713254" lon="11.0103182"><ele>28.0</ele><time>2026-04-18T13:05:57.097Z</time></trkpt><trkpt lat="45.2712084" lon="11.0104852"><ele>28.0</ele><time>2026-04-18T13:05:58.1Z</time></trkpt><trkpt lat="45.2710897" lon="11.0106546"><ele>28.0</ele><time>2026-04-18T13:05:59.099Z</time></trkpt><trkpt lat="45.2709786" lon="11.0108244"><ele>28.0</ele><time>2026-04-18T13:06:00.103Z</time></trkpt><trkpt lat="45.2708634" lon="11.0109849"><ele>28.0</ele><time>2026-04-18T13:06:01.098Z</time></trkpt><trkpt lat="45.2707406" lon="11.0111674"><ele>28.0</ele><time>2026-04-18T13:06:02.09Z</time></trkpt><trkpt lat="45.270607" lon="11.0113668"><ele>28.0</ele><time>2026-04-18T13:06:03.09Z</time></trkpt><trkpt lat="45.2704717" lon="11.0115675"><ele>28.0</ele><time>2026-04-18T13:06:04.085Z</time></trkpt><trkpt lat="45.2703258" lon="11.0117643"><ele>28.0</ele><time>2026-04-18T13:06:05.085Z</time></trkpt><trkpt lat="45.2702032" lon="11.0119623"><ele>27.666666666666668</ele><time>2026-04-18T13:06:06.082Z</time></trkpt><trkpt lat="45.2700882" lon="11.012147"><ele>27.333333333333336</ele><time>2026-04-18T13:06:07.097Z</time></trkpt><trkpt lat="45.2699684" lon="11.012303"><ele>27.0</ele><time>2026-04-18T13:06:08.084Z</time></trkpt><trkpt lat="45.2698753" lon="11.0124335"><ele>27.0</ele><time>2026-04-18T13:06:09.079Z</time></trkpt><trkpt lat="45.2697779" lon="11.0125417"><ele>27.0</ele><time>2026-04-18T13:06:10.082Z</time></trkpt><trkpt lat="45.2696809" lon="11.0126178"><ele>27.0</ele><time>2026-04-18T13:06:11.081Z</time></trkpt><trkpt lat="45.2695875" lon="11.0126588"><ele>27.0</ele><time>2026-04-18T13:06:12.091Z</time></trkpt><trkpt lat="45.2694661" lon="11.01267"><ele>27.0</ele><time>2026-04-18T13:06:13.079Z</time></trkpt><trkpt lat="45.2693396" lon="11.0126673"><ele>27.0</ele><time>2026-04-18T13:06:14.078Z</time></trkpt><trkpt lat="45.2691947" lon="11.0126959"><ele>27.0</ele><time>2026-04-18T13:06:15.081Z</time></trkpt><trkpt lat="45.269047" lon="11.0127147"><ele>27.0</ele><time>2026-04-18T13:06:16.085Z</time></trkpt><trkpt lat="45.2688981" lon="11.0127456"><ele>27.0</ele><time>2026-04-18T13:06:17.094Z</time></trkpt><trkpt lat="45.2687521" lon="11.0127784"><ele>27.0</ele><time>2026-04-18T13:06:18.098Z</time></trkpt><trkpt lat="45.2686072" lon="11.0128009"><ele>27.0</ele><time>2026-04-18T13:06:19.101Z</time></trkpt><trkpt lat="45.2684746" lon="11.0128331"><ele>27.0</ele><time>2026-04-18T13:06:20.094Z</time></trkpt><trkpt lat="45.2683489" lon="11.0128762"><ele>27.0</ele><time>2026-04-18T13:06:21.085Z</time></trkpt><trkpt lat="45.26821" lon="11.0129453"><ele>27.0</ele><time>2026-04-18T13:06:22.091Z</time></trkpt><trkpt lat="45.2681008" lon="11.0130133"><ele>27.0</ele><time>2026-04-18T13:06:23.086Z</time></trkpt><trkpt lat="45.2680065" lon="11.0130647"><ele>27.0</ele><time>2026-04-18T13:06:24.091Z</time></trkpt><trkpt lat="45.2679238" lon="11.0131196"><ele>27.0</ele><time>2026-04-18T13:06:25.09Z</time></trkpt><trkpt lat="45.2678428" lon="11.0131324"><ele>27.000000000000004</ele><time>2026-04-18T13:06:26.087Z</time></trkpt><trkpt lat="45.2677783" lon="11.0131222"><ele>27.000000000000004</ele><time>2026-04-18T13:06:27.092Z</time></trkpt><trkpt lat="45.2676604" lon="11.0131414"><ele>27.0</ele><time>2026-04-18T13:06:29.09Z</time></trkpt><trkpt lat="45.2675942" lon="11.0132126"><ele>27.0</ele><time>2026-04-18T13:06:30.096Z</time></trkpt><trkpt lat="45.2675062" lon="11.0133224"><ele>27.0</ele><time>2026-04-18T13:06:31.08Z</time></trkpt><trkpt lat="45.2674087" lon="11.013424"><ele>27.0</ele><time>2026-04-18T13:06:32.089Z</time></trkpt><trkpt lat="45.2672961" lon="11.0134808"><ele>27.0</ele><time>2026-04-18T13:06:33.093Z</time></trkpt><trkpt lat="45.2671505" lon="11.0134918"><ele>27.0</ele><time>2026-04-18T13:06:34.082Z</time></trkpt><trkpt lat="45.2669864" lon="11.0134778"><ele>27.0</ele><time>2026-04-18T13:06:35.081Z</time></trkpt><trkpt lat="45.2668112" lon="11.0134478"><ele>27.0</ele><time>2026-04-18T13:06:36.089Z</time></trkpt><trkpt lat="45.2666519" lon="11.0134197"><ele>27.0</ele><time>2026-04-18T13:06:37.089Z</time></trkpt><trkpt lat="45.2665118" lon="11.0134163"><ele>27.0</ele><time>2026-04-18T13:06:38.103Z</time></trkpt><trkpt lat="45.2663839" lon="11.0134347"><ele>27.0</ele><time>2026-04-18T13:06:39.089Z</time></trkpt><trkpt lat="45.2662716" lon="11.013486"><ele>27.0</ele><time>2026-04-18T13:06:40.088Z</time></trkpt><trkpt lat="45.2661763" lon="11.0135642"><ele>27.0</ele><time>2026-04-18T13:06:41.086Z</time></trkpt><trkpt lat="45.2661033" lon="11.0136731"><ele>27.0</ele><time>2026-04-18T13:06:42.091Z</time></trkpt><trkpt lat="45.2660368" lon="11.0137795"><ele>27.000000000000004</ele><time>2026-04-18T13:06:43.086Z</time></trkpt><trkpt lat="45.2659749" lon="11.0139101"><ele>27.000000000000004</ele><time>2026-04-18T13:06:44.09Z</time></trkpt><trkpt lat="45.2659203" lon="11.0140559"><ele>27.0</ele><time>2026-04-18T13:06:45.085Z</time></trkpt><trkpt lat="45.2658755" lon="11.0141976"><ele>27.0</ele><time>2026-04-18T13:06:46.094Z</time></trkpt><trkpt lat="45.2658274" lon="11.0143398"><ele>27.200000000000003</ele><time>2026-04-18T13:06:47.1Z</time></trkpt><trkpt lat="45.2657764" lon="11.0144864"><ele>27.400000000000002</ele><time>2026-04-18T13:06:48.098Z</time></trkpt><trkpt lat="45.2657314" lon="11.0146285"><ele>27.599999999999998</ele><time>2026-04-18T13:06:49.099Z</time></trkpt><trkpt lat="45.2656966" lon="11.0147707"><ele>27.799999999999997</ele><time>2026-04-18T13:06:50.101Z</time></trkpt><trkpt lat="45.2656844" lon="11.0149378"><ele>28.0</ele><time>2026-04-18T13:06:51.1Z</time></trkpt><trkpt lat="45.265696" lon="11.0151454"><ele>27.333333333333336</ele><time>2026-04-18T13:06:52.097Z</time></trkpt><trkpt lat="45.2657324" lon="11.0153804"><ele>26.666666666666664</ele><time>2026-04-18T13:06:53.087Z</time></trkpt><trkpt lat="45.2657857" lon="11.0156368"><ele>26.0</ele><time>2026-04-18T13:06:54.097Z</time></trkpt><trkpt lat="45.2658384" lon="11.0159034"><ele>25.666666666666664</ele><time>2026-04-18T13:06:55.098Z</time></trkpt><trkpt lat="45.2658864" lon="11.0161609"><ele>25.333333333333336</ele><time>2026-04-18T13:06:56.1Z</time></trkpt><trkpt lat="45.2659184" lon="11.0163894"><ele>25.0</ele><time>2026-04-18T13:06:57.096Z</time></trkpt><trkpt lat="45.2659127" lon="11.016592"><ele>25.25</ele><time>2026-04-18T13:06:58.098Z</time></trkpt><trkpt lat="45.2658724" lon="11.0167842"><ele>25.5</ele><time>2026-04-18T13:06:59.098Z</time></trkpt><trkpt lat="45.2657892" lon="11.0169506"><ele>25.75</ele><time>2026-04-18T13:07:00.101Z</time></trkpt><trkpt lat="45.265691" lon="11.0171033"><ele>26.0</ele><time>2026-04-18T13:07:01.091Z</time></trkpt><trkpt lat="45.2655874" lon="11.0172416"><ele>26.333333333333332</ele><time>2026-04-18T13:07:02.083Z</time></trkpt><trkpt lat="45.2654765" lon="11.0173751"><ele>26.666666666666664</ele><time>2026-04-18T13:07:03.088Z</time></trkpt><trkpt lat="45.2653522" lon="11.0175183"><ele>27.0</ele><time>2026-04-18T13:07:04.096Z</time></trkpt><trkpt lat="45.2652319" lon="11.017666"><ele>27.0</ele><time>2026-04-18T13:07:05.096Z</time></trkpt><trkpt lat="45.2651138" lon="11.0177909"><ele>27.0</ele><time>2026-04-18T13:07:06.1Z</time></trkpt><trkpt lat="45.2649852" lon="11.0178974"><ele>27.0</ele><time>2026-04-18T13:07:07.101Z</time></trkpt><trkpt lat="45.2648551" lon="11.018008"><ele>27.0</ele><time>2026-04-18T13:07:08.102Z</time></trkpt><trkpt lat="45.2647277" lon="11.0181278"><ele>27.0</ele><time>2026-04-18T13:07:09.115Z</time></trkpt><trkpt lat="45.2645946" lon="11.0182545"><ele>27.0</ele><time>2026-04-18T13:07:10.103Z</time></trkpt><trkpt lat="45.2644538" lon="11.0183755"><ele>27.0</ele><time>2026-04-18T13:07:11.103Z</time></trkpt><trkpt lat="45.2643188" lon="11.01851"><ele>27.0</ele><time>2026-04-18T13:07:12.106Z</time></trkpt><trkpt lat="45.2641807" lon="11.0186525"><ele>27.0</ele><time>2026-04-18T13:07:13.105Z</time></trkpt><trkpt lat="45.2640456" lon="11.0187957"><ele>27.0</ele><time>2026-04-18T13:07:14.105Z</time></trkpt><trkpt lat="45.2639158" lon="11.0189342"><ele>27.0</ele><time>2026-04-18T13:07:15.104Z</time></trkpt><trkpt lat="45.2637878" lon="11.0190911"><ele>27.0</ele><time>2026-04-18T13:07:16.105Z</time></trkpt><trkpt lat="45.2636689" lon="11.0192324"><ele>27.0</ele><time>2026-04-18T13:07:17.108Z</time></trkpt><trkpt lat="45.2635562" lon="11.0193686"><ele>27.0</ele><time>2026-04-18T13:07:18.102Z</time></trkpt><trkpt lat="45.2634454" lon="11.0194988"><ele>27.0</ele><time>2026-04-18T13:07:19.108Z</time></trkpt><trkpt lat="45.2633197" lon="11.0196339"><ele>27.0</ele><time>2026-04-18T13:07:20.098Z</time></trkpt><trkpt lat="45.2632039" lon="11.0197671"><ele>26.75</ele><time>2026-04-18T13:07:21.1Z</time></trkpt><trkpt lat="45.2630846" lon="11.0198835"><ele>26.5</ele><time>2026-04-18T13:07:22.1Z</time></trkpt><trkpt lat="45.262974" lon="11.0200025"><ele>26.25</ele><time>2026-04-18T13:07:23.094Z</time></trkpt><trkpt lat="45.2628537" lon="11.0201139"><ele>26.0</ele><time>2026-04-18T13:07:24.101Z</time></trkpt><trkpt lat="45.2627517" lon="11.0202181"><ele>26.0</ele><time>2026-04-18T13:07:25.095Z</time></trkpt><trkpt lat="45.2626508" lon="11.0203197"><ele>26.0</ele><time>2026-04-18T13:07:26.1Z</time></trkpt><trkpt lat="45.2625422" lon="11.0204251"><ele>26.0</ele><time>2026-04-18T13:07:27.101Z</time></trkpt><trkpt lat="45.2624189" lon="11.0205497"><ele>26.0</ele><time>2026-04-18T13:07:28.096Z</time></trkpt><trkpt lat="45.2622838" lon="11.020686"><ele>26.0</ele><time>2026-04-18T13:07:29.094Z</time></trkpt><trkpt lat="45.2621437" lon="11.0208144"><ele>26.0</ele><time>2026-04-18T13:07:30.095Z</time></trkpt><trkpt lat="45.2620163" lon="11.020925"><ele>26.0</ele><time>2026-04-18T13:07:31.095Z</time></trkpt><trkpt lat="45.2619073" lon="11.0210259"><ele>26.0</ele><time>2026-04-18T13:07:32.093Z</time></trkpt><trkpt lat="45.261805" lon="11.0211129"><ele>26.0</ele><time>2026-04-18T13:07:33.09Z</time></trkpt><trkpt lat="45.2617077" lon="11.0212007"><ele>26.0</ele><time>2026-04-18T13:07:34.091Z</time></trkpt><trkpt lat="45.2616099" lon="11.0212698"><ele>26.0</ele><time>2026-04-18T13:07:35.087Z</time></trkpt><trkpt lat="45.2615141" lon="11.0213097"><ele>26.0</ele><time>2026-04-18T13:07:36.095Z</time></trkpt><trkpt lat="45.2614222" lon="11.0213583"><ele>26.0</ele><time>2026-04-18T13:07:37.097Z</time></trkpt><trkpt lat="45.2613101" lon="11.0214105"><ele>26.0</ele><time>2026-04-18T13:07:38.101Z</time></trkpt><trkpt lat="45.2611817" lon="11.0214624"><ele>26.0</ele><time>2026-04-18T13:07:39.099Z</time></trkpt><trkpt lat="45.2610573" lon="11.0215269"><ele>26.0</ele><time>2026-04-18T13:07:40.118Z</time></trkpt><trkpt lat="45.2609309" lon="11.021593"><ele>26.0</ele><time>2026-04-18T13:07:41.104Z</time></trkpt><trkpt lat="45.2607974" lon="11.0216606"><ele>26.0</ele><time>2026-04-18T13:07:42.105Z</time></trkpt><trkpt lat="45.2606522" lon="11.0217341"><ele>26.0</ele><time>2026-04-18T13:07:43.103Z</time></trkpt><trkpt lat="45.260512" lon="11.0218055"><ele>26.0</ele><time>2026-04-18T13:07:44.104Z</time></trkpt><trkpt lat="45.2603513" lon="11.0218703"><ele>26.0</ele><time>2026-04-18T13:07:45.1Z</time></trkpt><trkpt lat="45.2601971" lon="11.0219235"><ele>26.0</ele><time>2026-04-18T13:07:46.105Z</time></trkpt><trkpt lat="45.2600406" lon="11.0219966"><ele>26.0</ele><time>2026-04-18T13:07:47.11Z</time></trkpt><trkpt lat="45.2599053" lon="11.0220624"><ele>26.75</ele><time>2026-04-18T13:07:48.106Z</time></trkpt><trkpt lat="45.2597779" lon="11.022139"><ele>27.5</ele><time>2026-04-18T13:07:49.113Z</time></trkpt><trkpt lat="45.2596613" lon="11.0222103"><ele>28.25</ele><time>2026-04-18T13:07:50.109Z</time></trkpt><trkpt lat="45.2595334" lon="11.0222458"><ele>29.0</ele><time>2026-04-18T13:07:51.102Z</time></trkpt><trkpt lat="45.2594073" lon="11.022252"><ele>29.0</ele><time>2026-04-18T13:07:52.105Z</time></trkpt><trkpt lat="45.2592766" lon="11.0222703"><ele>29.0</ele><time>2026-04-18T13:07:53.111Z</time></trkpt><trkpt lat="45.2591239" lon="11.0223217"><ele>29.0</ele><time>2026-04-18T13:07:54.087Z</time></trkpt><trkpt lat="45.2589836" lon="11.0224069"><ele>29.0</ele><time>2026-04-18T13:07:55.105Z</time></trkpt><trkpt lat="45.2588688" lon="11.0224746"><ele>28.333333333333332</ele><time>2026-04-18T13:07:56.101Z</time></trkpt><trkpt lat="45.2587811" lon="11.0225384"><ele>27.666666666666664</ele><time>2026-04-18T13:07:57.103Z</time></trkpt><trkpt lat="45.2587083" lon="11.0225772"><ele>27.0</ele><time>2026-04-18T13:07:58.097Z</time></trkpt><trkpt lat="45.258638" lon="11.0225756"><ele>26.333333333333336</ele><time>2026-04-18T13:07:59.109Z</time></trkpt><trkpt lat="45.2585587" lon="11.0225176"><ele>25.666666666666668</ele><time>2026-04-18T13:08:00.108Z</time></trkpt><trkpt lat="45.2584737" lon="11.0224107"><ele>25.0</ele><time>2026-04-18T13:08:01.104Z</time></trkpt><trkpt lat="45.2583832" lon="11.0223029"><ele>25.0</ele><time>2026-04-18T13:08:02.095Z</time></trkpt><trkpt lat="45.2582815" lon="11.0221952"><ele>25.0</ele><time>2026-04-18T13:08:03.101Z</time></trkpt><trkpt lat="45.2581757" lon="11.0220995"><ele>25.0</ele><time>2026-04-18T13:08:04.098Z</time></trkpt><trkpt lat="45.2580819" lon="11.0220176"><ele>25.0</ele><time>2026-04-18T13:08:05.099Z</time></trkpt><trkpt lat="45.2579905" lon="11.0219801"><ele>24.6</ele><time>2026-04-18T13:08:06.105Z</time></trkpt><trkpt lat="45.2578973" lon="11.0219891"><ele>24.2</ele><time>2026-04-18T13:08:07.1Z</time></trkpt><trkpt lat="45.2577893" lon="11.0220362"><ele>23.799999999999997</ele><time>2026-04-18T13:08:08.099Z</time></trkpt><trkpt lat="45.257687" lon="11.0220572"><ele>23.4</ele><time>2026-04-18T13:08:09.096Z</time></trkpt><trkpt lat="45.2575795" lon="11.0220452"><ele>23.0</ele><time>2026-04-18T13:08:10.097Z</time></trkpt><trkpt lat="45.2574505" lon="11.0219954"><ele>23.0</ele><time>2026-04-18T13:08:11.111Z</time></trkpt><trkpt lat="45.2573119" lon="11.0219199"><ele>23.0</ele><time>2026-04-18T13:08:12.102Z</time></trkpt><trkpt lat="45.2571678" lon="11.0218361"><ele>23.0</ele><time>2026-04-18T13:08:13.099Z</time></trkpt><trkpt lat="45.2570234" lon="11.0217599"><ele>23.0</ele><time>2026-04-18T13:08:14.105Z</time></trkpt><trkpt lat="45.2568884" lon="11.0217127"><ele>23.0</ele><time>2026-04-18T13:08:15.099Z</time></trkpt><trkpt lat="45.256766" lon="11.0216594"><ele>23.0</ele><time>2026-04-18T13:08:16.097Z</time></trkpt><trkpt lat="45.2566698" lon="11.0216137"><ele>23.0</ele><time>2026-04-18T13:08:17.099Z</time></trkpt><trkpt lat="45.2565941" lon="11.0215696"><ele>23.2</ele><time>2026-04-18T13:08:18.104Z</time></trkpt><trkpt lat="45.2565493" lon="11.0214905"><ele>23.4</ele><time>2026-04-18T13:08:19.106Z</time></trkpt><trkpt lat="45.256517" lon="11.0213687"><ele>23.599999999999998</ele><time>2026-04-18T13:08:20.092Z</time></trkpt><trkpt lat="45.2564815" lon="11.0211992"><ele>23.799999999999997</ele><time>2026-04-18T13:08:21.101Z</time></trkpt><trkpt lat="45.2564351" lon="11.0209995"><ele>24.0</ele><time>2026-04-18T13:08:22.095Z</time></trkpt><trkpt lat="45.2563949" lon="11.0207926"><ele>24.333333333333336</ele><time>2026-04-18T13:08:23.099Z</time></trkpt><trkpt lat="45.2563372" lon="11.0205614"><ele>24.666666666666668</ele><time>2026-04-18T13:08:24.101Z</time></trkpt><trkpt lat="45.2562767" lon="11.0203316"><ele>25.0</ele><time>2026-04-18T13:08:25.099Z</time></trkpt><trkpt lat="45.2562213" lon="11.0200919"><ele>24.666666666666668</ele><time>2026-04-18T13:08:26.097Z</time></trkpt><trkpt lat="45.2561627" lon="11.019874"><ele>24.333333333333336</ele><time>2026-04-18T13:08:27.104Z</time></trkpt><trkpt lat="45.2561218" lon="11.0196629"><ele>24.0</ele><time>2026-04-18T13:08:28.107Z</time></trkpt><trkpt lat="45.2560745" lon="11.0194511"><ele>24.0</ele><time>2026-04-18T13:08:29.105Z</time></trkpt><trkpt lat="45.2560303" lon="11.0192508"><ele>24.0</ele><time>2026-04-18T13:08:30.099Z</time></trkpt><trkpt lat="45.2559816" lon="11.0190701"><ele>24.0</ele><time>2026-04-18T13:08:31.102Z</time></trkpt><trkpt lat="45.2559328" lon="11.0189209"><ele>24.0</ele><time>2026-04-18T13:08:32.096Z</time></trkpt><trkpt lat="45.2558999" lon="11.018795"><ele>24.333333333333332</ele><time>2026-04-18T13:08:33.096Z</time></trkpt><trkpt lat="45.2558802" lon="11.0186962"><ele>24.666666666666664</ele><time>2026-04-18T13:08:34.104Z</time></trkpt><trkpt lat="45.255855" lon="11.0185882"><ele>25.0</ele><time>2026-04-18T13:08:36.098Z</time></trkpt><trkpt lat="45.2557642" lon="11.0186155"><ele>25.333333333333332</ele><time>2026-04-18T13:08:39.119Z</time></trkpt><trkpt lat="45.2556948" lon="11.0186798"><ele>25.666666666666664</ele><time>2026-04-18T13:08:40.111Z</time></trkpt><trkpt lat="45.2556059" lon="11.0187654"><ele>26.0</ele><time>2026-04-18T13:08:41.102Z</time></trkpt><trkpt lat="45.2555092" lon="11.0188573"><ele>25.75</ele><time>2026-04-18T13:08:42.123Z</time></trkpt><trkpt lat="45.2553922" lon="11.0189618"><ele>25.5</ele><time>2026-04-18T13:08:43.102Z</time></trkpt><trkpt lat="45.2552737" lon="11.0190684"><ele>25.25</ele><time>2026-04-18T13:08:44.107Z</time></trkpt><trkpt lat="45.2551459" lon="11.0191821"><ele>25.0</ele><time>2026-04-18T13:08:45.099Z</time></trkpt><trkpt lat="45.2550058" lon="11.0193092"><ele>25.0</ele><time>2026-04-18T13:08:46.094Z</time></trkpt><trkpt lat="45.2548519" lon="11.0194369"><ele>25.0</ele><time>2026-04-18T13:08:47.1Z</time></trkpt><trkpt lat="45.2546937" lon="11.0195856"><ele>25.0</ele><time>2026-04-18T13:08:48.097Z</time></trkpt><trkpt lat="45.2545322" lon="11.0197208"><ele>25.333333333333336</ele><time>2026-04-18T13:08:49.109Z</time></trkpt><trkpt lat="45.2543826" lon="11.0198561"><ele>25.666666666666664</ele><time>2026-04-18T13:08:50.105Z</time></trkpt><trkpt lat="45.2542451" lon="11.0199797"><ele>26.0</ele><time>2026-04-18T13:08:51.102Z</time></trkpt><trkpt lat="45.2541211" lon="11.0200904"><ele>26.0</ele><time>2026-04-18T13:08:52.101Z</time></trkpt><trkpt lat="45.2540042" lon="11.0201878"><ele>26.0</ele><time>2026-04-18T13:08:53.103Z</time></trkpt><trkpt lat="45.2538827" lon="11.0202894"><ele>26.0</ele><time>2026-04-18T13:08:54.105Z</time></trkpt><trkpt lat="45.2537472" lon="11.0204053"><ele>26.0</ele><time>2026-04-18T13:08:55.112Z</time></trkpt><trkpt lat="45.2536059" lon="11.0205274"><ele>25.666666666666664</ele><time>2026-04-18T13:08:56.105Z</time></trkpt><trkpt lat="45.2534633" lon="11.020649"><ele>25.333333333333336</ele><time>2026-04-18T13:08:57.103Z</time></trkpt><trkpt lat="45.2533207" lon="11.0207745"><ele>25.0</ele><time>2026-04-18T13:08:58.111Z</time></trkpt><trkpt lat="45.2531772" lon="11.0208921"><ele>25.0</ele><time>2026-04-18T13:08:59.107Z</time></trkpt><trkpt lat="45.2530218" lon="11.0209956"><ele>25.0</ele><time>2026-04-18T13:09:00.111Z</time></trkpt><trkpt lat="45.2528515" lon="11.0210635"><ele>25.0</ele><time>2026-04-18T13:09:01.099Z</time></trkpt><trkpt lat="45.2526635" lon="11.0211156"><ele>25.0</ele><time>2026-04-18T13:09:02.102Z</time></trkpt><trkpt lat="45.252476" lon="11.0211636"><ele>25.0</ele><time>2026-04-18T13:09:03.101Z</time></trkpt><trkpt lat="45.2523103" lon="11.0211951"><ele>25.0</ele><time>2026-04-18T13:09:04.103Z</time></trkpt><trkpt lat="45.2521505" lon="11.0212322"><ele>25.333333333333336</ele><time>2026-04-18T13:09:05.098Z</time></trkpt><trkpt lat="45.2519852" lon="11.0212853"><ele>25.666666666666664</ele><time>2026-04-18T13:09:06.094Z</time></trkpt><trkpt lat="45.2518351" lon="11.0213374"><ele>26.0</ele><time>2026-04-18T13:09:07.095Z</time></trkpt><trkpt lat="45.2516869" lon="11.0213738"><ele>26.0</ele><time>2026-04-18T13:09:08.097Z</time></trkpt><trkpt lat="45.2515412" lon="11.0213941"><ele>26.0</ele><time>2026-04-18T13:09:09.092Z</time></trkpt><trkpt lat="45.2513843" lon="11.0214046"><ele>26.0</ele><time>2026-04-18T13:09:10.096Z</time></trkpt><trkpt lat="45.2512189" lon="11.0214193"><ele>25.666666666666664</ele><time>2026-04-18T13:09:11.092Z</time></trkpt><trkpt lat="45.2510569" lon="11.0214344"><ele>25.333333333333336</ele><time>2026-04-18T13:09:12.092Z</time></trkpt><trkpt lat="45.2508978" lon="11.0214455"><ele>25.0</ele><time>2026-04-18T13:09:13.099Z</time></trkpt><trkpt lat="45.2507454" lon="11.0214477"><ele>25.0</ele><time>2026-04-18T13:09:14.09Z</time></trkpt><trkpt lat="45.2505902" lon="11.0214365"><ele>25.0</ele><time>2026-04-18T13:09:15.1Z</time></trkpt><trkpt lat="45.2504342" lon="11.0214078"><ele>25.0</ele><time>2026-04-18T13:09:16.112Z</time></trkpt><trkpt lat="45.2502728" lon="11.0213679"><ele>25.0</ele><time>2026-04-18T13:09:17.112Z</time></trkpt><trkpt lat="45.2500993" lon="11.0213192"><ele>25.0</ele><time>2026-04-18T13:09:18.104Z</time></trkpt><trkpt lat="45.2499138" lon="11.021266"><ele>25.0</ele><time>2026-04-18T13:09:19.116Z</time></trkpt><trkpt lat="45.2497239" lon="11.0212008"><ele>24.666666666666668</ele><time>2026-04-18T13:09:20.11Z</time></trkpt><trkpt lat="45.2495316" lon="11.0211386"><ele>24.333333333333336</ele><time>2026-04-18T13:09:21.109Z</time></trkpt><trkpt lat="45.2493349" lon="11.0210895"><ele>24.0</ele><time>2026-04-18T13:09:22.113Z</time></trkpt><trkpt lat="45.2491362" lon="11.0210285"><ele>23.666666666666668</ele><time>2026-04-18T13:09:23.109Z</time></trkpt><trkpt lat="45.2489341" lon="11.0209672"><ele>23.333333333333336</ele><time>2026-04-18T13:09:24.113Z</time></trkpt><trkpt lat="45.248729" lon="11.0209023"><ele>23.0</ele><time>2026-04-18T13:09:25.113Z</time></trkpt><trkpt lat="45.2485158" lon="11.0208354"><ele>22.666666666666668</ele><time>2026-04-18T13:09:26.112Z</time></trkpt><trkpt lat="45.2483073" lon="11.0207631"><ele>22.333333333333332</ele><time>2026-04-18T13:09:27.112Z</time></trkpt><trkpt lat="45.2480908" lon="11.0206944"><ele>22.0</ele><time>2026-04-18T13:09:28.11Z</time></trkpt><trkpt lat="45.2478889" lon="11.020622"><ele>22.666666666666664</ele><time>2026-04-18T13:09:29.11Z</time></trkpt><trkpt lat="45.2476876" lon="11.0205457"><ele>23.333333333333332</ele><time>2026-04-18T13:09:30.118Z</time></trkpt><trkpt lat="45.2474876" lon="11.0204634"><ele>24.0</ele><time>2026-04-18T13:09:31.113Z</time></trkpt><trkpt lat="45.2472993" lon="11.0203849"><ele>23.666666666666668</ele><time>2026-04-18T13:09:32.112Z</time></trkpt><trkpt lat="45.2471207" lon="11.0203025"><ele>23.333333333333336</ele><time>2026-04-18T13:09:33.109Z</time></trkpt><trkpt lat="45.2469529" lon="11.0202266"><ele>23.0</ele><time>2026-04-18T13:09:34.11Z</time></trkpt><trkpt lat="45.2467878" lon="11.0201526"><ele>23.0</ele><time>2026-04-18T13:09:35.111Z</time></trkpt><trkpt lat="45.2466302" lon="11.0200788"><ele>23.0</ele><time>2026-04-18T13:09:36.113Z</time></trkpt><trkpt lat="45.2464683" lon="11.0200004"><ele>23.0</ele><time>2026-04-18T13:09:37.11Z</time></trkpt><trkpt lat="45.2463121" lon="11.0199153"><ele>23.666666666666668</ele><time>2026-04-18T13:09:38.11Z</time></trkpt><trkpt lat="45.2461443" lon="11.0198282"><ele>24.333333333333336</ele><time>2026-04-18T13:09:39.107Z</time></trkpt><trkpt lat="45.2459715" lon="11.0197457"><ele>25.0</ele><time>2026-04-18T13:09:40.111Z</time></trkpt><trkpt lat="45.2458145" lon="11.019665"><ele>25.0</ele><time>2026-04-18T13:09:41.106Z</time></trkpt><trkpt lat="45.2456543" lon="11.0195878"><ele>25.0</ele><time>2026-04-18T13:09:42.11Z</time></trkpt><trkpt lat="45.2455159" lon="11.0195205"><ele>25.0</ele><time>2026-04-18T13:09:43.104Z</time></trkpt><trkpt lat="45.2453968" lon="11.0194617"><ele>25.0</ele><time>2026-04-18T13:09:44.124Z</time></trkpt><trkpt lat="45.2452911" lon="11.0193861"><ele>25.0</ele><time>2026-04-18T13:09:45.109Z</time></trkpt><trkpt lat="45.2451649" lon="11.0193076"><ele>25.0</ele><time>2026-04-18T13:09:46.104Z</time></trkpt><trkpt lat="45.2450385" lon="11.0192486"><ele>25.0</ele><time>2026-04-18T13:09:47.112Z</time></trkpt><trkpt lat="45.2449057" lon="11.019199"><ele>25.0</ele><time>2026-04-18T13:09:48.108Z</time></trkpt><trkpt lat="45.2447624" lon="11.0191706"><ele>24.666666666666668</ele><time>2026-04-18T13:09:49.113Z</time></trkpt><trkpt lat="45.2446188" lon="11.0191661"><ele>24.333333333333336</ele><time>2026-04-18T13:09:50.104Z</time></trkpt><trkpt lat="45.2444583" lon="11.0191773"><ele>24.0</ele><time>2026-04-18T13:09:51.101Z</time></trkpt><trkpt lat="45.2442884" lon="11.0192191"><ele>24.0</ele><time>2026-04-18T13:09:52.101Z</time></trkpt><trkpt lat="45.2440856" lon="11.0192934"><ele>24.0</ele><time>2026-04-18T13:09:53.098Z</time></trkpt><trkpt lat="45.2438992" lon="11.0193879"><ele>24.0</ele><time>2026-04-18T13:09:54.1Z</time></trkpt><trkpt lat="45.2437047" lon="11.0194808"><ele>23.666666666666668</ele><time>2026-04-18T13:09:55.103Z</time></trkpt><trkpt lat="45.2435086" lon="11.0195802"><ele>23.333333333333336</ele><time>2026-04-18T13:09:56.107Z</time></trkpt><trkpt lat="45.2433" lon="11.0196843"><ele>23.0</ele><time>2026-04-18T13:09:57.102Z</time></trkpt><trkpt lat="45.2431039" lon="11.0197784"><ele>23.0</ele><time>2026-04-18T13:09:58.108Z</time></trkpt><trkpt lat="45.2429253" lon="11.0198574"><ele>23.0</ele><time>2026-04-18T13:09:59.105Z</time></trkpt><trkpt lat="45.2427483" lon="11.0199407"><ele>23.0</ele><time>2026-04-18T13:10:00.12Z</time></trkpt><trkpt lat="45.2425738" lon="11.0200125"><ele>23.0</ele><time>2026-04-18T13:10:01.122Z</time></trkpt><trkpt lat="45.2423914" lon="11.020094"><ele>23.0</ele><time>2026-04-18T13:10:02.113Z</time></trkpt><trkpt lat="45.2422215" lon="11.0201638"><ele>23.0</ele><time>2026-04-18T13:10:03.112Z</time></trkpt><trkpt lat="45.2420557" lon="11.020225"><ele>23.0</ele><time>2026-04-18T13:10:04.109Z</time></trkpt><trkpt lat="45.2419232" lon="11.0202834"><ele>23.0</ele><time>2026-04-18T13:10:05.108Z</time></trkpt><trkpt lat="45.2417903" lon="11.0203472"><ele>23.0</ele><time>2026-04-18T13:10:06.11Z</time></trkpt><trkpt lat="45.2416675" lon="11.0204254"><ele>23.0</ele><time>2026-04-18T13:10:07.108Z</time></trkpt><trkpt lat="45.2415369" lon="11.020523"><ele>23.0</ele><time>2026-04-18T13:10:08.106Z</time></trkpt><trkpt lat="45.2413952" lon="11.0206492"><ele>23.0</ele><time>2026-04-18T13:10:09.105Z</time></trkpt><trkpt lat="45.2412578" lon="11.0207892"><ele>23.0</ele><time>2026-04-18T13:10:10.108Z</time></trkpt><trkpt lat="45.2411493" lon="11.02092"><ele>23.0</ele><time>2026-04-18T13:10:11.097Z</time></trkpt><trkpt lat="45.2410504" lon="11.0210177"><ele>23.0</ele><time>2026-04-18T13:10:12.097Z</time></trkpt><trkpt lat="45.2409642" lon="11.0210764"><ele>23.0</ele><time>2026-04-18T13:10:13.093Z</time></trkpt><trkpt lat="45.2408564" lon="11.0210573"><ele>23.0</ele><time>2026-04-18T13:10:14.105Z</time></trkpt><trkpt lat="45.240756" lon="11.0209805"><ele>23.0</ele><time>2026-04-18T13:10:15.106Z</time></trkpt><trkpt lat="45.2406177" lon="11.0209115"><ele>23.0</ele><time>2026-04-18T13:10:16.092Z</time></trkpt><trkpt lat="45.2404694" lon="11.0208663"><ele>23.0</ele><time>2026-04-18T13:10:17.088Z</time></trkpt><trkpt lat="45.2403418" lon="11.0208529"><ele>23.0</ele><time>2026-04-18T13:10:18.093Z</time></trkpt><trkpt lat="45.2402451" lon="11.0208899"><ele>23.0</ele><time>2026-04-18T13:10:19.089Z</time></trkpt><trkpt lat="45.2401786" lon="11.0209694"><ele>23.0</ele><time>2026-04-18T13:10:20.086Z</time></trkpt><trkpt lat="45.2401518" lon="11.0210807"><ele>23.0</ele><time>2026-04-18T13:10:21.092Z</time></trkpt><trkpt lat="45.2401668" lon="11.0212297"><ele>23.0</ele><time>2026-04-18T13:10:22.081Z</time></trkpt><trkpt lat="45.2401797" lon="11.0213877"><ele>23.0</ele><time>2026-04-18T13:10:23.079Z</time></trkpt><trkpt lat="45.2401837" lon="11.0215297"><ele>23.0</ele><time>2026-04-18T13:10:24.079Z</time></trkpt><trkpt lat="45.2401836" lon="11.0216754"><ele>23.2</ele><time>2026-04-18T13:10:25.088Z</time></trkpt><trkpt lat="45.2401712" lon="11.0218114"><ele>23.4</ele><time>2026-04-18T13:10:26.096Z</time></trkpt><trkpt lat="45.2401194" lon="11.0219284"><ele>23.599999999999998</ele><time>2026-04-18T13:10:27.093Z</time></trkpt><trkpt lat="45.240032" lon="11.0220167"><ele>23.799999999999997</ele><time>2026-04-18T13:10:28.095Z</time></trkpt><trkpt lat="45.2399038" lon="11.0220862"><ele>24.0</ele><time>2026-04-18T13:10:29.089Z</time></trkpt><trkpt lat="45.2397505" lon="11.0221524"><ele>24.333333333333336</ele><time>2026-04-18T13:10:30.101Z</time></trkpt><trkpt lat="45.239587" lon="11.0222123"><ele>24.666666666666668</ele><time>2026-04-18T13:10:31.094Z</time></trkpt><trkpt lat="45.2394116" lon="11.0222864"><ele>25.0</ele><time>2026-04-18T13:10:32.103Z</time></trkpt><trkpt lat="45.2392236" lon="11.0223438"><ele>25.0</ele><time>2026-04-18T13:10:33.102Z</time></trkpt><trkpt lat="45.2390303" lon="11.0223753"><ele>25.0</ele><time>2026-04-18T13:10:34.112Z</time></trkpt><trkpt lat="45.2388158" lon="11.0223695"><ele>25.0</ele><time>2026-04-18T13:10:35.106Z</time></trkpt><trkpt lat="45.238608" lon="11.0223679"><ele>24.333333333333336</ele><time>2026-04-18T13:10:36.107Z</time></trkpt><trkpt lat="45.2383944" lon="11.0223524"><ele>23.666666666666668</ele><time>2026-04-18T13:10:37.106Z</time></trkpt><trkpt lat="45.2381802" lon="11.022341"><ele>23.0</ele><time>2026-04-18T13:10:38.111Z</time></trkpt><trkpt lat="45.2379585" lon="11.0223436"><ele>22.5</ele><time>2026-04-18T13:10:39.108Z</time></trkpt><trkpt lat="45.2377319" lon="11.022347"><ele>22.0</ele><time>2026-04-18T13:10:40.108Z</time></trkpt><trkpt lat="45.2374964" lon="11.0223461"><ele>22.0</ele><time>2026-04-18T13:10:41.11Z</time></trkpt><trkpt lat="45.2372622" lon="11.0223427"><ele>22.0</ele><time>2026-04-18T13:10:42.105Z</time></trkpt><trkpt lat="45.2370492" lon="11.0223578"><ele>22.0</ele><time>2026-04-18T13:10:43.105Z</time></trkpt><trkpt lat="45.2368311" lon="11.0223599"><ele>22.0</ele><time>2026-04-18T13:10:44.11Z</time></trkpt><trkpt lat="45.2366067" lon="11.0223562"><ele>22.0</ele><time>2026-04-18T13:10:45.109Z</time></trkpt><trkpt lat="45.2363814" lon="11.0223504"><ele>22.5</ele><time>2026-04-18T13:10:46.123Z</time></trkpt><trkpt lat="45.2361507" lon="11.0223434"><ele>23.0</ele><time>2026-04-18T13:10:47.112Z</time></trkpt><trkpt lat="45.235927" lon="11.0223387"><ele>23.0</ele><time>2026-04-18T13:10:48.109Z</time></trkpt><trkpt lat="45.2356968" lon="11.0223392"><ele>23.0</ele><time>2026-04-18T13:10:49.117Z</time></trkpt><trkpt lat="45.2354682" lon="11.022338"><ele>22.666666666666668</ele><time>2026-04-18T13:10:50.109Z</time></trkpt><trkpt lat="45.235244" lon="11.0223361"><ele>22.333333333333332</ele><time>2026-04-18T13:10:51.113Z</time></trkpt><trkpt lat="45.2350192" lon="11.0223402"><ele>22.0</ele><time>2026-04-18T13:10:52.112Z</time></trkpt><trkpt lat="45.234787" lon="11.022345"><ele>21.0</ele><time>2026-04-18T13:10:53.116Z</time></trkpt><trkpt lat="45.2345591" lon="11.0223488"><ele>20.0</ele><time>2026-04-18T13:10:54.109Z</time></trkpt><trkpt lat="45.2343338" lon="11.0223491"><ele>20.0</ele><time>2026-04-18T13:10:55.11Z</time></trkpt><trkpt lat="45.2341091" lon="11.0223604"><ele>20.0</ele><time>2026-04-18T13:10:56.111Z</time></trkpt><trkpt lat="45.2338874" lon="11.0223658"><ele>20.0</ele><time>2026-04-18T13:10:57.112Z</time></trkpt><trkpt lat="45.2336568" lon="11.0223684"><ele>20.5</ele><time>2026-04-18T13:10:58.118Z</time></trkpt><trkpt lat="45.2334277" lon="11.0223632"><ele>21.0</ele><time>2026-04-18T13:10:59.113Z</time></trkpt><trkpt lat="45.2331929" lon="11.022353"><ele>21.5</ele><time>2026-04-18T13:11:00.12Z</time></trkpt><trkpt lat="45.2329607" lon="11.0223485"><ele>22.0</ele><time>2026-04-18T13:11:01.114Z</time></trkpt><trkpt lat="45.2327407" lon="11.0223465"><ele>22.0</ele><time>2026-04-18T13:11:02.11Z</time></trkpt><trkpt lat="45.2325314" lon="11.0223464"><ele>22.0</ele><time>2026-04-18T13:11:03.106Z</time></trkpt><trkpt lat="45.2323403" lon="11.0223422"><ele>22.0</ele><time>2026-04-18T13:11:04.104Z</time></trkpt><trkpt lat="45.2321739" lon="11.0223351"><ele>22.25</ele><time>2026-04-18T13:11:05.101Z</time></trkpt><trkpt lat="45.2320285" lon="11.0223333"><ele>22.5</ele><time>2026-04-18T13:11:06.1Z</time></trkpt><trkpt lat="45.231887" lon="11.0223398"><ele>22.75</ele><time>2026-04-18T13:11:07.106Z</time></trkpt><trkpt lat="45.231743" lon="11.0223486"><ele>23.0</ele><time>2026-04-18T13:11:08.101Z</time></trkpt><trkpt lat="45.2315977" lon="11.0223436"><ele>23.0</ele><time>2026-04-18T13:11:09.106Z</time></trkpt><trkpt lat="45.2314632" lon="11.0223516"><ele>23.0</ele><time>2026-04-18T13:11:10.101Z</time></trkpt><trkpt lat="45.2313222" lon="11.0223408"><ele>23.0</ele><time>2026-04-18T13:11:11.107Z</time></trkpt><trkpt lat="45.2311863" lon="11.0223334"><ele>23.0</ele><time>2026-04-18T13:11:12.108Z</time></trkpt><trkpt lat="45.2310588" lon="11.0223346"><ele>23.0</ele><time>2026-04-18T13:11:13.109Z</time></trkpt><trkpt lat="45.2309455" lon="11.0223328"><ele>23.0</ele><time>2026-04-18T13:11:14.101Z</time></trkpt><trkpt lat="45.2308388" lon="11.0223334"><ele>23.0</ele><time>2026-04-18T13:11:15.105Z</time></trkpt><trkpt lat="45.2307386" lon="11.0223336"><ele>23.0</ele><time>2026-04-18T13:11:16.1Z</time></trkpt><trkpt lat="45.2306476" lon="11.0223322"><ele>23.0</ele><time>2026-04-18T13:11:17.121Z</time></trkpt><trkpt lat="45.2305729" lon="11.0223289"><ele>23.0</ele><time>2026-04-18T13:11:18.099Z</time></trkpt><trkpt lat="45.2304793" lon="11.0222913"><ele>23.0</ele><time>2026-04-18T13:11:20.105Z</time></trkpt><trkpt lat="45.2304865" lon="11.0221289"><ele>23.0</ele><time>2026-04-18T13:11:22.104Z</time></trkpt><trkpt lat="45.2305089" lon="11.0219772"><ele>23.0</ele><time>2026-04-18T13:11:23.102Z</time></trkpt><trkpt lat="45.2305377" lon="11.0217875"><ele>23.0</ele><time>2026-04-18T13:11:24.092Z</time></trkpt><trkpt lat="45.2305575" lon="11.0216092"><ele>23.0</ele><time>2026-04-18T13:11:25.104Z</time></trkpt><trkpt lat="45.2305649" lon="11.0213858"><ele>23.0</ele><time>2026-04-18T13:11:26.096Z</time></trkpt><trkpt lat="45.2305709" lon="11.0211188"><ele>23.0</ele><time>2026-04-18T13:11:27.094Z</time></trkpt><trkpt lat="45.230563" lon="11.0208646"><ele>23.0</ele><time>2026-04-18T13:11:28.099Z</time></trkpt><trkpt lat="45.2305754" lon="11.0206125"><ele>23.0</ele><time>2026-04-18T13:11:29.089Z</time></trkpt><trkpt lat="45.2305848" lon="11.0203892"><ele>23.0</ele><time>2026-04-18T13:11:30.1Z</time></trkpt><trkpt lat="45.2305871" lon="11.0202175"><ele>23.0</ele><time>2026-04-18T13:11:31.099Z</time></trkpt><trkpt lat="45.230582" lon="11.0200702"><ele>23.0</ele><time>2026-04-18T13:11:32.097Z</time></trkpt><trkpt lat="45.2305884" lon="11.0199509"><ele>23.0</ele><time>2026-04-18T13:11:33.097Z</time></trkpt><trkpt lat="45.2306057" lon="11.0198618"><ele>23.0</ele><time>2026-04-18T13:11:34.097Z</time></trkpt><trkpt lat="45.2305888" lon="11.0197726"><ele>23.0</ele><time>2026-04-18T13:11:36.098Z</time></trkpt><trkpt lat="45.2304945" lon="11.0197526"><ele>23.0</ele><time>2026-04-18T13:11:40.09Z</time></trkpt><trkpt lat="45.2304222" lon="11.0197384"><ele>23.0</ele><time>2026-04-18T13:11:41.086Z</time></trkpt><trkpt lat="45.2303193" lon="11.0197334"><ele>23.0</ele><time>2026-04-18T13:11:42.097Z</time></trkpt><trkpt lat="45.2302093" lon="11.0197211"><ele>23.0</ele><time>2026-04-18T13:11:43.106Z</time></trkpt><trkpt lat="45.2301116" lon="11.0197112"><ele>23.0</ele><time>2026-04-18T13:11:44.109Z</time></trkpt><trkpt lat="45.230032" lon="11.0196932"><ele>23.0</ele><time>2026-04-18T13:11:45.094Z</time></trkpt><trkpt lat="45.2299677" lon="11.0196707"><ele>23.0</ele><time>2026-04-18T13:11:46.104Z</time></trkpt><trkpt lat="45.2299181" lon="11.0195696"><ele>23.0</ele><time>2026-04-18T13:11:48.113Z</time></trkpt><trkpt lat="45.2299218" lon="11.0194439"><ele>23.0</ele><time>2026-04-18T13:11:49.098Z</time></trkpt><trkpt lat="45.2299437" lon="11.0192681"><ele>23.0</ele><time>2026-04-18T13:11:50.094Z</time></trkpt><trkpt lat="45.2299581" lon="11.0190873"><ele>23.333333333333336</ele><time>2026-04-18T13:11:51.09Z</time></trkpt><trkpt lat="45.2299692" lon="11.0188829"><ele>23.666666666666668</ele><time>2026-04-18T13:11:52.085Z</time></trkpt><trkpt lat="45.2299747" lon="11.018655"><ele>24.0</ele><time>2026-04-18T13:11:53.084Z</time></trkpt><trkpt lat="45.2299805" lon="11.0183957"><ele>24.0</ele><time>2026-04-18T13:11:54.081Z</time></trkpt><trkpt lat="45.229985" lon="11.0181272"><ele>24.0</ele><time>2026-04-18T13:11:55.09Z</time></trkpt><trkpt lat="45.2299773" lon="11.0178615"><ele>24.0</ele><time>2026-04-18T13:11:56.091Z</time></trkpt><trkpt lat="45.2299464" lon="11.0175836"><ele>24.0</ele><time>2026-04-18T13:11:57.094Z</time></trkpt><trkpt lat="45.2298987" lon="11.0173269"><ele>24.0</ele><time>2026-04-18T13:11:58.1Z</time></trkpt><trkpt lat="45.2298526" lon="11.0171007"><ele>24.0</ele><time>2026-04-18T13:11:59.102Z</time></trkpt><trkpt lat="45.2298036" lon="11.0168615"><ele>24.0</ele><time>2026-04-18T13:12:00.108Z</time></trkpt><trkpt lat="45.2297533" lon="11.0166296"><ele>24.0</ele><time>2026-04-18T13:12:01.104Z</time></trkpt><trkpt lat="45.2297181" lon="11.0164256"><ele>24.0</ele><time>2026-04-18T13:12:02.098Z</time></trkpt><trkpt lat="45.2296725" lon="11.0162447"><ele>24.0</ele><time>2026-04-18T13:12:03.095Z</time></trkpt><trkpt lat="45.2296311" lon="11.0160897"><ele>24.0</ele><time>2026-04-18T13:12:04.094Z</time></trkpt><trkpt lat="45.2296072" lon="11.0159575"><ele>24.0</ele><time>2026-04-18T13:12:05.094Z</time></trkpt><trkpt lat="45.2295909" lon="11.0158124"><ele>24.0</ele><time>2026-04-18T13:12:07.083Z</time></trkpt><trkpt lat="45.2296099" lon="11.0157238"><ele>24.0</ele><time>2026-04-18T13:12:22.102Z</time></trkpt><trkpt lat="45.2296538" lon="11.0156308"><ele>24.0</ele><time>2026-04-18T13:12:23.103Z</time></trkpt><trkpt lat="45.2297342" lon="11.0155226"><ele>24.0</ele><time>2026-04-18T13:12:24.106Z</time></trkpt><trkpt lat="45.2298306" lon="11.0154023"><ele>24.0</ele><time>2026-04-18T13:12:25.091Z</time></trkpt><trkpt lat="45.2299288" lon="11.01528"><ele>24.0</ele><time>2026-04-18T13:12:26.092Z</time></trkpt><trkpt lat="45.2300245" lon="11.0151637"><ele>24.0</ele><time>2026-04-18T13:12:27.099Z</time></trkpt><trkpt lat="45.2301239" lon="11.0150555"><ele>24.0</ele><time>2026-04-18T13:12:28.1Z</time></trkpt><trkpt lat="45.2302338" lon="11.0149385"><ele>24.0</ele><time>2026-04-18T13:12:29.1Z</time></trkpt><trkpt lat="45.2303598" lon="11.0148135"><ele>24.0</ele><time>2026-04-18T13:12:30.107Z</time></trkpt><trkpt lat="45.2304995" lon="11.0146709"><ele>24.0</ele><time>2026-04-18T13:12:31.096Z</time></trkpt><trkpt lat="45.230668" lon="11.0145309"><ele>24.0</ele><time>2026-04-18T13:12:32.1Z</time></trkpt><trkpt lat="45.2308236" lon="11.0143937"><ele>24.0</ele><time>2026-04-18T13:12:33.098Z</time></trkpt><trkpt lat="45.2309491" lon="11.0142683"><ele>24.0</ele><time>2026-04-18T13:12:34.097Z</time></trkpt><trkpt lat="45.231062" lon="11.0141602"><ele>24.0</ele><time>2026-04-18T13:12:35.097Z</time></trkpt><trkpt lat="45.2311529" lon="11.0140755"><ele>24.0</ele><time>2026-04-18T13:12:36.099Z</time></trkpt><trkpt lat="45.2312217" lon="11.0139913"><ele>24.0</ele><time>2026-04-18T13:12:37.095Z</time></trkpt><trkpt lat="45.2312623" lon="11.0139143"><ele>24.0</ele><time>2026-04-18T13:12:38.099Z</time></trkpt><trkpt lat="45.2312213" lon="11.0137812"><ele>23.75</ele><time>2026-04-18T13:12:40.104Z</time></trkpt><trkpt lat="45.2311606" lon="11.0136987"><ele>23.5</ele><time>2026-04-18T13:12:41.101Z</time></trkpt><trkpt lat="45.2310937" lon="11.0135788"><ele>23.25</ele><time>2026-04-18T13:12:42.1Z</time></trkpt><trkpt lat="45.2310118" lon="11.0134149"><ele>23.0</ele><time>2026-04-18T13:12:43.094Z</time></trkpt><trkpt lat="45.2309188" lon="11.0132435"><ele>22.0</ele><time>2026-04-18T13:12:44.092Z</time></trkpt><trkpt lat="45.2308244" lon="11.0130657"><ele>21.0</ele><time>2026-04-18T13:12:45.085Z</time></trkpt><trkpt lat="45.2307315" lon="11.0128708"><ele>20.0</ele><time>2026-04-18T13:12:46.089Z</time></trkpt><trkpt lat="45.2306398" lon="11.0126669"><ele>19.333333333333336</ele><time>2026-04-18T13:12:47.091Z</time></trkpt><trkpt lat="45.2305328" lon="11.0124481"><ele>18.666666666666668</ele><time>2026-04-18T13:12:48.095Z</time></trkpt><trkpt lat="45.2304269" lon="11.0122331"><ele>18.0</ele><time>2026-04-18T13:12:49.092Z</time></trkpt><trkpt lat="45.230303" lon="11.0120096"><ele>18.0</ele><time>2026-04-18T13:12:50.106Z</time></trkpt><trkpt lat="45.2301759" lon="11.0117801"><ele>18.0</ele><time>2026-04-18T13:12:51.094Z</time></trkpt><trkpt lat="45.2300536" lon="11.011552"><ele>18.0</ele><time>2026-04-18T13:12:52.09Z</time></trkpt><trkpt lat="45.2299277" lon="11.0113287"><ele>17.666666666666668</ele><time>2026-04-18T13:12:53.093Z</time></trkpt><trkpt lat="45.2298097" lon="11.011095"><ele>17.333333333333336</ele><time>2026-04-18T13:12:54.091Z</time></trkpt><trkpt lat="45.2297009" lon="11.0108853"><ele>17.0</ele><time>2026-04-18T13:12:55.091Z</time></trkpt><trkpt lat="45.2296042" lon="11.0107007"><ele>17.75</ele><time>2026-04-18T13:12:56.097Z</time></trkpt><trkpt lat="45.2295194" lon="11.0105304"><ele>18.5</ele><time>2026-04-18T13:12:57.09Z</time></trkpt><trkpt lat="45.2294381" lon="11.0103789"><ele>19.25</ele><time>2026-04-18T13:12:58.093Z</time></trkpt><trkpt lat="45.2293701" lon="11.0102471"><ele>20.0</ele><time>2026-04-18T13:12:59.094Z</time></trkpt><trkpt lat="45.2293044" lon="11.01015"><ele>20.0</ele><time>2026-04-18T13:13:00.105Z</time></trkpt><trkpt lat="45.2292556" lon="11.0100517"><ele>20.0</ele><time>2026-04-18T13:13:01.095Z</time></trkpt><trkpt lat="45.2292424" lon="11.009947"><ele>20.0</ele><time>2026-04-18T13:13:02.094Z</time></trkpt><trkpt lat="45.2292823" lon="11.0098227"><ele>20.0</ele><time>2026-04-18T13:13:03.084Z</time></trkpt><trkpt lat="45.229363" lon="11.0096917"><ele>20.0</ele><time>2026-04-18T13:13:04.091Z</time></trkpt><trkpt lat="45.2294553" lon="11.009544"><ele>20.666666666666668</ele><time>2026-04-18T13:13:05.08Z</time></trkpt><trkpt lat="45.2295649" lon="11.0093709"><ele>21.333333333333332</ele><time>2026-04-18T13:13:06.083Z</time></trkpt><trkpt lat="45.2296868" lon="11.0091753"><ele>22.0</ele><time>2026-04-18T13:13:07.086Z</time></trkpt><trkpt lat="45.2298149" lon="11.0089721"><ele>22.333333333333332</ele><time>2026-04-18T13:13:08.083Z</time></trkpt><trkpt lat="45.2299512" lon="11.0087557"><ele>22.666666666666668</ele><time>2026-04-18T13:13:09.092Z</time></trkpt><trkpt lat="45.2301005" lon="11.0085482"><ele>23.0</ele><time>2026-04-18T13:13:10.09Z</time></trkpt><trkpt lat="45.2302427" lon="11.0083375"><ele>23.0</ele><time>2026-04-18T13:13:11.095Z</time></trkpt><trkpt lat="45.2303799" lon="11.0081396"><ele>23.0</ele><time>2026-04-18T13:13:12.094Z</time></trkpt><trkpt lat="45.2305156" lon="11.0079474"><ele>23.0</ele><time>2026-04-18T13:13:13.093Z</time></trkpt><trkpt lat="45.2306564" lon="11.0077407"><ele>23.666666666666668</ele><time>2026-04-18T13:13:14.094Z</time></trkpt><trkpt lat="45.2307799" lon="11.0075414"><ele>24.333333333333336</ele><time>2026-04-18T13:13:15.09Z</time></trkpt><trkpt lat="45.2309089" lon="11.0073631"><ele>25.0</ele><time>2026-04-18T13:13:16.09Z</time></trkpt><trkpt lat="45.2310215" lon="11.0071863"><ele>25.25</ele><time>2026-04-18T13:13:17.103Z</time></trkpt><trkpt lat="45.2311183" lon="11.0070223"><ele>25.5</ele><time>2026-04-18T13:13:18.097Z</time></trkpt><trkpt lat="45.2312183" lon="11.0068835"><ele>25.75</ele><time>2026-04-18T13:13:19.1Z</time></trkpt><trkpt lat="45.2313261" lon="11.0067523"><ele>26.0</ele><time>2026-04-18T13:13:20.092Z</time></trkpt><trkpt lat="45.2314698" lon="11.0066738"><ele>26.25</ele><time>2026-04-18T13:13:21.105Z</time></trkpt><trkpt lat="45.2315928" lon="11.0066034"><ele>26.5</ele><time>2026-04-18T13:13:22.086Z</time></trkpt><trkpt lat="45.2316843" lon="11.0065212"><ele>26.75</ele><time>2026-04-18T13:13:23.084Z</time></trkpt><trkpt lat="45.2317737" lon="11.0064297"><ele>27.0</ele><time>2026-04-18T13:13:24.078Z</time></trkpt><trkpt lat="45.2318764" lon="11.0063383"><ele>27.0</ele><time>2026-04-18T13:13:25.08Z</time></trkpt><trkpt lat="45.231994" lon="11.0062484"><ele>27.0</ele><time>2026-04-18T13:13:26.076Z</time></trkpt><trkpt lat="45.232112" lon="11.0061597"><ele>27.0</ele><time>2026-04-18T13:13:27.082Z</time></trkpt><trkpt lat="45.2322234" lon="11.0060644"><ele>27.0</ele><time>2026-04-18T13:13:28.083Z</time></trkpt><trkpt lat="45.2323307" lon="11.0059735"><ele>27.0</ele><time>2026-04-18T13:13:29.082Z</time></trkpt><trkpt lat="45.2324476" lon="11.0058809"><ele>27.0</ele><time>2026-04-18T13:13:30.085Z</time></trkpt><trkpt lat="45.2325651" lon="11.0057915"><ele>27.0</ele><time>2026-04-18T13:13:31.086Z</time></trkpt><trkpt lat="45.2326904" lon="11.0057047"><ele>27.0</ele><time>2026-04-18T13:13:32.087Z</time></trkpt><trkpt lat="45.2328115" lon="11.005615"><ele>26.666666666666664</ele><time>2026-04-18T13:13:33.089Z</time></trkpt><trkpt lat="45.2330527" lon="11.0054338"><ele>26.333333333333332</ele><time>2026-04-18T13:13:35.086Z</time></trkpt><trkpt lat="45.233173" lon="11.0053111"><ele>26.0</ele><time>2026-04-18T13:13:36.095Z</time></trkpt><trkpt lat="45.2335567" lon="11.0048788"><ele>26.0</ele><time>2026-04-18T13:13:39.09Z</time></trkpt><trkpt lat="45.2336982" lon="11.0047205"><ele>26.0</ele><time>2026-04-18T13:13:40.094Z</time></trkpt><trkpt lat="45.233826" lon="11.0045703"><ele>26.0</ele><time>2026-04-18T13:13:41.092Z</time></trkpt><trkpt lat="45.2339498" lon="11.004406"><ele>26.0</ele><time>2026-04-18T13:13:42.091Z</time></trkpt><trkpt lat="45.2340538" lon="11.0042219"><ele>26.0</ele><time>2026-04-18T13:13:43.095Z</time></trkpt><trkpt lat="45.2341587" lon="11.0040212"><ele>26.0</ele><time>2026-04-18T13:13:44.097Z</time></trkpt><trkpt lat="45.2342371" lon="11.0037884"><ele>25.666666666666664</ele><time>2026-04-18T13:13:45.094Z</time></trkpt><trkpt lat="45.2343109" lon="11.003523"><ele>25.333333333333336</ele><time>2026-04-18T13:13:46.097Z</time></trkpt><trkpt lat="45.234385" lon="11.0032601"><ele>25.0</ele><time>2026-04-18T13:13:47.108Z</time></trkpt><trkpt lat="45.2344613" lon="11.0029838"><ele>25.0</ele><time>2026-04-18T13:13:48.101Z</time></trkpt><trkpt lat="45.2345385" lon="11.0027172"><ele>25.0</ele><time>2026-04-18T13:13:49.099Z</time></trkpt><trkpt lat="45.2346139" lon="11.0024474"><ele>25.0</ele><time>2026-04-18T13:13:50.104Z</time></trkpt><trkpt lat="45.2346897" lon="11.0021949"><ele>25.0</ele><time>2026-04-18T13:13:51.098Z</time></trkpt><trkpt lat="45.2347553" lon="11.0019686"><ele>25.0</ele><time>2026-04-18T13:13:52.115Z</time></trkpt><trkpt lat="45.2348117" lon="11.0017841"><ele>25.0</ele><time>2026-04-18T13:13:53.101Z</time></trkpt><trkpt lat="45.2348633" lon="11.0016019"><ele>24.8</ele><time>2026-04-18T13:13:54.101Z</time></trkpt><trkpt lat="45.2349121" lon="11.0014525"><ele>24.6</ele><time>2026-04-18T13:13:55.101Z</time></trkpt><trkpt lat="45.2349489" lon="11.001322"><ele>24.4</ele><time>2026-04-18T13:13:56.107Z</time></trkpt><trkpt lat="45.2349465" lon="11.0012054"><ele>24.2</ele><time>2026-04-18T13:13:57.103Z</time></trkpt><trkpt lat="45.2349042" lon="11.0010735"><ele>24.0</ele><time>2026-04-18T13:13:58.113Z</time></trkpt><trkpt lat="45.2348333" lon="11.000918"><ele>24.0</ele><time>2026-04-18T13:13:59.098Z</time></trkpt><trkpt lat="45.2347812" lon="11.0007528"><ele>24.0</ele><time>2026-04-18T13:14:00.107Z</time></trkpt><trkpt lat="45.2347424" lon="11.0005851"><ele>24.0</ele><time>2026-04-18T13:14:01.105Z</time></trkpt><trkpt lat="45.2347077" lon="11.000411"><ele>24.0</ele><time>2026-04-18T13:14:02.101Z</time></trkpt><trkpt lat="45.2346659" lon="11.0002341"><ele>24.0</ele><time>2026-04-18T13:14:03.101Z</time></trkpt><trkpt lat="45.2346258" lon="11.0000784"><ele>24.0</ele><time>2026-04-18T13:14:04.107Z</time></trkpt><trkpt lat="45.2345981" lon="10.9999322"><ele>24.0</ele><time>2026-04-18T13:14:05.1Z</time></trkpt><trkpt lat="45.2345668" lon="10.9997922"><ele>24.0</ele><time>2026-04-18T13:14:06.106Z</time></trkpt><trkpt lat="45.2345416" lon="10.999666"><ele>24.0</ele><time>2026-04-18T13:14:07.099Z</time></trkpt><trkpt lat="45.2345262" lon="10.999548"><ele>24.0</ele><time>2026-04-18T13:14:08.103Z</time></trkpt><trkpt lat="45.2344707" lon="10.9993931"><ele>24.0</ele><time>2026-04-18T13:14:10.102Z</time></trkpt><trkpt lat="45.2343453" lon="10.9993818"><ele>24.0</ele><time>2026-04-18T13:14:12.106Z</time></trkpt><trkpt lat="45.2342529" lon="10.9994529"><ele>24.0</ele><time>2026-04-18T13:14:13.1Z</time></trkpt><trkpt lat="45.2341336" lon="10.9995413"><ele>24.0</ele><time>2026-04-18T13:14:14.1Z</time></trkpt><trkpt lat="45.2340053" lon="10.9996297"><ele>24.0</ele><time>2026-04-18T13:14:15.098Z</time></trkpt><trkpt lat="45.2338584" lon="10.9997316"><ele>24.0</ele><time>2026-04-18T13:14:16.101Z</time></trkpt><trkpt lat="45.2337184" lon="10.9998351"><ele>23.333333333333332</ele><time>2026-04-18T13:14:17.115Z</time></trkpt><trkpt lat="45.2335744" lon="10.9999477"><ele>22.666666666666664</ele><time>2026-04-18T13:14:18.105Z</time></trkpt><trkpt lat="45.23344" lon="11.0000627"><ele>22.0</ele><time>2026-04-18T13:14:19.108Z</time></trkpt><trkpt lat="45.2333236" lon="11.0001608"><ele>22.0</ele><time>2026-04-18T13:14:20.108Z</time></trkpt><trkpt lat="45.2332114" lon="11.0002571"><ele>22.0</ele><time>2026-04-18T13:14:21.102Z</time></trkpt><trkpt lat="45.2330976" lon="11.000369"><ele>22.0</ele><time>2026-04-18T13:14:22.104Z</time></trkpt><trkpt lat="45.2329675" lon="11.0004907"><ele>22.0</ele><time>2026-04-18T13:14:23.123Z</time></trkpt><trkpt lat="45.2328376" lon="11.0006209"><ele>21.666666666666664</ele><time>2026-04-18T13:14:24.106Z</time></trkpt><trkpt lat="45.2327074" lon="11.000762"><ele>21.333333333333332</ele><time>2026-04-18T13:14:25.109Z</time></trkpt><trkpt lat="45.232576" lon="11.0009093"><ele>21.0</ele><time>2026-04-18T13:14:26.106Z</time></trkpt><trkpt lat="45.2324444" lon="11.0010576"><ele>21.666666666666668</ele><time>2026-04-18T13:14:27.107Z</time></trkpt><trkpt lat="45.2323202" lon="11.0012015"><ele>22.333333333333336</ele><time>2026-04-18T13:14:28.111Z</time></trkpt><trkpt lat="45.2322014" lon="11.0013467"><ele>23.0</ele><time>2026-04-18T13:14:29.106Z</time></trkpt><trkpt lat="45.2320901" lon="11.0014851"><ele>23.0</ele><time>2026-04-18T13:14:30.115Z</time></trkpt><trkpt lat="45.2319817" lon="11.0016174"><ele>23.0</ele><time>2026-04-18T13:14:31.112Z</time></trkpt><trkpt lat="45.2318661" lon="11.0017477"><ele>23.0</ele><time>2026-04-18T13:14:32.108Z</time></trkpt><trkpt lat="45.2317485" lon="11.0018759"><ele>23.0</ele><time>2026-04-18T13:14:33.106Z</time></trkpt><trkpt lat="45.231622" lon="11.0019867"><ele>22.75</ele><time>2026-04-18T13:14:34.106Z</time></trkpt><trkpt lat="45.2315129" lon="11.0020981"><ele>22.5</ele><time>2026-04-18T13:14:35.106Z</time></trkpt><trkpt lat="45.2314017" lon="11.002214"><ele>22.25</ele><time>2026-04-18T13:14:36.105Z</time></trkpt><trkpt lat="45.2312778" lon="11.0023357"><ele>22.0</ele><time>2026-04-18T13:14:37.102Z</time></trkpt><trkpt lat="45.2311647" lon="11.002452"><ele>22.0</ele><time>2026-04-18T13:14:38.095Z</time></trkpt><trkpt lat="45.2310628" lon="11.0025536"><ele>22.0</ele><time>2026-04-18T13:14:39.111Z</time></trkpt><trkpt lat="45.2309623" lon="11.0026704"><ele>22.0</ele><time>2026-04-18T13:14:40.113Z</time></trkpt><trkpt lat="45.2308514" lon="11.002773"><ele>22.0</ele><time>2026-04-18T13:14:41.112Z</time></trkpt><trkpt lat="45.2307378" lon="11.0028801"><ele>21.75</ele><time>2026-04-18T13:14:42.113Z</time></trkpt><trkpt lat="45.2306374" lon="11.0029967"><ele>21.5</ele><time>2026-04-18T13:14:43.109Z</time></trkpt><trkpt lat="45.2305459" lon="11.003113"><ele>21.25</ele><time>2026-04-18T13:14:44.113Z</time></trkpt><trkpt lat="45.2304645" lon="11.0032136"><ele>21.0</ele><time>2026-04-18T13:14:45.112Z</time></trkpt><trkpt lat="45.2303743" lon="11.0033059"><ele>21.5</ele><time>2026-04-18T13:14:46.112Z</time></trkpt><trkpt lat="45.2302759" lon="11.0033952"><ele>22.0</ele><time>2026-04-18T13:14:47.118Z</time></trkpt><trkpt lat="45.230165" lon="11.0034876"><ele>22.5</ele><time>2026-04-18T13:14:48.112Z</time></trkpt><trkpt lat="45.2300454" lon="11.0035908"><ele>23.0</ele><time>2026-04-18T13:14:49.11Z</time></trkpt><trkpt lat="45.2299125" lon="11.0037018"><ele>23.0</ele><time>2026-04-18T13:14:50.112Z</time></trkpt><trkpt lat="45.2297678" lon="11.0038211"><ele>23.0</ele><time>2026-04-18T13:14:51.112Z</time></trkpt><trkpt lat="45.2296168" lon="11.0039351"><ele>23.0</ele><time>2026-04-18T13:14:52.108Z</time></trkpt><trkpt lat="45.2294924" lon="11.0040272"><ele>23.0</ele><time>2026-04-18T13:14:53.11Z</time></trkpt><trkpt lat="45.2293736" lon="11.0041119"><ele>23.0</ele><time>2026-04-18T13:14:54.124Z</time></trkpt><trkpt lat="45.2292647" lon="11.0041807"><ele>23.0</ele><time>2026-04-18T13:14:55.107Z</time></trkpt><trkpt lat="45.2291567" lon="11.0042316"><ele>23.0</ele><time>2026-04-18T13:14:56.107Z</time></trkpt><trkpt lat="45.229057" lon="11.0042623"><ele>22.833333333333336</ele><time>2026-04-18T13:14:57.106Z</time></trkpt><trkpt lat="45.2289715" lon="11.0042853"><ele>22.666666666666668</ele><time>2026-04-18T13:14:58.107Z</time></trkpt><trkpt lat="45.2289003" lon="11.0042977"><ele>22.5</ele><time>2026-04-18T13:14:59.112Z</time></trkpt><trkpt lat="45.2287839" lon="11.0043229"><ele>22.333333333333332</ele><time>2026-04-18T13:15:01.105Z</time></trkpt><trkpt lat="45.2287058" lon="11.0043358"><ele>22.166666666666664</ele><time>2026-04-18T13:15:02.107Z</time></trkpt><trkpt lat="45.2286162" lon="11.0043551"><ele>22.0</ele><time>2026-04-18T13:15:03.104Z</time></trkpt><trkpt lat="45.2285211" lon="11.0043736"><ele>22.0</ele><time>2026-04-18T13:15:04.105Z</time></trkpt><trkpt lat="45.2284141" lon="11.0043906"><ele>22.0</ele><time>2026-04-18T13:15:05.108Z</time></trkpt><trkpt lat="45.2282961" lon="11.0044033"><ele>22.0</ele><time>2026-04-18T13:15:06.11Z</time></trkpt><trkpt lat="45.2281548" lon="11.0043979"><ele>22.0</ele><time>2026-04-18T13:15:07.103Z</time></trkpt><trkpt lat="45.2280132" lon="11.0043839"><ele>22.333333333333332</ele><time>2026-04-18T13:15:08.107Z</time></trkpt><trkpt lat="45.2278681" lon="11.0043553"><ele>22.666666666666668</ele><time>2026-04-18T13:15:09.099Z</time></trkpt><trkpt lat="45.2277025" lon="11.004307"><ele>23.0</ele><time>2026-04-18T13:15:10.097Z</time></trkpt><trkpt lat="45.2275344" lon="11.0042591"><ele>23.0</ele><time>2026-04-18T13:15:11.106Z</time></trkpt><trkpt lat="45.2273696" lon="11.0042247"><ele>23.0</ele><time>2026-04-18T13:15:12.106Z</time></trkpt><trkpt lat="45.2272103" lon="11.0041954"><ele>23.0</ele><time>2026-04-18T13:15:13.11Z</time></trkpt><trkpt lat="45.227056" lon="11.0041828"><ele>23.0</ele><time>2026-04-18T13:15:14.097Z</time></trkpt><trkpt lat="45.2269133" lon="11.0041928"><ele>23.0</ele><time>2026-04-18T13:15:15.099Z</time></trkpt><trkpt lat="45.2267622" lon="11.0042101"><ele>23.0</ele><time>2026-04-18T13:15:16.105Z</time></trkpt><trkpt lat="45.2266091" lon="11.0042299"><ele>23.0</ele><time>2026-04-18T13:15:17.106Z</time></trkpt><trkpt lat="45.2264485" lon="11.0042573"><ele>23.0</ele><time>2026-04-18T13:15:18.108Z</time></trkpt><trkpt lat="45.2262794" lon="11.004279"><ele>23.0</ele><time>2026-04-18T13:15:19.108Z</time></trkpt><trkpt lat="45.2261094" lon="11.0043023"><ele>23.0</ele><time>2026-04-18T13:15:20.108Z</time></trkpt><trkpt lat="45.2259613" lon="11.0043209"><ele>23.0</ele><time>2026-04-18T13:15:21.106Z</time></trkpt><trkpt lat="45.2258124" lon="11.004335"><ele>23.0</ele><time>2026-04-18T13:15:22.109Z</time></trkpt><trkpt lat="45.2256675" lon="11.0043441"><ele>23.0</ele><time>2026-04-18T13:15:23.109Z</time></trkpt><trkpt lat="45.2255312" lon="11.0043592"><ele>23.0</ele><time>2026-04-18T13:15:24.107Z</time></trkpt><trkpt lat="45.2253974" lon="11.0043825"><ele>23.0</ele><time>2026-04-18T13:15:25.121Z</time></trkpt><trkpt lat="45.2252538" lon="11.0043987"><ele>23.0</ele><time>2026-04-18T13:15:26.108Z</time></trkpt><trkpt lat="45.2251072" lon="11.0044076"><ele>23.0</ele><time>2026-04-18T13:15:27.108Z</time></trkpt><trkpt lat="45.224957" lon="11.0043984"><ele>23.0</ele><time>2026-04-18T13:15:28.106Z</time></trkpt><trkpt lat="45.2247985" lon="11.0043688"><ele>23.0</ele><time>2026-04-18T13:15:29.108Z</time></trkpt><trkpt lat="45.2246426" lon="11.0043378"><ele>23.0</ele><time>2026-04-18T13:15:30.112Z</time></trkpt><trkpt lat="45.2244737" lon="11.0043053"><ele>23.0</ele><time>2026-04-18T13:15:31.107Z</time></trkpt><trkpt lat="45.2243003" lon="11.0042845"><ele>23.0</ele><time>2026-04-18T13:15:32.105Z</time></trkpt><trkpt lat="45.2241378" lon="11.0042613"><ele>23.0</ele><time>2026-04-18T13:15:33.104Z</time></trkpt><trkpt lat="45.2239811" lon="11.0042491"><ele>23.0</ele><time>2026-04-18T13:15:34.105Z</time></trkpt><trkpt lat="45.2238235" lon="11.004229"><ele>22.75</ele><time>2026-04-18T13:15:35.105Z</time></trkpt><trkpt lat="45.2236852" lon="11.0042099"><ele>22.5</ele><time>2026-04-18T13:15:36.106Z</time></trkpt><trkpt lat="45.2235434" lon="11.0041945"><ele>22.25</ele><time>2026-04-18T13:15:37.106Z</time></trkpt><trkpt lat="45.2234047" lon="11.0041805"><ele>22.0</ele><time>2026-04-18T13:15:38.104Z</time></trkpt><trkpt lat="45.223281" lon="11.0041766"><ele>22.0</ele><time>2026-04-18T13:15:39.111Z</time></trkpt><trkpt lat="45.2231524" lon="11.0041866"><ele>22.0</ele><time>2026-04-18T13:15:40.108Z</time></trkpt><trkpt lat="45.2230207" lon="11.004199"><ele>22.0</ele><time>2026-04-18T13:15:41.108Z</time></trkpt><trkpt lat="45.2228944" lon="11.004215"><ele>22.0</ele><time>2026-04-18T13:15:42.11Z</time></trkpt><trkpt lat="45.2227728" lon="11.0042322"><ele>22.400000000000002</ele><time>2026-04-18T13:15:43.111Z</time></trkpt><trkpt lat="45.2226551" lon="11.0042409"><ele>22.8</ele><time>2026-04-18T13:15:44.112Z</time></trkpt><trkpt lat="45.2225466" lon="11.0042537"><ele>23.2</ele><time>2026-04-18T13:15:45.107Z</time></trkpt><trkpt lat="45.2224456" lon="11.0042645"><ele>23.6</ele><time>2026-04-18T13:15:46.107Z</time></trkpt><trkpt lat="45.2223516" lon="11.004274"><ele>24.0</ele><time>2026-04-18T13:15:47.113Z</time></trkpt><trkpt lat="45.2222565" lon="11.0042856"><ele>24.0</ele><time>2026-04-18T13:15:48.105Z</time></trkpt><trkpt lat="45.2221483" lon="11.0042922"><ele>24.0</ele><time>2026-04-18T13:15:49.104Z</time></trkpt><trkpt lat="45.2220186" lon="11.0043057"><ele>24.0</ele><time>2026-04-18T13:15:50.105Z</time></trkpt><trkpt lat="45.2218605" lon="11.0043374"><ele>24.0</ele><time>2026-04-18T13:15:51.108Z</time></trkpt><trkpt lat="45.2216653" lon="11.0043792"><ele>23.666666666666668</ele><time>2026-04-18T13:15:52.1Z</time></trkpt><trkpt lat="45.2214707" lon="11.0044113"><ele>23.333333333333336</ele><time>2026-04-18T13:15:53.101Z</time></trkpt><trkpt lat="45.2212669" lon="11.0044385"><ele>23.0</ele><time>2026-04-18T13:15:54.106Z</time></trkpt><trkpt lat="45.2210599" lon="11.0044601"><ele>23.0</ele><time>2026-04-18T13:15:55.108Z</time></trkpt><trkpt lat="45.2208591" lon="11.0044914"><ele>23.0</ele><time>2026-04-18T13:15:56.125Z</time></trkpt><trkpt lat="45.2206606" lon="11.0045222"><ele>23.0</ele><time>2026-04-18T13:15:57.109Z</time></trkpt><trkpt lat="45.2204591" lon="11.0045643"><ele>23.0</ele><time>2026-04-18T13:15:58.114Z</time></trkpt><trkpt lat="45.220258" lon="11.0045986"><ele>23.0</ele><time>2026-04-18T13:15:59.11Z</time></trkpt><trkpt lat="45.2200649" lon="11.0046252"><ele>23.0</ele><time>2026-04-18T13:16:00.121Z</time></trkpt><trkpt lat="45.219869" lon="11.0046498"><ele>22.333333333333336</ele><time>2026-04-18T13:16:01.112Z</time></trkpt><trkpt lat="45.2196554" lon="11.0046896"><ele>21.666666666666668</ele><time>2026-04-18T13:16:02.108Z</time></trkpt><trkpt lat="45.2194453" lon="11.0047561"><ele>21.0</ele><time>2026-04-18T13:16:03.111Z</time></trkpt><trkpt lat="45.2192459" lon="11.0048319"><ele>21.0</ele><time>2026-04-18T13:16:04.1Z</time></trkpt><trkpt lat="45.2190631" lon="11.0048928"><ele>21.0</ele><time>2026-04-18T13:16:05.103Z</time></trkpt><trkpt lat="45.2188924" lon="11.0049502"><ele>21.0</ele><time>2026-04-18T13:16:06.104Z</time></trkpt><trkpt lat="45.2187359" lon="11.0050088"><ele>21.75</ele><time>2026-04-18T13:16:07.102Z</time></trkpt><trkpt lat="45.2185867" lon="11.0050644"><ele>22.5</ele><time>2026-04-18T13:16:08.102Z</time></trkpt><trkpt lat="45.2184533" lon="11.0051092"><ele>23.25</ele><time>2026-04-18T13:16:09.099Z</time></trkpt><trkpt lat="45.2183243" lon="11.0051306"><ele>24.0</ele><time>2026-04-18T13:16:10.1Z</time></trkpt><trkpt lat="45.2182085" lon="11.0051545"><ele>24.0</ele><time>2026-04-18T13:16:11.09Z</time></trkpt><trkpt lat="45.2181037" lon="11.0051744"><ele>24.0</ele><time>2026-04-18T13:16:12.101Z</time></trkpt><trkpt lat="45.2180042" lon="11.005166"><ele>24.0</ele><time>2026-04-18T13:16:13.094Z</time></trkpt><trkpt lat="45.2178982" lon="11.0051705"><ele>24.0</ele><time>2026-04-18T13:16:14.093Z</time></trkpt><trkpt lat="45.2177654" lon="11.0051876"><ele>24.0</ele><time>2026-04-18T13:16:15.097Z</time></trkpt><trkpt lat="45.2176127" lon="11.0052265"><ele>24.0</ele><time>2026-04-18T13:16:16.093Z</time></trkpt><trkpt lat="45.217432" lon="11.0052955"><ele>24.0</ele><time>2026-04-18T13:16:17.095Z</time></trkpt><trkpt lat="45.2172454" lon="11.0053685"><ele>24.0</ele><time>2026-04-18T13:16:18.09Z</time></trkpt><trkpt lat="45.217038" lon="11.0054374"><ele>23.666666666666668</ele><time>2026-04-18T13:16:19.09Z</time></trkpt><trkpt lat="45.2168377" lon="11.0054886"><ele>23.333333333333336</ele><time>2026-04-18T13:16:20.09Z</time></trkpt><trkpt lat="45.2166288" lon="11.0055162"><ele>23.0</ele><time>2026-04-18T13:16:21.099Z</time></trkpt><trkpt lat="45.2164093" lon="11.0055119"><ele>22.666666666666668</ele><time>2026-04-18T13:16:22.103Z</time></trkpt><trkpt lat="45.2161838" lon="11.0055171"><ele>22.333333333333332</ele><time>2026-04-18T13:16:23.1Z</time></trkpt><trkpt lat="45.2159782" lon="11.0055204"><ele>22.0</ele><time>2026-04-18T13:16:24.102Z</time></trkpt><trkpt lat="45.2157705" lon="11.0055158"><ele>22.0</ele><time>2026-04-18T13:16:25.109Z</time></trkpt><trkpt lat="45.215564" lon="11.0055236"><ele>22.0</ele><time>2026-04-18T13:16:26.106Z</time></trkpt><trkpt lat="45.2153631" lon="11.0055233"><ele>22.0</ele><time>2026-04-18T13:16:27.12Z</time></trkpt><trkpt lat="45.2151554" lon="11.0055321"><ele>22.0</ele><time>2026-04-18T13:16:28.111Z</time></trkpt><trkpt lat="45.2149541" lon="11.0055402"><ele>22.0</ele><time>2026-04-18T13:16:29.104Z</time></trkpt><trkpt lat="45.2147497" lon="11.0055491"><ele>22.0</ele><time>2026-04-18T13:16:30.11Z</time></trkpt><trkpt lat="45.214549" lon="11.0055632"><ele>21.666666666666664</ele><time>2026-04-18T13:16:31.111Z</time></trkpt><trkpt lat="45.2143446" lon="11.0055916"><ele>21.333333333333332</ele><time>2026-04-18T13:16:32.107Z</time></trkpt><trkpt lat="45.2141353" lon="11.0056123"><ele>21.0</ele><time>2026-04-18T13:16:33.102Z</time></trkpt><trkpt lat="45.2139245" lon="11.005633"><ele>21.0</ele><time>2026-04-18T13:16:34.105Z</time></trkpt><trkpt lat="45.2137109" lon="11.0056469"><ele>21.0</ele><time>2026-04-18T13:16:35.104Z</time></trkpt><trkpt lat="45.2135048" lon="11.0056654"><ele>21.0</ele><time>2026-04-18T13:16:36.104Z</time></trkpt><trkpt lat="45.2132837" lon="11.0056816"><ele>21.0</ele><time>2026-04-18T13:16:37.101Z</time></trkpt><trkpt lat="45.2130753" lon="11.0056897"><ele>21.0</ele><time>2026-04-18T13:16:38.107Z</time></trkpt><trkpt lat="45.2128692" lon="11.0057065"><ele>21.0</ele><time>2026-04-18T13:16:39.107Z</time></trkpt><trkpt lat="45.2126646" lon="11.0057209"><ele>21.0</ele><time>2026-04-18T13:16:40.101Z</time></trkpt><trkpt lat="45.2124786" lon="11.0057291"><ele>21.0</ele><time>2026-04-18T13:16:41.102Z</time></trkpt><trkpt lat="45.2123076" lon="11.0057422"><ele>21.0</ele><time>2026-04-18T13:16:42.096Z</time></trkpt><trkpt lat="45.2121525" lon="11.005756"><ele>21.25</ele><time>2026-04-18T13:16:43.103Z</time></trkpt><trkpt lat="45.2120085" lon="11.0057854"><ele>21.5</ele><time>2026-04-18T13:16:44.102Z</time></trkpt><trkpt lat="45.2118719" lon="11.00582"><ele>21.75</ele><time>2026-04-18T13:16:45.099Z</time></trkpt><trkpt lat="45.2117317" lon="11.0058722"><ele>22.0</ele><time>2026-04-18T13:16:46.102Z</time></trkpt><trkpt lat="45.2115953" lon="11.0059199"><ele>21.666666666666664</ele><time>2026-04-18T13:16:47.106Z</time></trkpt><trkpt lat="45.2114515" lon="11.0059807"><ele>21.333333333333332</ele><time>2026-04-18T13:16:48.095Z</time></trkpt><trkpt lat="45.2112836" lon="11.0060461"><ele>21.0</ele><time>2026-04-18T13:16:49.105Z</time></trkpt><trkpt lat="45.2111079" lon="11.0061372"><ele>21.0</ele><time>2026-04-18T13:16:50.093Z</time></trkpt><trkpt lat="45.2109204" lon="11.0062259"><ele>21.0</ele><time>2026-04-18T13:16:51.095Z</time></trkpt><trkpt lat="45.2107239" lon="11.006315"><ele>21.0</ele><time>2026-04-18T13:16:52.101Z</time></trkpt><trkpt lat="45.2105254" lon="11.006411"><ele>21.0</ele><time>2026-04-18T13:16:53.103Z</time></trkpt><trkpt lat="45.2103356" lon="11.0065044"><ele>21.0</ele><time>2026-04-18T13:16:54.099Z</time></trkpt><trkpt lat="45.2101517" lon="11.0066055"><ele>21.0</ele><time>2026-04-18T13:16:55.094Z</time></trkpt><trkpt lat="45.2099587" lon="11.0066787"><ele>20.666666666666668</ele><time>2026-04-18T13:16:56.097Z</time></trkpt><trkpt lat="45.2097617" lon="11.0067423"><ele>20.333333333333336</ele><time>2026-04-18T13:16:57.099Z</time></trkpt><trkpt lat="45.2095694" lon="11.0068075"><ele>20.0</ele><time>2026-04-18T13:16:58.115Z</time></trkpt><trkpt lat="45.2093723" lon="11.0068791"><ele>20.0</ele><time>2026-04-18T13:16:59.101Z</time></trkpt><trkpt lat="45.2091699" lon="11.0069516"><ele>20.0</ele><time>2026-04-18T13:17:00.113Z</time></trkpt><trkpt lat="45.2089677" lon="11.0070245"><ele>20.0</ele><time>2026-04-18T13:17:01.107Z</time></trkpt><trkpt lat="45.2087656" lon="11.0070949"><ele>20.333333333333336</ele><time>2026-04-18T13:17:02.102Z</time></trkpt><trkpt lat="45.2085814" lon="11.0071679"><ele>20.666666666666668</ele><time>2026-04-18T13:17:03.102Z</time></trkpt><trkpt lat="45.2084199" lon="11.0072459"><ele>21.0</ele><time>2026-04-18T13:17:04.091Z</time></trkpt><trkpt lat="45.2082673" lon="11.0073132"><ele>21.0</ele><time>2026-04-18T13:17:05.098Z</time></trkpt><trkpt lat="45.2081235" lon="11.007381"><ele>21.0</ele><time>2026-04-18T13:17:06.107Z</time></trkpt><trkpt lat="45.2079753" lon="11.007448"><ele>21.0</ele><time>2026-04-18T13:17:07.102Z</time></trkpt><trkpt lat="45.2078103" lon="11.0075058"><ele>21.0</ele><time>2026-04-18T13:17:08.105Z</time></trkpt><trkpt lat="45.2076274" lon="11.0075561"><ele>21.0</ele><time>2026-04-18T13:17:09.104Z</time></trkpt><trkpt lat="45.2074319" lon="11.007612"><ele>21.0</ele><time>2026-04-18T13:17:10.106Z</time></trkpt><trkpt lat="45.2072315" lon="11.0076666"><ele>20.666666666666668</ele><time>2026-04-18T13:17:11.106Z</time></trkpt><trkpt lat="45.2070278" lon="11.0077282"><ele>20.333333333333336</ele><time>2026-04-18T13:17:12.108Z</time></trkpt><trkpt lat="45.2068149" lon="11.0077986"><ele>20.0</ele><time>2026-04-18T13:17:13.109Z</time></trkpt><trkpt lat="45.2066119" lon="11.0078804"><ele>20.0</ele><time>2026-04-18T13:17:14.113Z</time></trkpt><trkpt lat="45.2064023" lon="11.0079503"><ele>20.0</ele><time>2026-04-18T13:17:15.108Z</time></trkpt><trkpt lat="45.2061887" lon="11.0080245"><ele>20.0</ele><time>2026-04-18T13:17:16.107Z</time></trkpt><trkpt lat="45.2059743" lon="11.008107"><ele>20.0</ele><time>2026-04-18T13:17:17.112Z</time></trkpt><trkpt lat="45.2057632" lon="11.0082083"><ele>20.0</ele><time>2026-04-18T13:17:18.106Z</time></trkpt><trkpt lat="45.205554" lon="11.0083198"><ele>20.0</ele><time>2026-04-18T13:17:19.103Z</time></trkpt><trkpt lat="45.2053631" lon="11.008458"><ele>20.0</ele><time>2026-04-18T13:17:20.108Z</time></trkpt><trkpt lat="45.2051665" lon="11.0086015"><ele>20.0</ele><time>2026-04-18T13:17:21.107Z</time></trkpt><trkpt lat="45.2049818" lon="11.0087291"><ele>20.0</ele><time>2026-04-18T13:17:22.107Z</time></trkpt><trkpt lat="45.2048109" lon="11.0088245"><ele>20.0</ele><time>2026-04-18T13:17:23.112Z</time></trkpt><trkpt lat="45.2046443" lon="11.0088945"><ele>20.0</ele><time>2026-04-18T13:17:24.107Z</time></trkpt><trkpt lat="45.204476" lon="11.0089294"><ele>20.0</ele><time>2026-04-18T13:17:25.101Z</time></trkpt><trkpt lat="45.2043015" lon="11.0089353"><ele>20.0</ele><time>2026-04-18T13:17:26.101Z</time></trkpt><trkpt lat="45.2041084" lon="11.0089132"><ele>20.0</ele><time>2026-04-18T13:17:27.097Z</time></trkpt><trkpt lat="45.2039203" lon="11.0088689"><ele>20.0</ele><time>2026-04-18T13:17:28.104Z</time></trkpt><trkpt lat="45.203723" lon="11.008824"><ele>20.0</ele><time>2026-04-18T13:17:29.116Z</time></trkpt><trkpt lat="45.2034998" lon="11.0087677"><ele>20.0</ele><time>2026-04-18T13:17:30.108Z</time></trkpt><trkpt lat="45.2032744" lon="11.0087119"><ele>20.0</ele><time>2026-04-18T13:17:31.102Z</time></trkpt><trkpt lat="45.2030588" lon="11.0086511"><ele>20.0</ele><time>2026-04-18T13:17:32.1Z</time></trkpt><trkpt lat="45.2028418" lon="11.0086086"><ele>20.0</ele><time>2026-04-18T13:17:33.098Z</time></trkpt><trkpt lat="45.2026415" lon="11.008561"><ele>20.0</ele><time>2026-04-18T13:17:34.103Z</time></trkpt><trkpt lat="45.2024458" lon="11.0085192"><ele>20.0</ele><time>2026-04-18T13:17:35.099Z</time></trkpt><trkpt lat="45.2022536" lon="11.0084801"><ele>20.0</ele><time>2026-04-18T13:17:36.1Z</time></trkpt><trkpt lat="45.2020972" lon="11.0084465"><ele>20.0</ele><time>2026-04-18T13:17:37.091Z</time></trkpt><trkpt lat="45.2019541" lon="11.0084272"><ele>20.0</ele><time>2026-04-18T13:17:38.098Z</time></trkpt><trkpt lat="45.2018135" lon="11.0083895"><ele>20.0</ele><time>2026-04-18T13:17:39.105Z</time></trkpt><trkpt lat="45.2016515" lon="11.0083474"><ele>19.666666666666668</ele><time>2026-04-18T13:17:40.1Z</time></trkpt><trkpt lat="45.2014912" lon="11.0083172"><ele>19.333333333333332</ele><time>2026-04-18T13:17:41.098Z</time></trkpt><trkpt lat="45.2013146" lon="11.0083068"><ele>19.0</ele><time>2026-04-18T13:17:42.1Z</time></trkpt><trkpt lat="45.2011377" lon="11.0083143"><ele>19.333333333333332</ele><time>2026-04-18T13:17:43.106Z</time></trkpt><trkpt lat="45.2009591" lon="11.0083314"><ele>19.666666666666668</ele><time>2026-04-18T13:17:44.107Z</time></trkpt><trkpt lat="45.2007624" lon="11.0083474"><ele>20.0</ele><time>2026-04-18T13:17:45.109Z</time></trkpt><trkpt lat="45.2005585" lon="11.0083531"><ele>20.0</ele><time>2026-04-18T13:17:46.108Z</time></trkpt><trkpt lat="45.2003487" lon="11.008363"><ele>20.0</ele><time>2026-04-18T13:17:47.111Z</time></trkpt><trkpt lat="45.2001681" lon="11.0083536"><ele>20.0</ele><time>2026-04-18T13:17:48.099Z</time></trkpt><trkpt lat="45.1999997" lon="11.0083638"><ele>20.0</ele><time>2026-04-18T13:17:49.107Z</time></trkpt><trkpt lat="45.1998584" lon="11.0083629"><ele>20.0</ele><time>2026-04-18T13:17:50.105Z</time></trkpt><trkpt lat="45.1997456" lon="11.0083776"><ele>20.0</ele><time>2026-04-18T13:17:51.101Z</time></trkpt><trkpt lat="45.1996459" lon="11.0083931"><ele>20.0</ele><time>2026-04-18T13:17:52.101Z</time></trkpt><trkpt lat="45.1995583" lon="11.0084255"><ele>20.0</ele><time>2026-04-18T13:17:53.101Z</time></trkpt><trkpt lat="45.1994804" lon="11.0084725"><ele>20.0</ele><time>2026-04-18T13:17:54.102Z</time></trkpt><trkpt lat="45.1994129" lon="11.008524"><ele>20.0</ele><time>2026-04-18T13:17:55.111Z</time></trkpt><trkpt lat="45.1993578" lon="11.0085816"><ele>20.0</ele><time>2026-04-18T13:17:56.101Z</time></trkpt><trkpt lat="45.1993137" lon="11.0086518"><ele>20.0</ele><time>2026-04-18T13:17:57.102Z</time></trkpt><trkpt lat="45.1992812" lon="11.0088096"><ele>20.0</ele><time>2026-04-18T13:17:59.107Z</time></trkpt><trkpt lat="45.1992943" lon="11.0089726"><ele>20.0</ele><time>2026-04-18T13:18:01.11Z</time></trkpt><trkpt lat="45.199311" lon="11.0090618"><ele>20.0</ele><time>2026-04-18T13:18:02.104Z</time></trkpt><trkpt lat="45.1993357" lon="11.0091555"><ele>20.0</ele><time>2026-04-18T13:18:03.103Z</time></trkpt><trkpt lat="45.1993589" lon="11.0092501"><ele>20.0</ele><time>2026-04-18T13:18:04.101Z</time></trkpt><trkpt lat="45.1993866" lon="11.00936"><ele>20.0</ele><time>2026-04-18T13:18:05.1Z</time></trkpt><trkpt lat="45.1994119" lon="11.0094891"><ele>20.0</ele><time>2026-04-18T13:18:06.1Z</time></trkpt><trkpt lat="45.1994424" lon="11.009644"><ele>20.0</ele><time>2026-04-18T13:18:07.112Z</time></trkpt><trkpt lat="45.1994832" lon="11.0098368"><ele>19.666666666666668</ele><time>2026-04-18T13:18:08.1Z</time></trkpt><trkpt lat="45.1995326" lon="11.0100538"><ele>19.333333333333332</ele><time>2026-04-18T13:18:09.097Z</time></trkpt><trkpt lat="45.1995892" lon="11.0103031"><ele>19.0</ele><time>2026-04-18T13:18:10.108Z</time></trkpt><trkpt lat="45.1996611" lon="11.0105941"><ele>19.666666666666664</ele><time>2026-04-18T13:18:11.102Z</time></trkpt><trkpt lat="45.1997206" lon="11.0108991"><ele>20.333333333333332</ele><time>2026-04-18T13:18:12.11Z</time></trkpt><trkpt lat="45.1997689" lon="11.0111847"><ele>21.0</ele><time>2026-04-18T13:18:13.104Z</time></trkpt><trkpt lat="45.1998132" lon="11.011465"><ele>21.0</ele><time>2026-04-18T13:18:14.106Z</time></trkpt><trkpt lat="45.1998594" lon="11.0117231"><ele>21.0</ele><time>2026-04-18T13:18:15.109Z</time></trkpt><trkpt lat="45.1999011" lon="11.0119859"><ele>21.0</ele><time>2026-04-18T13:18:16.109Z</time></trkpt><trkpt lat="45.199938" lon="11.0122585"><ele>20.666666666666668</ele><time>2026-04-18T13:18:17.113Z</time></trkpt><trkpt lat="45.1999736" lon="11.0125478"><ele>20.333333333333336</ele><time>2026-04-18T13:18:18.106Z</time></trkpt><trkpt lat="45.2000069" lon="11.0128463"><ele>20.0</ele><time>2026-04-18T13:18:19.105Z</time></trkpt><trkpt lat="45.2000413" lon="11.013124"><ele>20.333333333333336</ele><time>2026-04-18T13:18:20.103Z</time></trkpt><trkpt lat="45.2000768" lon="11.0133876"><ele>20.666666666666668</ele><time>2026-04-18T13:18:21.104Z</time></trkpt><trkpt lat="45.2001124" lon="11.0136268"><ele>21.0</ele><time>2026-04-18T13:18:22.096Z</time></trkpt><trkpt lat="45.2001485" lon="11.0138419"><ele>21.0</ele><time>2026-04-18T13:18:23.101Z</time></trkpt><trkpt lat="45.2001819" lon="11.0140536"><ele>21.0</ele><time>2026-04-18T13:18:24.101Z</time></trkpt><trkpt lat="45.2002165" lon="11.0142762"><ele>21.0</ele><time>2026-04-18T13:18:25.099Z</time></trkpt><trkpt lat="45.2002552" lon="11.014505"><ele>21.0</ele><time>2026-04-18T13:18:26.103Z</time></trkpt><trkpt lat="45.2002969" lon="11.0147454"><ele>21.0</ele><time>2026-04-18T13:18:27.102Z</time></trkpt><trkpt lat="45.2003452" lon="11.0150002"><ele>21.0</ele><time>2026-04-18T13:18:28.101Z</time></trkpt><trkpt lat="45.2004015" lon="11.0152756"><ele>21.0</ele><time>2026-04-18T13:18:29.105Z</time></trkpt><trkpt lat="45.2004537" lon="11.0155536"><ele>21.0</ele><time>2026-04-18T13:18:30.107Z</time></trkpt><trkpt lat="45.2005008" lon="11.015842"><ele>21.0</ele><time>2026-04-18T13:18:31.116Z</time></trkpt><trkpt lat="45.2005415" lon="11.0161252"><ele>21.0</ele><time>2026-04-18T13:18:32.104Z</time></trkpt><trkpt lat="45.2005889" lon="11.0164218"><ele>21.0</ele><time>2026-04-18T13:18:33.107Z</time></trkpt><trkpt lat="45.2006486" lon="11.0167388"><ele>21.0</ele><time>2026-04-18T13:18:34.106Z</time></trkpt><trkpt lat="45.2007208" lon="11.0170565"><ele>21.0</ele><time>2026-04-18T13:18:35.111Z</time></trkpt><trkpt lat="45.2007831" lon="11.0173835"><ele>21.0</ele><time>2026-04-18T13:18:36.112Z</time></trkpt><trkpt lat="45.2008411" lon="11.0177026"><ele>21.0</ele><time>2026-04-18T13:18:37.109Z</time></trkpt><trkpt lat="45.2008889" lon="11.0180029"><ele>21.0</ele><time>2026-04-18T13:18:38.111Z</time></trkpt><trkpt lat="45.2009407" lon="11.0182998"><ele>21.0</ele><time>2026-04-18T13:18:39.111Z</time></trkpt><trkpt lat="45.2009838" lon="11.0185943"><ele>20.0</ele><time>2026-04-18T13:18:40.111Z</time></trkpt><trkpt lat="45.2010262" lon="11.018909"><ele>19.0</ele><time>2026-04-18T13:18:41.108Z</time></trkpt><trkpt lat="45.2010579" lon="11.0192283"><ele>19.0</ele><time>2026-04-18T13:18:42.105Z</time></trkpt><trkpt lat="45.201086" lon="11.0195379"><ele>19.0</ele><time>2026-04-18T13:18:43.108Z</time></trkpt><trkpt lat="45.2011152" lon="11.0198269"><ele>19.0</ele><time>2026-04-18T13:18:44.101Z</time></trkpt><trkpt lat="45.2011518" lon="11.0200904"><ele>19.333333333333332</ele><time>2026-04-18T13:18:45.103Z</time></trkpt><trkpt lat="45.2011873" lon="11.0203177"><ele>19.666666666666668</ele><time>2026-04-18T13:18:46.108Z</time></trkpt><trkpt lat="45.2012101" lon="11.020533"><ele>20.0</ele><time>2026-04-18T13:18:47.115Z</time></trkpt><trkpt lat="45.2012123" lon="11.0207371"><ele>20.0</ele><time>2026-04-18T13:18:48.113Z</time></trkpt><trkpt lat="45.2011907" lon="11.0209329"><ele>20.0</ele><time>2026-04-18T13:18:49.111Z</time></trkpt><trkpt lat="45.2011466" lon="11.021129"><ele>20.0</ele><time>2026-04-18T13:18:50.113Z</time></trkpt><trkpt lat="45.201097" lon="11.0213239"><ele>20.0</ele><time>2026-04-18T13:18:51.116Z</time></trkpt><trkpt lat="45.2010674" lon="11.0215199"><ele>20.25</ele><time>2026-04-18T13:18:52.115Z</time></trkpt><trkpt lat="45.2010469" lon="11.0217053"><ele>20.5</ele><time>2026-04-18T13:18:53.117Z</time></trkpt><trkpt lat="45.2010571" lon="11.0218935"><ele>20.75</ele><time>2026-04-18T13:18:54.119Z</time></trkpt><trkpt lat="45.2010754" lon="11.0221009"><ele>21.0</ele><time>2026-04-18T13:18:55.111Z</time></trkpt><trkpt lat="45.2011203" lon="11.0223253"><ele>21.666666666666668</ele><time>2026-04-18T13:18:56.112Z</time></trkpt><trkpt lat="45.2011675" lon="11.022574"><ele>22.333333333333336</ele><time>2026-04-18T13:18:57.103Z</time></trkpt><trkpt lat="45.2012165" lon="11.0228125"><ele>23.0</ele><time>2026-04-18T13:18:58.105Z</time></trkpt><trkpt lat="45.2012558" lon="11.023034"><ele>23.0</ele><time>2026-04-18T13:18:59.103Z</time></trkpt><trkpt lat="45.2012958" lon="11.0232514"><ele>23.0</ele><time>2026-04-18T13:19:00.115Z</time></trkpt><trkpt lat="45.2013428" lon="11.0234869"><ele>23.0</ele><time>2026-04-18T13:19:01.115Z</time></trkpt><trkpt lat="45.2013871" lon="11.023736"><ele>22.666666666666668</ele><time>2026-04-18T13:19:02.123Z</time></trkpt><trkpt lat="45.2014356" lon="11.0239949"><ele>22.333333333333332</ele><time>2026-04-18T13:19:03.109Z</time></trkpt><trkpt lat="45.2014901" lon="11.0242614"><ele>22.0</ele><time>2026-04-18T13:19:04.106Z</time></trkpt><trkpt lat="45.2015449" lon="11.0245493"><ele>21.0</ele><time>2026-04-18T13:19:05.112Z</time></trkpt><trkpt lat="45.2016004" lon="11.024837"><ele>20.0</ele><time>2026-04-18T13:19:06.11Z</time></trkpt><trkpt lat="45.2016479" lon="11.0250957"><ele>19.0</ele><time>2026-04-18T13:19:07.115Z</time></trkpt><trkpt lat="45.2016811" lon="11.0253204"><ele>19.0</ele><time>2026-04-18T13:19:08.104Z</time></trkpt><trkpt lat="45.201718" lon="11.0254877"><ele>19.0</ele><time>2026-04-18T13:19:09.096Z</time></trkpt><trkpt lat="45.2017305" lon="11.0256208"><ele>19.0</ele><time>2026-04-18T13:19:10.101Z</time></trkpt><trkpt lat="45.2017441" lon="11.0257242"><ele>19.0</ele><time>2026-04-18T13:19:11.086Z</time></trkpt><trkpt lat="45.2018143" lon="11.0258568"><ele>19.0</ele><time>2026-04-18T13:19:13.1Z</time></trkpt><trkpt lat="45.201853" lon="11.0259375"><ele>19.0</ele><time>2026-04-18T13:19:14.104Z</time></trkpt><trkpt lat="45.2018951" lon="11.026036"><ele>19.0</ele><time>2026-04-18T13:19:15.096Z</time></trkpt><trkpt lat="45.2019402" lon="11.0261513"><ele>19.0</ele><time>2026-04-18T13:19:16.103Z</time></trkpt><trkpt lat="45.2019939" lon="11.02628"><ele>19.0</ele><time>2026-04-18T13:19:17.102Z</time></trkpt><trkpt lat="45.2020587" lon="11.0264174"><ele>19.0</ele><time>2026-04-18T13:19:18.104Z</time></trkpt><trkpt lat="45.2021294" lon="11.0265603"><ele>19.0</ele><time>2026-04-18T13:19:19.093Z</time></trkpt><trkpt lat="45.2022124" lon="11.0267095"><ele>19.0</ele><time>2026-04-18T13:19:20.094Z</time></trkpt><trkpt lat="45.2023062" lon="11.0268552"><ele>19.0</ele><time>2026-04-18T13:19:21.097Z</time></trkpt><trkpt lat="45.2024056" lon="11.0270039"><ele>19.0</ele><time>2026-04-18T13:19:22.097Z</time></trkpt><trkpt lat="45.2025083" lon="11.0271608"><ele>18.5</ele><time>2026-04-18T13:19:23.105Z</time></trkpt><trkpt lat="45.2026138" lon="11.0273042"><ele>18.0</ele><time>2026-04-18T13:19:24.1Z</time></trkpt><trkpt lat="45.2027134" lon="11.0274527"><ele>17.5</ele><time>2026-04-18T13:19:25.104Z</time></trkpt><trkpt lat="45.2028117" lon="11.0275945"><ele>17.0</ele><time>2026-04-18T13:19:26.096Z</time></trkpt><trkpt lat="45.2029183" lon="11.0277357"><ele>17.0</ele><time>2026-04-18T13:19:27.093Z</time></trkpt><trkpt lat="45.2030218" lon="11.0278897"><ele>17.0</ele><time>2026-04-18T13:19:28.107Z</time></trkpt><trkpt lat="45.2031196" lon="11.0280321"><ele>17.0</ele><time>2026-04-18T13:19:29.104Z</time></trkpt><trkpt lat="45.2032132" lon="11.0281854"><ele>17.0</ele><time>2026-04-18T13:19:30.108Z</time></trkpt><trkpt lat="45.2033059" lon="11.0283397"><ele>16.75</ele><time>2026-04-18T13:19:31.103Z</time></trkpt><trkpt lat="45.2034038" lon="11.0284924"><ele>16.5</ele><time>2026-04-18T13:19:32.098Z</time></trkpt><trkpt lat="45.2034968" lon="11.0286292"><ele>16.25</ele><time>2026-04-18T13:19:33.135Z</time></trkpt><trkpt lat="45.2035863" lon="11.0287556"><ele>16.0</ele><time>2026-04-18T13:19:34.104Z</time></trkpt><trkpt lat="45.2036566" lon="11.0288699"><ele>15.999999999999998</ele><time>2026-04-18T13:19:35.101Z</time></trkpt><trkpt lat="45.2037299" lon="11.0289661"><ele>16.0</ele><time>2026-04-18T13:19:36.101Z</time></trkpt><trkpt lat="45.2037847" lon="11.0290526"><ele>16.0</ele><time>2026-04-18T13:19:37.099Z</time></trkpt><trkpt lat="45.2038387" lon="11.0291266"><ele>16.0</ele><time>2026-04-18T13:19:38.106Z</time></trkpt><trkpt lat="45.2038885" lon="11.0292093"><ele>15.999999999999998</ele><time>2026-04-18T13:19:39.102Z</time></trkpt><trkpt lat="45.2039444" lon="11.0293073"><ele>16.0</ele><time>2026-04-18T13:19:40.106Z</time></trkpt><trkpt lat="45.2040026" lon="11.0294061"><ele>15.8</ele><time>2026-04-18T13:19:41.103Z</time></trkpt><trkpt lat="45.2040697" lon="11.0295105"><ele>15.600000000000001</ele><time>2026-04-18T13:19:42.108Z</time></trkpt><trkpt lat="45.2041444" lon="11.0296243"><ele>15.4</ele><time>2026-04-18T13:19:43.109Z</time></trkpt><trkpt lat="45.2042163" lon="11.0297327"><ele>15.2</ele><time>2026-04-18T13:19:44.107Z</time></trkpt><trkpt lat="45.2042882" lon="11.0298431"><ele>15.0</ele><time>2026-04-18T13:19:45.11Z</time></trkpt><trkpt lat="45.2043623" lon="11.0299585"><ele>15.4</ele><time>2026-04-18T13:19:46.102Z</time></trkpt><trkpt lat="45.2044429" lon="11.0300712"><ele>15.8</ele><time>2026-04-18T13:19:47.107Z</time></trkpt><trkpt lat="45.2045213" lon="11.030187"><ele>16.2</ele><time>2026-04-18T13:19:48.103Z</time></trkpt><trkpt lat="45.2045964" lon="11.0302994"><ele>16.6</ele><time>2026-04-18T13:19:49.109Z</time></trkpt><trkpt lat="45.2046694" lon="11.030411"><ele>17.0</ele><time>2026-04-18T13:19:50.107Z</time></trkpt><trkpt lat="45.2047455" lon="11.0305236"><ele>17.0</ele><time>2026-04-18T13:19:51.11Z</time></trkpt><trkpt lat="45.20482" lon="11.0306428"><ele>17.0</ele><time>2026-04-18T13:19:52.103Z</time></trkpt><trkpt lat="45.2048925" lon="11.0307554"><ele>17.0</ele><time>2026-04-18T13:19:53.104Z</time></trkpt><trkpt lat="45.2049535" lon="11.0308563"><ele>17.0</ele><time>2026-04-18T13:19:54.101Z</time></trkpt><trkpt lat="45.2050153" lon="11.0309439"><ele>17.0</ele><time>2026-04-18T13:19:55.102Z</time></trkpt><trkpt lat="45.2050829" lon="11.0310336"><ele>16.8</ele><time>2026-04-18T13:19:56.093Z</time></trkpt><trkpt lat="45.2051602" lon="11.0311329"><ele>16.6</ele><time>2026-04-18T13:19:57.101Z</time></trkpt><trkpt lat="45.2052384" lon="11.0312333"><ele>16.400000000000002</ele><time>2026-04-18T13:19:58.099Z</time></trkpt><trkpt lat="45.2053116" lon="11.0313451"><ele>16.2</ele><time>2026-04-18T13:19:59.099Z</time></trkpt><trkpt lat="45.2053747" lon="11.0314427"><ele>16.0</ele><time>2026-04-18T13:20:00.105Z</time></trkpt><trkpt lat="45.2054218" lon="11.0315187"><ele>15.999999999999998</ele><time>2026-04-18T13:20:01.097Z</time></trkpt><trkpt lat="45.2054678" lon="11.0315904"><ele>16.0</ele><time>2026-04-18T13:20:03.104Z</time></trkpt><trkpt lat="45.2055353" lon="11.0315378"><ele>16.0</ele><time>2026-04-18T13:20:06.097Z</time></trkpt><trkpt lat="45.205577" lon="11.031462"><ele>16.0</ele><time>2026-04-18T13:20:07.097Z</time></trkpt><trkpt lat="45.2056295" lon="11.0313662"><ele>15.999999999999998</ele><time>2026-04-18T13:20:08.1Z</time></trkpt><trkpt lat="45.2057006" lon="11.0312523"><ele>16.0</ele><time>2026-04-18T13:20:09.095Z</time></trkpt><trkpt lat="45.2057844" lon="11.0311213"><ele>16.666666666666664</ele><time>2026-04-18T13:20:10.092Z</time></trkpt><trkpt lat="45.2058777" lon="11.030973"><ele>17.333333333333332</ele><time>2026-04-18T13:20:11.107Z</time></trkpt><trkpt lat="45.2059885" lon="11.0307905"><ele>18.0</ele><time>2026-04-18T13:20:12.099Z</time></trkpt><trkpt lat="45.2061105" lon="11.0305703"><ele>18.0</ele><time>2026-04-18T13:20:13.097Z</time></trkpt><trkpt lat="45.2062477" lon="11.0303414"><ele>18.0</ele><time>2026-04-18T13:20:14.106Z</time></trkpt><trkpt lat="45.2063874" lon="11.0301326"><ele>18.0</ele><time>2026-04-18T13:20:15.108Z</time></trkpt><trkpt lat="45.2065172" lon="11.029932"><ele>17.666666666666668</ele><time>2026-04-18T13:20:16.106Z</time></trkpt><trkpt lat="45.206636" lon="11.0297272"><ele>17.333333333333336</ele><time>2026-04-18T13:20:17.108Z</time></trkpt><trkpt lat="45.2067569" lon="11.0295383"><ele>17.0</ele><time>2026-04-18T13:20:18.109Z</time></trkpt><trkpt lat="45.2068758" lon="11.0293402"><ele>17.0</ele><time>2026-04-18T13:20:19.107Z</time></trkpt><trkpt lat="45.2069878" lon="11.0291468"><ele>17.0</ele><time>2026-04-18T13:20:20.112Z</time></trkpt><trkpt lat="45.2071061" lon="11.0289542"><ele>17.0</ele><time>2026-04-18T13:20:21.106Z</time></trkpt><trkpt lat="45.2072195" lon="11.0287748"><ele>17.333333333333336</ele><time>2026-04-18T13:20:22.109Z</time></trkpt><trkpt lat="45.2073385" lon="11.0285878"><ele>17.666666666666668</ele><time>2026-04-18T13:20:23.106Z</time></trkpt><trkpt lat="45.2074511" lon="11.0284052"><ele>18.0</ele><time>2026-04-18T13:20:24.105Z</time></trkpt><trkpt lat="45.2075575" lon="11.0282154"><ele>18.0</ele><time>2026-04-18T13:20:25.105Z</time></trkpt><trkpt lat="45.2076683" lon="11.0280287"><ele>18.0</ele><time>2026-04-18T13:20:26.108Z</time></trkpt><trkpt lat="45.2077779" lon="11.0278509"><ele>18.0</ele><time>2026-04-18T13:20:27.1Z</time></trkpt><trkpt lat="45.2078756" lon="11.0276923"><ele>18.0</ele><time>2026-04-18T13:20:28.105Z</time></trkpt><trkpt lat="45.2079648" lon="11.0275406"><ele>18.0</ele><time>2026-04-18T13:20:29.108Z</time></trkpt><trkpt lat="45.2080501" lon="11.0273932"><ele>18.0</ele><time>2026-04-18T13:20:30.115Z</time></trkpt><trkpt lat="45.2081348" lon="11.027244"><ele>18.0</ele><time>2026-04-18T13:20:31.109Z</time></trkpt><trkpt lat="45.2082164" lon="11.0271037"><ele>18.2</ele><time>2026-04-18T13:20:32.096Z</time></trkpt><trkpt lat="45.208285" lon="11.0269689"><ele>18.4</ele><time>2026-04-18T13:20:33.102Z</time></trkpt><trkpt lat="45.2083376" lon="11.0268403"><ele>18.599999999999998</ele><time>2026-04-18T13:20:34.12Z</time></trkpt><trkpt lat="45.2083731" lon="11.0267299"><ele>18.8</ele><time>2026-04-18T13:20:35.104Z</time></trkpt><trkpt lat="45.208418" lon="11.0266303"><ele>19.0</ele><time>2026-04-18T13:20:36.106Z</time></trkpt><trkpt lat="45.2084657" lon="11.0265149"><ele>18.5</ele><time>2026-04-18T13:20:37.107Z</time></trkpt><trkpt lat="45.2085112" lon="11.0263884"><ele>18.0</ele><time>2026-04-18T13:20:38.102Z</time></trkpt><trkpt lat="45.2085625" lon="11.0262381"><ele>17.5</ele><time>2026-04-18T13:20:39.099Z</time></trkpt><trkpt lat="45.2086159" lon="11.0260763"><ele>17.0</ele><time>2026-04-18T13:20:40.101Z</time></trkpt><trkpt lat="45.2086685" lon="11.0259064"><ele>16.75</ele><time>2026-04-18T13:20:41.102Z</time></trkpt><trkpt lat="45.2087182" lon="11.0257206"><ele>16.5</ele><time>2026-04-18T13:20:42.102Z</time></trkpt><trkpt lat="45.2087631" lon="11.0255358"><ele>16.25</ele><time>2026-04-18T13:20:43.105Z</time></trkpt><trkpt lat="45.2087975" lon="11.0253421"><ele>16.0</ele><time>2026-04-18T13:20:44.103Z</time></trkpt><trkpt lat="45.2088213" lon="11.0251515"><ele>16.0</ele><time>2026-04-18T13:20:45.105Z</time></trkpt><trkpt lat="45.2088395" lon="11.0249707"><ele>16.0</ele><time>2026-04-18T13:20:46.096Z</time></trkpt><trkpt lat="45.2088664" lon="11.0247946"><ele>16.0</ele><time>2026-04-18T13:20:47.104Z</time></trkpt><trkpt lat="45.2089119" lon="11.0246128"><ele>16.0</ele><time>2026-04-18T13:20:48.099Z</time></trkpt><trkpt lat="45.2089725" lon="11.0244427"><ele>16.25</ele><time>2026-04-18T13:20:49.092Z</time></trkpt><trkpt lat="45.2090398" lon="11.0242764"><ele>16.5</ele><time>2026-04-18T13:20:50.091Z</time></trkpt><trkpt lat="45.2091156" lon="11.0240971"><ele>16.75</ele><time>2026-04-18T13:20:51.093Z</time></trkpt><trkpt lat="45.2091996" lon="11.023928"><ele>17.0</ele><time>2026-04-18T13:20:52.096Z</time></trkpt><trkpt lat="45.2093" lon="11.0237679"><ele>17.0</ele><time>2026-04-18T13:20:53.092Z</time></trkpt><trkpt lat="45.209416" lon="11.0236289"><ele>17.0</ele><time>2026-04-18T13:20:54.097Z</time></trkpt><trkpt lat="45.209553" lon="11.0234838"><ele>17.0</ele><time>2026-04-18T13:20:55.091Z</time></trkpt><trkpt lat="45.2096909" lon="11.0233251"><ele>17.0</ele><time>2026-04-18T13:20:56.098Z</time></trkpt><trkpt lat="45.2098275" lon="11.0231563"><ele>17.0</ele><time>2026-04-18T13:20:57.096Z</time></trkpt><trkpt lat="45.209971" lon="11.0229682"><ele>17.0</ele><time>2026-04-18T13:20:58.1Z</time></trkpt><trkpt lat="45.2101211" lon="11.0227738"><ele>17.0</ele><time>2026-04-18T13:20:59.106Z</time></trkpt><trkpt lat="45.210266" lon="11.0225914"><ele>17.0</ele><time>2026-04-18T13:21:00.108Z</time></trkpt><trkpt lat="45.2104026" lon="11.0224201"><ele>17.0</ele><time>2026-04-18T13:21:01.104Z</time></trkpt><trkpt lat="45.2105403" lon="11.0222634"><ele>17.25</ele><time>2026-04-18T13:21:02.098Z</time></trkpt><trkpt lat="45.2106596" lon="11.0221161"><ele>17.5</ele><time>2026-04-18T13:21:03.096Z</time></trkpt><trkpt lat="45.2107683" lon="11.0219955"><ele>17.75</ele><time>2026-04-18T13:21:04.099Z</time></trkpt><trkpt lat="45.2108837" lon="11.0218879"><ele>18.0</ele><time>2026-04-18T13:21:05.118Z</time></trkpt><trkpt lat="45.2110023" lon="11.0217907"><ele>18.0</ele><time>2026-04-18T13:21:06.101Z</time></trkpt><trkpt lat="45.2111117" lon="11.0217003"><ele>18.0</ele><time>2026-04-18T13:21:07.106Z</time></trkpt><trkpt lat="45.2112117" lon="11.0216129"><ele>18.0</ele><time>2026-04-18T13:21:08.103Z</time></trkpt><trkpt lat="45.2113118" lon="11.0215189"><ele>18.0</ele><time>2026-04-18T13:21:09.108Z</time></trkpt><trkpt lat="45.2113998" lon="11.0214215"><ele>18.25</ele><time>2026-04-18T13:21:10.101Z</time></trkpt><trkpt lat="45.2114772" lon="11.0213034"><ele>18.5</ele><time>2026-04-18T13:21:11.102Z</time></trkpt><trkpt lat="45.2115475" lon="11.0211651"><ele>18.75</ele><time>2026-04-18T13:21:12.098Z</time></trkpt><trkpt lat="45.2116123" lon="11.0210063"><ele>19.0</ele><time>2026-04-18T13:21:13.101Z</time></trkpt><trkpt lat="45.2116796" lon="11.0208431"><ele>18.25</ele><time>2026-04-18T13:21:14.108Z</time></trkpt><trkpt lat="45.2117545" lon="11.0206983"><ele>17.5</ele><time>2026-04-18T13:21:15.104Z</time></trkpt><trkpt lat="45.211846" lon="11.0205677"><ele>16.75</ele><time>2026-04-18T13:21:16.099Z</time></trkpt><trkpt lat="45.2119483" lon="11.0204328"><ele>16.0</ele><time>2026-04-18T13:21:17.097Z</time></trkpt><trkpt lat="45.2120571" lon="11.0202984"><ele>16.0</ele><time>2026-04-18T13:21:18.102Z</time></trkpt><trkpt lat="45.2121715" lon="11.020171"><ele>16.0</ele><time>2026-04-18T13:21:19.108Z</time></trkpt><trkpt lat="45.2122785" lon="11.0200262"><ele>16.0</ele><time>2026-04-18T13:21:20.103Z</time></trkpt><trkpt lat="45.2123754" lon="11.0199002"><ele>16.0</ele><time>2026-04-18T13:21:21.104Z</time></trkpt><trkpt lat="45.2124509" lon="11.0197862"><ele>15.999999999999998</ele><time>2026-04-18T13:21:22.105Z</time></trkpt><trkpt lat="45.212513" lon="11.019701"><ele>16.0</ele><time>2026-04-18T13:21:23.108Z</time></trkpt><trkpt lat="45.2125668" lon="11.0196472"><ele>16.0</ele><time>2026-04-18T13:21:25.103Z</time></trkpt><trkpt lat="45.2126304" lon="11.0197487"><ele>16.0</ele><time>2026-04-18T13:21:51.1Z</time></trkpt><trkpt lat="45.212675" lon="11.0198347"><ele>15.999999999999998</ele><time>2026-04-18T13:21:52.105Z</time></trkpt><trkpt lat="45.2127115" lon="11.0199144"><ele>16.0</ele><time>2026-04-18T13:21:53.107Z</time></trkpt><trkpt lat="45.2127807" lon="11.0200591"><ele>16.2</ele><time>2026-04-18T13:21:55.104Z</time></trkpt><trkpt lat="45.2128463" lon="11.0202069"><ele>16.400000000000002</ele><time>2026-04-18T13:21:57.101Z</time></trkpt><trkpt lat="45.2128911" lon="11.0202988"><ele>16.6</ele><time>2026-04-18T13:21:58.096Z</time></trkpt><trkpt lat="45.2129436" lon="11.0204051"><ele>16.8</ele><time>2026-04-18T13:21:59.111Z</time></trkpt><trkpt lat="45.2129925" lon="11.0205187"><ele>17.0</ele><time>2026-04-18T13:22:00.11Z</time></trkpt><trkpt lat="45.2130359" lon="11.0206404"><ele>17.0</ele><time>2026-04-18T13:22:01.115Z</time></trkpt><trkpt lat="45.2130836" lon="11.0207749"><ele>17.0</ele><time>2026-04-18T13:22:02.101Z</time></trkpt><trkpt lat="45.2131316" lon="11.0209222"><ele>17.0</ele><time>2026-04-18T13:22:03.103Z</time></trkpt><trkpt lat="45.2131778" lon="11.0210859"><ele>17.0</ele><time>2026-04-18T13:22:04.102Z</time></trkpt><trkpt lat="45.213223" lon="11.0212608"><ele>17.75</ele><time>2026-04-18T13:22:05.107Z</time></trkpt><trkpt lat="45.213265" lon="11.0214378"><ele>18.5</ele><time>2026-04-18T13:22:06.097Z</time></trkpt><trkpt lat="45.2133023" lon="11.0216041"><ele>19.25</ele><time>2026-04-18T13:22:07.117Z</time></trkpt><trkpt lat="45.2133319" lon="11.0217693"><ele>20.0</ele><time>2026-04-18T13:22:08.097Z</time></trkpt><trkpt lat="45.2133631" lon="11.0219123"><ele>20.4</ele><time>2026-04-18T13:22:09.105Z</time></trkpt><trkpt lat="45.2133972" lon="11.0220366"><ele>20.8</ele><time>2026-04-18T13:22:10.093Z</time></trkpt><trkpt lat="45.2134447" lon="11.0221484"><ele>21.200000000000003</ele><time>2026-04-18T13:22:11.094Z</time></trkpt><trkpt lat="45.2135102" lon="11.0222493"><ele>21.6</ele><time>2026-04-18T13:22:12.108Z</time></trkpt><trkpt lat="45.21361" lon="11.0223269"><ele>22.0</ele><time>2026-04-18T13:22:13.105Z</time></trkpt><trkpt lat="45.213736" lon="11.0223864"><ele>22.0</ele><time>2026-04-18T13:22:14.106Z</time></trkpt><trkpt lat="45.2138546" lon="11.0224341"><ele>22.0</ele><time>2026-04-18T13:22:15.103Z</time></trkpt><trkpt lat="45.2139411" lon="11.0224841"><ele>22.0</ele><time>2026-04-18T13:22:16.096Z</time></trkpt><trkpt lat="45.2140109" lon="11.0225428"><ele>22.0</ele><time>2026-04-18T13:22:17.113Z</time></trkpt><trkpt lat="45.2140614" lon="11.0226376"><ele>22.0</ele><time>2026-04-18T13:22:18.108Z</time></trkpt><trkpt lat="45.2141073" lon="11.0227731"><ele>21.8</ele><time>2026-04-18T13:22:19.102Z</time></trkpt><trkpt lat="45.2141491" lon="11.0229144"><ele>21.6</ele><time>2026-04-18T13:22:20.101Z</time></trkpt><trkpt lat="45.2141863" lon="11.0230363"><ele>21.400000000000002</ele><time>2026-04-18T13:22:21.102Z</time></trkpt><trkpt lat="45.2142248" lon="11.0231461"><ele>21.200000000000003</ele><time>2026-04-18T13:22:22.102Z</time></trkpt><trkpt lat="45.2142696" lon="11.0232565"><ele>21.0</ele><time>2026-04-18T13:22:23.101Z</time></trkpt><trkpt lat="45.2143146" lon="11.0233811"><ele>20.5</ele><time>2026-04-18T13:22:24.097Z</time></trkpt><trkpt lat="45.214361" lon="11.0235231"><ele>20.0</ele><time>2026-04-18T13:22:25.099Z</time></trkpt><trkpt lat="45.2144082" lon="11.0236827"><ele>19.5</ele><time>2026-04-18T13:22:26.099Z</time></trkpt><trkpt lat="45.2144518" lon="11.0238411"><ele>19.0</ele><time>2026-04-18T13:22:27.103Z</time></trkpt><trkpt lat="45.2144901" lon="11.0240116"><ele>19.25</ele><time>2026-04-18T13:22:28.104Z</time></trkpt><trkpt lat="45.2145188" lon="11.0241857"><ele>19.5</ele><time>2026-04-18T13:22:29.101Z</time></trkpt><trkpt lat="45.2145502" lon="11.02436"><ele>19.75</ele><time>2026-04-18T13:22:30.109Z</time></trkpt><trkpt lat="45.214578" lon="11.0245165"><ele>20.0</ele><time>2026-04-18T13:22:31.101Z</time></trkpt><trkpt lat="45.2145997" lon="11.0246704"><ele>20.0</ele><time>2026-04-18T13:22:32.103Z</time></trkpt><trkpt lat="45.2146209" lon="11.0248252"><ele>20.0</ele><time>2026-04-18T13:22:33.103Z</time></trkpt><trkpt lat="45.2146384" lon="11.0249721"><ele>20.0</ele><time>2026-04-18T13:22:34.096Z</time></trkpt><trkpt lat="45.2146499" lon="11.0251147"><ele>20.0</ele><time>2026-04-18T13:22:35.1Z</time></trkpt><trkpt lat="45.214662" lon="11.0252589"><ele>20.0</ele><time>2026-04-18T13:22:36.102Z</time></trkpt><trkpt lat="45.214681" lon="11.025396"><ele>20.333333333333336</ele><time>2026-04-18T13:22:37.094Z</time></trkpt><trkpt lat="45.2147055" lon="11.0255241"><ele>20.666666666666668</ele><time>2026-04-18T13:22:38.116Z</time></trkpt><trkpt lat="45.2147385" lon="11.0256471"><ele>21.0</ele><time>2026-04-18T13:22:39.097Z</time></trkpt><trkpt lat="45.2147771" lon="11.0257626"><ele>21.333333333333332</ele><time>2026-04-18T13:22:40.103Z</time></trkpt><trkpt lat="45.214814" lon="11.025857"><ele>21.666666666666664</ele><time>2026-04-18T13:22:41.101Z</time></trkpt><trkpt lat="45.214889" lon="11.0259349"><ele>22.0</ele><time>2026-04-18T13:22:43.105Z</time></trkpt><trkpt lat="45.2149951" lon="11.0258797"><ele>22.0</ele><time>2026-04-18T13:22:45.1Z</time></trkpt><trkpt lat="45.2150808" lon="11.0258099"><ele>22.0</ele><time>2026-04-18T13:22:46.099Z</time></trkpt><trkpt lat="45.2152042" lon="11.025726"><ele>22.0</ele><time>2026-04-18T13:22:47.089Z</time></trkpt><trkpt lat="45.2153359" lon="11.0256472"><ele>22.0</ele><time>2026-04-18T13:22:48.098Z</time></trkpt><trkpt lat="45.2154804" lon="11.0255678"><ele>21.0</ele><time>2026-04-18T13:22:49.091Z</time></trkpt><trkpt lat="45.2156581" lon="11.0254698"><ele>20.0</ele><time>2026-04-18T13:22:50.092Z</time></trkpt><trkpt lat="45.2158366" lon="11.0253589"><ele>19.0</ele><time>2026-04-18T13:22:51.099Z</time></trkpt><trkpt lat="45.2160132" lon="11.0252596"><ele>19.0</ele><time>2026-04-18T13:22:52.1Z</time></trkpt><trkpt lat="45.2161938" lon="11.0251521"><ele>19.0</ele><time>2026-04-18T13:22:53.099Z</time></trkpt><trkpt lat="45.2163762" lon="11.0250447"><ele>19.0</ele><time>2026-04-18T13:22:54.101Z</time></trkpt><trkpt lat="45.2165443" lon="11.0249389"><ele>20.0</ele><time>2026-04-18T13:22:55.104Z</time></trkpt><trkpt lat="45.2167081" lon="11.0248411"><ele>21.0</ele><time>2026-04-18T13:22:56.098Z</time></trkpt><trkpt lat="45.216877" lon="11.0247278"><ele>22.0</ele><time>2026-04-18T13:22:57.102Z</time></trkpt><trkpt lat="45.2170306" lon="11.0246332"><ele>22.0</ele><time>2026-04-18T13:22:58.102Z</time></trkpt><trkpt lat="45.2171756" lon="11.024536"><ele>22.0</ele><time>2026-04-18T13:22:59.1Z</time></trkpt><trkpt lat="45.2172987" lon="11.0244614"><ele>22.0</ele><time>2026-04-18T13:23:00.105Z</time></trkpt><trkpt lat="45.2174113" lon="11.0244071"><ele>22.0</ele><time>2026-04-18T13:23:01.106Z</time></trkpt><trkpt lat="45.2175141" lon="11.0243682"><ele>22.75</ele><time>2026-04-18T13:23:02.097Z</time></trkpt><trkpt lat="45.2175957" lon="11.0243355"><ele>23.5</ele><time>2026-04-18T13:23:03.1Z</time></trkpt><trkpt lat="45.2177026" lon="11.0243552"><ele>24.25</ele><time>2026-04-18T13:23:05.105Z</time></trkpt><trkpt lat="45.2177662" lon="11.0245453"><ele>25.0</ele><time>2026-04-18T13:23:07.102Z</time></trkpt><trkpt lat="45.2178199" lon="11.0246796"><ele>25.000000000000004</ele><time>2026-04-18T13:23:08.099Z</time></trkpt><trkpt lat="45.2178782" lon="11.0248206"><ele>25.0</ele><time>2026-04-18T13:23:09.116Z</time></trkpt><trkpt lat="45.217934" lon="11.0249391"><ele>25.0</ele><time>2026-04-18T13:23:10.1Z</time></trkpt><trkpt lat="45.2179822" lon="11.0250296"><ele>25.0</ele><time>2026-04-18T13:23:11.106Z</time></trkpt><trkpt lat="45.2180263" lon="11.0250961"><ele>25.000000000000004</ele><time>2026-04-18T13:23:12.102Z</time></trkpt><trkpt lat="45.2180726" lon="11.0252004"><ele>25.0</ele><time>2026-04-18T13:23:14.102Z</time></trkpt><trkpt lat="45.218016" lon="11.0253336"><ele>24.25</ele><time>2026-04-18T13:23:17.114Z</time></trkpt><trkpt lat="45.2179264" lon="11.02539"><ele>23.5</ele><time>2026-04-18T13:23:18.092Z</time></trkpt><trkpt lat="45.2178221" lon="11.0254589"><ele>22.75</ele><time>2026-04-18T13:23:19.107Z</time></trkpt><trkpt lat="45.2177023" lon="11.0255491"><ele>22.0</ele><time>2026-04-18T13:23:20.099Z</time></trkpt><trkpt lat="45.2175744" lon="11.0256691"><ele>22.0</ele><time>2026-04-18T13:23:21.1Z</time></trkpt><trkpt lat="45.2174457" lon="11.0257924"><ele>22.0</ele><time>2026-04-18T13:23:22.099Z</time></trkpt><trkpt lat="45.2173113" lon="11.0259151"><ele>22.0</ele><time>2026-04-18T13:23:23.101Z</time></trkpt><trkpt lat="45.217189" lon="11.026027"><ele>21.333333333333332</ele><time>2026-04-18T13:23:24.106Z</time></trkpt><trkpt lat="45.2170624" lon="11.0261446"><ele>20.666666666666668</ele><time>2026-04-18T13:23:25.106Z</time></trkpt><trkpt lat="45.2169304" lon="11.0262701"><ele>20.0</ele><time>2026-04-18T13:23:26.105Z</time></trkpt><trkpt lat="45.2167816" lon="11.0263996"><ele>20.0</ele><time>2026-04-18T13:23:27.098Z</time></trkpt><trkpt lat="45.2166355" lon="11.0265363"><ele>20.0</ele><time>2026-04-18T13:23:28.103Z</time></trkpt><trkpt lat="45.2164977" lon="11.026671"><ele>20.0</ele><time>2026-04-18T13:23:29.104Z</time></trkpt><trkpt lat="45.2163509" lon="11.0268001"><ele>21.0</ele><time>2026-04-18T13:23:30.107Z</time></trkpt><trkpt lat="45.2162059" lon="11.0269191"><ele>22.0</ele><time>2026-04-18T13:23:31.101Z</time></trkpt><trkpt lat="45.2160607" lon="11.0270465"><ele>23.0</ele><time>2026-04-18T13:23:32.108Z</time></trkpt><trkpt lat="45.2159054" lon="11.0271605"><ele>23.0</ele><time>2026-04-18T13:23:33.1Z</time></trkpt><trkpt lat="45.21576" lon="11.027268"><ele>23.0</ele><time>2026-04-18T13:23:34.091Z</time></trkpt><trkpt lat="45.2156133" lon="11.0273745"><ele>23.0</ele><time>2026-04-18T13:23:35.107Z</time></trkpt><trkpt lat="45.2154657" lon="11.0274816"><ele>21.5</ele><time>2026-04-18T13:23:36.097Z</time></trkpt><trkpt lat="45.215318" lon="11.0275924"><ele>20.0</ele><time>2026-04-18T13:23:37.099Z</time></trkpt><trkpt lat="45.2150391" lon="11.027792"><ele>20.0</ele><time>2026-04-18T13:23:39.097Z</time></trkpt><trkpt lat="45.2149164" lon="11.0278992"><ele>20.0</ele><time>2026-04-18T13:23:40.109Z</time></trkpt><trkpt lat="45.214796" lon="11.0280002"><ele>20.0</ele><time>2026-04-18T13:23:41.093Z</time></trkpt><trkpt lat="45.2146708" lon="11.0281043"><ele>20.0</ele><time>2026-04-18T13:23:42.106Z</time></trkpt><trkpt lat="45.2145335" lon="11.0282118"><ele>20.333333333333336</ele><time>2026-04-18T13:23:43.099Z</time></trkpt><trkpt lat="45.2143971" lon="11.0283357"><ele>20.666666666666668</ele><time>2026-04-18T13:23:44.111Z</time></trkpt><trkpt lat="45.2142654" lon="11.0284498"><ele>21.0</ele><time>2026-04-18T13:23:45.105Z</time></trkpt><trkpt lat="45.2141244" lon="11.0285664"><ele>21.0</ele><time>2026-04-18T13:23:46.11Z</time></trkpt><trkpt lat="45.2139708" lon="11.0286854"><ele>21.0</ele><time>2026-04-18T13:23:47.116Z</time></trkpt><trkpt lat="45.2138227" lon="11.028817"><ele>21.0</ele><time>2026-04-18T13:23:48.108Z</time></trkpt><trkpt lat="45.2136642" lon="11.0289558"><ele>21.0</ele><time>2026-04-18T13:23:49.106Z</time></trkpt><trkpt lat="45.2135086" lon="11.0290838"><ele>21.0</ele><time>2026-04-18T13:23:50.101Z</time></trkpt><trkpt lat="45.2133484" lon="11.0292134"><ele>21.0</ele><time>2026-04-18T13:23:51.108Z</time></trkpt><trkpt lat="45.2131816" lon="11.0293458"><ele>21.0</ele><time>2026-04-18T13:23:52.104Z</time></trkpt><trkpt lat="45.2130153" lon="11.0294819"><ele>21.0</ele><time>2026-04-18T13:23:53.107Z</time></trkpt><trkpt lat="45.2128487" lon="11.0296104"><ele>21.0</ele><time>2026-04-18T13:23:54.104Z</time></trkpt><trkpt lat="45.2126885" lon="11.0297489"><ele>21.0</ele><time>2026-04-18T13:23:55.106Z</time></trkpt><trkpt lat="45.2125212" lon="11.0298697"><ele>21.0</ele><time>2026-04-18T13:23:56.107Z</time></trkpt><trkpt lat="45.2123525" lon="11.029985"><ele>21.0</ele><time>2026-04-18T13:23:57.107Z</time></trkpt><trkpt lat="45.2121789" lon="11.0300829"><ele>21.0</ele><time>2026-04-18T13:23:58.109Z</time></trkpt><trkpt lat="45.2120066" lon="11.0301676"><ele>21.0</ele><time>2026-04-18T13:23:59.106Z</time></trkpt><trkpt lat="45.2118324" lon="11.0302482"><ele>21.0</ele><time>2026-04-18T13:24:00.11Z</time></trkpt><trkpt lat="45.2116592" lon="11.030328"><ele>21.0</ele><time>2026-04-18T13:24:01.108Z</time></trkpt><trkpt lat="45.2114892" lon="11.0304179"><ele>21.0</ele><time>2026-04-18T13:24:02.102Z</time></trkpt><trkpt lat="45.2113271" lon="11.0305061"><ele>21.0</ele><time>2026-04-18T13:24:03.103Z</time></trkpt><trkpt lat="45.2111822" lon="11.0305824"><ele>21.0</ele><time>2026-04-18T13:24:04.098Z</time></trkpt><trkpt lat="45.2110515" lon="11.0306597"><ele>21.0</ele><time>2026-04-18T13:24:05.098Z</time></trkpt><trkpt lat="45.210922" lon="11.0307302"><ele>21.0</ele><time>2026-04-18T13:24:06.101Z</time></trkpt><trkpt lat="45.2108154" lon="11.0307862"><ele>21.0</ele><time>2026-04-18T13:24:07.096Z</time></trkpt><trkpt lat="45.2107231" lon="11.0308491"><ele>21.200000000000003</ele><time>2026-04-18T13:24:08.1Z</time></trkpt><trkpt lat="45.2106454" lon="11.030893"><ele>21.400000000000002</ele><time>2026-04-18T13:24:09.102Z</time></trkpt><trkpt lat="45.2105672" lon="11.0308783"><ele>21.6</ele><time>2026-04-18T13:24:11.118Z</time></trkpt><trkpt lat="45.2105392" lon="11.0307088"><ele>21.8</ele><time>2026-04-18T13:24:13.113Z</time></trkpt><trkpt lat="45.2105253" lon="11.0305791"><ele>22.0</ele><time>2026-04-18T13:24:14.108Z</time></trkpt><trkpt lat="45.210502" lon="11.0304237"><ele>22.0</ele><time>2026-04-18T13:24:15.094Z</time></trkpt><trkpt lat="45.2104774" lon="11.0302538"><ele>22.0</ele><time>2026-04-18T13:24:16.101Z</time></trkpt><trkpt lat="45.2104499" lon="11.0300637"><ele>22.0</ele><time>2026-04-18T13:24:17.103Z</time></trkpt><trkpt lat="45.2104197" lon="11.0298614"><ele>22.0</ele><time>2026-04-18T13:24:18.104Z</time></trkpt><trkpt lat="45.2103839" lon="11.029671"><ele>22.0</ele><time>2026-04-18T13:24:19.1Z</time></trkpt><trkpt lat="45.2103552" lon="11.0294998"><ele>22.0</ele><time>2026-04-18T13:24:20.099Z</time></trkpt><trkpt lat="45.2103302" lon="11.029356"><ele>22.0</ele><time>2026-04-18T13:24:21.096Z</time></trkpt><trkpt lat="45.210299" lon="11.0292309"><ele>22.0</ele><time>2026-04-18T13:24:22.101Z</time></trkpt><trkpt lat="45.2102733" lon="11.0290988"><ele>22.0</ele><time>2026-04-18T13:24:23.099Z</time></trkpt><trkpt lat="45.2102418" lon="11.0289511"><ele>21.5</ele><time>2026-04-18T13:24:24.103Z</time></trkpt><trkpt lat="45.2102043" lon="11.0287809"><ele>21.0</ele><time>2026-04-18T13:24:25.095Z</time></trkpt><trkpt lat="45.2101619" lon="11.0286001"><ele>20.5</ele><time>2026-04-18T13:24:26.099Z</time></trkpt><trkpt lat="45.2101048" lon="11.0284047"><ele>20.0</ele><time>2026-04-18T13:24:27.091Z</time></trkpt><trkpt lat="45.2100413" lon="11.0281789"><ele>19.666666666666668</ele><time>2026-04-18T13:24:28.094Z</time></trkpt><trkpt lat="45.2099597" lon="11.0279564"><ele>19.333333333333332</ele><time>2026-04-18T13:24:29.099Z</time></trkpt><trkpt lat="45.2098812" lon="11.0277496"><ele>19.0</ele><time>2026-04-18T13:24:30.09Z</time></trkpt><trkpt lat="45.2098201" lon="11.0275705"><ele>19.4</ele><time>2026-04-18T13:24:31.095Z</time></trkpt><trkpt lat="45.2097678" lon="11.0274171"><ele>19.799999999999997</ele><time>2026-04-18T13:24:32.087Z</time></trkpt><trkpt lat="45.2097237" lon="11.0272921"><ele>20.200000000000003</ele><time>2026-04-18T13:24:33.087Z</time></trkpt><trkpt lat="45.2096866" lon="11.0271724"><ele>20.6</ele><time>2026-04-18T13:24:34.097Z</time></trkpt><trkpt lat="45.2096697" lon="11.0270832"><ele>21.0</ele><time>2026-04-18T13:24:36.092Z</time></trkpt><trkpt lat="45.2095994" lon="11.02713"><ele>21.0</ele><time>2026-04-18T13:24:49.1Z</time></trkpt><trkpt lat="45.2095177" lon="11.0271796"><ele>21.0</ele><time>2026-04-18T13:24:52.1Z</time></trkpt><trkpt lat="45.209428" lon="11.0271731"><ele>21.0</ele><time>2026-04-18T13:24:54.101Z</time></trkpt><trkpt lat="45.2093418" lon="11.0271848"><ele>21.0</ele><time>2026-04-18T13:24:56.095Z</time></trkpt><trkpt lat="45.2092427" lon="11.0272159"><ele>21.0</ele><time>2026-04-18T13:24:58.103Z</time></trkpt><trkpt lat="45.2091454" lon="11.0272662"><ele>21.0</ele><time>2026-04-18T13:25:00.103Z</time></trkpt><trkpt lat="45.2090417" lon="11.0273302"><ele>21.0</ele><time>2026-04-18T13:25:02.099Z</time></trkpt><trkpt lat="45.2089463" lon="11.0273851"><ele>21.0</ele><time>2026-04-18T13:25:04.093Z</time></trkpt><trkpt lat="45.2088709" lon="11.0274098"><ele>21.0</ele><time>2026-04-18T13:25:07.097Z</time></trkpt><trkpt lat="45.2088134" lon="11.0273071"><ele>21.0</ele><time>2026-04-18T13:25:12.096Z</time></trkpt><trkpt lat="45.2087999" lon="11.027176"><ele>20.6</ele><time>2026-04-18T13:25:14.095Z</time></trkpt><trkpt lat="45.2087721" lon="11.0270453"><ele>20.200000000000003</ele><time>2026-04-18T13:25:16.095Z</time></trkpt><trkpt lat="45.2087214" lon="11.0269169"><ele>19.799999999999997</ele><time>2026-04-18T13:25:18.1Z</time></trkpt><trkpt lat="45.2086649" lon="11.0268377"><ele>19.4</ele><time>2026-04-18T13:25:20.103Z</time></trkpt><trkpt lat="45.208581" lon="11.0268303"><ele>19.0</ele><time>2026-04-18T13:25:22.093Z</time></trkpt><trkpt lat="45.2084947" lon="11.0268126"><ele>19.0</ele><time>2026-04-18T13:25:24.093Z</time></trkpt><trkpt lat="45.2083983" lon="11.0267725"><ele>19.0</ele><time>2026-04-18T13:25:26.092Z</time></trkpt><trkpt lat="45.2083107" lon="11.0267627"><ele>19.0</ele><time>2026-04-18T13:25:29.094Z</time></trkpt><trkpt lat="45.208247" lon="11.0268627"><ele>19.0</ele><time>2026-04-18T13:25:31.099Z</time></trkpt><trkpt lat="45.2082069" lon="11.0269717"><ele>19.0</ele><time>2026-04-18T13:25:32.095Z</time></trkpt><trkpt lat="45.2081539" lon="11.0271013"><ele>18.75</ele><time>2026-04-18T13:25:33.093Z</time></trkpt><trkpt lat="45.2080822" lon="11.0272514"><ele>18.5</ele><time>2026-04-18T13:25:34.09Z</time></trkpt><trkpt lat="45.2079997" lon="11.0274126"><ele>18.25</ele><time>2026-04-18T13:25:35.091Z</time></trkpt><trkpt lat="45.2079025" lon="11.0275875"><ele>18.0</ele><time>2026-04-18T13:25:36.093Z</time></trkpt><trkpt lat="45.2077979" lon="11.0277572"><ele>18.0</ele><time>2026-04-18T13:25:37.096Z</time></trkpt><trkpt lat="45.2076822" lon="11.0279413"><ele>18.0</ele><time>2026-04-18T13:25:38.095Z</time></trkpt><trkpt lat="45.2075613" lon="11.0281121"><ele>18.0</ele><time>2026-04-18T13:25:39.099Z</time></trkpt><trkpt lat="45.2074429" lon="11.0283102"><ele>18.0</ele><time>2026-04-18T13:25:40.104Z</time></trkpt><trkpt lat="45.2073279" lon="11.0285056"><ele>18.0</ele><time>2026-04-18T13:25:41.095Z</time></trkpt><trkpt lat="45.2072242" lon="11.0286914"><ele>18.0</ele><time>2026-04-18T13:25:42.097Z</time></trkpt><trkpt lat="45.2071143" lon="11.0288833"><ele>17.666666666666668</ele><time>2026-04-18T13:25:43.099Z</time></trkpt><trkpt lat="45.2070014" lon="11.0290846"><ele>17.333333333333336</ele><time>2026-04-18T13:25:44.108Z</time></trkpt><trkpt lat="45.2068812" lon="11.0292791"><ele>17.0</ele><time>2026-04-18T13:25:45.1Z</time></trkpt><trkpt lat="45.2067656" lon="11.0294719"><ele>17.0</ele><time>2026-04-18T13:25:46.101Z</time></trkpt><trkpt lat="45.2066573" lon="11.0296582"><ele>17.0</ele><time>2026-04-18T13:25:47.108Z</time></trkpt><trkpt lat="45.2065434" lon="11.0298448"><ele>17.0</ele><time>2026-04-18T13:25:48.104Z</time></trkpt><trkpt lat="45.2064351" lon="11.0300215"><ele>17.333333333333336</ele><time>2026-04-18T13:25:49.106Z</time></trkpt><trkpt lat="45.2063305" lon="11.0301919"><ele>17.666666666666668</ele><time>2026-04-18T13:25:50.106Z</time></trkpt><trkpt lat="45.2062275" lon="11.0303597"><ele>18.0</ele><time>2026-04-18T13:25:51.109Z</time></trkpt><trkpt lat="45.2061349" lon="11.0305173"><ele>18.0</ele><time>2026-04-18T13:25:52.102Z</time></trkpt><trkpt lat="45.2060416" lon="11.0306677"><ele>18.0</ele><time>2026-04-18T13:25:53.098Z</time></trkpt><trkpt lat="45.2059625" lon="11.0307975"><ele>18.0</ele><time>2026-04-18T13:25:54.1Z</time></trkpt><trkpt lat="45.2058915" lon="11.0309189"><ele>18.0</ele><time>2026-04-18T13:25:55.104Z</time></trkpt><trkpt lat="45.2058176" lon="11.0310343"><ele>18.2</ele><time>2026-04-18T13:25:56.108Z</time></trkpt><trkpt lat="45.2057344" lon="11.0311454"><ele>18.4</ele><time>2026-04-18T13:25:57.1Z</time></trkpt><trkpt lat="45.2056587" lon="11.0312387"><ele>18.599999999999998</ele><time>2026-04-18T13:25:58.106Z</time></trkpt><trkpt lat="45.2055833" lon="11.0313162"><ele>18.8</ele><time>2026-04-18T13:25:59.102Z</time></trkpt><trkpt lat="45.205504" lon="11.0314006"><ele>19.0</ele><time>2026-04-18T13:26:00.117Z</time></trkpt><trkpt lat="45.2054252" lon="11.0314858"><ele>18.5</ele><time>2026-04-18T13:26:01.108Z</time></trkpt><trkpt lat="45.2053412" lon="11.0315709"><ele>18.0</ele><time>2026-04-18T13:26:02.104Z</time></trkpt><trkpt lat="45.2052513" lon="11.031662"><ele>17.5</ele><time>2026-04-18T13:26:03.105Z</time></trkpt><trkpt lat="45.2051557" lon="11.0317659"><ele>17.0</ele><time>2026-04-18T13:26:04.096Z</time></trkpt><trkpt lat="45.2050498" lon="11.0318809"><ele>17.0</ele><time>2026-04-18T13:26:05.1Z</time></trkpt><trkpt lat="45.2049308" lon="11.0320105"><ele>17.0</ele><time>2026-04-18T13:26:06.094Z</time></trkpt><trkpt lat="45.2048017" lon="11.0321509"><ele>17.0</ele><time>2026-04-18T13:26:07.1Z</time></trkpt><trkpt lat="45.2046537" lon="11.0323016"><ele>18.0</ele><time>2026-04-18T13:26:08.099Z</time></trkpt><trkpt lat="45.2045052" lon="11.0324634"><ele>19.0</ele><time>2026-04-18T13:26:09.096Z</time></trkpt><trkpt lat="45.2043501" lon="11.0326314"><ele>20.0</ele><time>2026-04-18T13:26:10.095Z</time></trkpt><trkpt lat="45.2041975" lon="11.0328033"><ele>21.0</ele><time>2026-04-18T13:26:11.098Z</time></trkpt><trkpt lat="45.204046" lon="11.0329827"><ele>22.0</ele><time>2026-04-18T13:26:12.095Z</time></trkpt><trkpt lat="45.2039038" lon="11.0331548"><ele>23.0</ele><time>2026-04-18T13:26:13.1Z</time></trkpt><trkpt lat="45.203775" lon="11.0332989"><ele>22.75</ele><time>2026-04-18T13:26:14.096Z</time></trkpt><trkpt lat="45.2036563" lon="11.0334361"><ele>22.5</ele><time>2026-04-18T13:26:15.106Z</time></trkpt><trkpt lat="45.2035536" lon="11.0335601"><ele>22.25</ele><time>2026-04-18T13:26:16.096Z</time></trkpt><trkpt lat="45.2034451" lon="11.0336641"><ele>22.0</ele><time>2026-04-18T13:26:17.093Z</time></trkpt><trkpt lat="45.2033478" lon="11.0337583"><ele>22.0</ele><time>2026-04-18T13:26:18.101Z</time></trkpt><trkpt lat="45.2032521" lon="11.0338565"><ele>22.0</ele><time>2026-04-18T13:26:19.099Z</time></trkpt><trkpt lat="45.203158" lon="11.0339615"><ele>22.0</ele><time>2026-04-18T13:26:20.09Z</time></trkpt><trkpt lat="45.2030672" lon="11.0340898"><ele>22.0</ele><time>2026-04-18T13:26:21.093Z</time></trkpt><trkpt lat="45.2029753" lon="11.0342433"><ele>23.0</ele><time>2026-04-18T13:26:22.097Z</time></trkpt><trkpt lat="45.2028819" lon="11.0344"><ele>24.0</ele><time>2026-04-18T13:26:23.094Z</time></trkpt><trkpt lat="45.2027862" lon="11.0345679"><ele>25.0</ele><time>2026-04-18T13:26:24.084Z</time></trkpt><trkpt lat="45.2026993" lon="11.034756"><ele>25.0</ele><time>2026-04-18T13:26:25.092Z</time></trkpt><trkpt lat="45.2026122" lon="11.0349502"><ele>25.0</ele><time>2026-04-18T13:26:26.094Z</time></trkpt><trkpt lat="45.2025246" lon="11.0351581"><ele>25.0</ele><time>2026-04-18T13:26:27.098Z</time></trkpt><trkpt lat="45.2024374" lon="11.0353619"><ele>25.0</ele><time>2026-04-18T13:26:28.108Z</time></trkpt><trkpt lat="45.2023611" lon="11.0355681"><ele>25.0</ele><time>2026-04-18T13:26:29.104Z</time></trkpt><trkpt lat="45.2022849" lon="11.0357811"><ele>25.0</ele><time>2026-04-18T13:26:30.111Z</time></trkpt><trkpt lat="45.2022051" lon="11.0360011"><ele>24.333333333333336</ele><time>2026-04-18T13:26:31.111Z</time></trkpt><trkpt lat="45.2021283" lon="11.0362161"><ele>23.666666666666668</ele><time>2026-04-18T13:26:32.109Z</time></trkpt><trkpt lat="45.2020513" lon="11.0364262"><ele>23.0</ele><time>2026-04-18T13:26:33.105Z</time></trkpt><trkpt lat="45.2019753" lon="11.0366302"><ele>22.666666666666668</ele><time>2026-04-18T13:26:34.104Z</time></trkpt><trkpt lat="45.2019009" lon="11.0368305"><ele>22.333333333333332</ele><time>2026-04-18T13:26:35.099Z</time></trkpt><trkpt lat="45.2018268" lon="11.0370388"><ele>22.0</ele><time>2026-04-18T13:26:36.105Z</time></trkpt><trkpt lat="45.201754" lon="11.0372373"><ele>22.0</ele><time>2026-04-18T13:26:37.106Z</time></trkpt><trkpt lat="45.2016785" lon="11.0374265"><ele>22.0</ele><time>2026-04-18T13:26:38.104Z</time></trkpt><trkpt lat="45.201595" lon="11.0376272"><ele>22.0</ele><time>2026-04-18T13:26:39.114Z</time></trkpt><trkpt lat="45.2015226" lon="11.0378398"><ele>22.0</ele><time>2026-04-18T13:26:40.111Z</time></trkpt><trkpt lat="45.2014532" lon="11.0380722"><ele>22.0</ele><time>2026-04-18T13:26:41.111Z</time></trkpt><trkpt lat="45.2013866" lon="11.0382962"><ele>22.0</ele><time>2026-04-18T13:26:42.113Z</time></trkpt><trkpt lat="45.2013108" lon="11.0385062"><ele>22.0</ele><time>2026-04-18T13:26:43.11Z</time></trkpt><trkpt lat="45.2012409" lon="11.0387209"><ele>22.0</ele><time>2026-04-18T13:26:44.113Z</time></trkpt><trkpt lat="45.2011748" lon="11.0389285"><ele>22.0</ele><time>2026-04-18T13:26:45.104Z</time></trkpt><trkpt lat="45.2011066" lon="11.0391445"><ele>21.333333333333332</ele><time>2026-04-18T13:26:46.121Z</time></trkpt><trkpt lat="45.2010278" lon="11.0393769"><ele>20.666666666666668</ele><time>2026-04-18T13:26:47.112Z</time></trkpt><trkpt lat="45.200961" lon="11.0395971"><ele>20.0</ele><time>2026-04-18T13:26:48.103Z</time></trkpt><trkpt lat="45.2009042" lon="11.0398009"><ele>20.0</ele><time>2026-04-18T13:26:49.103Z</time></trkpt><trkpt lat="45.2008579" lon="11.0399661"><ele>20.0</ele><time>2026-04-18T13:26:50.101Z</time></trkpt><trkpt lat="45.2008101" lon="11.0400965"><ele>20.0</ele><time>2026-04-18T13:26:51.096Z</time></trkpt><trkpt lat="45.2007793" lon="11.040199"><ele>20.0</ele><time>2026-04-18T13:26:52.095Z</time></trkpt><trkpt lat="45.2007591" lon="11.0402844"><ele>20.0</ele><time>2026-04-18T13:26:53.087Z</time></trkpt><trkpt lat="45.200732" lon="11.0403993"><ele>20.0</ele><time>2026-04-18T13:26:56.082Z</time></trkpt><trkpt lat="45.2007008" lon="11.0405067"><ele>20.0</ele><time>2026-04-18T13:27:02.086Z</time></trkpt><trkpt lat="45.2006597" lon="11.040635"><ele>20.0</ele><time>2026-04-18T13:27:04.081Z</time></trkpt><trkpt lat="45.2006229" lon="11.0407292"><ele>20.0</ele><time>2026-04-18T13:27:05.077Z</time></trkpt><trkpt lat="45.2005808" lon="11.0408429"><ele>20.0</ele><time>2026-04-18T13:27:06.087Z</time></trkpt><trkpt lat="45.2005471" lon="11.0409651"><ele>20.0</ele><time>2026-04-18T13:27:07.083Z</time></trkpt><trkpt lat="45.200506" lon="11.0410975"><ele>20.2</ele><time>2026-04-18T13:27:08.084Z</time></trkpt><trkpt lat="45.2004545" lon="11.0412428"><ele>20.4</ele><time>2026-04-18T13:27:09.091Z</time></trkpt><trkpt lat="45.2003967" lon="11.0413801"><ele>20.6</ele><time>2026-04-18T13:27:10.085Z</time></trkpt><trkpt lat="45.2003325" lon="11.0415032"><ele>20.8</ele><time>2026-04-18T13:27:11.092Z</time></trkpt><trkpt lat="45.200266" lon="11.0416103"><ele>21.0</ele><time>2026-04-18T13:27:12.095Z</time></trkpt><trkpt lat="45.2002041" lon="11.0416958"><ele>21.166666666666668</ele><time>2026-04-18T13:27:13.096Z</time></trkpt><trkpt lat="45.2001469" lon="11.0417611"><ele>21.333333333333332</ele><time>2026-04-18T13:27:14.098Z</time></trkpt><trkpt lat="45.2000859" lon="11.0418282"><ele>21.5</ele><time>2026-04-18T13:27:15.094Z</time></trkpt><trkpt lat="45.2000189" lon="11.0418991"><ele>21.666666666666664</ele><time>2026-04-18T13:27:16.099Z</time></trkpt><trkpt lat="45.199937" lon="11.0419743"><ele>21.833333333333332</ele><time>2026-04-18T13:27:17.113Z</time></trkpt><trkpt lat="45.1998454" lon="11.0420671"><ele>22.0</ele><time>2026-04-18T13:27:18.1Z</time></trkpt><trkpt lat="45.1997368" lon="11.0421785"><ele>21.333333333333332</ele><time>2026-04-18T13:27:19.093Z</time></trkpt><trkpt lat="45.1996117" lon="11.0423007"><ele>20.666666666666668</ele><time>2026-04-18T13:27:20.094Z</time></trkpt><trkpt lat="45.1994679" lon="11.042434"><ele>20.0</ele><time>2026-04-18T13:27:21.1Z</time></trkpt><trkpt lat="45.1993029" lon="11.0425643"><ele>19.333333333333336</ele><time>2026-04-18T13:27:22.105Z</time></trkpt><trkpt lat="45.1991396" lon="11.0426967"><ele>18.666666666666668</ele><time>2026-04-18T13:27:23.104Z</time></trkpt><trkpt lat="45.1989825" lon="11.0428232"><ele>18.0</ele><time>2026-04-18T13:27:24.094Z</time></trkpt><trkpt lat="45.1988122" lon="11.042945"><ele>17.666666666666668</ele><time>2026-04-18T13:27:25.084Z</time></trkpt><trkpt lat="45.1986838" lon="11.0430665"><ele>17.333333333333336</ele><time>2026-04-18T13:27:26.089Z</time></trkpt><trkpt lat="45.1985681" lon="11.0432001"><ele>17.0</ele><time>2026-04-18T13:27:27.091Z</time></trkpt><trkpt lat="45.1984345" lon="11.0433136"><ele>17.0</ele><time>2026-04-18T13:27:28.092Z</time></trkpt><trkpt lat="45.19829" lon="11.0434315"><ele>17.0</ele><time>2026-04-18T13:27:29.097Z</time></trkpt><trkpt lat="45.1981439" lon="11.0435588"><ele>17.0</ele><time>2026-04-18T13:27:30.101Z</time></trkpt><trkpt lat="45.1980027" lon="11.0436874"><ele>17.333333333333336</ele><time>2026-04-18T13:27:31.099Z</time></trkpt><trkpt lat="45.1978616" lon="11.0438101"><ele>17.666666666666668</ele><time>2026-04-18T13:27:32.102Z</time></trkpt><trkpt lat="45.1977088" lon="11.0439403"><ele>18.0</ele><time>2026-04-18T13:27:33.099Z</time></trkpt><trkpt lat="45.1975615" lon="11.0440805"><ele>18.0</ele><time>2026-04-18T13:27:34.104Z</time></trkpt><trkpt lat="45.1974108" lon="11.0442187"><ele>18.0</ele><time>2026-04-18T13:27:35.098Z</time></trkpt><trkpt lat="45.1972527" lon="11.0443656"><ele>18.0</ele><time>2026-04-18T13:27:36.103Z</time></trkpt><trkpt lat="45.1970945" lon="11.0444957"><ele>18.0</ele><time>2026-04-18T13:27:37.102Z</time></trkpt><trkpt lat="45.1969455" lon="11.044633"><ele>18.0</ele><time>2026-04-18T13:27:38.1Z</time></trkpt><trkpt lat="45.1967931" lon="11.0447663"><ele>18.0</ele><time>2026-04-18T13:27:39.102Z</time></trkpt><trkpt lat="45.1966389" lon="11.0448998"><ele>18.0</ele><time>2026-04-18T13:27:40.101Z</time></trkpt><trkpt lat="45.1964834" lon="11.0450392"><ele>18.0</ele><time>2026-04-18T13:27:41.106Z</time></trkpt><trkpt lat="45.1963237" lon="11.0451897"><ele>18.0</ele><time>2026-04-18T13:27:42.11Z</time></trkpt><trkpt lat="45.1961615" lon="11.045346"><ele>18.0</ele><time>2026-04-18T13:27:43.11Z</time></trkpt><trkpt lat="45.195999" lon="11.0454946"><ele>18.0</ele><time>2026-04-18T13:27:44.107Z</time></trkpt><trkpt lat="45.1958482" lon="11.0456235"><ele>18.0</ele><time>2026-04-18T13:27:45.091Z</time></trkpt><trkpt lat="45.1957096" lon="11.0457513"><ele>17.666666666666668</ele><time>2026-04-18T13:27:46.101Z</time></trkpt><trkpt lat="45.1955731" lon="11.0458688"><ele>17.333333333333336</ele><time>2026-04-18T13:27:47.102Z</time></trkpt><trkpt lat="45.1954273" lon="11.0459961"><ele>17.0</ele><time>2026-04-18T13:27:48.111Z</time></trkpt><trkpt lat="45.1952806" lon="11.0461381"><ele>17.0</ele><time>2026-04-18T13:27:49.101Z</time></trkpt><trkpt lat="45.1951297" lon="11.0462809"><ele>17.0</ele><time>2026-04-18T13:27:50.1Z</time></trkpt><trkpt lat="45.1949721" lon="11.0464182"><ele>17.0</ele><time>2026-04-18T13:27:51.1Z</time></trkpt><trkpt lat="45.1947963" lon="11.0465617"><ele>16.666666666666668</ele><time>2026-04-18T13:27:52.092Z</time></trkpt><trkpt lat="45.1946258" lon="11.0467251"><ele>16.333333333333332</ele><time>2026-04-18T13:27:53.096Z</time></trkpt><trkpt lat="45.1944555" lon="11.0468832"><ele>16.0</ele><time>2026-04-18T13:27:54.093Z</time></trkpt><trkpt lat="45.1942844" lon="11.047033"><ele>16.0</ele><time>2026-04-18T13:27:55.096Z</time></trkpt><trkpt lat="45.1941111" lon="11.0471703"><ele>16.0</ele><time>2026-04-18T13:27:56.093Z</time></trkpt><trkpt lat="45.1939375" lon="11.047323"><ele>16.0</ele><time>2026-04-18T13:27:57.094Z</time></trkpt><trkpt lat="45.1937621" lon="11.0474687"><ele>16.333333333333332</ele><time>2026-04-18T13:27:58.095Z</time></trkpt><trkpt lat="45.1935962" lon="11.0476032"><ele>16.666666666666668</ele><time>2026-04-18T13:27:59.095Z</time></trkpt><trkpt lat="45.1934387" lon="11.0477331"><ele>17.0</ele><time>2026-04-18T13:28:00.104Z</time></trkpt><trkpt lat="45.1932847" lon="11.0478773"><ele>16.333333333333336</ele><time>2026-04-18T13:28:01.104Z</time></trkpt><trkpt lat="45.1931138" lon="11.0480165"><ele>15.666666666666668</ele><time>2026-04-18T13:28:02.104Z</time></trkpt><trkpt lat="45.1929505" lon="11.0481422"><ele>15.0</ele><time>2026-04-18T13:28:03.095Z</time></trkpt><trkpt lat="45.1927864" lon="11.0482547"><ele>15.333333333333332</ele><time>2026-04-18T13:28:04.105Z</time></trkpt><trkpt lat="45.1926152" lon="11.0483813"><ele>15.666666666666666</ele><time>2026-04-18T13:28:05.101Z</time></trkpt><trkpt lat="45.1924531" lon="11.0484866"><ele>16.0</ele><time>2026-04-18T13:28:06.094Z</time></trkpt><trkpt lat="45.1923234" lon="11.0485847"><ele>16.0</ele><time>2026-04-18T13:28:07.102Z</time></trkpt><trkpt lat="45.1921948" lon="11.0487003"><ele>16.0</ele><time>2026-04-18T13:28:08.101Z</time></trkpt><trkpt lat="45.1920602" lon="11.0488019"><ele>16.0</ele><time>2026-04-18T13:28:09.099Z</time></trkpt><trkpt lat="45.1919417" lon="11.0488966"><ele>16.0</ele><time>2026-04-18T13:28:10.1Z</time></trkpt><trkpt lat="45.1918363" lon="11.0489793"><ele>16.0</ele><time>2026-04-18T13:28:11.096Z</time></trkpt><trkpt lat="45.1917405" lon="11.0490541"><ele>16.0</ele><time>2026-04-18T13:28:12.095Z</time></trkpt><trkpt lat="45.1916597" lon="11.0491287"><ele>16.0</ele><time>2026-04-18T13:28:13.096Z</time></trkpt><trkpt lat="45.1915851" lon="11.0492075"><ele>16.0</ele><time>2026-04-18T13:28:14.099Z</time></trkpt><trkpt lat="45.1915157" lon="11.0492866"><ele>16.0</ele><time>2026-04-18T13:28:15.096Z</time></trkpt><trkpt lat="45.1914421" lon="11.0493671"><ele>16.400000000000002</ele><time>2026-04-18T13:28:16.088Z</time></trkpt><trkpt lat="45.1913668" lon="11.0494453"><ele>16.8</ele><time>2026-04-18T13:28:17.096Z</time></trkpt><trkpt lat="45.1912866" lon="11.0495207"><ele>17.200000000000003</ele><time>2026-04-18T13:28:18.095Z</time></trkpt><trkpt lat="45.1912039" lon="11.0495999"><ele>17.6</ele><time>2026-04-18T13:28:19.113Z</time></trkpt><trkpt lat="45.1911175" lon="11.0497007"><ele>18.0</ele><time>2026-04-18T13:28:20.093Z</time></trkpt><trkpt lat="45.1910326" lon="11.0498205"><ele>18.25</ele><time>2026-04-18T13:28:21.082Z</time></trkpt><trkpt lat="45.1909458" lon="11.0499602"><ele>18.5</ele><time>2026-04-18T13:28:22.094Z</time></trkpt><trkpt lat="45.1908562" lon="11.0501106"><ele>18.75</ele><time>2026-04-18T13:28:23.091Z</time></trkpt><trkpt lat="45.1907583" lon="11.0502636"><ele>19.0</ele><time>2026-04-18T13:28:24.096Z</time></trkpt><trkpt lat="45.1906448" lon="11.0504275"><ele>19.0</ele><time>2026-04-18T13:28:25.08Z</time></trkpt><trkpt lat="45.1905214" lon="11.0506014"><ele>19.0</ele><time>2026-04-18T13:28:26.09Z</time></trkpt><trkpt lat="45.1903584" lon="11.0507963"><ele>19.0</ele><time>2026-04-18T13:28:27.088Z</time></trkpt><trkpt lat="45.1901972" lon="11.0510198"><ele>19.0</ele><time>2026-04-18T13:28:28.085Z</time></trkpt><trkpt lat="45.19003" lon="11.0512556"><ele>19.0</ele><time>2026-04-18T13:28:29.09Z</time></trkpt><trkpt lat="45.1898534" lon="11.0514869"><ele>19.5</ele><time>2026-04-18T13:28:30.091Z</time></trkpt><trkpt lat="45.1896761" lon="11.0517293"><ele>20.0</ele><time>2026-04-18T13:28:31.092Z</time></trkpt><trkpt lat="45.1895021" lon="11.0519724"><ele>20.0</ele><time>2026-04-18T13:28:32.09Z</time></trkpt><trkpt lat="45.1893371" lon="11.0522063"><ele>20.0</ele><time>2026-04-18T13:28:33.087Z</time></trkpt><trkpt lat="45.1891744" lon="11.0524328"><ele>19.666666666666668</ele><time>2026-04-18T13:28:34.087Z</time></trkpt><trkpt lat="45.18901" lon="11.0526523"><ele>19.333333333333332</ele><time>2026-04-18T13:28:35.085Z</time></trkpt><trkpt lat="45.1888667" lon="11.0528536"><ele>19.0</ele><time>2026-04-18T13:28:36.084Z</time></trkpt><trkpt lat="45.188736" lon="11.0530273"><ele>19.0</ele><time>2026-04-18T13:28:37.089Z</time></trkpt><trkpt lat="45.1886104" lon="11.053191"><ele>19.0</ele><time>2026-04-18T13:28:38.09Z</time></trkpt><trkpt lat="45.1884842" lon="11.0533569"><ele>19.0</ele><time>2026-04-18T13:28:39.092Z</time></trkpt><trkpt lat="45.1883613" lon="11.0535386"><ele>19.0</ele><time>2026-04-18T13:28:40.088Z</time></trkpt><trkpt lat="45.1882544" lon="11.053703"><ele>19.0</ele><time>2026-04-18T13:28:41.088Z</time></trkpt><trkpt lat="45.1881514" lon="11.0538444"><ele>19.0</ele><time>2026-04-18T13:28:42.092Z</time></trkpt><trkpt lat="45.1880623" lon="11.0539698"><ele>19.0</ele><time>2026-04-18T13:28:43.084Z</time></trkpt><trkpt lat="45.1879849" lon="11.054077"><ele>18.5</ele><time>2026-04-18T13:28:44.091Z</time></trkpt><trkpt lat="45.1879072" lon="11.0541801"><ele>18.0</ele><time>2026-04-18T13:28:45.086Z</time></trkpt><trkpt lat="45.1878437" lon="11.0542548"><ele>17.5</ele><time>2026-04-18T13:28:46.088Z</time></trkpt><trkpt lat="45.1877852" lon="11.0542888"><ele>17.0</ele><time>2026-04-18T13:28:47.096Z</time></trkpt><trkpt lat="45.1877174" lon="11.0542858"><ele>16.5</ele><time>2026-04-18T13:28:48.088Z</time></trkpt><trkpt lat="45.1876428" lon="11.0542463"><ele>16.0</ele><time>2026-04-18T13:28:49.081Z</time></trkpt><trkpt lat="45.1875617" lon="11.0541835"><ele>16.0</ele><time>2026-04-18T13:28:50.114Z</time></trkpt><trkpt lat="45.1874803" lon="11.0540527"><ele>16.0</ele><time>2026-04-18T13:28:51.09Z</time></trkpt><trkpt lat="45.1873834" lon="11.0538796"><ele>16.0</ele><time>2026-04-18T13:28:52.09Z</time></trkpt><trkpt lat="45.1872544" lon="11.0536867"><ele>15.333333333333332</ele><time>2026-04-18T13:28:53.08Z</time></trkpt><trkpt lat="45.1871089" lon="11.053474"><ele>14.666666666666668</ele><time>2026-04-18T13:28:54.076Z</time></trkpt><trkpt lat="45.1869622" lon="11.053263"><ele>14.0</ele><time>2026-04-18T13:28:55.084Z</time></trkpt><trkpt lat="45.1868163" lon="11.053065"><ele>14.0</ele><time>2026-04-18T13:28:56.084Z</time></trkpt><trkpt lat="45.1866786" lon="11.0528934"><ele>14.0</ele><time>2026-04-18T13:28:57.086Z</time></trkpt><trkpt lat="45.1865556" lon="11.0527248"><ele>14.0</ele><time>2026-04-18T13:28:58.098Z</time></trkpt><trkpt lat="45.1864228" lon="11.0525675"><ele>14.5</ele><time>2026-04-18T13:28:59.097Z</time></trkpt><trkpt lat="45.1862898" lon="11.0524232"><ele>15.0</ele><time>2026-04-18T13:29:00.102Z</time></trkpt><trkpt lat="45.1861756" lon="11.0522968"><ele>15.5</ele><time>2026-04-18T13:29:01.091Z</time></trkpt><trkpt lat="45.1860783" lon="11.0521683"><ele>16.0</ele><time>2026-04-18T13:29:02.09Z</time></trkpt><trkpt lat="45.1859936" lon="11.0520055"><ele>16.0</ele><time>2026-04-18T13:29:03.087Z</time></trkpt><trkpt lat="45.1859245" lon="11.0518306"><ele>16.0</ele><time>2026-04-18T13:29:04.096Z</time></trkpt><trkpt lat="45.1858834" lon="11.0516599"><ele>16.0</ele><time>2026-04-18T13:29:05.094Z</time></trkpt><trkpt lat="45.1858318" lon="11.0514868"><ele>16.0</ele><time>2026-04-18T13:29:06.094Z</time></trkpt><trkpt lat="45.1857652" lon="11.0513094"><ele>16.0</ele><time>2026-04-18T13:29:07.096Z</time></trkpt><trkpt lat="45.1856848" lon="11.0511464"><ele>16.0</ele><time>2026-04-18T13:29:08.09Z</time></trkpt><trkpt lat="45.1856015" lon="11.0510026"><ele>16.0</ele><time>2026-04-18T13:29:09.081Z</time></trkpt><trkpt lat="45.1855232" lon="11.0508777"><ele>16.0</ele><time>2026-04-18T13:29:10.082Z</time></trkpt><trkpt lat="45.185431" lon="11.0507598"><ele>16.0</ele><time>2026-04-18T13:29:11.081Z</time></trkpt><trkpt lat="45.1853299" lon="11.0506509"><ele>16.0</ele><time>2026-04-18T13:29:12.087Z</time></trkpt><trkpt lat="45.1852114" lon="11.0505746"><ele>16.0</ele><time>2026-04-18T13:29:13.085Z</time></trkpt><trkpt lat="45.1850825" lon="11.0505034"><ele>16.0</ele><time>2026-04-18T13:29:14.084Z</time></trkpt><trkpt lat="45.1849734" lon="11.0504514"><ele>16.0</ele><time>2026-04-18T13:29:15.084Z</time></trkpt><trkpt lat="45.1848872" lon="11.0503836"><ele>16.0</ele><time>2026-04-18T13:29:16.094Z</time></trkpt><trkpt lat="45.1848315" lon="11.0502758"><ele>16.0</ele><time>2026-04-18T13:29:17.098Z</time></trkpt><trkpt lat="45.1848172" lon="11.0501136"><ele>16.0</ele><time>2026-04-18T13:29:18.095Z</time></trkpt><trkpt lat="45.1848388" lon="11.0499296"><ele>16.0</ele><time>2026-04-18T13:29:19.091Z</time></trkpt><trkpt lat="45.1848817" lon="11.0497674"><ele>16.6</ele><time>2026-04-18T13:29:20.101Z</time></trkpt><trkpt lat="45.1849071" lon="11.0496232"><ele>17.200000000000003</ele><time>2026-04-18T13:29:21.083Z</time></trkpt><trkpt lat="45.1849062" lon="11.0494775"><ele>17.799999999999997</ele><time>2026-04-18T13:29:22.088Z</time></trkpt><trkpt lat="45.1848683" lon="11.049326"><ele>18.4</ele><time>2026-04-18T13:29:23.092Z</time></trkpt><trkpt lat="45.1847997" lon="11.0491732"><ele>19.0</ele><time>2026-04-18T13:29:24.085Z</time></trkpt><trkpt lat="45.1847082" lon="11.0490031"><ele>19.0</ele><time>2026-04-18T13:29:25.079Z</time></trkpt><trkpt lat="45.184608" lon="11.0488243"><ele>19.0</ele><time>2026-04-18T13:29:26.092Z</time></trkpt><trkpt lat="45.184506" lon="11.0486374"><ele>19.0</ele><time>2026-04-18T13:29:27.093Z</time></trkpt><trkpt lat="45.1844176" lon="11.0484684"><ele>19.0</ele><time>2026-04-18T13:29:28.092Z</time></trkpt><trkpt lat="45.1843355" lon="11.048319"><ele>19.0</ele><time>2026-04-18T13:29:29.09Z</time></trkpt><trkpt lat="45.1842758" lon="11.0481855"><ele>19.0</ele><time>2026-04-18T13:29:30.1Z</time></trkpt><trkpt lat="45.1842385" lon="11.0480537"><ele>19.0</ele><time>2026-04-18T13:29:31.094Z</time></trkpt><trkpt lat="45.1842359" lon="11.0479132"><ele>19.0</ele><time>2026-04-18T13:29:32.094Z</time></trkpt><trkpt lat="45.1842541" lon="11.0477839"><ele>18.833333333333332</ele><time>2026-04-18T13:29:33.092Z</time></trkpt><trkpt lat="45.1842728" lon="11.0476839"><ele>18.666666666666664</ele><time>2026-04-18T13:29:34.096Z</time></trkpt><trkpt lat="45.1842909" lon="11.0475745"><ele>18.5</ele><time>2026-04-18T13:29:36.103Z</time></trkpt><trkpt lat="45.1842068" lon="11.0475686"><ele>18.333333333333332</ele><time>2026-04-18T13:29:40.106Z</time></trkpt><trkpt lat="45.1841501" lon="11.0476449"><ele>18.166666666666668</ele><time>2026-04-18T13:29:41.107Z</time></trkpt><trkpt lat="45.1840711" lon="11.0477482"><ele>18.0</ele><time>2026-04-18T13:29:42.097Z</time></trkpt><trkpt lat="45.183846" lon="11.0479675"><ele>17.333333333333332</ele><time>2026-04-18T13:29:44.088Z</time></trkpt><trkpt lat="45.1837238" lon="11.0480994"><ele>16.666666666666664</ele><time>2026-04-18T13:29:45.091Z</time></trkpt><trkpt lat="45.183591" lon="11.0482571"><ele>16.0</ele><time>2026-04-18T13:29:46.095Z</time></trkpt><trkpt lat="45.1834587" lon="11.0484151"><ele>16.0</ele><time>2026-04-18T13:29:47.095Z</time></trkpt><trkpt lat="45.1833254" lon="11.0485611"><ele>16.0</ele><time>2026-04-18T13:29:48.102Z</time></trkpt><trkpt lat="45.1831889" lon="11.0487054"><ele>16.0</ele><time>2026-04-18T13:29:49.106Z</time></trkpt><trkpt lat="45.1830366" lon="11.0488363"><ele>16.666666666666664</ele><time>2026-04-18T13:29:50.101Z</time></trkpt><trkpt lat="45.1828774" lon="11.0489554"><ele>17.333333333333332</ele><time>2026-04-18T13:29:51.107Z</time></trkpt><trkpt lat="45.1827146" lon="11.04908"><ele>18.0</ele><time>2026-04-18T13:29:52.099Z</time></trkpt><trkpt lat="45.1825574" lon="11.0491967"><ele>18.0</ele><time>2026-04-18T13:29:53.101Z</time></trkpt><trkpt lat="45.182398" lon="11.0493048"><ele>18.0</ele><time>2026-04-18T13:29:54.1Z</time></trkpt><trkpt lat="45.1822425" lon="11.0494143"><ele>18.0</ele><time>2026-04-18T13:29:55.098Z</time></trkpt><trkpt lat="45.1820869" lon="11.0495166"><ele>18.0</ele><time>2026-04-18T13:29:56.101Z</time></trkpt><trkpt lat="45.1819344" lon="11.0496236"><ele>18.0</ele><time>2026-04-18T13:29:57.097Z</time></trkpt><trkpt lat="45.1817873" lon="11.049739"><ele>18.0</ele><time>2026-04-18T13:29:58.105Z</time></trkpt><trkpt lat="45.1816428" lon="11.049865"><ele>18.0</ele><time>2026-04-18T13:29:59.107Z</time></trkpt><trkpt lat="45.1815088" lon="11.0499839"><ele>18.0</ele><time>2026-04-18T13:30:00.101Z</time></trkpt><trkpt lat="45.1813907" lon="11.0500755"><ele>18.0</ele><time>2026-04-18T13:30:01.103Z</time></trkpt><trkpt lat="45.1813223" lon="11.0501338"><ele>18.0</ele><time>2026-04-18T13:30:02.09Z</time></trkpt><trkpt lat="45.1812412" lon="11.0501957"><ele>18.0</ele><time>2026-04-18T13:30:04.08Z</time></trkpt><trkpt lat="45.181224" lon="11.0502861"><ele>18.0</ele><time>2026-04-18T13:30:07.089Z</time></trkpt><trkpt lat="45.1813061" lon="11.0503125"><ele>18.0</ele><time>2026-04-18T13:30:09.087Z</time></trkpt><trkpt lat="45.1813558" lon="11.0502376"><ele>18.0</ele><time>2026-04-18T13:30:11.079Z</time></trkpt><trkpt lat="45.1814137" lon="11.0501647"><ele>18.0</ele><time>2026-04-18T13:30:12.087Z</time></trkpt><trkpt lat="45.1814664" lon="11.0500912"><ele>18.0</ele><time>2026-04-18T13:30:13.083Z</time></trkpt><trkpt lat="45.1815062" lon="11.0499622"><ele>17.75</ele><time>2026-04-18T13:30:15.096Z</time></trkpt><trkpt lat="45.1815127" lon="11.0497583"><ele>17.5</ele><time>2026-04-18T13:31:04.084Z</time></trkpt><trkpt lat="45.1814945" lon="11.0496204"><ele>17.25</ele><time>2026-04-18T13:31:05.089Z</time></trkpt><trkpt lat="45.1814686" lon="11.0494682"><ele>17.0</ele><time>2026-04-18T13:31:06.087Z</time></trkpt><trkpt lat="45.1814406" lon="11.0492939"><ele>17.0</ele><time>2026-04-18T13:31:07.093Z</time></trkpt><trkpt lat="45.1814085" lon="11.0491138"><ele>17.0</ele><time>2026-04-18T13:31:08.093Z</time></trkpt><trkpt lat="45.1813753" lon="11.0489341"><ele>17.0</ele><time>2026-04-18T13:31:09.094Z</time></trkpt><trkpt lat="45.1813422" lon="11.0487529"><ele>17.0</ele><time>2026-04-18T13:31:10.084Z</time></trkpt><trkpt lat="45.1813165" lon="11.0485565"><ele>17.0</ele><time>2026-04-18T13:31:11.095Z</time></trkpt><trkpt lat="45.1813137" lon="11.0483319"><ele>17.0</ele><time>2026-04-18T13:31:12.095Z</time></trkpt><trkpt lat="45.1813527" lon="11.0480683"><ele>17.0</ele><time>2026-04-18T13:31:13.09Z</time></trkpt><trkpt lat="45.1814111" lon="11.0478069"><ele>17.0</ele><time>2026-04-18T13:31:14.089Z</time></trkpt><trkpt lat="45.1814506" lon="11.0475437"><ele>17.0</ele><time>2026-04-18T13:31:15.082Z</time></trkpt><trkpt lat="45.1814917" lon="11.0472717"><ele>17.0</ele><time>2026-04-18T13:31:16.086Z</time></trkpt><trkpt lat="45.1815519" lon="11.046997"><ele>17.0</ele><time>2026-04-18T13:31:17.094Z</time></trkpt><trkpt lat="45.1816088" lon="11.0467205"><ele>17.0</ele><time>2026-04-18T13:31:18.087Z</time></trkpt><trkpt lat="45.1816637" lon="11.0464462"><ele>17.0</ele><time>2026-04-18T13:31:19.093Z</time></trkpt><trkpt lat="45.1817204" lon="11.0461744"><ele>17.0</ele><time>2026-04-18T13:31:20.089Z</time></trkpt><trkpt lat="45.181769" lon="11.045927"><ele>17.0</ele><time>2026-04-18T13:31:21.084Z</time></trkpt><trkpt lat="45.1818208" lon="11.0456835"><ele>17.0</ele><time>2026-04-18T13:31:22.092Z</time></trkpt><trkpt lat="45.1818702" lon="11.0454388"><ele>17.0</ele><time>2026-04-18T13:31:23.091Z</time></trkpt><trkpt lat="45.1819093" lon="11.0451662"><ele>17.0</ele><time>2026-04-18T13:31:24.109Z</time></trkpt><trkpt lat="45.181955" lon="11.0449088"><ele>17.0</ele><time>2026-04-18T13:31:25.094Z</time></trkpt><trkpt lat="45.1820135" lon="11.0446787"><ele>17.0</ele><time>2026-04-18T13:31:26.104Z</time></trkpt><trkpt lat="45.1821146" lon="11.0444563"><ele>17.0</ele><time>2026-04-18T13:31:27.091Z</time></trkpt><trkpt lat="45.1822237" lon="11.0442324"><ele>17.0</ele><time>2026-04-18T13:31:28.093Z</time></trkpt><trkpt lat="45.182343" lon="11.0439981"><ele>17.0</ele><time>2026-04-18T13:31:29.105Z</time></trkpt><trkpt lat="45.1824573" lon="11.0437626"><ele>17.0</ele><time>2026-04-18T13:31:30.104Z</time></trkpt><trkpt lat="45.1825627" lon="11.0435293"><ele>17.0</ele><time>2026-04-18T13:31:31.098Z</time></trkpt><trkpt lat="45.1826631" lon="11.0432827"><ele>17.333333333333336</ele><time>2026-04-18T13:31:32.097Z</time></trkpt><trkpt lat="45.1827496" lon="11.0430356"><ele>17.666666666666668</ele><time>2026-04-18T13:31:33.095Z</time></trkpt><trkpt lat="45.1828267" lon="11.0428008"><ele>18.0</ele><time>2026-04-18T13:31:34.1Z</time></trkpt><trkpt lat="45.1829098" lon="11.0425649"><ele>17.666666666666668</ele><time>2026-04-18T13:31:35.094Z</time></trkpt><trkpt lat="45.1829959" lon="11.0423344"><ele>17.333333333333336</ele><time>2026-04-18T13:31:36.096Z</time></trkpt><trkpt lat="45.1830752" lon="11.0421191"><ele>17.0</ele><time>2026-04-18T13:31:37.1Z</time></trkpt><trkpt lat="45.1831397" lon="11.0419223"><ele>17.0</ele><time>2026-04-18T13:31:38.1Z</time></trkpt><trkpt lat="45.1832073" lon="11.0417355"><ele>17.0</ele><time>2026-04-18T13:31:39.101Z</time></trkpt><trkpt lat="45.1832686" lon="11.0415565"><ele>17.0</ele><time>2026-04-18T13:31:40.094Z</time></trkpt><trkpt lat="45.1833274" lon="11.0413688"><ele>17.0</ele><time>2026-04-18T13:31:41.099Z</time></trkpt><trkpt lat="45.1833885" lon="11.041167"><ele>17.0</ele><time>2026-04-18T13:31:42.093Z</time></trkpt><trkpt lat="45.18345" lon="11.0409586"><ele>17.0</ele><time>2026-04-18T13:31:43.095Z</time></trkpt><trkpt lat="45.1834964" lon="11.0407332"><ele>17.0</ele><time>2026-04-18T13:31:44.097Z</time></trkpt><trkpt lat="45.1835326" lon="11.0404998"><ele>17.0</ele><time>2026-04-18T13:31:45.095Z</time></trkpt><trkpt lat="45.1835716" lon="11.0402592"><ele>17.0</ele><time>2026-04-18T13:31:46.092Z</time></trkpt><trkpt lat="45.1836077" lon="11.0400298"><ele>17.0</ele><time>2026-04-18T13:31:47.096Z</time></trkpt><trkpt lat="45.1836459" lon="11.0398087"><ele>17.333333333333336</ele><time>2026-04-18T13:31:48.095Z</time></trkpt><trkpt lat="45.1836908" lon="11.0395817"><ele>17.666666666666668</ele><time>2026-04-18T13:31:49.097Z</time></trkpt><trkpt lat="45.1837497" lon="11.0393569"><ele>18.0</ele><time>2026-04-18T13:31:50.097Z</time></trkpt><trkpt lat="45.1838381" lon="11.039141"><ele>18.0</ele><time>2026-04-18T13:31:51.104Z</time></trkpt><trkpt lat="45.1839385" lon="11.0389234"><ele>18.0</ele><time>2026-04-18T13:31:52.098Z</time></trkpt><trkpt lat="45.1840237" lon="11.0386926"><ele>18.0</ele><time>2026-04-18T13:31:53.097Z</time></trkpt><trkpt lat="45.1841067" lon="11.0384475"><ele>18.0</ele><time>2026-04-18T13:31:54.098Z</time></trkpt><trkpt lat="45.1841867" lon="11.0381866"><ele>18.0</ele><time>2026-04-18T13:31:55.113Z</time></trkpt><trkpt lat="45.1842603" lon="11.0379292"><ele>18.0</ele><time>2026-04-18T13:31:56.1Z</time></trkpt><trkpt lat="45.18433" lon="11.0376956"><ele>18.0</ele><time>2026-04-18T13:31:57.098Z</time></trkpt><trkpt lat="45.1843977" lon="11.037462"><ele>18.0</ele><time>2026-04-18T13:31:58.102Z</time></trkpt><trkpt lat="45.1844666" lon="11.0372421"><ele>18.0</ele><time>2026-04-18T13:31:59.098Z</time></trkpt><trkpt lat="45.1845244" lon="11.0370408"><ele>18.0</ele><time>2026-04-18T13:32:00.103Z</time></trkpt><trkpt lat="45.1845735" lon="11.0368445"><ele>18.0</ele><time>2026-04-18T13:32:01.102Z</time></trkpt><trkpt lat="45.1846091" lon="11.0366544"><ele>18.0</ele><time>2026-04-18T13:32:02.09Z</time></trkpt><trkpt lat="45.184637" lon="11.0364493"><ele>18.0</ele><time>2026-04-18T13:32:03.088Z</time></trkpt><trkpt lat="45.1846527" lon="11.036207"><ele>18.333333333333332</ele><time>2026-04-18T13:32:04.098Z</time></trkpt><trkpt lat="45.1846694" lon="11.0359341"><ele>18.666666666666664</ele><time>2026-04-18T13:32:05.083Z</time></trkpt><trkpt lat="45.1846766" lon="11.0356411"><ele>19.0</ele><time>2026-04-18T13:32:06.092Z</time></trkpt><trkpt lat="45.1846899" lon="11.0353417"><ele>19.0</ele><time>2026-04-18T13:32:07.091Z</time></trkpt><trkpt lat="45.1846979" lon="11.0350238"><ele>19.0</ele><time>2026-04-18T13:32:08.093Z</time></trkpt><trkpt lat="45.1847193" lon="11.0347146"><ele>19.0</ele><time>2026-04-18T13:32:09.093Z</time></trkpt><trkpt lat="45.1847367" lon="11.0344002"><ele>19.0</ele><time>2026-04-18T13:32:10.093Z</time></trkpt><trkpt lat="45.18475" lon="11.0340905"><ele>19.0</ele><time>2026-04-18T13:32:11.087Z</time></trkpt><trkpt lat="45.184766" lon="11.0337964"><ele>19.0</ele><time>2026-04-18T13:32:12.088Z</time></trkpt><trkpt lat="45.1847806" lon="11.0335404"><ele>18.666666666666664</ele><time>2026-04-18T13:32:13.086Z</time></trkpt><trkpt lat="45.1847894" lon="11.0333025"><ele>18.333333333333332</ele><time>2026-04-18T13:32:14.092Z</time></trkpt><trkpt lat="45.1848025" lon="11.0330745"><ele>18.0</ele><time>2026-04-18T13:32:15.087Z</time></trkpt><trkpt lat="45.1848259" lon="11.0328498"><ele>18.0</ele><time>2026-04-18T13:32:16.09Z</time></trkpt><trkpt lat="45.1848382" lon="11.0326052"><ele>18.0</ele><time>2026-04-18T13:32:17.101Z</time></trkpt><trkpt lat="45.184859" lon="11.0323516"><ele>18.0</ele><time>2026-04-18T13:32:18.094Z</time></trkpt><trkpt lat="45.1848861" lon="11.0320816"><ele>18.333333333333332</ele><time>2026-04-18T13:32:19.1Z</time></trkpt><trkpt lat="45.1849016" lon="11.0318127"><ele>18.666666666666664</ele><time>2026-04-18T13:32:20.099Z</time></trkpt><trkpt lat="45.1849129" lon="11.0315716"><ele>19.0</ele><time>2026-04-18T13:32:21.091Z</time></trkpt><trkpt lat="45.1849106" lon="11.0313415"><ele>18.599999999999998</ele><time>2026-04-18T13:32:22.091Z</time></trkpt><trkpt lat="45.1849056" lon="11.0311439"><ele>18.2</ele><time>2026-04-18T13:32:23.093Z</time></trkpt><trkpt lat="45.1849062" lon="11.0309687"><ele>17.799999999999997</ele><time>2026-04-18T13:32:24.087Z</time></trkpt><trkpt lat="45.1849002" lon="11.0308113"><ele>17.4</ele><time>2026-04-18T13:32:25.093Z</time></trkpt><trkpt lat="45.1848966" lon="11.0307195"><ele>17.0</ele><time>2026-04-18T13:32:26.104Z</time></trkpt><trkpt lat="45.1849005" lon="11.0308129"><ele>17.0</ele><time>2026-04-18T13:33:04.091Z</time></trkpt><trkpt lat="45.1848891" lon="11.0309241"><ele>17.0</ele><time>2026-04-18T13:33:12.094Z</time></trkpt><trkpt lat="45.1848786" lon="11.0310412"><ele>17.0</ele><time>2026-04-18T13:33:13.089Z</time></trkpt><trkpt lat="45.1848654" lon="11.0311752"><ele>17.0</ele><time>2026-04-18T13:33:14.09Z</time></trkpt><trkpt lat="45.1848547" lon="11.0313197"><ele>17.0</ele><time>2026-04-18T13:33:15.081Z</time></trkpt><trkpt lat="45.184847" lon="11.0314878"><ele>17.25</ele><time>2026-04-18T13:33:16.086Z</time></trkpt><trkpt lat="45.1848381" lon="11.0316729"><ele>17.5</ele><time>2026-04-18T13:33:17.088Z</time></trkpt><trkpt lat="45.1848332" lon="11.0318667"><ele>17.75</ele><time>2026-04-18T13:33:18.085Z</time></trkpt><trkpt lat="45.1848308" lon="11.0320479"><ele>18.0</ele><time>2026-04-18T13:33:19.086Z</time></trkpt><trkpt lat="45.1848259" lon="11.0322111"><ele>18.0</ele><time>2026-04-18T13:33:20.088Z</time></trkpt><trkpt lat="45.1848256" lon="11.0323552"><ele>18.0</ele><time>2026-04-18T13:33:21.091Z</time></trkpt><trkpt lat="45.1848212" lon="11.0324728"><ele>18.0</ele><time>2026-04-18T13:33:22.089Z</time></trkpt><trkpt lat="45.1848141" lon="11.0325829"><ele>18.0</ele><time>2026-04-18T13:33:23.091Z</time></trkpt><trkpt lat="45.1848019" lon="11.0326804"><ele>18.0</ele><time>2026-04-18T13:33:24.089Z</time></trkpt><trkpt lat="45.1847697" lon="11.0328333"><ele>18.0</ele><time>2026-04-18T13:33:26.097Z</time></trkpt><trkpt lat="45.1848383" lon="11.0327488"><ele>18.0</ele><time>2026-04-18T13:33:34.094Z</time></trkpt><trkpt lat="45.1848518" lon="11.03263"><ele>18.0</ele><time>2026-04-18T13:33:35.095Z</time></trkpt><trkpt lat="45.1848625" lon="11.0324646"><ele>18.0</ele><time>2026-04-18T13:33:36.096Z</time></trkpt><trkpt lat="45.1848783" lon="11.0322604"><ele>18.0</ele><time>2026-04-18T13:33:37.097Z</time></trkpt><trkpt lat="45.1848909" lon="11.0320281"><ele>18.333333333333332</ele><time>2026-04-18T13:33:38.087Z</time></trkpt><trkpt lat="45.184895" lon="11.0317739"><ele>18.666666666666664</ele><time>2026-04-18T13:33:39.085Z</time></trkpt><trkpt lat="45.184899" lon="11.0315221"><ele>19.0</ele><time>2026-04-18T13:33:40.089Z</time></trkpt><trkpt lat="45.1848872" lon="11.0312954"><ele>18.599999999999998</ele><time>2026-04-18T13:33:41.094Z</time></trkpt><trkpt lat="45.184879" lon="11.0311108"><ele>18.2</ele><time>2026-04-18T13:33:42.082Z</time></trkpt><trkpt lat="45.1848773" lon="11.0309685"><ele>17.799999999999997</ele><time>2026-04-18T13:33:43.092Z</time></trkpt><trkpt lat="45.1848695" lon="11.0308641"><ele>17.4</ele><time>2026-04-18T13:33:44.091Z</time></trkpt><trkpt lat="45.1849493" lon="11.0307734"><ele>17.0</ele><time>2026-04-18T13:33:46.09Z</time></trkpt><trkpt lat="45.1850142" lon="11.0307996"><ele>16.8</ele><time>2026-04-18T13:33:48.085Z</time></trkpt><trkpt lat="45.1850979" lon="11.0308071"><ele>16.6</ele><time>2026-04-18T13:33:50.093Z</time></trkpt><trkpt lat="45.1851618" lon="11.0307231"><ele>16.400000000000002</ele><time>2026-04-18T13:33:52.102Z</time></trkpt><trkpt lat="45.1851722" lon="11.0306197"><ele>16.2</ele><time>2026-04-18T13:33:53.095Z</time></trkpt><trkpt lat="45.1851762" lon="11.0304741"><ele>16.0</ele><time>2026-04-18T13:33:54.085Z</time></trkpt><trkpt lat="45.1851789" lon="11.0303104"><ele>16.0</ele><time>2026-04-18T13:33:55.093Z</time></trkpt><trkpt lat="45.1851831" lon="11.0301058"><ele>16.0</ele><time>2026-04-18T13:33:56.082Z</time></trkpt><trkpt lat="45.1851784" lon="11.02991"><ele>16.0</ele><time>2026-04-18T13:33:57.083Z</time></trkpt><trkpt lat="45.1851766" lon="11.0297324"><ele>16.0</ele><time>2026-04-18T13:33:58.081Z</time></trkpt><trkpt lat="45.1851798" lon="11.0295563"><ele>16.25</ele><time>2026-04-18T13:33:59.096Z</time></trkpt><trkpt lat="45.1851875" lon="11.0293763"><ele>16.5</ele><time>2026-04-18T13:34:00.09Z</time></trkpt><trkpt lat="45.1851993" lon="11.0291887"><ele>16.75</ele><time>2026-04-18T13:34:01.095Z</time></trkpt><trkpt lat="45.1852116" lon="11.0289917"><ele>17.0</ele><time>2026-04-18T13:34:02.084Z</time></trkpt><trkpt lat="45.1852249" lon="11.0287932"><ele>17.333333333333336</ele><time>2026-04-18T13:34:03.092Z</time></trkpt><trkpt lat="45.1852364" lon="11.0285917"><ele>17.666666666666668</ele><time>2026-04-18T13:34:04.087Z</time></trkpt><trkpt lat="45.1852467" lon="11.0283708"><ele>18.0</ele><time>2026-04-18T13:34:05.093Z</time></trkpt><trkpt lat="45.1852639" lon="11.0281547"><ele>18.0</ele><time>2026-04-18T13:34:06.093Z</time></trkpt><trkpt lat="45.1852829" lon="11.0279419"><ele>18.0</ele><time>2026-04-18T13:34:07.09Z</time></trkpt><trkpt lat="45.1853" lon="11.0277527"><ele>18.0</ele><time>2026-04-18T13:34:08.091Z</time></trkpt><trkpt lat="45.1853131" lon="11.0275536"><ele>18.0</ele><time>2026-04-18T13:34:09.096Z</time></trkpt><trkpt lat="45.1853303" lon="11.0273625"><ele>18.0</ele><time>2026-04-18T13:34:10.091Z</time></trkpt><trkpt lat="45.1853472" lon="11.0271957"><ele>18.0</ele><time>2026-04-18T13:34:11.092Z</time></trkpt><trkpt lat="45.1853547" lon="11.0270406"><ele>18.0</ele><time>2026-04-18T13:34:12.092Z</time></trkpt><trkpt lat="45.1853648" lon="11.0269262"><ele>18.0</ele><time>2026-04-18T13:34:13.098Z</time></trkpt><trkpt lat="45.1854323" lon="11.0269146"><ele>18.0</ele><time>2026-04-18T13:34:23.092Z</time></trkpt><trkpt lat="45.1855184" lon="11.026905"><ele>18.0</ele><time>2026-04-18T13:34:24.094Z</time></trkpt><trkpt lat="45.1856374" lon="11.0268898"><ele>18.0</ele><time>2026-04-18T13:34:25.085Z</time></trkpt><trkpt lat="45.1857741" lon="11.0268801"><ele>18.0</ele><time>2026-04-18T13:34:26.1Z</time></trkpt><trkpt lat="45.1859235" lon="11.0268722"><ele>18.0</ele><time>2026-04-18T13:34:27.088Z</time></trkpt><trkpt lat="45.1860766" lon="11.0268677"><ele>17.75</ele><time>2026-04-18T13:34:28.089Z</time></trkpt><trkpt lat="45.1862299" lon="11.0268585"><ele>17.5</ele><time>2026-04-18T13:34:29.096Z</time></trkpt><trkpt lat="45.186376" lon="11.0268489"><ele>17.25</ele><time>2026-04-18T13:34:30.105Z</time></trkpt><trkpt lat="45.1865042" lon="11.0268555"><ele>17.0</ele><time>2026-04-18T13:34:31.089Z</time></trkpt><trkpt lat="45.1866211" lon="11.0268556"><ele>16.666666666666668</ele><time>2026-04-18T13:34:32.088Z</time></trkpt><trkpt lat="45.1867256" lon="11.0268479"><ele>16.333333333333336</ele><time>2026-04-18T13:34:33.086Z</time></trkpt><trkpt lat="45.1868174" lon="11.0268384"><ele>16.0</ele><time>2026-04-18T13:34:34.095Z</time></trkpt><trkpt lat="45.1868944" lon="11.0268312"><ele>15.666666666666668</ele><time>2026-04-18T13:34:35.089Z</time></trkpt><trkpt lat="45.186961" lon="11.0268145"><ele>15.333333333333334</ele><time>2026-04-18T13:34:36.098Z</time></trkpt><trkpt lat="45.1870235" lon="11.0267759"><ele>15.0</ele><time>2026-04-18T13:34:37.089Z</time></trkpt><trkpt lat="45.1870809" lon="11.0267247"><ele>15.0</ele><time>2026-04-18T13:34:38.098Z</time></trkpt><trkpt lat="45.1871246" lon="11.0266526"><ele>15.0</ele><time>2026-04-18T13:34:39.094Z</time></trkpt><trkpt lat="45.1871669" lon="11.0265526"><ele>15.0</ele><time>2026-04-18T13:34:40.093Z</time></trkpt><trkpt lat="45.1872147" lon="11.0264293"><ele>15.0</ele><time>2026-04-18T13:34:41.088Z</time></trkpt><trkpt lat="45.1872725" lon="11.0262909"><ele>15.0</ele><time>2026-04-18T13:34:42.095Z</time></trkpt><trkpt lat="45.1873412" lon="11.0261239"><ele>15.5</ele><time>2026-04-18T13:34:43.086Z</time></trkpt><trkpt lat="45.187413" lon="11.025953"><ele>16.0</ele><time>2026-04-18T13:34:44.086Z</time></trkpt><trkpt lat="45.1874801" lon="11.0257902"><ele>16.5</ele><time>2026-04-18T13:34:45.094Z</time></trkpt><trkpt lat="45.1875464" lon="11.0256273"><ele>17.0</ele><time>2026-04-18T13:34:46.091Z</time></trkpt><trkpt lat="45.1876095" lon="11.0254716"><ele>17.0</ele><time>2026-04-18T13:34:47.095Z</time></trkpt><trkpt lat="45.1876664" lon="11.0253169"><ele>17.0</ele><time>2026-04-18T13:34:48.086Z</time></trkpt><trkpt lat="45.1877163" lon="11.0251715"><ele>17.0</ele><time>2026-04-18T13:34:49.091Z</time></trkpt><trkpt lat="45.1877541" lon="11.0250289"><ele>17.0</ele><time>2026-04-18T13:34:50.09Z</time></trkpt><trkpt lat="45.187776" lon="11.0248752"><ele>17.0</ele><time>2026-04-18T13:34:51.085Z</time></trkpt><trkpt lat="45.1877916" lon="11.024702"><ele>17.0</ele><time>2026-04-18T13:34:52.09Z</time></trkpt><trkpt lat="45.1878023" lon="11.0245297"><ele>17.0</ele><time>2026-04-18T13:34:53.101Z</time></trkpt><trkpt lat="45.1878113" lon="11.0243691"><ele>17.0</ele><time>2026-04-18T13:34:54.095Z</time></trkpt><trkpt lat="45.1878232" lon="11.0242163"><ele>17.4</ele><time>2026-04-18T13:34:55.088Z</time></trkpt><trkpt lat="45.1878413" lon="11.0240718"><ele>17.799999999999997</ele><time>2026-04-18T13:34:56.091Z</time></trkpt><trkpt lat="45.1878842" lon="11.0239342"><ele>18.2</ele><time>2026-04-18T13:34:57.092Z</time></trkpt><trkpt lat="45.1879393" lon="11.0238034"><ele>18.599999999999998</ele><time>2026-04-18T13:34:58.093Z</time></trkpt><trkpt lat="45.1879947" lon="11.0236813"><ele>19.0</ele><time>2026-04-18T13:34:59.101Z</time></trkpt><trkpt lat="45.1880363" lon="11.0235558"><ele>19.0</ele><time>2026-04-18T13:35:00.098Z</time></trkpt><trkpt lat="45.1880638" lon="11.0234063"><ele>19.0</ele><time>2026-04-18T13:35:01.105Z</time></trkpt><trkpt lat="45.188081" lon="11.02322"><ele>19.0</ele><time>2026-04-18T13:35:02.1Z</time></trkpt><trkpt lat="45.1880896" lon="11.0230119"><ele>19.0</ele><time>2026-04-18T13:35:03.09Z</time></trkpt><trkpt lat="45.188096" lon="11.0228023"><ele>18.75</ele><time>2026-04-18T13:35:04.094Z</time></trkpt><trkpt lat="45.1881119" lon="11.0226075"><ele>18.5</ele><time>2026-04-18T13:35:05.086Z</time></trkpt><trkpt lat="45.1881322" lon="11.0224246"><ele>18.25</ele><time>2026-04-18T13:35:06.089Z</time></trkpt><trkpt lat="45.1881598" lon="11.022269"><ele>18.0</ele><time>2026-04-18T13:35:07.096Z</time></trkpt><trkpt lat="45.1881911" lon="11.0221173"><ele>18.0</ele><time>2026-04-18T13:35:08.095Z</time></trkpt><trkpt lat="45.1882143" lon="11.0219692"><ele>18.0</ele><time>2026-04-18T13:35:09.094Z</time></trkpt><trkpt lat="45.1882364" lon="11.0218231"><ele>18.0</ele><time>2026-04-18T13:35:10.089Z</time></trkpt><trkpt lat="45.1882362" lon="11.0216811"><ele>18.0</ele><time>2026-04-18T13:35:11.091Z</time></trkpt><trkpt lat="45.1882138" lon="11.0215425"><ele>18.0</ele><time>2026-04-18T13:35:12.089Z</time></trkpt><trkpt lat="45.188167" lon="11.0213938"><ele>18.0</ele><time>2026-04-18T13:35:13.081Z</time></trkpt><trkpt lat="45.1881022" lon="11.0212452"><ele>18.0</ele><time>2026-04-18T13:35:14.085Z</time></trkpt><trkpt lat="45.1880289" lon="11.0210957"><ele>18.0</ele><time>2026-04-18T13:35:15.087Z</time></trkpt><trkpt lat="45.1879532" lon="11.0209345"><ele>18.0</ele><time>2026-04-18T13:35:16.08Z</time></trkpt><trkpt lat="45.1878772" lon="11.0207623"><ele>18.0</ele><time>2026-04-18T13:35:17.085Z</time></trkpt><trkpt lat="45.187805" lon="11.0205718"><ele>18.0</ele><time>2026-04-18T13:35:18.096Z</time></trkpt><trkpt lat="45.1877343" lon="11.020326"><ele>18.0</ele><time>2026-04-18T13:35:19.089Z</time></trkpt><trkpt lat="45.1876707" lon="11.0200696"><ele>18.0</ele><time>2026-04-18T13:35:20.098Z</time></trkpt><trkpt lat="45.1876146" lon="11.0197888"><ele>18.0</ele><time>2026-04-18T13:35:21.084Z</time></trkpt><trkpt lat="45.1875603" lon="11.0195067"><ele>18.0</ele><time>2026-04-18T13:35:22.091Z</time></trkpt><trkpt lat="45.1875151" lon="11.0192091"><ele>18.0</ele><time>2026-04-18T13:35:23.085Z</time></trkpt><trkpt lat="45.1874648" lon="11.0189058"><ele>18.0</ele><time>2026-04-18T13:35:24.086Z</time></trkpt><trkpt lat="45.1874182" lon="11.0186314"><ele>18.0</ele><time>2026-04-18T13:35:25.084Z</time></trkpt><trkpt lat="45.1873683" lon="11.0183618"><ele>18.333333333333332</ele><time>2026-04-18T13:35:26.084Z</time></trkpt><trkpt lat="45.1873191" lon="11.0181144"><ele>18.666666666666664</ele><time>2026-04-18T13:35:27.079Z</time></trkpt><trkpt lat="45.1872761" lon="11.0178846"><ele>19.0</ele><time>2026-04-18T13:35:28.088Z</time></trkpt><trkpt lat="45.1872303" lon="11.0176556"><ele>19.0</ele><time>2026-04-18T13:35:29.085Z</time></trkpt><trkpt lat="45.1871934" lon="11.0174426"><ele>19.0</ele><time>2026-04-18T13:35:30.093Z</time></trkpt><trkpt lat="45.1871511" lon="11.0172674"><ele>19.0</ele><time>2026-04-18T13:35:31.093Z</time></trkpt><trkpt lat="45.1871248" lon="11.0171105"><ele>19.0</ele><time>2026-04-18T13:35:32.099Z</time></trkpt><trkpt lat="45.1870976" lon="11.0169711"><ele>19.0</ele><time>2026-04-18T13:35:33.089Z</time></trkpt><trkpt lat="45.1870806" lon="11.0168413"><ele>19.0</ele><time>2026-04-18T13:35:34.087Z</time></trkpt><trkpt lat="45.1870925" lon="11.0167107"><ele>19.0</ele><time>2026-04-18T13:35:35.097Z</time></trkpt><trkpt lat="45.1871531" lon="11.0165688"><ele>19.0</ele><time>2026-04-18T13:35:36.085Z</time></trkpt><trkpt lat="45.1872461" lon="11.0164359"><ele>19.0</ele><time>2026-04-18T13:35:37.09Z</time></trkpt><trkpt lat="45.1873597" lon="11.0162858"><ele>18.666666666666664</ele><time>2026-04-18T13:35:38.085Z</time></trkpt><trkpt lat="45.1874923" lon="11.0161353"><ele>18.333333333333332</ele><time>2026-04-18T13:35:39.09Z</time></trkpt><trkpt lat="45.1876326" lon="11.0159598"><ele>18.0</ele><time>2026-04-18T13:35:40.092Z</time></trkpt><trkpt lat="45.1877458" lon="11.0157998"><ele>18.0</ele><time>2026-04-18T13:35:41.092Z</time></trkpt><trkpt lat="45.1878419" lon="11.0156381"><ele>18.0</ele><time>2026-04-18T13:35:42.092Z</time></trkpt><trkpt lat="45.1879211" lon="11.0155011"><ele>18.0</ele><time>2026-04-18T13:35:43.094Z</time></trkpt><trkpt lat="45.1879919" lon="11.0153776"><ele>18.0</ele><time>2026-04-18T13:35:44.095Z</time></trkpt><trkpt lat="45.1880503" lon="11.0152712"><ele>18.0</ele><time>2026-04-18T13:35:45.091Z</time></trkpt><trkpt lat="45.1880893" lon="11.0151692"><ele>18.0</ele><time>2026-04-18T13:35:46.092Z</time></trkpt><trkpt lat="45.1881082" lon="11.015081"><ele>18.0</ele><time>2026-04-18T13:35:47.095Z</time></trkpt><trkpt lat="45.1880868" lon="11.0149071"><ele>18.0</ele><time>2026-04-18T13:35:49.096Z</time></trkpt><trkpt lat="45.188076" lon="11.0148103"><ele>18.0</ele><time>2026-04-18T13:35:50.088Z</time></trkpt><trkpt lat="45.1880789" lon="11.0147015"><ele>18.0</ele><time>2026-04-18T13:35:51.097Z</time></trkpt><trkpt lat="45.1881135" lon="11.0145621"><ele>18.2</ele><time>2026-04-18T13:35:52.092Z</time></trkpt><trkpt lat="45.1881798" lon="11.0143906"><ele>18.4</ele><time>2026-04-18T13:35:53.093Z</time></trkpt><trkpt lat="45.1882481" lon="11.0142458"><ele>18.599999999999998</ele><time>2026-04-18T13:35:54.091Z</time></trkpt><trkpt lat="45.1883106" lon="11.0141371"><ele>18.8</ele><time>2026-04-18T13:35:55.089Z</time></trkpt><trkpt lat="45.1883792" lon="11.0140623"><ele>19.0</ele><time>2026-04-18T13:35:56.09Z</time></trkpt><trkpt lat="45.1884592" lon="11.0140129"><ele>19.0</ele><time>2026-04-18T13:35:57.091Z</time></trkpt><trkpt lat="45.188538" lon="11.0139583"><ele>19.0</ele><time>2026-04-18T13:35:58.089Z</time></trkpt><trkpt lat="45.1886014" lon="11.0138922"><ele>19.0</ele><time>2026-04-18T13:35:59.091Z</time></trkpt><trkpt lat="45.1886433" lon="11.0138069"><ele>19.0</ele><time>2026-04-18T13:36:00.091Z</time></trkpt><trkpt lat="45.188664" lon="11.0136991"><ele>19.0</ele><time>2026-04-18T13:36:01.088Z</time></trkpt><trkpt lat="45.1886668" lon="11.0135566"><ele>19.0</ele><time>2026-04-18T13:36:02.077Z</time></trkpt><trkpt lat="45.1886674" lon="11.0133923"><ele>19.0</ele><time>2026-04-18T13:36:03.082Z</time></trkpt><trkpt lat="45.1886783" lon="11.0132046"><ele>19.0</ele><time>2026-04-18T13:36:04.077Z</time></trkpt><trkpt lat="45.1887113" lon="11.0130151"><ele>19.0</ele><time>2026-04-18T13:36:05.072Z</time></trkpt><trkpt lat="45.1887621" lon="11.0128329"><ele>19.0</ele><time>2026-04-18T13:36:06.072Z</time></trkpt><trkpt lat="45.1888204" lon="11.0126883"><ele>19.0</ele><time>2026-04-18T13:36:07.079Z</time></trkpt><trkpt lat="45.1888639" lon="11.0125827"><ele>19.0</ele><time>2026-04-18T13:36:08.079Z</time></trkpt><trkpt lat="45.1888946" lon="11.0124876"><ele>19.0</ele><time>2026-04-18T13:36:10.08Z</time></trkpt><trkpt lat="45.188826" lon="11.0124819"><ele>19.0</ele><time>2026-04-18T13:36:12.085Z</time></trkpt><trkpt lat="45.1887481" lon="11.0126644"><ele>19.0</ele><time>2026-04-18T13:36:14.084Z</time></trkpt><trkpt lat="45.1887093" lon="11.0127916"><ele>19.0</ele><time>2026-04-18T13:36:15.076Z</time></trkpt><trkpt lat="45.188661" lon="11.0129342"><ele>19.0</ele><time>2026-04-18T13:36:16.08Z</time></trkpt><trkpt lat="45.1886075" lon="11.0130968"><ele>19.0</ele><time>2026-04-18T13:36:17.077Z</time></trkpt><trkpt lat="45.1885638" lon="11.0132766"><ele>19.0</ele><time>2026-04-18T13:36:18.077Z</time></trkpt><trkpt lat="45.1885362" lon="11.0134539"><ele>19.0</ele><time>2026-04-18T13:36:19.078Z</time></trkpt><trkpt lat="45.1885298" lon="11.0136306"><ele>19.0</ele><time>2026-04-18T13:36:20.073Z</time></trkpt><trkpt lat="45.1885323" lon="11.0138007"><ele>19.0</ele><time>2026-04-18T13:36:21.077Z</time></trkpt><trkpt lat="45.1885425" lon="11.0139594"><ele>19.0</ele><time>2026-04-18T13:36:22.073Z</time></trkpt><trkpt lat="45.1885563" lon="11.0141012"><ele>19.0</ele><time>2026-04-18T13:36:23.076Z</time></trkpt><trkpt lat="45.1885783" lon="11.0142203"><ele>19.0</ele><time>2026-04-18T13:36:24.077Z</time></trkpt><trkpt lat="45.1886136" lon="11.0143202"><ele>19.0</ele><time>2026-04-18T13:36:25.083Z</time></trkpt><trkpt lat="45.1886665" lon="11.014393"><ele>19.0</ele><time>2026-04-18T13:36:26.088Z</time></trkpt><trkpt lat="45.1887358" lon="11.0144342"><ele>19.0</ele><time>2026-04-18T13:36:27.087Z</time></trkpt><trkpt lat="45.1888288" lon="11.0144503"><ele>19.0</ele><time>2026-04-18T13:36:28.081Z</time></trkpt><trkpt lat="45.1889354" lon="11.014433"><ele>19.0</ele><time>2026-04-18T13:36:29.076Z</time></trkpt><trkpt lat="45.1890576" lon="11.0143912"><ele>19.0</ele><time>2026-04-18T13:36:30.078Z</time></trkpt><trkpt lat="45.1892045" lon="11.0143348"><ele>19.0</ele><time>2026-04-18T13:36:31.073Z</time></trkpt><trkpt lat="45.1893559" lon="11.0142688"><ele>19.0</ele><time>2026-04-18T13:36:32.082Z</time></trkpt><trkpt lat="45.1895101" lon="11.0141926"><ele>19.333333333333332</ele><time>2026-04-18T13:36:33.086Z</time></trkpt><trkpt lat="45.18967" lon="11.0140793"><ele>19.666666666666668</ele><time>2026-04-18T13:36:34.093Z</time></trkpt><trkpt lat="45.1898306" lon="11.0139359"><ele>20.0</ele><time>2026-04-18T13:36:35.084Z</time></trkpt><trkpt lat="45.1899707" lon="11.0137886"><ele>20.0</ele><time>2026-04-18T13:36:36.088Z</time></trkpt><trkpt lat="45.1900944" lon="11.0136507"><ele>20.0</ele><time>2026-04-18T13:36:37.082Z</time></trkpt><trkpt lat="45.1902108" lon="11.013511"><ele>20.0</ele><time>2026-04-18T13:36:38.083Z</time></trkpt><trkpt lat="45.1903274" lon="11.0133558"><ele>20.333333333333336</ele><time>2026-04-18T13:36:39.084Z</time></trkpt><trkpt lat="45.1904473" lon="11.0131817"><ele>20.666666666666668</ele><time>2026-04-18T13:36:40.089Z</time></trkpt><trkpt lat="45.1905675" lon="11.0129871"><ele>21.0</ele><time>2026-04-18T13:36:41.092Z</time></trkpt><trkpt lat="45.1907109" lon="11.0128221"><ele>20.0</ele><time>2026-04-18T13:36:42.087Z</time></trkpt><trkpt lat="45.1908675" lon="11.0126524"><ele>19.0</ele><time>2026-04-18T13:36:43.087Z</time></trkpt><trkpt lat="45.191029" lon="11.0124774"><ele>18.0</ele><time>2026-04-18T13:36:44.092Z</time></trkpt><trkpt lat="45.1911767" lon="11.0123008"><ele>17.666666666666668</ele><time>2026-04-18T13:36:45.091Z</time></trkpt><trkpt lat="45.1913157" lon="11.012126"><ele>17.333333333333336</ele><time>2026-04-18T13:36:46.091Z</time></trkpt><trkpt lat="45.1914486" lon="11.0119695"><ele>17.0</ele><time>2026-04-18T13:36:47.095Z</time></trkpt><trkpt lat="45.1915807" lon="11.01184"><ele>17.5</ele><time>2026-04-18T13:36:48.09Z</time></trkpt><trkpt lat="45.1917094" lon="11.0117317"><ele>18.0</ele><time>2026-04-18T13:36:49.092Z</time></trkpt><trkpt lat="45.1918286" lon="11.011634"><ele>18.5</ele><time>2026-04-18T13:36:50.092Z</time></trkpt><trkpt lat="45.1919413" lon="11.0115466"><ele>19.0</ele><time>2026-04-18T13:36:51.091Z</time></trkpt><trkpt lat="45.1920379" lon="11.0114474"><ele>19.0</ele><time>2026-04-18T13:36:52.092Z</time></trkpt><trkpt lat="45.1921394" lon="11.0113268"><ele>19.0</ele><time>2026-04-18T13:36:53.093Z</time></trkpt><trkpt lat="45.1922684" lon="11.0112169"><ele>19.0</ele><time>2026-04-18T13:36:54.089Z</time></trkpt><trkpt lat="45.1924199" lon="11.0111276"><ele>19.0</ele><time>2026-04-18T13:36:55.091Z</time></trkpt><trkpt lat="45.1925637" lon="11.0110521"><ele>19.2</ele><time>2026-04-18T13:36:56.087Z</time></trkpt><trkpt lat="45.1926988" lon="11.0109893"><ele>19.4</ele><time>2026-04-18T13:36:57.082Z</time></trkpt><trkpt lat="45.1928105" lon="11.0109371"><ele>19.6</ele><time>2026-04-18T13:36:58.093Z</time></trkpt><trkpt lat="45.1928995" lon="11.0108805"><ele>19.8</ele><time>2026-04-18T13:36:59.089Z</time></trkpt><trkpt lat="45.192967" lon="11.0108276"><ele>20.0</ele><time>2026-04-18T13:37:00.092Z</time></trkpt><trkpt lat="45.192981" lon="11.0107168"><ele>20.0</ele><time>2026-04-18T13:37:03.083Z</time></trkpt><trkpt lat="45.1929376" lon="11.0105969"><ele>20.0</ele><time>2026-04-18T13:37:05.103Z</time></trkpt><trkpt lat="45.1929107" lon="11.0105008"><ele>20.0</ele><time>2026-04-18T13:37:06.091Z</time></trkpt><trkpt lat="45.1928798" lon="11.0103843"><ele>20.0</ele><time>2026-04-18T13:37:07.094Z</time></trkpt><trkpt lat="45.1928447" lon="11.0102669"><ele>20.0</ele><time>2026-04-18T13:37:08.092Z</time></trkpt><trkpt lat="45.1928049" lon="11.0101342"><ele>20.0</ele><time>2026-04-18T13:37:09.083Z</time></trkpt><trkpt lat="45.1927604" lon="11.0099834"><ele>19.5</ele><time>2026-04-18T13:37:10.091Z</time></trkpt><trkpt lat="45.1927127" lon="11.0098309"><ele>19.0</ele><time>2026-04-18T13:37:11.091Z</time></trkpt><trkpt lat="45.1926632" lon="11.0096789"><ele>18.5</ele><time>2026-04-18T13:37:12.096Z</time></trkpt><trkpt lat="45.19261" lon="11.0095226"><ele>18.0</ele><time>2026-04-18T13:37:13.094Z</time></trkpt><trkpt lat="45.192554" lon="11.0093622"><ele>18.0</ele><time>2026-04-18T13:37:14.098Z</time></trkpt><trkpt lat="45.1925004" lon="11.009199"><ele>18.0</ele><time>2026-04-18T13:37:15.094Z</time></trkpt><trkpt lat="45.1924454" lon="11.0090385"><ele>18.0</ele><time>2026-04-18T13:37:16.095Z</time></trkpt><trkpt lat="45.1923824" lon="11.0088679"><ele>18.0</ele><time>2026-04-18T13:37:17.093Z</time></trkpt><trkpt lat="45.1923111" lon="11.0086961"><ele>18.333333333333332</ele><time>2026-04-18T13:37:18.096Z</time></trkpt><trkpt lat="45.1922235" lon="11.0085173"><ele>18.666666666666664</ele><time>2026-04-18T13:37:19.092Z</time></trkpt><trkpt lat="45.1921307" lon="11.0083426"><ele>19.0</ele><time>2026-04-18T13:37:20.09Z</time></trkpt><trkpt lat="45.1920396" lon="11.0081682"><ele>19.0</ele><time>2026-04-18T13:37:21.091Z</time></trkpt><trkpt lat="45.1919643" lon="11.0079912"><ele>19.0</ele><time>2026-04-18T13:37:22.091Z</time></trkpt><trkpt lat="45.191892" lon="11.0078106"><ele>19.0</ele><time>2026-04-18T13:37:23.089Z</time></trkpt><trkpt lat="45.1918089" lon="11.007635"><ele>19.0</ele><time>2026-04-18T13:37:24.084Z</time></trkpt><trkpt lat="45.1917259" lon="11.0074232"><ele>19.0</ele><time>2026-04-18T13:37:25.087Z</time></trkpt><trkpt lat="45.1916232" lon="11.0072286"><ele>19.0</ele><time>2026-04-18T13:37:26.09Z</time></trkpt><trkpt lat="45.1915088" lon="11.0070434"><ele>19.0</ele><time>2026-04-18T13:37:27.088Z</time></trkpt><trkpt lat="45.1913957" lon="11.0068572"><ele>19.0</ele><time>2026-04-18T13:37:28.086Z</time></trkpt><trkpt lat="45.1912929" lon="11.0066723"><ele>19.0</ele><time>2026-04-18T13:37:29.087Z</time></trkpt><trkpt lat="45.1911981" lon="11.0064944"><ele>19.0</ele><time>2026-04-18T13:37:30.092Z</time></trkpt><trkpt lat="45.1910961" lon="11.0063193"><ele>19.25</ele><time>2026-04-18T13:37:31.089Z</time></trkpt><trkpt lat="45.1909998" lon="11.00614"><ele>19.5</ele><time>2026-04-18T13:37:32.089Z</time></trkpt><trkpt lat="45.1909035" lon="11.0059786"><ele>19.75</ele><time>2026-04-18T13:37:33.084Z</time></trkpt><trkpt lat="45.1908146" lon="11.0058312"><ele>20.0</ele><time>2026-04-18T13:37:34.081Z</time></trkpt><trkpt lat="45.1907355" lon="11.0056935"><ele>20.25</ele><time>2026-04-18T13:37:35.088Z</time></trkpt><trkpt lat="45.1906585" lon="11.0055557"><ele>20.5</ele><time>2026-04-18T13:37:36.093Z</time></trkpt><trkpt lat="45.1905669" lon="11.0054091"><ele>20.75</ele><time>2026-04-18T13:37:37.081Z</time></trkpt><trkpt lat="45.1904667" lon="11.0052674"><ele>21.0</ele><time>2026-04-18T13:37:38.086Z</time></trkpt><trkpt lat="45.1903567" lon="11.0051205"><ele>20.75</ele><time>2026-04-18T13:37:39.085Z</time></trkpt><trkpt lat="45.1902508" lon="11.0049787"><ele>20.5</ele><time>2026-04-18T13:37:40.084Z</time></trkpt><trkpt lat="45.1901552" lon="11.0048499"><ele>20.25</ele><time>2026-04-18T13:37:41.086Z</time></trkpt><trkpt lat="45.190056" lon="11.0047021"><ele>20.0</ele><time>2026-04-18T13:37:42.087Z</time></trkpt><trkpt lat="45.1899753" lon="11.0045674"><ele>20.0</ele><time>2026-04-18T13:37:43.083Z</time></trkpt><trkpt lat="45.1899087" lon="11.0044483"><ele>20.0</ele><time>2026-04-18T13:37:44.077Z</time></trkpt><trkpt lat="45.1898548" lon="11.0043496"><ele>20.0</ele><time>2026-04-18T13:37:45.081Z</time></trkpt><trkpt lat="45.1898366" lon="11.0042307"><ele>20.0</ele><time>2026-04-18T13:37:46.089Z</time></trkpt><trkpt lat="45.1898255" lon="11.0040821"><ele>20.0</ele><time>2026-04-18T13:37:47.096Z</time></trkpt><trkpt lat="45.1898421" lon="11.0038951"><ele>20.0</ele><time>2026-04-18T13:37:48.087Z</time></trkpt><trkpt lat="45.1898711" lon="11.0036866"><ele>20.0</ele><time>2026-04-18T13:37:49.086Z</time></trkpt><trkpt lat="45.189897" lon="11.0034924"><ele>20.0</ele><time>2026-04-18T13:37:50.08Z</time></trkpt><trkpt lat="45.1899253" lon="11.0033174"><ele>20.0</ele><time>2026-04-18T13:37:51.087Z</time></trkpt><trkpt lat="45.1899553" lon="11.0031507"><ele>20.333333333333336</ele><time>2026-04-18T13:37:52.082Z</time></trkpt><trkpt lat="45.1900099" lon="11.002962"><ele>20.666666666666668</ele><time>2026-04-18T13:37:53.08Z</time></trkpt><trkpt lat="45.190083" lon="11.0027757"><ele>21.0</ele><time>2026-04-18T13:37:54.078Z</time></trkpt><trkpt lat="45.1901696" lon="11.0025764"><ele>21.0</ele><time>2026-04-18T13:37:55.087Z</time></trkpt><trkpt lat="45.1902449" lon="11.0023902"><ele>21.0</ele><time>2026-04-18T13:37:56.084Z</time></trkpt><trkpt lat="45.190315" lon="11.0022229"><ele>21.0</ele><time>2026-04-18T13:37:57.085Z</time></trkpt><trkpt lat="45.1903781" lon="11.0020824"><ele>21.0</ele><time>2026-04-18T13:37:58.085Z</time></trkpt><trkpt lat="45.1904302" lon="11.0019649"><ele>21.0</ele><time>2026-04-18T13:37:59.084Z</time></trkpt><trkpt lat="45.1904692" lon="11.0018904"><ele>21.0</ele><time>2026-04-18T13:38:00.089Z</time></trkpt><trkpt lat="45.1905029" lon="11.0017757"><ele>21.0</ele><time>2026-04-18T13:38:02.079Z</time></trkpt><trkpt lat="45.1904838" lon="11.001686"><ele>21.0</ele><time>2026-04-18T13:38:04.079Z</time></trkpt><trkpt lat="45.190447" lon="11.0015824"><ele>21.0</ele><time>2026-04-18T13:38:06.084Z</time></trkpt><trkpt lat="45.1904814" lon="11.0013991"><ele>21.0</ele><time>2026-04-18T13:38:08.075Z</time></trkpt><trkpt lat="45.1905385" lon="11.0012786"><ele>21.0</ele><time>2026-04-18T13:38:09.086Z</time></trkpt><trkpt lat="45.1906192" lon="11.0011325"><ele>21.0</ele><time>2026-04-18T13:38:10.086Z</time></trkpt><trkpt lat="45.1907201" lon="11.0009681"><ele>21.0</ele><time>2026-04-18T13:38:11.078Z</time></trkpt><trkpt lat="45.1908397" lon="11.0007852"><ele>21.0</ele><time>2026-04-18T13:38:12.077Z</time></trkpt><trkpt lat="45.1909651" lon="11.0005992"><ele>21.0</ele><time>2026-04-18T13:38:13.078Z</time></trkpt><trkpt lat="45.1911097" lon="11.0004083"><ele>21.0</ele><time>2026-04-18T13:38:14.088Z</time></trkpt><trkpt lat="45.1912617" lon="11.0002241"><ele>21.0</ele><time>2026-04-18T13:38:15.084Z</time></trkpt><trkpt lat="45.1914251" lon="11.000045"><ele>21.0</ele><time>2026-04-18T13:38:16.086Z</time></trkpt><trkpt lat="45.1915868" lon="10.9998539"><ele>21.0</ele><time>2026-04-18T13:38:17.09Z</time></trkpt><trkpt lat="45.191738" lon="10.9996592"><ele>20.666666666666668</ele><time>2026-04-18T13:38:18.085Z</time></trkpt><trkpt lat="45.1918728" lon="10.9994255"><ele>20.333333333333336</ele><time>2026-04-18T13:38:19.086Z</time></trkpt><trkpt lat="45.1920015" lon="10.9991531"><ele>20.0</ele><time>2026-04-18T13:38:20.088Z</time></trkpt><trkpt lat="45.1921271" lon="10.9988751"><ele>20.0</ele><time>2026-04-18T13:38:21.087Z</time></trkpt><trkpt lat="45.192247" lon="10.9985997"><ele>20.0</ele><time>2026-04-18T13:38:22.085Z</time></trkpt><trkpt lat="45.1923642" lon="10.998348"><ele>20.0</ele><time>2026-04-18T13:38:23.088Z</time></trkpt><trkpt lat="45.1925006" lon="10.9981193"><ele>20.333333333333336</ele><time>2026-04-18T13:38:24.087Z</time></trkpt><trkpt lat="45.1926389" lon="10.9978962"><ele>20.666666666666668</ele><time>2026-04-18T13:38:25.084Z</time></trkpt><trkpt lat="45.1927851" lon="10.9976945"><ele>21.0</ele><time>2026-04-18T13:38:26.086Z</time></trkpt><trkpt lat="45.192938" lon="10.9975028"><ele>21.0</ele><time>2026-04-18T13:38:27.085Z</time></trkpt><trkpt lat="45.1931036" lon="10.9973138"><ele>21.0</ele><time>2026-04-18T13:38:28.086Z</time></trkpt><trkpt lat="45.1932759" lon="10.9971217"><ele>21.0</ele><time>2026-04-18T13:38:29.091Z</time></trkpt><trkpt lat="45.1934475" lon="10.9969215"><ele>21.0</ele><time>2026-04-18T13:38:30.088Z</time></trkpt><trkpt lat="45.1936189" lon="10.9967095"><ele>21.0</ele><time>2026-04-18T13:38:31.088Z</time></trkpt><trkpt lat="45.1937878" lon="10.9964851"><ele>21.0</ele><time>2026-04-18T13:38:32.085Z</time></trkpt><trkpt lat="45.1939529" lon="10.9962509"><ele>21.0</ele><time>2026-04-18T13:38:33.086Z</time></trkpt><trkpt lat="45.1941249" lon="10.9960053"><ele>21.0</ele><time>2026-04-18T13:38:34.081Z</time></trkpt><trkpt lat="45.1942831" lon="10.995773"><ele>21.0</ele><time>2026-04-18T13:38:35.078Z</time></trkpt><trkpt lat="45.1944396" lon="10.9955631"><ele>21.0</ele><time>2026-04-18T13:38:36.081Z</time></trkpt><trkpt lat="45.1945934" lon="10.9953308"><ele>21.0</ele><time>2026-04-18T13:38:37.075Z</time></trkpt><trkpt lat="45.1947485" lon="10.9951024"><ele>21.0</ele><time>2026-04-18T13:38:38.091Z</time></trkpt><trkpt lat="45.1949008" lon="10.9948643"><ele>20.333333333333332</ele><time>2026-04-18T13:38:39.084Z</time></trkpt><trkpt lat="45.19505" lon="10.9946251"><ele>19.666666666666664</ele><time>2026-04-18T13:38:40.092Z</time></trkpt><trkpt lat="45.1951817" lon="10.9943964"><ele>19.0</ele><time>2026-04-18T13:38:41.086Z</time></trkpt><trkpt lat="45.1952898" lon="10.9941841"><ele>18.666666666666664</ele><time>2026-04-18T13:38:42.082Z</time></trkpt><trkpt lat="45.1954073" lon="10.9939684"><ele>18.333333333333332</ele><time>2026-04-18T13:38:43.086Z</time></trkpt><trkpt lat="45.1955394" lon="10.9937634"><ele>18.0</ele><time>2026-04-18T13:38:44.088Z</time></trkpt><trkpt lat="45.1956893" lon="10.9935866"><ele>18.666666666666668</ele><time>2026-04-18T13:38:45.09Z</time></trkpt><trkpt lat="45.1958751" lon="10.9934507"><ele>19.333333333333336</ele><time>2026-04-18T13:38:46.083Z</time></trkpt><trkpt lat="45.1960854" lon="10.9933565"><ele>20.0</ele><time>2026-04-18T13:38:47.084Z</time></trkpt><trkpt lat="45.1963079" lon="10.9932794"><ele>20.0</ele><time>2026-04-18T13:38:48.083Z</time></trkpt><trkpt lat="45.1965254" lon="10.9931778"><ele>20.0</ele><time>2026-04-18T13:38:49.081Z</time></trkpt><trkpt lat="45.1967287" lon="10.9930565"><ele>20.0</ele><time>2026-04-18T13:38:50.087Z</time></trkpt><trkpt lat="45.1969101" lon="10.9929183"><ele>20.0</ele><time>2026-04-18T13:38:51.081Z</time></trkpt><trkpt lat="45.1970755" lon="10.9927662"><ele>20.0</ele><time>2026-04-18T13:38:52.077Z</time></trkpt><trkpt lat="45.1972422" lon="10.9926152"><ele>20.0</ele><time>2026-04-18T13:38:53.084Z</time></trkpt><trkpt lat="45.1974228" lon="10.9924636"><ele>20.333333333333336</ele><time>2026-04-18T13:38:54.079Z</time></trkpt><trkpt lat="45.1976195" lon="10.9923403"><ele>20.666666666666668</ele><time>2026-04-18T13:38:55.083Z</time></trkpt><trkpt lat="45.1978113" lon="10.992216"><ele>21.0</ele><time>2026-04-18T13:38:56.078Z</time></trkpt><trkpt lat="45.197994" lon="10.9920631"><ele>21.0</ele><time>2026-04-18T13:38:57.081Z</time></trkpt><trkpt lat="45.1981641" lon="10.9918882"><ele>21.0</ele><time>2026-04-18T13:38:58.086Z</time></trkpt><trkpt lat="45.1983395" lon="10.9917348"><ele>21.0</ele><time>2026-04-18T13:38:59.088Z</time></trkpt><trkpt lat="45.1985251" lon="10.9916074"><ele>20.666666666666668</ele><time>2026-04-18T13:39:00.091Z</time></trkpt><trkpt lat="45.1987175" lon="10.9915052"><ele>20.333333333333336</ele><time>2026-04-18T13:39:01.085Z</time></trkpt><trkpt lat="45.198918" lon="10.9914239"><ele>20.0</ele><time>2026-04-18T13:39:02.075Z</time></trkpt><trkpt lat="45.1991088" lon="10.9913503"><ele>20.0</ele><time>2026-04-18T13:39:03.077Z</time></trkpt><trkpt lat="45.1992849" lon="10.9912713"><ele>20.0</ele><time>2026-04-18T13:39:04.076Z</time></trkpt><trkpt lat="45.199446" lon="10.9912026"><ele>20.0</ele><time>2026-04-18T13:39:05.074Z</time></trkpt><trkpt lat="45.1995835" lon="10.9911439"><ele>20.0</ele><time>2026-04-18T13:39:06.075Z</time></trkpt><trkpt lat="45.1997023" lon="10.9910796"><ele>20.0</ele><time>2026-04-18T13:39:07.073Z</time></trkpt><trkpt lat="45.199811" lon="10.9910214"><ele>20.0</ele><time>2026-04-18T13:39:08.072Z</time></trkpt><trkpt lat="45.1999051" lon="10.9909575"><ele>20.0</ele><time>2026-04-18T13:39:09.091Z</time></trkpt><trkpt lat="45.1999837" lon="10.9908879"><ele>20.0</ele><time>2026-04-18T13:39:10.088Z</time></trkpt><trkpt lat="45.2000201" lon="10.9907447"><ele>20.0</ele><time>2026-04-18T13:39:11.09Z</time></trkpt><trkpt lat="45.2000223" lon="10.9905765"><ele>20.0</ele><time>2026-04-18T13:39:12.088Z</time></trkpt><trkpt lat="45.1999872" lon="10.9903708"><ele>20.0</ele><time>2026-04-18T13:39:13.082Z</time></trkpt><trkpt lat="45.1999532" lon="10.9901497"><ele>20.0</ele><time>2026-04-18T13:39:14.088Z</time></trkpt><trkpt lat="45.199918" lon="10.9899169"><ele>20.0</ele><time>2026-04-18T13:39:15.081Z</time></trkpt><trkpt lat="45.1999029" lon="10.989711"><ele>20.0</ele><time>2026-04-18T13:39:16.08Z</time></trkpt><trkpt lat="45.1998873" lon="10.9895262"><ele>20.0</ele><time>2026-04-18T13:39:17.082Z</time></trkpt><trkpt lat="45.1998886" lon="10.9893701"><ele>20.0</ele><time>2026-04-18T13:39:18.081Z</time></trkpt><trkpt lat="45.1999105" lon="10.9892159"><ele>20.25</ele><time>2026-04-18T13:39:19.091Z</time></trkpt><trkpt lat="45.1999808" lon="10.9890601"><ele>20.5</ele><time>2026-04-18T13:39:20.081Z</time></trkpt><trkpt lat="45.2000704" lon="10.9888824"><ele>20.75</ele><time>2026-04-18T13:39:21.08Z</time></trkpt><trkpt lat="45.2001524" lon="10.9887157"><ele>21.0</ele><time>2026-04-18T13:39:22.08Z</time></trkpt><trkpt lat="45.2002281" lon="10.9885726"><ele>21.0</ele><time>2026-04-18T13:39:23.087Z</time></trkpt><trkpt lat="45.200288" lon="10.9884504"><ele>21.0</ele><time>2026-04-18T13:39:24.087Z</time></trkpt><trkpt lat="45.2003431" lon="10.9883303"><ele>21.0</ele><time>2026-04-18T13:39:25.087Z</time></trkpt><trkpt lat="45.2003881" lon="10.9882216"><ele>21.0</ele><time>2026-04-18T13:39:26.083Z</time></trkpt><trkpt lat="45.2004399" lon="10.9881297"><ele>21.0</ele><time>2026-04-18T13:39:27.088Z</time></trkpt><trkpt lat="45.2004966" lon="10.9880518"><ele>21.0</ele><time>2026-04-18T13:39:28.095Z</time></trkpt><trkpt lat="45.2005465" lon="10.9879778"><ele>21.0</ele><time>2026-04-18T13:39:29.094Z</time></trkpt><trkpt lat="45.2005949" lon="10.9879055"><ele>21.0</ele><time>2026-04-18T13:39:30.1Z</time></trkpt><trkpt lat="45.2006436" lon="10.9878384"><ele>21.0</ele><time>2026-04-18T13:39:31.095Z</time></trkpt><trkpt lat="45.200688" lon="10.9877696"><ele>21.0</ele><time>2026-04-18T13:39:32.093Z</time></trkpt><trkpt lat="45.2007696" lon="10.9876511"><ele>21.0</ele><time>2026-04-18T13:39:34.089Z</time></trkpt><trkpt lat="45.20082" lon="10.9875682"><ele>21.0</ele><time>2026-04-18T13:39:36.084Z</time></trkpt><trkpt lat="45.2008827" lon="10.9875211"><ele>21.0</ele><time>2026-04-18T13:39:40.098Z</time></trkpt><trkpt lat="45.2009309" lon="10.9874559"><ele>21.0</ele><time>2026-04-18T13:39:49.086Z</time></trkpt><trkpt lat="45.2010071" lon="10.9873884"><ele>21.0</ele><time>2026-04-18T13:39:50.078Z</time></trkpt><trkpt lat="45.2010928" lon="10.98731"><ele>21.0</ele><time>2026-04-18T13:39:51.086Z</time></trkpt><trkpt lat="45.2012131" lon="10.9872291"><ele>21.0</ele><time>2026-04-18T13:39:52.086Z</time></trkpt><trkpt lat="45.2013688" lon="10.9871394"><ele>21.0</ele><time>2026-04-18T13:39:53.081Z</time></trkpt><trkpt lat="45.2015567" lon="10.9870557"><ele>21.0</ele><time>2026-04-18T13:39:54.085Z</time></trkpt><trkpt lat="45.2017554" lon="10.9869521"><ele>21.0</ele><time>2026-04-18T13:39:55.08Z</time></trkpt><trkpt lat="45.2019706" lon="10.9868455"><ele>21.0</ele><time>2026-04-18T13:39:56.08Z</time></trkpt><trkpt lat="45.2021871" lon="10.9867206"><ele>21.0</ele><time>2026-04-18T13:39:57.084Z</time></trkpt><trkpt lat="45.2024164" lon="10.9866017"><ele>21.0</ele><time>2026-04-18T13:39:58.084Z</time></trkpt><trkpt lat="45.2026548" lon="10.9864776"><ele>21.0</ele><time>2026-04-18T13:39:59.089Z</time></trkpt><trkpt lat="45.2028998" lon="10.9863463"><ele>21.0</ele><time>2026-04-18T13:40:00.096Z</time></trkpt><trkpt lat="45.2031535" lon="10.9862195"><ele>21.0</ele><time>2026-04-18T13:40:01.092Z</time></trkpt><trkpt lat="45.2034042" lon="10.9860925"><ele>21.0</ele><time>2026-04-18T13:40:02.088Z</time></trkpt><trkpt lat="45.2036432" lon="10.985969"><ele>21.0</ele><time>2026-04-18T13:40:03.083Z</time></trkpt><trkpt lat="45.2038533" lon="10.9858795"><ele>21.0</ele><time>2026-04-18T13:40:04.082Z</time></trkpt><trkpt lat="45.2040357" lon="10.9857707"><ele>21.0</ele><time>2026-04-18T13:40:05.083Z</time></trkpt><trkpt lat="45.2042128" lon="10.9856741"><ele>21.333333333333332</ele><time>2026-04-18T13:40:06.092Z</time></trkpt><trkpt lat="45.2043862" lon="10.9855844"><ele>21.666666666666664</ele><time>2026-04-18T13:40:07.09Z</time></trkpt><trkpt lat="45.2045656" lon="10.985504"><ele>22.0</ele><time>2026-04-18T13:40:08.089Z</time></trkpt><trkpt lat="45.2047414" lon="10.9854273"><ele>22.0</ele><time>2026-04-18T13:40:09.091Z</time></trkpt><trkpt lat="45.204914" lon="10.985349"><ele>22.0</ele><time>2026-04-18T13:40:10.091Z</time></trkpt><trkpt lat="45.2050958" lon="10.9852606"><ele>22.0</ele><time>2026-04-18T13:40:11.106Z</time></trkpt><trkpt lat="45.2052882" lon="10.9851657"><ele>22.0</ele><time>2026-04-18T13:40:12.094Z</time></trkpt><trkpt lat="45.2054881" lon="10.985056"><ele>22.0</ele><time>2026-04-18T13:40:13.094Z</time></trkpt><trkpt lat="45.2056883" lon="10.984949"><ele>22.0</ele><time>2026-04-18T13:40:14.093Z</time></trkpt><trkpt lat="45.2058885" lon="10.9848298"><ele>21.5</ele><time>2026-04-18T13:40:15.095Z</time></trkpt><trkpt lat="45.2060931" lon="10.9846999"><ele>21.0</ele><time>2026-04-18T13:40:16.1Z</time></trkpt><trkpt lat="45.2063001" lon="10.984565"><ele>21.333333333333332</ele><time>2026-04-18T13:40:17.099Z</time></trkpt><trkpt lat="45.2065045" lon="10.9844358"><ele>21.666666666666664</ele><time>2026-04-18T13:40:18.094Z</time></trkpt><trkpt lat="45.206704" lon="10.9842988"><ele>22.0</ele><time>2026-04-18T13:40:19.092Z</time></trkpt><trkpt lat="45.2069111" lon="10.9841675"><ele>21.333333333333332</ele><time>2026-04-18T13:40:20.09Z</time></trkpt><trkpt lat="45.2071134" lon="10.9840305"><ele>20.666666666666668</ele><time>2026-04-18T13:40:21.098Z</time></trkpt><trkpt lat="45.2073099" lon="10.9838887"><ele>20.0</ele><time>2026-04-18T13:40:22.097Z</time></trkpt><trkpt lat="45.207507" lon="10.9837436"><ele>20.0</ele><time>2026-04-18T13:40:23.097Z</time></trkpt><trkpt lat="45.2077033" lon="10.9835938"><ele>20.0</ele><time>2026-04-18T13:40:24.094Z</time></trkpt><trkpt lat="45.2078977" lon="10.9834365"><ele>20.0</ele><time>2026-04-18T13:40:25.093Z</time></trkpt><trkpt lat="45.2080874" lon="10.983279"><ele>21.0</ele><time>2026-04-18T13:40:26.093Z</time></trkpt><trkpt lat="45.2082627" lon="10.9831198"><ele>22.0</ele><time>2026-04-18T13:40:27.086Z</time></trkpt><trkpt lat="45.2084449" lon="10.9829699"><ele>23.0</ele><time>2026-04-18T13:40:28.091Z</time></trkpt><trkpt lat="45.2086314" lon="10.9828238"><ele>23.0</ele><time>2026-04-18T13:40:29.095Z</time></trkpt><trkpt lat="45.2088377" lon="10.9826976"><ele>23.0</ele><time>2026-04-18T13:40:30.094Z</time></trkpt><trkpt lat="45.2090493" lon="10.9825992"><ele>23.0</ele><time>2026-04-18T13:40:31.09Z</time></trkpt><trkpt lat="45.2092681" lon="10.9825548"><ele>22.5</ele><time>2026-04-18T13:40:32.084Z</time></trkpt><trkpt lat="45.2094965" lon="10.9825485"><ele>22.0</ele><time>2026-04-18T13:40:33.087Z</time></trkpt><trkpt lat="45.20972" lon="10.982515"><ele>21.333333333333332</ele><time>2026-04-18T13:40:34.087Z</time></trkpt><trkpt lat="45.2099347" lon="10.9824867"><ele>20.666666666666668</ele><time>2026-04-18T13:40:35.086Z</time></trkpt><trkpt lat="45.2101495" lon="10.9824547"><ele>20.0</ele><time>2026-04-18T13:40:36.087Z</time></trkpt><trkpt lat="45.2103546" lon="10.9824286"><ele>20.0</ele><time>2026-04-18T13:40:37.085Z</time></trkpt><trkpt lat="45.2105337" lon="10.9823944"><ele>20.0</ele><time>2026-04-18T13:40:38.088Z</time></trkpt><trkpt lat="45.2107044" lon="10.9823633"><ele>20.0</ele><time>2026-04-18T13:40:39.09Z</time></trkpt><trkpt lat="45.210873" lon="10.982339"><ele>20.333333333333336</ele><time>2026-04-18T13:40:40.093Z</time></trkpt><trkpt lat="45.211038" lon="10.9823197"><ele>20.666666666666668</ele><time>2026-04-18T13:40:41.088Z</time></trkpt><trkpt lat="45.2111971" lon="10.9823044"><ele>21.0</ele><time>2026-04-18T13:40:42.102Z</time></trkpt><trkpt lat="45.2113442" lon="10.9822989"><ele>21.0</ele><time>2026-04-18T13:40:43.094Z</time></trkpt><trkpt lat="45.2114842" lon="10.982302"><ele>21.0</ele><time>2026-04-18T13:40:44.088Z</time></trkpt><trkpt lat="45.2116173" lon="10.9823078"><ele>21.0</ele><time>2026-04-18T13:40:45.089Z</time></trkpt><trkpt lat="45.2117339" lon="10.9822978"><ele>21.0</ele><time>2026-04-18T13:40:46.09Z</time></trkpt><trkpt lat="45.2118224" lon="10.9822665"><ele>21.333333333333332</ele><time>2026-04-18T13:40:47.087Z</time></trkpt><trkpt lat="45.211922" lon="10.9822407"><ele>21.666666666666668</ele><time>2026-04-18T13:40:48.08Z</time></trkpt><trkpt lat="45.2119954" lon="10.9822192"><ele>22.0</ele><time>2026-04-18T13:40:49.084Z</time></trkpt><trkpt lat="45.212048" lon="10.9821672"><ele>22.333333333333336</ele><time>2026-04-18T13:40:50.08Z</time></trkpt><trkpt lat="45.2120788" lon="10.9820841"><ele>22.666666666666668</ele><time>2026-04-18T13:40:51.085Z</time></trkpt><trkpt lat="45.2120814" lon="10.9819862"><ele>23.0</ele><time>2026-04-18T13:40:52.085Z</time></trkpt><trkpt lat="45.2120693" lon="10.9818749"><ele>23.0</ele><time>2026-04-18T13:40:53.084Z</time></trkpt><trkpt lat="45.2120597" lon="10.9817474"><ele>23.0</ele><time>2026-04-18T13:40:54.089Z</time></trkpt><trkpt lat="45.2120471" lon="10.9815738"><ele>23.0</ele><time>2026-04-18T13:40:55.086Z</time></trkpt><trkpt lat="45.2120392" lon="10.9813616"><ele>23.0</ele><time>2026-04-18T13:40:56.082Z</time></trkpt><trkpt lat="45.2120356" lon="10.9811523"><ele>22.666666666666668</ele><time>2026-04-18T13:40:57.081Z</time></trkpt><trkpt lat="45.2120379" lon="10.9809404"><ele>22.333333333333332</ele><time>2026-04-18T13:40:58.084Z</time></trkpt><trkpt lat="45.2120564" lon="10.980697"><ele>22.0</ele><time>2026-04-18T13:40:59.091Z</time></trkpt><trkpt lat="45.2120836" lon="10.9804733"><ele>22.0</ele><time>2026-04-18T13:41:00.096Z</time></trkpt><trkpt lat="45.2121042" lon="10.9802778"><ele>22.0</ele><time>2026-04-18T13:41:01.093Z</time></trkpt><trkpt lat="45.212121" lon="10.9801034"><ele>22.0</ele><time>2026-04-18T13:41:02.092Z</time></trkpt><trkpt lat="45.2121305" lon="10.9799378"><ele>22.0</ele><time>2026-04-18T13:41:03.092Z</time></trkpt><trkpt lat="45.212146" lon="10.9797949"><ele>22.0</ele><time>2026-04-18T13:41:04.09Z</time></trkpt><trkpt lat="45.2121693" lon="10.9796745"><ele>22.0</ele><time>2026-04-18T13:41:05.087Z</time></trkpt><trkpt lat="45.2122211" lon="10.9795702"><ele>22.0</ele><time>2026-04-18T13:41:06.084Z</time></trkpt><trkpt lat="45.2122885" lon="10.9794872"><ele>22.0</ele><time>2026-04-18T13:41:07.082Z</time></trkpt><trkpt lat="45.212391" lon="10.9794404"><ele>22.0</ele><time>2026-04-18T13:41:08.086Z</time></trkpt><trkpt lat="45.2125193" lon="10.9794111"><ele>22.25</ele><time>2026-04-18T13:41:09.082Z</time></trkpt><trkpt lat="45.212654" lon="10.9793787"><ele>22.5</ele><time>2026-04-18T13:41:10.081Z</time></trkpt><trkpt lat="45.2127888" lon="10.9793507"><ele>22.75</ele><time>2026-04-18T13:41:11.085Z</time></trkpt><trkpt lat="45.2129065" lon="10.9793242"><ele>23.0</ele><time>2026-04-18T13:41:12.077Z</time></trkpt><trkpt lat="45.2130051" lon="10.9793008"><ele>23.0</ele><time>2026-04-18T13:41:13.095Z</time></trkpt><trkpt lat="45.2129577" lon="10.9792314"><ele>23.0</ele><time>2026-04-18T13:41:18.072Z</time></trkpt><trkpt lat="45.2129202" lon="10.9791403"><ele>23.0</ele><time>2026-04-18T13:41:19.071Z</time></trkpt><trkpt lat="45.2128761" lon="10.9790052"><ele>23.0</ele><time>2026-04-18T13:41:20.068Z</time></trkpt><trkpt lat="45.2128207" lon="10.9788398"><ele>23.0</ele><time>2026-04-18T13:41:21.064Z</time></trkpt><trkpt lat="45.2127578" lon="10.9786333"><ele>23.0</ele><time>2026-04-18T13:41:22.073Z</time></trkpt><trkpt lat="45.2126981" lon="10.9784088"><ele>23.0</ele><time>2026-04-18T13:41:23.082Z</time></trkpt><trkpt lat="45.2126432" lon="10.9782026"><ele>23.0</ele><time>2026-04-18T13:41:24.087Z</time></trkpt><trkpt lat="45.2125928" lon="10.9780102"><ele>22.75</ele><time>2026-04-18T13:41:25.086Z</time></trkpt><trkpt lat="45.2125483" lon="10.9778433"><ele>22.5</ele><time>2026-04-18T13:41:26.087Z</time></trkpt><trkpt lat="45.2125169" lon="10.9776884"><ele>22.25</ele><time>2026-04-18T13:41:27.087Z</time></trkpt><trkpt lat="45.2124912" lon="10.9775344"><ele>22.0</ele><time>2026-04-18T13:41:28.089Z</time></trkpt><trkpt lat="45.2124873" lon="10.9773923"><ele>22.0</ele><time>2026-04-18T13:41:29.099Z</time></trkpt><trkpt lat="45.2125125" lon="10.9772397"><ele>22.0</ele><time>2026-04-18T13:41:30.095Z</time></trkpt><trkpt lat="45.212556" lon="10.9770695"><ele>22.0</ele><time>2026-04-18T13:41:31.094Z</time></trkpt><trkpt lat="45.2126173" lon="10.9768923"><ele>22.0</ele><time>2026-04-18T13:41:32.094Z</time></trkpt><trkpt lat="45.212714" lon="10.9767034"><ele>21.666666666666664</ele><time>2026-04-18T13:41:33.09Z</time></trkpt><trkpt lat="45.212847" lon="10.9765307"><ele>21.333333333333332</ele><time>2026-04-18T13:41:34.087Z</time></trkpt><trkpt lat="45.2129935" lon="10.9763409"><ele>21.0</ele><time>2026-04-18T13:41:35.09Z</time></trkpt><trkpt lat="45.2131284" lon="10.9761398"><ele>22.333333333333336</ele><time>2026-04-18T13:41:36.093Z</time></trkpt><trkpt lat="45.2132545" lon="10.9759496"><ele>23.666666666666668</ele><time>2026-04-18T13:41:37.087Z</time></trkpt><trkpt lat="45.2133599" lon="10.9757763"><ele>25.0</ele><time>2026-04-18T13:41:38.088Z</time></trkpt><trkpt lat="45.2134639" lon="10.9756342"><ele>25.0</ele><time>2026-04-18T13:41:39.09Z</time></trkpt><trkpt lat="45.2135575" lon="10.9754883"><ele>25.0</ele><time>2026-04-18T13:41:40.082Z</time></trkpt><trkpt lat="45.2136526" lon="10.9753522"><ele>25.0</ele><time>2026-04-18T13:41:41.086Z</time></trkpt><trkpt lat="45.2137599" lon="10.9752306"><ele>25.0</ele><time>2026-04-18T13:41:42.087Z</time></trkpt><trkpt lat="45.2138805" lon="10.9751005"><ele>23.333333333333336</ele><time>2026-04-18T13:41:43.083Z</time></trkpt><trkpt lat="45.2140122" lon="10.9749682"><ele>21.666666666666668</ele><time>2026-04-18T13:41:44.098Z</time></trkpt><trkpt lat="45.2141613" lon="10.9748214"><ele>20.0</ele><time>2026-04-18T13:41:45.087Z</time></trkpt><trkpt lat="45.2143268" lon="10.9746712"><ele>20.0</ele><time>2026-04-18T13:41:46.079Z</time></trkpt><trkpt lat="45.214482" lon="10.9745209"><ele>20.0</ele><time>2026-04-18T13:41:47.096Z</time></trkpt><trkpt lat="45.2146338" lon="10.9743617"><ele>20.0</ele><time>2026-04-18T13:41:48.095Z</time></trkpt><trkpt lat="45.2147921" lon="10.9742068"><ele>20.0</ele><time>2026-04-18T13:41:49.092Z</time></trkpt><trkpt lat="45.2149513" lon="10.9740462"><ele>20.0</ele><time>2026-04-18T13:41:50.097Z</time></trkpt><trkpt lat="45.215111" lon="10.973868"><ele>20.0</ele><time>2026-04-18T13:41:51.094Z</time></trkpt><trkpt lat="45.2152691" lon="10.9736813"><ele>20.0</ele><time>2026-04-18T13:41:52.091Z</time></trkpt><trkpt lat="45.2154149" lon="10.9734843"><ele>20.0</ele><time>2026-04-18T13:41:53.092Z</time></trkpt><trkpt lat="45.215549" lon="10.9732629"><ele>20.0</ele><time>2026-04-18T13:41:54.093Z</time></trkpt><trkpt lat="45.2157692" lon="10.9727194"><ele>21.0</ele><time>2026-04-18T13:41:56.091Z</time></trkpt><trkpt lat="45.2158663" lon="10.972427"><ele>22.0</ele><time>2026-04-18T13:41:57.095Z</time></trkpt><trkpt lat="45.2159516" lon="10.9721432"><ele>23.0</ele><time>2026-04-18T13:41:58.092Z</time></trkpt><trkpt lat="45.2160289" lon="10.9718775"><ele>22.666666666666668</ele><time>2026-04-18T13:41:59.093Z</time></trkpt><trkpt lat="45.2161163" lon="10.9716266"><ele>22.333333333333332</ele><time>2026-04-18T13:42:00.105Z</time></trkpt><trkpt lat="45.2162113" lon="10.9713794"><ele>22.0</ele><time>2026-04-18T13:42:01.097Z</time></trkpt><trkpt lat="45.2163013" lon="10.9711315"><ele>22.0</ele><time>2026-04-18T13:42:02.094Z</time></trkpt><trkpt lat="45.2163891" lon="10.9708763"><ele>22.0</ele><time>2026-04-18T13:42:03.091Z</time></trkpt><trkpt lat="45.2164556" lon="10.970609"><ele>22.0</ele><time>2026-04-18T13:42:04.089Z</time></trkpt><trkpt lat="45.2164964" lon="10.9703106"><ele>21.666666666666664</ele><time>2026-04-18T13:42:05.095Z</time></trkpt><trkpt lat="45.216506" lon="10.970007"><ele>21.333333333333332</ele><time>2026-04-18T13:42:06.09Z</time></trkpt><trkpt lat="45.2165263" lon="10.969703"><ele>21.0</ele><time>2026-04-18T13:42:07.092Z</time></trkpt><trkpt lat="45.2165452" lon="10.9693943"><ele>20.666666666666668</ele><time>2026-04-18T13:42:08.092Z</time></trkpt><trkpt lat="45.2165601" lon="10.9690988"><ele>20.333333333333336</ele><time>2026-04-18T13:42:09.092Z</time></trkpt><trkpt lat="45.2165718" lon="10.9688006"><ele>20.0</ele><time>2026-04-18T13:42:10.094Z</time></trkpt><trkpt lat="45.2165615" lon="10.9684969"><ele>20.666666666666668</ele><time>2026-04-18T13:42:11.089Z</time></trkpt><trkpt lat="45.2165479" lon="10.9682085"><ele>21.333333333333332</ele><time>2026-04-18T13:42:12.091Z</time></trkpt><trkpt lat="45.2165291" lon="10.9679469"><ele>22.0</ele><time>2026-04-18T13:42:13.096Z</time></trkpt><trkpt lat="45.2165129" lon="10.9677153"><ele>21.75</ele><time>2026-04-18T13:42:14.094Z</time></trkpt><trkpt lat="45.2164995" lon="10.9675058"><ele>21.5</ele><time>2026-04-18T13:42:15.102Z</time></trkpt><trkpt lat="45.216519" lon="10.9673148"><ele>21.25</ele><time>2026-04-18T13:42:16.095Z</time></trkpt><trkpt lat="45.2165808" lon="10.9671443"><ele>21.0</ele><time>2026-04-18T13:42:17.09Z</time></trkpt><trkpt lat="45.2166654" lon="10.9669656"><ele>21.0</ele><time>2026-04-18T13:42:18.082Z</time></trkpt><trkpt lat="45.2167742" lon="10.9667802"><ele>21.0</ele><time>2026-04-18T13:42:19.086Z</time></trkpt><trkpt lat="45.2168848" lon="10.9665773"><ele>21.0</ele><time>2026-04-18T13:42:20.094Z</time></trkpt><trkpt lat="45.2170019" lon="10.966364"><ele>21.0</ele><time>2026-04-18T13:42:21.091Z</time></trkpt><trkpt lat="45.2171091" lon="10.966142"><ele>21.0</ele><time>2026-04-18T13:42:22.092Z</time></trkpt><trkpt lat="45.2172142" lon="10.9659292"><ele>21.0</ele><time>2026-04-18T13:42:23.089Z</time></trkpt><trkpt lat="45.2173075" lon="10.9657198"><ele>21.333333333333332</ele><time>2026-04-18T13:42:24.093Z</time></trkpt><trkpt lat="45.2174099" lon="10.9655302"><ele>21.666666666666664</ele><time>2026-04-18T13:42:25.092Z</time></trkpt><trkpt lat="45.2175275" lon="10.9653468"><ele>22.0</ele><time>2026-04-18T13:42:26.095Z</time></trkpt><trkpt lat="45.2176604" lon="10.965193"><ele>22.0</ele><time>2026-04-18T13:42:27.091Z</time></trkpt><trkpt lat="45.2178087" lon="10.9650542"><ele>22.0</ele><time>2026-04-18T13:42:28.092Z</time></trkpt><trkpt lat="45.2179688" lon="10.9649228"><ele>22.0</ele><time>2026-04-18T13:42:29.088Z</time></trkpt><trkpt lat="45.2181341" lon="10.9648166"><ele>22.0</ele><time>2026-04-18T13:42:30.097Z</time></trkpt><trkpt lat="45.2183084" lon="10.9647379"><ele>22.0</ele><time>2026-04-18T13:42:31.088Z</time></trkpt><trkpt lat="45.2184905" lon="10.964678"><ele>22.0</ele><time>2026-04-18T13:42:32.089Z</time></trkpt><trkpt lat="45.2186938" lon="10.9646485"><ele>22.0</ele><time>2026-04-18T13:42:33.091Z</time></trkpt><trkpt lat="45.2189017" lon="10.9646338"><ele>22.0</ele><time>2026-04-18T13:42:34.089Z</time></trkpt><trkpt lat="45.2191041" lon="10.9646159"><ele>22.0</ele><time>2026-04-18T13:42:35.096Z</time></trkpt><trkpt lat="45.2193037" lon="10.9646138"><ele>22.333333333333332</ele><time>2026-04-18T13:42:36.088Z</time></trkpt><trkpt lat="45.2194936" lon="10.964601"><ele>22.666666666666668</ele><time>2026-04-18T13:42:37.092Z</time></trkpt><trkpt lat="45.2196887" lon="10.9645871"><ele>23.0</ele><time>2026-04-18T13:42:38.089Z</time></trkpt><trkpt lat="45.2198825" lon="10.9645716"><ele>23.0</ele><time>2026-04-18T13:42:39.097Z</time></trkpt><trkpt lat="45.2200771" lon="10.9645573"><ele>23.0</ele><time>2026-04-18T13:42:40.093Z</time></trkpt><trkpt lat="45.2202679" lon="10.9645305"><ele>23.0</ele><time>2026-04-18T13:42:41.088Z</time></trkpt><trkpt lat="45.2204411" lon="10.9644932"><ele>23.0</ele><time>2026-04-18T13:42:42.092Z</time></trkpt><trkpt lat="45.2205985" lon="10.9644438"><ele>23.0</ele><time>2026-04-18T13:42:43.094Z</time></trkpt><trkpt lat="45.2207484" lon="10.9643801"><ele>23.0</ele><time>2026-04-18T13:42:44.095Z</time></trkpt><trkpt lat="45.2208908" lon="10.9643157"><ele>22.666666666666668</ele><time>2026-04-18T13:42:45.095Z</time></trkpt><trkpt lat="45.2210273" lon="10.964257"><ele>22.333333333333332</ele><time>2026-04-18T13:42:46.126Z</time></trkpt><trkpt lat="45.2211738" lon="10.9641964"><ele>22.0</ele><time>2026-04-18T13:42:47.103Z</time></trkpt><trkpt lat="45.2213336" lon="10.9641256"><ele>22.333333333333332</ele><time>2026-04-18T13:42:48.089Z</time></trkpt><trkpt lat="45.2215239" lon="10.9640501"><ele>22.666666666666668</ele><time>2026-04-18T13:42:49.092Z</time></trkpt><trkpt lat="45.2217013" lon="10.963967"><ele>23.0</ele><time>2026-04-18T13:42:50.087Z</time></trkpt><trkpt lat="45.22187" lon="10.9638951"><ele>23.0</ele><time>2026-04-18T13:42:51.088Z</time></trkpt><trkpt lat="45.2220363" lon="10.9638254"><ele>23.0</ele><time>2026-04-18T13:42:52.088Z</time></trkpt><trkpt lat="45.2222016" lon="10.9637584"><ele>23.0</ele><time>2026-04-18T13:42:53.09Z</time></trkpt><trkpt lat="45.2223648" lon="10.963688"><ele>23.0</ele><time>2026-04-18T13:42:54.088Z</time></trkpt><trkpt lat="45.222539" lon="10.9636154"><ele>23.0</ele><time>2026-04-18T13:42:55.088Z</time></trkpt><trkpt lat="45.2227019" lon="10.9635522"><ele>23.0</ele><time>2026-04-18T13:42:56.087Z</time></trkpt><trkpt lat="45.222853" lon="10.9634889"><ele>23.0</ele><time>2026-04-18T13:42:57.087Z</time></trkpt><trkpt lat="45.2229923" lon="10.9634339"><ele>23.0</ele><time>2026-04-18T13:42:58.092Z</time></trkpt><trkpt lat="45.2231305" lon="10.9633865"><ele>23.0</ele><time>2026-04-18T13:42:59.09Z</time></trkpt><trkpt lat="45.2232518" lon="10.9633407"><ele>23.0</ele><time>2026-04-18T13:43:00.095Z</time></trkpt><trkpt lat="45.223359" lon="10.9632902"><ele>23.0</ele><time>2026-04-18T13:43:01.089Z</time></trkpt><trkpt lat="45.2234569" lon="10.9632504"><ele>23.0</ele><time>2026-04-18T13:43:02.084Z</time></trkpt><trkpt lat="45.223536" lon="10.9632199"><ele>23.0</ele><time>2026-04-18T13:43:03.085Z</time></trkpt><trkpt lat="45.2236254" lon="10.9632044"><ele>23.0</ele><time>2026-04-18T13:43:05.084Z</time></trkpt><trkpt lat="45.2236981" lon="10.9633063"><ele>23.0</ele><time>2026-04-18T13:43:08.094Z</time></trkpt><trkpt lat="45.223742" lon="10.9634236"><ele>23.0</ele><time>2026-04-18T13:43:09.088Z</time></trkpt><trkpt lat="45.223798" lon="10.9635602"><ele>23.0</ele><time>2026-04-18T13:43:10.087Z</time></trkpt><trkpt lat="45.2238664" lon="10.9637197"><ele>23.0</ele><time>2026-04-18T13:43:11.093Z</time></trkpt><trkpt lat="45.2239549" lon="10.9639058"><ele>23.0</ele><time>2026-04-18T13:43:12.086Z</time></trkpt><trkpt lat="45.2240706" lon="10.9641151"><ele>22.666666666666668</ele><time>2026-04-18T13:43:13.087Z</time></trkpt><trkpt lat="45.2241968" lon="10.9643306"><ele>22.333333333333332</ele><time>2026-04-18T13:43:14.085Z</time></trkpt><trkpt lat="45.2243311" lon="10.9645283"><ele>22.0</ele><time>2026-04-18T13:43:15.086Z</time></trkpt><trkpt lat="45.2244521" lon="10.9647018"><ele>22.0</ele><time>2026-04-18T13:43:16.103Z</time></trkpt><trkpt lat="45.2245687" lon="10.9648795"><ele>22.0</ele><time>2026-04-18T13:43:17.096Z</time></trkpt><trkpt lat="45.2246798" lon="10.965049"><ele>22.0</ele><time>2026-04-18T13:43:18.094Z</time></trkpt><trkpt lat="45.2247874" lon="10.9652167"><ele>22.0</ele><time>2026-04-18T13:43:19.093Z</time></trkpt><trkpt lat="45.2248937" lon="10.9653866"><ele>22.0</ele><time>2026-04-18T13:43:20.088Z</time></trkpt><trkpt lat="45.2249929" lon="10.9655733"><ele>22.0</ele><time>2026-04-18T13:43:21.086Z</time></trkpt><trkpt lat="45.2250649" lon="10.9657744"><ele>22.333333333333332</ele><time>2026-04-18T13:43:22.088Z</time></trkpt><trkpt lat="45.225115" lon="10.9660025"><ele>22.666666666666668</ele><time>2026-04-18T13:43:23.088Z</time></trkpt><trkpt lat="45.225146" lon="10.9662497"><ele>23.0</ele><time>2026-04-18T13:43:24.085Z</time></trkpt><trkpt lat="45.2251736" lon="10.9665073"><ele>22.666666666666668</ele><time>2026-04-18T13:43:25.091Z</time></trkpt><trkpt lat="45.2252072" lon="10.9667643"><ele>22.333333333333332</ele><time>2026-04-18T13:43:26.092Z</time></trkpt><trkpt lat="45.2252378" lon="10.9669967"><ele>22.0</ele><time>2026-04-18T13:43:27.092Z</time></trkpt><trkpt lat="45.2252758" lon="10.9672088"><ele>22.0</ele><time>2026-04-18T13:43:28.086Z</time></trkpt><trkpt lat="45.2253178" lon="10.967393"><ele>22.0</ele><time>2026-04-18T13:43:29.086Z</time></trkpt><trkpt lat="45.2253645" lon="10.9675697"><ele>22.0</ele><time>2026-04-18T13:43:30.091Z</time></trkpt><trkpt lat="45.2254295" lon="10.967717"><ele>22.0</ele><time>2026-04-18T13:43:31.089Z</time></trkpt><trkpt lat="45.225515" lon="10.9678586"><ele>22.0</ele><time>2026-04-18T13:43:32.082Z</time></trkpt><trkpt lat="45.2256331" lon="10.96798"><ele>22.0</ele><time>2026-04-18T13:43:33.09Z</time></trkpt><trkpt lat="45.2257707" lon="10.9681047"><ele>22.0</ele><time>2026-04-18T13:43:34.09Z</time></trkpt><trkpt lat="45.2259177" lon="10.9682296"><ele>22.0</ele><time>2026-04-18T13:43:35.086Z</time></trkpt><trkpt lat="45.2260535" lon="10.9683459"><ele>22.0</ele><time>2026-04-18T13:43:36.084Z</time></trkpt><trkpt lat="45.2261785" lon="10.9684493"><ele>22.0</ele><time>2026-04-18T13:43:37.082Z</time></trkpt><trkpt lat="45.2262903" lon="10.9685399"><ele>22.0</ele><time>2026-04-18T13:43:38.083Z</time></trkpt><trkpt lat="45.2263836" lon="10.9686318"><ele>22.0</ele><time>2026-04-18T13:43:39.081Z</time></trkpt><trkpt lat="45.2264575" lon="10.9687386"><ele>22.0</ele><time>2026-04-18T13:43:40.078Z</time></trkpt><trkpt lat="45.2265025" lon="10.9688524"><ele>22.0</ele><time>2026-04-18T13:43:41.09Z</time></trkpt><trkpt lat="45.226501" lon="10.9689851"><ele>22.0</ele><time>2026-04-18T13:43:42.087Z</time></trkpt><trkpt lat="45.2264784" lon="10.9691055"><ele>22.0</ele><time>2026-04-18T13:43:43.084Z</time></trkpt><trkpt lat="45.2264427" lon="10.9692245"><ele>22.25</ele><time>2026-04-18T13:43:44.091Z</time></trkpt><trkpt lat="45.2264033" lon="10.9693673"><ele>22.5</ele><time>2026-04-18T13:43:45.09Z</time></trkpt><trkpt lat="45.2263671" lon="10.969522"><ele>22.75</ele><time>2026-04-18T13:43:46.085Z</time></trkpt><trkpt lat="45.2263426" lon="10.9696894"><ele>23.0</ele><time>2026-04-18T13:43:47.103Z</time></trkpt><trkpt lat="45.2263404" lon="10.9698714"><ele>23.0</ele><time>2026-04-18T13:43:48.088Z</time></trkpt><trkpt lat="45.2263517" lon="10.9700726"><ele>23.0</ele><time>2026-04-18T13:43:49.088Z</time></trkpt><trkpt lat="45.2263761" lon="10.9702872"><ele>23.0</ele><time>2026-04-18T13:43:50.082Z</time></trkpt><trkpt lat="45.2264107" lon="10.9704995"><ele>23.0</ele><time>2026-04-18T13:43:51.079Z</time></trkpt><trkpt lat="45.2264453" lon="10.970689"><ele>23.25</ele><time>2026-04-18T13:43:52.082Z</time></trkpt><trkpt lat="45.2264813" lon="10.9708832"><ele>23.5</ele><time>2026-04-18T13:43:53.087Z</time></trkpt><trkpt lat="45.2265186" lon="10.9710888"><ele>23.75</ele><time>2026-04-18T13:43:54.084Z</time></trkpt><trkpt lat="45.2265546" lon="10.9712785"><ele>24.0</ele><time>2026-04-18T13:43:55.087Z</time></trkpt><trkpt lat="45.2265913" lon="10.9714483"><ele>24.0</ele><time>2026-04-18T13:43:56.087Z</time></trkpt><trkpt lat="45.2266133" lon="10.9715678"><ele>24.0</ele><time>2026-04-18T13:43:57.085Z</time></trkpt><trkpt lat="45.2266421" lon="10.971661"><ele>24.0</ele><time>2026-04-18T13:43:58.087Z</time></trkpt><trkpt lat="45.2266731" lon="10.9717391"><ele>24.0</ele><time>2026-04-18T13:43:59.089Z</time></trkpt><trkpt lat="45.2267569" lon="10.9718037"><ele>24.0</ele><time>2026-04-18T13:44:01.092Z</time></trkpt><trkpt lat="45.2268483" lon="10.9717062"><ele>24.0</ele><time>2026-04-18T13:44:03.083Z</time></trkpt><trkpt lat="45.2269188" lon="10.9716113"><ele>24.0</ele><time>2026-04-18T13:44:04.086Z</time></trkpt><trkpt lat="45.2269905" lon="10.971525"><ele>24.0</ele><time>2026-04-18T13:44:05.08Z</time></trkpt><trkpt lat="45.2270718" lon="10.9714454"><ele>24.0</ele><time>2026-04-18T13:44:06.073Z</time></trkpt><trkpt lat="45.2271649" lon="10.9713689"><ele>24.0</ele><time>2026-04-18T13:44:07.071Z</time></trkpt><trkpt lat="45.2272661" lon="10.9713058"><ele>24.0</ele><time>2026-04-18T13:44:08.075Z</time></trkpt><trkpt lat="45.2273767" lon="10.9712453"><ele>24.2</ele><time>2026-04-18T13:44:09.079Z</time></trkpt><trkpt lat="45.2274864" lon="10.9712015"><ele>24.4</ele><time>2026-04-18T13:44:10.088Z</time></trkpt><trkpt lat="45.227586" lon="10.9711848"><ele>24.6</ele><time>2026-04-18T13:44:11.082Z</time></trkpt><trkpt lat="45.2276702" lon="10.9711767"><ele>24.8</ele><time>2026-04-18T13:44:12.088Z</time></trkpt><trkpt lat="45.22775" lon="10.9712054"><ele>25.0</ele><time>2026-04-18T13:44:13.089Z</time></trkpt><trkpt lat="45.2278265" lon="10.9712754"><ele>25.0</ele><time>2026-04-18T13:44:14.087Z</time></trkpt><trkpt lat="45.2278987" lon="10.971383"><ele>25.0</ele><time>2026-04-18T13:44:15.083Z</time></trkpt><trkpt lat="45.2279772" lon="10.9715007"><ele>25.0</ele><time>2026-04-18T13:44:16.077Z</time></trkpt><trkpt lat="45.2280705" lon="10.9716034"><ele>25.0</ele><time>2026-04-18T13:44:17.078Z</time></trkpt><trkpt lat="45.2281762" lon="10.9716828"><ele>25.0</ele><time>2026-04-18T13:44:18.085Z</time></trkpt><trkpt lat="45.2282918" lon="10.9717393"><ele>25.0</ele><time>2026-04-18T13:44:19.081Z</time></trkpt><trkpt lat="45.2284153" lon="10.9717935"><ele>25.0</ele><time>2026-04-18T13:44:20.077Z</time></trkpt><trkpt lat="45.2285364" lon="10.9718436"><ele>25.0</ele><time>2026-04-18T13:44:21.075Z</time></trkpt><trkpt lat="45.2286494" lon="10.9718774"><ele>25.0</ele><time>2026-04-18T13:44:22.08Z</time></trkpt><trkpt lat="45.2287584" lon="10.9719028"><ele>25.0</ele><time>2026-04-18T13:44:23.078Z</time></trkpt><trkpt lat="45.2288745" lon="10.9719014"><ele>25.0</ele><time>2026-04-18T13:44:24.088Z</time></trkpt><trkpt lat="45.2290023" lon="10.9718646"><ele>25.0</ele><time>2026-04-18T13:44:25.084Z</time></trkpt><trkpt lat="45.2291462" lon="10.9717901"><ele>25.666666666666668</ele><time>2026-04-18T13:44:26.075Z</time></trkpt><trkpt lat="45.2292952" lon="10.9716883"><ele>26.333333333333336</ele><time>2026-04-18T13:44:27.081Z</time></trkpt><trkpt lat="45.2294482" lon="10.9716025"><ele>27.0</ele><time>2026-04-18T13:44:28.084Z</time></trkpt><trkpt lat="45.2295799" lon="10.9715355"><ele>27.0</ele><time>2026-04-18T13:44:29.084Z</time></trkpt><trkpt lat="45.2296919" lon="10.971474"><ele>27.0</ele><time>2026-04-18T13:44:30.085Z</time></trkpt><trkpt lat="45.2298076" lon="10.9714205"><ele>27.0</ele><time>2026-04-18T13:44:31.088Z</time></trkpt><trkpt lat="45.2300088" lon="10.9713113"><ele>26.75</ele><time>2026-04-18T13:44:33.087Z</time></trkpt><trkpt lat="45.2301182" lon="10.9712542"><ele>26.5</ele><time>2026-04-18T13:44:34.081Z</time></trkpt><trkpt lat="45.2302358" lon="10.9711974"><ele>26.25</ele><time>2026-04-18T13:44:35.086Z</time></trkpt><trkpt lat="45.2303664" lon="10.9711342"><ele>26.0</ele><time>2026-04-18T13:44:36.085Z</time></trkpt><trkpt lat="45.2305045" lon="10.9710734"><ele>25.333333333333332</ele><time>2026-04-18T13:44:37.084Z</time></trkpt><trkpt lat="45.2306593" lon="10.9709996"><ele>24.666666666666664</ele><time>2026-04-18T13:44:38.083Z</time></trkpt><trkpt lat="45.2308218" lon="10.9709275"><ele>24.0</ele><time>2026-04-18T13:44:39.094Z</time></trkpt><trkpt lat="45.2309931" lon="10.9708471"><ele>24.0</ele><time>2026-04-18T13:44:40.093Z</time></trkpt><trkpt lat="45.2311693" lon="10.9707646"><ele>24.0</ele><time>2026-04-18T13:44:41.092Z</time></trkpt><trkpt lat="45.231358" lon="10.9706871"><ele>24.0</ele><time>2026-04-18T13:44:42.093Z</time></trkpt><trkpt lat="45.2315527" lon="10.970594"><ele>24.0</ele><time>2026-04-18T13:44:43.092Z</time></trkpt><trkpt lat="45.2317422" lon="10.9704997"><ele>24.0</ele><time>2026-04-18T13:44:44.095Z</time></trkpt><trkpt lat="45.2319355" lon="10.9704089"><ele>24.0</ele><time>2026-04-18T13:44:45.094Z</time></trkpt><trkpt lat="45.232134" lon="10.9703276"><ele>23.0</ele><time>2026-04-18T13:44:46.094Z</time></trkpt><trkpt lat="45.2325597" lon="10.9701473"><ele>22.0</ele><time>2026-04-18T13:44:48.098Z</time></trkpt><trkpt lat="45.2327787" lon="10.9700724"><ele>22.0</ele><time>2026-04-18T13:44:49.112Z</time></trkpt><trkpt lat="45.2329911" lon="10.9699954"><ele>22.0</ele><time>2026-04-18T13:44:50.094Z</time></trkpt><trkpt lat="45.2332041" lon="10.9699287"><ele>22.0</ele><time>2026-04-18T13:44:51.099Z</time></trkpt><trkpt lat="45.2334133" lon="10.9698516"><ele>22.666666666666664</ele><time>2026-04-18T13:44:52.091Z</time></trkpt><trkpt lat="45.2336167" lon="10.9697833"><ele>23.333333333333332</ele><time>2026-04-18T13:44:53.092Z</time></trkpt><trkpt lat="45.2338243" lon="10.9697103"><ele>24.0</ele><time>2026-04-18T13:44:54.091Z</time></trkpt><trkpt lat="45.2340368" lon="10.9696328"><ele>24.333333333333336</ele><time>2026-04-18T13:44:55.089Z</time></trkpt><trkpt lat="45.2342512" lon="10.9695548"><ele>24.666666666666668</ele><time>2026-04-18T13:44:56.093Z</time></trkpt><trkpt lat="45.2344596" lon="10.969484"><ele>25.0</ele><time>2026-04-18T13:44:57.095Z</time></trkpt><trkpt lat="45.2346674" lon="10.9694279"><ele>24.666666666666668</ele><time>2026-04-18T13:44:58.097Z</time></trkpt><trkpt lat="45.2348783" lon="10.9693688"><ele>24.333333333333336</ele><time>2026-04-18T13:44:59.096Z</time></trkpt><trkpt lat="45.2350763" lon="10.9693199"><ele>24.0</ele><time>2026-04-18T13:45:00.101Z</time></trkpt><trkpt lat="45.2352614" lon="10.9692721"><ele>24.0</ele><time>2026-04-18T13:45:01.094Z</time></trkpt><trkpt lat="45.2354355" lon="10.9692568"><ele>24.0</ele><time>2026-04-18T13:45:02.096Z</time></trkpt><trkpt lat="45.2356041" lon="10.9692569"><ele>24.0</ele><time>2026-04-18T13:45:03.093Z</time></trkpt><trkpt lat="45.235754" lon="10.9692779"><ele>24.5</ele><time>2026-04-18T13:45:04.09Z</time></trkpt><trkpt lat="45.2358965" lon="10.9693291"><ele>25.0</ele><time>2026-04-18T13:45:05.093Z</time></trkpt><trkpt lat="45.2360394" lon="10.969385"><ele>25.5</ele><time>2026-04-18T13:45:06.096Z</time></trkpt><trkpt lat="45.2361669" lon="10.969441"><ele>26.0</ele><time>2026-04-18T13:45:07.091Z</time></trkpt><trkpt lat="45.2362871" lon="10.9694662"><ele>26.0</ele><time>2026-04-18T13:45:08.098Z</time></trkpt><trkpt lat="45.2363964" lon="10.969442"><ele>26.0</ele><time>2026-04-18T13:45:09.089Z</time></trkpt><trkpt lat="45.2365108" lon="10.9694209"><ele>26.0</ele><time>2026-04-18T13:45:10.09Z</time></trkpt><trkpt lat="45.2366362" lon="10.969392"><ele>26.0</ele><time>2026-04-18T13:45:11.093Z</time></trkpt><trkpt lat="45.2367624" lon="10.9693736"><ele>25.75</ele><time>2026-04-18T13:45:12.095Z</time></trkpt><trkpt lat="45.2368837" lon="10.9693536"><ele>25.5</ele><time>2026-04-18T13:45:13.09Z</time></trkpt><trkpt lat="45.237011" lon="10.9693362"><ele>25.25</ele><time>2026-04-18T13:45:14.096Z</time></trkpt><trkpt lat="45.2371456" lon="10.9693193"><ele>25.0</ele><time>2026-04-18T13:45:15.091Z</time></trkpt><trkpt lat="45.2372753" lon="10.9693015"><ele>25.25</ele><time>2026-04-18T13:45:16.085Z</time></trkpt><trkpt lat="45.2374085" lon="10.9692883"><ele>25.5</ele><time>2026-04-18T13:45:17.094Z</time></trkpt><trkpt lat="45.2375445" lon="10.9692771"><ele>25.75</ele><time>2026-04-18T13:45:18.087Z</time></trkpt><trkpt lat="45.2376798" lon="10.9692673"><ele>26.0</ele><time>2026-04-18T13:45:19.088Z</time></trkpt><trkpt lat="45.237816" lon="10.9692575"><ele>26.0</ele><time>2026-04-18T13:45:20.098Z</time></trkpt><trkpt lat="45.2379508" lon="10.9692405"><ele>26.0</ele><time>2026-04-18T13:45:21.087Z</time></trkpt><trkpt lat="45.2380906" lon="10.9692202"><ele>26.0</ele><time>2026-04-18T13:45:22.088Z</time></trkpt><trkpt lat="45.2382282" lon="10.9692036"><ele>26.0</ele><time>2026-04-18T13:45:23.089Z</time></trkpt><trkpt lat="45.238363" lon="10.9691902"><ele>26.0</ele><time>2026-04-18T13:45:24.085Z</time></trkpt><trkpt lat="45.2384936" lon="10.9691759"><ele>26.0</ele><time>2026-04-18T13:45:25.089Z</time></trkpt><trkpt lat="45.2386195" lon="10.9691579"><ele>26.0</ele><time>2026-04-18T13:45:26.089Z</time></trkpt><trkpt lat="45.2387441" lon="10.9691403"><ele>26.0</ele><time>2026-04-18T13:45:27.091Z</time></trkpt><trkpt lat="45.2388732" lon="10.9691158"><ele>26.25</ele><time>2026-04-18T13:45:28.092Z</time></trkpt><trkpt lat="45.2390084" lon="10.9690751"><ele>26.5</ele><time>2026-04-18T13:45:29.09Z</time></trkpt><trkpt lat="45.2391424" lon="10.9690305"><ele>26.75</ele><time>2026-04-18T13:45:30.099Z</time></trkpt><trkpt lat="45.2392723" lon="10.9689691"><ele>27.0</ele><time>2026-04-18T13:45:31.091Z</time></trkpt><trkpt lat="45.2394124" lon="10.9688875"><ele>27.0</ele><time>2026-04-18T13:45:32.083Z</time></trkpt><trkpt lat="45.2395386" lon="10.968831"><ele>27.0</ele><time>2026-04-18T13:45:33.082Z</time></trkpt><trkpt lat="45.2396515" lon="10.9687733"><ele>27.0</ele><time>2026-04-18T13:45:34.079Z</time></trkpt><trkpt lat="45.2397758" lon="10.9687156"><ele>27.0</ele><time>2026-04-18T13:45:35.077Z</time></trkpt><trkpt lat="45.239888" lon="10.9686597"><ele>27.200000000000003</ele><time>2026-04-18T13:45:36.078Z</time></trkpt><trkpt lat="45.2399847" lon="10.9685974"><ele>27.400000000000002</ele><time>2026-04-18T13:45:37.083Z</time></trkpt><trkpt lat="45.2400622" lon="10.9685558"><ele>27.599999999999998</ele><time>2026-04-18T13:45:38.078Z</time></trkpt><trkpt lat="45.2401283" lon="10.9685245"><ele>27.799999999999997</ele><time>2026-04-18T13:45:39.083Z</time></trkpt><trkpt lat="45.2402211" lon="10.9684995"><ele>28.0</ele><time>2026-04-18T13:45:41.085Z</time></trkpt><trkpt lat="45.2403219" lon="10.9684768"><ele>28.0</ele><time>2026-04-18T13:45:50.084Z</time></trkpt><trkpt lat="45.2404095" lon="10.9684355"><ele>27.999999999999996</ele><time>2026-04-18T13:45:51.098Z</time></trkpt><trkpt lat="45.2405064" lon="10.968383"><ele>27.999999999999996</ele><time>2026-04-18T13:45:52.079Z</time></trkpt><trkpt lat="45.2406131" lon="10.9683293"><ele>28.0</ele><time>2026-04-18T13:45:53.084Z</time></trkpt><trkpt lat="45.2407161" lon="10.968288"><ele>28.0</ele><time>2026-04-18T13:45:54.083Z</time></trkpt><trkpt lat="45.2408161" lon="10.9682476"><ele>27.833333333333336</ele><time>2026-04-18T13:45:55.083Z</time></trkpt><trkpt lat="45.2409031" lon="10.968228"><ele>27.666666666666668</ele><time>2026-04-18T13:45:56.082Z</time></trkpt><trkpt lat="45.2409806" lon="10.9682104"><ele>27.5</ele><time>2026-04-18T13:45:57.078Z</time></trkpt><trkpt lat="45.2410549" lon="10.9681993"><ele>27.333333333333336</ele><time>2026-04-18T13:45:58.082Z</time></trkpt><trkpt lat="45.2411239" lon="10.9682011"><ele>27.166666666666668</ele><time>2026-04-18T13:45:59.085Z</time></trkpt><trkpt lat="45.2412092" lon="10.9683188"><ele>27.0</ele><time>2026-04-18T13:46:01.081Z</time></trkpt><trkpt lat="45.241238" lon="10.9684479"><ele>27.5</ele><time>2026-04-18T13:46:02.086Z</time></trkpt><trkpt lat="45.2412719" lon="10.9686084"><ele>28.0</ele><time>2026-04-18T13:46:03.079Z</time></trkpt><trkpt lat="45.2413113" lon="10.9687976"><ele>28.5</ele><time>2026-04-18T13:46:04.083Z</time></trkpt><trkpt lat="45.2413533" lon="10.9689998"><ele>29.0</ele><time>2026-04-18T13:46:05.079Z</time></trkpt><trkpt lat="45.2414085" lon="10.9691934"><ele>28.75</ele><time>2026-04-18T13:46:06.08Z</time></trkpt><trkpt lat="45.241476" lon="10.9693803"><ele>28.5</ele><time>2026-04-18T13:46:07.084Z</time></trkpt><trkpt lat="45.2415383" lon="10.9695719"><ele>28.25</ele><time>2026-04-18T13:46:08.085Z</time></trkpt><trkpt lat="45.241595" lon="10.9697627"><ele>28.0</ele><time>2026-04-18T13:46:09.085Z</time></trkpt><trkpt lat="45.2416495" lon="10.9699449"><ele>27.5</ele><time>2026-04-18T13:46:10.083Z</time></trkpt><trkpt lat="45.2416919" lon="10.9701047"><ele>27.0</ele><time>2026-04-18T13:46:11.077Z</time></trkpt><trkpt lat="45.2417351" lon="10.9702602"><ele>26.5</ele><time>2026-04-18T13:46:12.078Z</time></trkpt><trkpt lat="45.2417814" lon="10.9704108"><ele>26.0</ele><time>2026-04-18T13:46:13.08Z</time></trkpt><trkpt lat="45.241826" lon="10.9705522"><ele>26.0</ele><time>2026-04-18T13:46:14.082Z</time></trkpt><trkpt lat="45.2418737" lon="10.9706611"><ele>26.0</ele><time>2026-04-18T13:46:15.083Z</time></trkpt><trkpt lat="45.2419274" lon="10.9707425"><ele>26.0</ele><time>2026-04-18T13:46:16.087Z</time></trkpt><trkpt lat="45.2419961" lon="10.9707947"><ele>26.0</ele><time>2026-04-18T13:46:17.082Z</time></trkpt><trkpt lat="45.2420868" lon="10.9708141"><ele>26.0</ele><time>2026-04-18T13:46:18.084Z</time></trkpt><trkpt lat="45.2422007" lon="10.9707916"><ele>26.25</ele><time>2026-04-18T13:46:19.091Z</time></trkpt><trkpt lat="45.2423342" lon="10.9707441"><ele>26.5</ele><time>2026-04-18T13:46:20.082Z</time></trkpt><trkpt lat="45.2424686" lon="10.9706899"><ele>26.75</ele><time>2026-04-18T13:46:21.078Z</time></trkpt><trkpt lat="45.2425994" lon="10.9706283"><ele>27.0</ele><time>2026-04-18T13:46:22.094Z</time></trkpt><trkpt lat="45.2427318" lon="10.9705641"><ele>27.0</ele><time>2026-04-18T13:46:23.081Z</time></trkpt><trkpt lat="45.2428595" lon="10.9704993"><ele>27.0</ele><time>2026-04-18T13:46:24.085Z</time></trkpt><trkpt lat="45.2429687" lon="10.9704458"><ele>27.0</ele><time>2026-04-18T13:46:25.087Z</time></trkpt><trkpt lat="45.2430694" lon="10.9703936"><ele>27.0</ele><time>2026-04-18T13:46:26.083Z</time></trkpt><trkpt lat="45.2431578" lon="10.9703542"><ele>27.25</ele><time>2026-04-18T13:46:27.092Z</time></trkpt><trkpt lat="45.243238" lon="10.9703064"><ele>27.5</ele><time>2026-04-18T13:46:29.084Z</time></trkpt><trkpt lat="45.2433749" lon="10.9702562"><ele>27.75</ele><time>2026-04-18T13:46:34.085Z</time></trkpt><trkpt lat="45.2434761" lon="10.9702341"><ele>28.0</ele><time>2026-04-18T13:46:35.083Z</time></trkpt><trkpt lat="45.2436014" lon="10.9702014"><ele>28.0</ele><time>2026-04-18T13:46:36.09Z</time></trkpt><trkpt lat="45.2437374" lon="10.9701633"><ele>28.0</ele><time>2026-04-18T13:46:37.081Z</time></trkpt><trkpt lat="45.2438922" lon="10.9701189"><ele>28.0</ele><time>2026-04-18T13:46:38.08Z</time></trkpt><trkpt lat="45.2440586" lon="10.9700705"><ele>27.666666666666668</ele><time>2026-04-18T13:46:39.087Z</time></trkpt><trkpt lat="45.2442416" lon="10.9700225"><ele>27.333333333333336</ele><time>2026-04-18T13:46:40.09Z</time></trkpt><trkpt lat="45.2444224" lon="10.9699917"><ele>27.0</ele><time>2026-04-18T13:46:41.091Z</time></trkpt><trkpt lat="45.2445856" lon="10.9699599"><ele>27.0</ele><time>2026-04-18T13:46:42.087Z</time></trkpt><trkpt lat="45.2447377" lon="10.9699099"><ele>27.0</ele><time>2026-04-18T13:46:43.09Z</time></trkpt><trkpt lat="45.244885" lon="10.969836"><ele>27.0</ele><time>2026-04-18T13:46:44.09Z</time></trkpt><trkpt lat="45.2450432" lon="10.9697492"><ele>26.666666666666664</ele><time>2026-04-18T13:46:45.092Z</time></trkpt><trkpt lat="45.2451927" lon="10.9696298"><ele>26.333333333333332</ele><time>2026-04-18T13:46:46.087Z</time></trkpt><trkpt lat="45.2453484" lon="10.969507"><ele>26.0</ele><time>2026-04-18T13:46:47.092Z</time></trkpt><trkpt lat="45.2454987" lon="10.9693829"><ele>26.0</ele><time>2026-04-18T13:46:48.094Z</time></trkpt><trkpt lat="45.2456638" lon="10.9692684"><ele>26.0</ele><time>2026-04-18T13:46:49.089Z</time></trkpt><trkpt lat="45.2458329" lon="10.969148"><ele>26.0</ele><time>2026-04-18T13:46:50.094Z</time></trkpt><trkpt lat="45.2460022" lon="10.9690205"><ele>25.666666666666664</ele><time>2026-04-18T13:46:51.098Z</time></trkpt><trkpt lat="45.2461805" lon="10.9689003"><ele>25.333333333333336</ele><time>2026-04-18T13:46:52.097Z</time></trkpt><trkpt lat="45.2463529" lon="10.9687902"><ele>25.0</ele><time>2026-04-18T13:46:53.114Z</time></trkpt><trkpt lat="45.2465298" lon="10.9686733"><ele>25.0</ele><time>2026-04-18T13:46:54.091Z</time></trkpt><trkpt lat="45.2467072" lon="10.968563"><ele>25.0</ele><time>2026-04-18T13:46:55.092Z</time></trkpt><trkpt lat="45.2468699" lon="10.9684615"><ele>25.0</ele><time>2026-04-18T13:46:56.093Z</time></trkpt><trkpt lat="45.247036" lon="10.9683436"><ele>25.0</ele><time>2026-04-18T13:46:57.098Z</time></trkpt><trkpt lat="45.2471965" lon="10.9682251"><ele>25.0</ele><time>2026-04-18T13:46:58.1Z</time></trkpt><trkpt lat="45.2473516" lon="10.9681009"><ele>25.0</ele><time>2026-04-18T13:46:59.091Z</time></trkpt><trkpt lat="45.2474965" lon="10.9680029"><ele>25.0</ele><time>2026-04-18T13:47:00.093Z</time></trkpt><trkpt lat="45.2476255" lon="10.9679009"><ele>25.0</ele><time>2026-04-18T13:47:01.099Z</time></trkpt><trkpt lat="45.2477609" lon="10.9677991"><ele>25.0</ele><time>2026-04-18T13:47:02.094Z</time></trkpt><trkpt lat="45.2478899" lon="10.9677099"><ele>25.0</ele><time>2026-04-18T13:47:03.097Z</time></trkpt><trkpt lat="45.2480036" lon="10.9676273"><ele>25.0</ele><time>2026-04-18T13:47:04.098Z</time></trkpt><trkpt lat="45.2481267" lon="10.9675388"><ele>25.0</ele><time>2026-04-18T13:47:05.092Z</time></trkpt><trkpt lat="45.2482561" lon="10.9674361"><ele>25.0</ele><time>2026-04-18T13:47:06.094Z</time></trkpt><trkpt lat="45.2484014" lon="10.9672948"><ele>25.0</ele><time>2026-04-18T13:47:07.089Z</time></trkpt><trkpt lat="45.248561" lon="10.9671363"><ele>25.0</ele><time>2026-04-18T13:47:08.098Z</time></trkpt><trkpt lat="45.2487167" lon="10.9669833"><ele>25.0</ele><time>2026-04-18T13:47:09.098Z</time></trkpt><trkpt lat="45.2488633" lon="10.9668511"><ele>25.0</ele><time>2026-04-18T13:47:10.1Z</time></trkpt><trkpt lat="45.2490069" lon="10.9667307"><ele>25.0</ele><time>2026-04-18T13:47:11.093Z</time></trkpt><trkpt lat="45.2491361" lon="10.966612"><ele>25.0</ele><time>2026-04-18T13:47:12.095Z</time></trkpt><trkpt lat="45.2492485" lon="10.9665033"><ele>25.0</ele><time>2026-04-18T13:47:13.09Z</time></trkpt><trkpt lat="45.2493591" lon="10.9664153"><ele>25.0</ele><time>2026-04-18T13:47:14.098Z</time></trkpt><trkpt lat="45.2494723" lon="10.96632"><ele>25.0</ele><time>2026-04-18T13:47:15.096Z</time></trkpt><trkpt lat="45.2495828" lon="10.9662264"><ele>25.0</ele><time>2026-04-18T13:47:16.097Z</time></trkpt><trkpt lat="45.2496941" lon="10.9661457"><ele>25.25</ele><time>2026-04-18T13:47:17.099Z</time></trkpt><trkpt lat="45.2498135" lon="10.9660565"><ele>25.5</ele><time>2026-04-18T13:47:18.096Z</time></trkpt><trkpt lat="45.2499293" lon="10.9659836"><ele>25.75</ele><time>2026-04-18T13:47:19.095Z</time></trkpt><trkpt lat="45.2500391" lon="10.9659163"><ele>26.0</ele><time>2026-04-18T13:47:20.086Z</time></trkpt><trkpt lat="45.2501417" lon="10.965869"><ele>26.0</ele><time>2026-04-18T13:47:21.091Z</time></trkpt><trkpt lat="45.2502374" lon="10.9658293"><ele>26.0</ele><time>2026-04-18T13:47:22.096Z</time></trkpt><trkpt lat="45.2503241" lon="10.965793"><ele>26.0</ele><time>2026-04-18T13:47:23.102Z</time></trkpt><trkpt lat="45.250409" lon="10.9657552"><ele>26.0</ele><time>2026-04-18T13:47:24.111Z</time></trkpt><trkpt lat="45.2504952" lon="10.9657188"><ele>26.0</ele><time>2026-04-18T13:47:25.098Z</time></trkpt><trkpt lat="45.2505929" lon="10.9656827"><ele>26.0</ele><time>2026-04-18T13:47:26.091Z</time></trkpt><trkpt lat="45.2507038" lon="10.9656458"><ele>26.0</ele><time>2026-04-18T13:47:27.092Z</time></trkpt><trkpt lat="45.2508219" lon="10.9656089"><ele>26.0</ele><time>2026-04-18T13:47:28.09Z</time></trkpt><trkpt lat="45.2509475" lon="10.9655677"><ele>26.0</ele><time>2026-04-18T13:47:29.093Z</time></trkpt><trkpt lat="45.2510914" lon="10.9655155"><ele>26.0</ele><time>2026-04-18T13:47:30.107Z</time></trkpt><trkpt lat="45.2512533" lon="10.9654435"><ele>26.0</ele><time>2026-04-18T13:47:31.094Z</time></trkpt><trkpt lat="45.2514273" lon="10.9653415"><ele>26.0</ele><time>2026-04-18T13:47:32.092Z</time></trkpt><trkpt lat="45.2516172" lon="10.9652309"><ele>26.0</ele><time>2026-04-18T13:47:33.092Z</time></trkpt><trkpt lat="45.2518107" lon="10.965135"><ele>26.0</ele><time>2026-04-18T13:47:34.095Z</time></trkpt><trkpt lat="45.2520007" lon="10.9650564"><ele>26.0</ele><time>2026-04-18T13:47:35.095Z</time></trkpt><trkpt lat="45.2521707" lon="10.9649857"><ele>26.0</ele><time>2026-04-18T13:47:36.095Z</time></trkpt><trkpt lat="45.2523398" lon="10.9649275"><ele>26.0</ele><time>2026-04-18T13:47:37.099Z</time></trkpt><trkpt lat="45.2524987" lon="10.9648627"><ele>26.0</ele><time>2026-04-18T13:47:38.088Z</time></trkpt><trkpt lat="45.2526413" lon="10.9647988"><ele>26.0</ele><time>2026-04-18T13:47:39.085Z</time></trkpt><trkpt lat="45.2527662" lon="10.9647418"><ele>26.0</ele><time>2026-04-18T13:47:40.095Z</time></trkpt><trkpt lat="45.2528827" lon="10.9646834"><ele>26.0</ele><time>2026-04-18T13:47:41.102Z</time></trkpt><trkpt lat="45.252993" lon="10.9646346"><ele>26.0</ele><time>2026-04-18T13:47:42.088Z</time></trkpt><trkpt lat="45.2531034" lon="10.9646076"><ele>26.0</ele><time>2026-04-18T13:47:43.094Z</time></trkpt><trkpt lat="45.2532147" lon="10.9646022"><ele>26.0</ele><time>2026-04-18T13:47:44.093Z</time></trkpt><trkpt lat="45.2533425" lon="10.9646235"><ele>26.0</ele><time>2026-04-18T13:47:45.096Z</time></trkpt><trkpt lat="45.25349" lon="10.9646795"><ele>26.0</ele><time>2026-04-18T13:47:46.082Z</time></trkpt><trkpt lat="45.2536416" lon="10.9647301"><ele>26.0</ele><time>2026-04-18T13:47:47.088Z</time></trkpt><trkpt lat="45.2538054" lon="10.9647821"><ele>26.0</ele><time>2026-04-18T13:47:48.082Z</time></trkpt><trkpt lat="45.2539759" lon="10.9648297"><ele>26.0</ele><time>2026-04-18T13:47:49.079Z</time></trkpt><trkpt lat="45.2541701" lon="10.9648807"><ele>25.666666666666664</ele><time>2026-04-18T13:47:50.082Z</time></trkpt><trkpt lat="45.2543635" lon="10.9649123"><ele>25.333333333333336</ele><time>2026-04-18T13:47:51.084Z</time></trkpt><trkpt lat="45.2545646" lon="10.9649353"><ele>25.0</ele><time>2026-04-18T13:47:52.087Z</time></trkpt><trkpt lat="45.2547631" lon="10.9649378"><ele>25.333333333333336</ele><time>2026-04-18T13:47:53.087Z</time></trkpt><trkpt lat="45.2549537" lon="10.9649225"><ele>25.666666666666664</ele><time>2026-04-18T13:47:54.088Z</time></trkpt><trkpt lat="45.2551288" lon="10.964888"><ele>26.0</ele><time>2026-04-18T13:47:55.099Z</time></trkpt><trkpt lat="45.2553031" lon="10.964857"><ele>26.0</ele><time>2026-04-18T13:47:56.088Z</time></trkpt><trkpt lat="45.2554755" lon="10.9648372"><ele>26.0</ele><time>2026-04-18T13:47:57.09Z</time></trkpt><trkpt lat="45.2556392" lon="10.9647872"><ele>26.0</ele><time>2026-04-18T13:47:58.092Z</time></trkpt><trkpt lat="45.2558156" lon="10.964688"><ele>26.0</ele><time>2026-04-18T13:47:59.097Z</time></trkpt><trkpt lat="45.2559843" lon="10.9645865"><ele>26.0</ele><time>2026-04-18T13:48:00.1Z</time></trkpt><trkpt lat="45.2561478" lon="10.9645055"><ele>26.0</ele><time>2026-04-18T13:48:01.091Z</time></trkpt><trkpt lat="45.256315" lon="10.9644419"><ele>26.0</ele><time>2026-04-18T13:48:02.099Z</time></trkpt><trkpt lat="45.2564761" lon="10.9643947"><ele>26.0</ele><time>2026-04-18T13:48:03.096Z</time></trkpt><trkpt lat="45.2566568" lon="10.9643838"><ele>26.0</ele><time>2026-04-18T13:48:04.09Z</time></trkpt><trkpt lat="45.2568411" lon="10.9643908"><ele>26.0</ele><time>2026-04-18T13:48:05.088Z</time></trkpt><trkpt lat="45.2570282" lon="10.9644281"><ele>26.0</ele><time>2026-04-18T13:48:06.091Z</time></trkpt><trkpt lat="45.2572152" lon="10.9644657"><ele>26.0</ele><time>2026-04-18T13:48:07.086Z</time></trkpt><trkpt lat="45.257406" lon="10.9645028"><ele>26.0</ele><time>2026-04-18T13:48:08.092Z</time></trkpt><trkpt lat="45.2575988" lon="10.9645392"><ele>26.0</ele><time>2026-04-18T13:48:09.091Z</time></trkpt><trkpt lat="45.2577932" lon="10.9645574"><ele>26.0</ele><time>2026-04-18T13:48:10.086Z</time></trkpt><trkpt lat="45.2579939" lon="10.964564"><ele>26.333333333333332</ele><time>2026-04-18T13:48:11.09Z</time></trkpt><trkpt lat="45.258203" lon="10.9645522"><ele>26.666666666666664</ele><time>2026-04-18T13:48:12.082Z</time></trkpt><trkpt lat="45.2584177" lon="10.9645494"><ele>27.0</ele><time>2026-04-18T13:48:13.085Z</time></trkpt><trkpt lat="45.258626" lon="10.9645494"><ele>27.0</ele><time>2026-04-18T13:48:14.086Z</time></trkpt><trkpt lat="45.2588291" lon="10.9645502"><ele>27.0</ele><time>2026-04-18T13:48:15.09Z</time></trkpt><trkpt lat="45.2590287" lon="10.9645441"><ele>27.0</ele><time>2026-04-18T13:48:16.081Z</time></trkpt><trkpt lat="45.2592139" lon="10.9645567"><ele>27.25</ele><time>2026-04-18T13:48:17.09Z</time></trkpt><trkpt lat="45.2593711" lon="10.9645661"><ele>27.5</ele><time>2026-04-18T13:48:18.082Z</time></trkpt><trkpt lat="45.2595129" lon="10.9645721"><ele>27.75</ele><time>2026-04-18T13:48:19.085Z</time></trkpt><trkpt lat="45.2596513" lon="10.9645839"><ele>28.0</ele><time>2026-04-18T13:48:20.079Z</time></trkpt><trkpt lat="45.2597701" lon="10.9645973"><ele>27.799999999999997</ele><time>2026-04-18T13:48:21.084Z</time></trkpt><trkpt lat="45.2598818" lon="10.9646034"><ele>27.599999999999998</ele><time>2026-04-18T13:48:22.086Z</time></trkpt><trkpt lat="45.2599789" lon="10.9646094"><ele>27.400000000000002</ele><time>2026-04-18T13:48:23.086Z</time></trkpt><trkpt lat="45.2600777" lon="10.9646114"><ele>27.200000000000003</ele><time>2026-04-18T13:48:24.081Z</time></trkpt><trkpt lat="45.2601791" lon="10.9646121"><ele>27.0</ele><time>2026-04-18T13:48:25.083Z</time></trkpt><trkpt lat="45.2602942" lon="10.964594"><ele>27.0</ele><time>2026-04-18T13:48:26.097Z</time></trkpt><trkpt lat="45.2604191" lon="10.9645819"><ele>27.0</ele><time>2026-04-18T13:48:27.087Z</time></trkpt><trkpt lat="45.2605501" lon="10.9645664"><ele>27.0</ele><time>2026-04-18T13:48:28.084Z</time></trkpt><trkpt lat="45.2606852" lon="10.9645538"><ele>27.0</ele><time>2026-04-18T13:48:29.087Z</time></trkpt><trkpt lat="45.2608243" lon="10.9645364"><ele>27.0</ele><time>2026-04-18T13:48:30.103Z</time></trkpt><trkpt lat="45.2609747" lon="10.9645177"><ele>27.0</ele><time>2026-04-18T13:48:31.093Z</time></trkpt><trkpt lat="45.2611227" lon="10.9645086"><ele>27.0</ele><time>2026-04-18T13:48:32.093Z</time></trkpt><trkpt lat="45.261275" lon="10.9645004"><ele>27.0</ele><time>2026-04-18T13:48:33.087Z</time></trkpt><trkpt lat="45.2614322" lon="10.9645053"><ele>27.0</ele><time>2026-04-18T13:48:34.089Z</time></trkpt><trkpt lat="45.2616069" lon="10.9645196"><ele>27.0</ele><time>2026-04-18T13:48:35.09Z</time></trkpt><trkpt lat="45.2617808" lon="10.9645648"><ele>27.333333333333336</ele><time>2026-04-18T13:48:36.086Z</time></trkpt><trkpt lat="45.2619508" lon="10.9646063"><ele>27.666666666666668</ele><time>2026-04-18T13:48:37.089Z</time></trkpt><trkpt lat="45.2621272" lon="10.9646257"><ele>28.0</ele><time>2026-04-18T13:48:38.089Z</time></trkpt><trkpt lat="45.2623112" lon="10.9646364"><ele>28.0</ele><time>2026-04-18T13:48:39.09Z</time></trkpt><trkpt lat="45.2624998" lon="10.964633"><ele>28.0</ele><time>2026-04-18T13:48:40.09Z</time></trkpt><trkpt lat="45.262676" lon="10.9646266"><ele>28.0</ele><time>2026-04-18T13:48:41.095Z</time></trkpt><trkpt lat="45.2628318" lon="10.9646239"><ele>28.0</ele><time>2026-04-18T13:48:42.096Z</time></trkpt><trkpt lat="45.2629661" lon="10.9646269"><ele>28.0</ele><time>2026-04-18T13:48:43.094Z</time></trkpt><trkpt lat="45.2630925" lon="10.9646218"><ele>28.0</ele><time>2026-04-18T13:48:44.093Z</time></trkpt><trkpt lat="45.2632146" lon="10.964619"><ele>28.0</ele><time>2026-04-18T13:48:45.083Z</time></trkpt><trkpt lat="45.2633317" lon="10.9645982"><ele>27.75</ele><time>2026-04-18T13:48:46.079Z</time></trkpt><trkpt lat="45.2634524" lon="10.9645588"><ele>27.5</ele><time>2026-04-18T13:48:47.089Z</time></trkpt><trkpt lat="45.263592" lon="10.9645261"><ele>27.25</ele><time>2026-04-18T13:48:48.087Z</time></trkpt><trkpt lat="45.2637344" lon="10.9645198"><ele>27.0</ele><time>2026-04-18T13:48:49.079Z</time></trkpt><trkpt lat="45.2638864" lon="10.9645391"><ele>26.666666666666664</ele><time>2026-04-18T13:48:50.083Z</time></trkpt><trkpt lat="45.2640383" lon="10.9645985"><ele>26.333333333333332</ele><time>2026-04-18T13:48:51.084Z</time></trkpt><trkpt lat="45.2641952" lon="10.9646638"><ele>26.0</ele><time>2026-04-18T13:48:52.086Z</time></trkpt><trkpt lat="45.2643414" lon="10.9647473"><ele>26.0</ele><time>2026-04-18T13:48:53.087Z</time></trkpt><trkpt lat="45.264477" lon="10.9648129"><ele>26.0</ele><time>2026-04-18T13:48:54.087Z</time></trkpt><trkpt lat="45.2646094" lon="10.9648912"><ele>26.0</ele><time>2026-04-18T13:48:55.087Z</time></trkpt><trkpt lat="45.2647453" lon="10.9649636"><ele>26.0</ele><time>2026-04-18T13:48:56.092Z</time></trkpt><trkpt lat="45.264877" lon="10.9650509"><ele>26.0</ele><time>2026-04-18T13:48:57.105Z</time></trkpt><trkpt lat="45.2649968" lon="10.9651415"><ele>26.0</ele><time>2026-04-18T13:48:58.093Z</time></trkpt><trkpt lat="45.2651107" lon="10.96522"><ele>26.0</ele><time>2026-04-18T13:48:59.093Z</time></trkpt><trkpt lat="45.265219" lon="10.9652804"><ele>26.0</ele><time>2026-04-18T13:49:00.102Z</time></trkpt><trkpt lat="45.2653112" lon="10.9653254"><ele>26.0</ele><time>2026-04-18T13:49:01.091Z</time></trkpt><trkpt lat="45.2654028" lon="10.9653592"><ele>26.0</ele><time>2026-04-18T13:49:02.089Z</time></trkpt><trkpt lat="45.2654936" lon="10.9654045"><ele>26.0</ele><time>2026-04-18T13:49:03.091Z</time></trkpt><trkpt lat="45.2655904" lon="10.9654477"><ele>26.0</ele><time>2026-04-18T13:49:04.083Z</time></trkpt><trkpt lat="45.2657032" lon="10.9654954"><ele>26.0</ele><time>2026-04-18T13:49:05.086Z</time></trkpt><trkpt lat="45.2658163" lon="10.9655372"><ele>26.5</ele><time>2026-04-18T13:49:06.092Z</time></trkpt><trkpt lat="45.2660127" lon="10.9656096"><ele>27.0</ele><time>2026-04-18T13:49:08.092Z</time></trkpt><trkpt lat="45.2661131" lon="10.9656391"><ele>27.5</ele><time>2026-04-18T13:49:09.09Z</time></trkpt><trkpt lat="45.2662092" lon="10.9656654"><ele>28.0</ele><time>2026-04-18T13:49:10.098Z</time></trkpt><trkpt lat="45.2663006" lon="10.9656947"><ele>28.000000000000004</ele><time>2026-04-18T13:49:11.09Z</time></trkpt><trkpt lat="45.2663863" lon="10.965735"><ele>28.0</ele><time>2026-04-18T13:49:12.089Z</time></trkpt><trkpt lat="45.2664613" lon="10.9657911"><ele>28.0</ele><time>2026-04-18T13:49:13.096Z</time></trkpt><trkpt lat="45.2665059" lon="10.9658755"><ele>28.0</ele><time>2026-04-18T13:49:14.097Z</time></trkpt><trkpt lat="45.2665295" lon="10.9659937"><ele>28.000000000000004</ele><time>2026-04-18T13:49:15.093Z</time></trkpt><trkpt lat="45.2665205" lon="10.966153"><ele>28.0</ele><time>2026-04-18T13:49:16.095Z</time></trkpt><trkpt lat="45.2664953" lon="10.9663661"><ele>28.0</ele><time>2026-04-18T13:49:17.097Z</time></trkpt><trkpt lat="45.2664638" lon="10.9665798"><ele>28.0</ele><time>2026-04-18T13:49:18.094Z</time></trkpt><trkpt lat="45.2664488" lon="10.9667943"><ele>28.0</ele><time>2026-04-18T13:49:19.103Z</time></trkpt><trkpt lat="45.2664609" lon="10.9669907"><ele>28.0</ele><time>2026-04-18T13:49:20.092Z</time></trkpt><trkpt lat="45.2665001" lon="10.967188"><ele>28.0</ele><time>2026-04-18T13:49:21.099Z</time></trkpt><trkpt lat="45.2665702" lon="10.9673718"><ele>28.0</ele><time>2026-04-18T13:49:22.098Z</time></trkpt><trkpt lat="45.2666615" lon="10.9675677"><ele>28.0</ele><time>2026-04-18T13:49:23.101Z</time></trkpt><trkpt lat="45.2667523" lon="10.9677722"><ele>28.0</ele><time>2026-04-18T13:49:24.099Z</time></trkpt><trkpt lat="45.2668426" lon="10.9679879"><ele>28.0</ele><time>2026-04-18T13:49:25.099Z</time></trkpt><trkpt lat="45.2669273" lon="10.9682244"><ele>28.0</ele><time>2026-04-18T13:49:26.097Z</time></trkpt><trkpt lat="45.2669984" lon="10.9684653"><ele>28.0</ele><time>2026-04-18T13:49:27.091Z</time></trkpt><trkpt lat="45.2670642" lon="10.9687149"><ele>28.0</ele><time>2026-04-18T13:49:28.112Z</time></trkpt><trkpt lat="45.2671286" lon="10.9689357"><ele>28.0</ele><time>2026-04-18T13:49:29.092Z</time></trkpt><trkpt lat="45.267177" lon="10.9691956"><ele>28.0</ele><time>2026-04-18T13:49:30.1Z</time></trkpt><trkpt lat="45.2672192" lon="10.9694681"><ele>28.0</ele><time>2026-04-18T13:49:31.099Z</time></trkpt><trkpt lat="45.2672482" lon="10.969743"><ele>28.0</ele><time>2026-04-18T13:49:32.091Z</time></trkpt><trkpt lat="45.2672662" lon="10.9700302"><ele>28.0</ele><time>2026-04-18T13:49:33.089Z</time></trkpt><trkpt lat="45.2672711" lon="10.970329"><ele>28.0</ele><time>2026-04-18T13:49:34.086Z</time></trkpt><trkpt lat="45.2672692" lon="10.9706298"><ele>28.0</ele><time>2026-04-18T13:49:35.091Z</time></trkpt><trkpt lat="45.2672686" lon="10.9709336"><ele>28.0</ele><time>2026-04-18T13:49:36.092Z</time></trkpt><trkpt lat="45.2672728" lon="10.9712124"><ele>28.0</ele><time>2026-04-18T13:49:37.098Z</time></trkpt><trkpt lat="45.2672816" lon="10.9714835"><ele>28.0</ele><time>2026-04-18T13:49:38.095Z</time></trkpt><trkpt lat="45.2673024" lon="10.9717397"><ele>28.0</ele><time>2026-04-18T13:49:39.097Z</time></trkpt><trkpt lat="45.2673225" lon="10.9719925"><ele>28.0</ele><time>2026-04-18T13:49:40.099Z</time></trkpt><trkpt lat="45.2673613" lon="10.9722369"><ele>28.0</ele><time>2026-04-18T13:49:41.1Z</time></trkpt><trkpt lat="45.2674083" lon="10.9724851"><ele>27.666666666666668</ele><time>2026-04-18T13:49:42.094Z</time></trkpt><trkpt lat="45.2674709" lon="10.97274"><ele>27.333333333333336</ele><time>2026-04-18T13:49:43.092Z</time></trkpt><trkpt lat="45.2675383" lon="10.973002"><ele>27.0</ele><time>2026-04-18T13:49:44.095Z</time></trkpt><trkpt lat="45.2676137" lon="10.9732533"><ele>27.666666666666664</ele><time>2026-04-18T13:49:45.093Z</time></trkpt><trkpt lat="45.267695" lon="10.9734999"><ele>28.333333333333332</ele><time>2026-04-18T13:49:46.092Z</time></trkpt><trkpt lat="45.2677798" lon="10.9737243"><ele>29.0</ele><time>2026-04-18T13:49:47.096Z</time></trkpt><trkpt lat="45.267858" lon="10.9739321"><ele>29.0</ele><time>2026-04-18T13:49:48.101Z</time></trkpt><trkpt lat="45.2679185" lon="10.9741502"><ele>29.0</ele><time>2026-04-18T13:49:49.099Z</time></trkpt><trkpt lat="45.2679786" lon="10.974384"><ele>29.0</ele><time>2026-04-18T13:49:50.094Z</time></trkpt><trkpt lat="45.2680228" lon="10.9746372"><ele>29.0</ele><time>2026-04-18T13:49:51.098Z</time></trkpt><trkpt lat="45.2680623" lon="10.9748976"><ele>29.0</ele><time>2026-04-18T13:49:52.095Z</time></trkpt><trkpt lat="45.2680987" lon="10.9751578"><ele>29.0</ele><time>2026-04-18T13:49:53.099Z</time></trkpt><trkpt lat="45.268137" lon="10.9754167"><ele>29.0</ele><time>2026-04-18T13:49:54.101Z</time></trkpt><trkpt lat="45.2681708" lon="10.9756862"><ele>29.0</ele><time>2026-04-18T13:49:55.101Z</time></trkpt><trkpt lat="45.2682097" lon="10.9759715"><ele>29.0</ele><time>2026-04-18T13:49:56.102Z</time></trkpt><trkpt lat="45.2682578" lon="10.9762481"><ele>28.666666666666664</ele><time>2026-04-18T13:49:57.097Z</time></trkpt><trkpt lat="45.2683082" lon="10.9765336"><ele>28.333333333333336</ele><time>2026-04-18T13:49:58.097Z</time></trkpt><trkpt lat="45.2683674" lon="10.9768186"><ele>28.0</ele><time>2026-04-18T13:49:59.109Z</time></trkpt><trkpt lat="45.2684329" lon="10.9770992"><ele>28.0</ele><time>2026-04-18T13:50:00.105Z</time></trkpt><trkpt lat="45.2684916" lon="10.9773855"><ele>28.0</ele><time>2026-04-18T13:50:01.102Z</time></trkpt><trkpt lat="45.2685579" lon="10.9776849"><ele>28.0</ele><time>2026-04-18T13:50:02.099Z</time></trkpt><trkpt lat="45.2686254" lon="10.9779862"><ele>27.666666666666668</ele><time>2026-04-18T13:50:03.096Z</time></trkpt><trkpt lat="45.2686886" lon="10.9782846"><ele>27.333333333333336</ele><time>2026-04-18T13:50:04.102Z</time></trkpt><trkpt lat="45.268742" lon="10.9785526"><ele>27.0</ele><time>2026-04-18T13:50:05.095Z</time></trkpt><trkpt lat="45.2687955" lon="10.9788039"><ele>27.0</ele><time>2026-04-18T13:50:06.101Z</time></trkpt><trkpt lat="45.2688465" lon="10.9790306"><ele>27.0</ele><time>2026-04-18T13:50:07.1Z</time></trkpt><trkpt lat="45.2688946" lon="10.9792535"><ele>27.0</ele><time>2026-04-18T13:50:08.106Z</time></trkpt><trkpt lat="45.268944" lon="10.9794526"><ele>27.0</ele><time>2026-04-18T13:50:09.102Z</time></trkpt><trkpt lat="45.2689995" lon="10.9796432"><ele>27.0</ele><time>2026-04-18T13:50:10.102Z</time></trkpt><trkpt lat="45.2690553" lon="10.9798168"><ele>27.0</ele><time>2026-04-18T13:50:11.106Z</time></trkpt><trkpt lat="45.26913" lon="10.9799749"><ele>27.0</ele><time>2026-04-18T13:50:12.108Z</time></trkpt><trkpt lat="45.2692224" lon="10.9801186"><ele>27.25</ele><time>2026-04-18T13:50:13.1Z</time></trkpt><trkpt lat="45.2693428" lon="10.9802576"><ele>27.5</ele><time>2026-04-18T13:50:14.1Z</time></trkpt><trkpt lat="45.2694561" lon="10.9803784"><ele>27.75</ele><time>2026-04-18T13:50:15.104Z</time></trkpt><trkpt lat="45.2695462" lon="10.980505"><ele>28.0</ele><time>2026-04-18T13:50:16.099Z</time></trkpt><trkpt lat="45.2696176" lon="10.9806672"><ele>27.333333333333336</ele><time>2026-04-18T13:50:17.106Z</time></trkpt><trkpt lat="45.2696759" lon="10.9808673"><ele>26.666666666666664</ele><time>2026-04-18T13:50:18.096Z</time></trkpt><trkpt lat="45.2697281" lon="10.9810934"><ele>26.0</ele><time>2026-04-18T13:50:19.103Z</time></trkpt><trkpt lat="45.269771" lon="10.9813374"><ele>26.333333333333332</ele><time>2026-04-18T13:50:20.105Z</time></trkpt><trkpt lat="45.269818" lon="10.9816021"><ele>26.666666666666664</ele><time>2026-04-18T13:50:21.096Z</time></trkpt><trkpt lat="45.2698695" lon="10.9818563"><ele>27.0</ele><time>2026-04-18T13:50:22.1Z</time></trkpt><trkpt lat="45.2699308" lon="10.982118"><ele>27.0</ele><time>2026-04-18T13:50:23.099Z</time></trkpt><trkpt lat="45.2699971" lon="10.9823848"><ele>27.0</ele><time>2026-04-18T13:50:24.094Z</time></trkpt><trkpt lat="45.2700526" lon="10.9826582"><ele>27.0</ele><time>2026-04-18T13:50:25.095Z</time></trkpt><trkpt lat="45.2701133" lon="10.9829172"><ele>27.0</ele><time>2026-04-18T13:50:26.096Z</time></trkpt><trkpt lat="45.2701777" lon="10.9831765"><ele>27.0</ele><time>2026-04-18T13:50:27.094Z</time></trkpt><trkpt lat="45.2702493" lon="10.9834306"><ele>27.0</ele><time>2026-04-18T13:50:28.106Z</time></trkpt><trkpt lat="45.27032" lon="10.9836814"><ele>26.333333333333336</ele><time>2026-04-18T13:50:29.102Z</time></trkpt><trkpt lat="45.2704017" lon="10.9839373"><ele>25.666666666666668</ele><time>2026-04-18T13:50:30.116Z</time></trkpt><trkpt lat="45.2704967" lon="10.9841939"><ele>25.0</ele><time>2026-04-18T13:50:31.108Z</time></trkpt><trkpt lat="45.2706032" lon="10.9844553"><ele>25.666666666666668</ele><time>2026-04-18T13:50:32.103Z</time></trkpt><trkpt lat="45.2707193" lon="10.9847134"><ele>26.333333333333336</ele><time>2026-04-18T13:50:33.108Z</time></trkpt><trkpt lat="45.2708363" lon="10.9849854"><ele>27.0</ele><time>2026-04-18T13:50:34.104Z</time></trkpt><trkpt lat="45.2709546" lon="10.9852597"><ele>27.5</ele><time>2026-04-18T13:50:35.104Z</time></trkpt><trkpt lat="45.2710709" lon="10.9855396"><ele>28.0</ele><time>2026-04-18T13:50:36.108Z</time></trkpt><trkpt lat="45.2711814" lon="10.9858142"><ele>28.0</ele><time>2026-04-18T13:50:37.107Z</time></trkpt><trkpt lat="45.2712824" lon="10.9860791"><ele>28.0</ele><time>2026-04-18T13:50:38.105Z</time></trkpt><trkpt lat="45.271368" lon="10.9863361"><ele>28.0</ele><time>2026-04-18T13:50:39.105Z</time></trkpt><trkpt lat="45.2714508" lon="10.986586"><ele>27.666666666666668</ele><time>2026-04-18T13:50:40.101Z</time></trkpt><trkpt lat="45.2715197" lon="10.9868287"><ele>27.333333333333336</ele><time>2026-04-18T13:50:41.102Z</time></trkpt><trkpt lat="45.2715795" lon="10.9870676"><ele>27.0</ele><time>2026-04-18T13:50:42.111Z</time></trkpt><trkpt lat="45.2716313" lon="10.9873109"><ele>27.0</ele><time>2026-04-18T13:50:43.108Z</time></trkpt><trkpt lat="45.2716807" lon="10.9875777"><ele>27.0</ele><time>2026-04-18T13:50:44.109Z</time></trkpt><trkpt lat="45.2717262" lon="10.9878497"><ele>27.0</ele><time>2026-04-18T13:50:45.107Z</time></trkpt><trkpt lat="45.2717688" lon="10.9881145"><ele>27.333333333333336</ele><time>2026-04-18T13:50:46.112Z</time></trkpt><trkpt lat="45.2718091" lon="10.9883526"><ele>27.666666666666668</ele><time>2026-04-18T13:50:47.109Z</time></trkpt><trkpt lat="45.2718428" lon="10.9885707"><ele>28.0</ele><time>2026-04-18T13:50:48.111Z</time></trkpt><trkpt lat="45.2718779" lon="10.9887744"><ele>28.0</ele><time>2026-04-18T13:50:49.107Z</time></trkpt><trkpt lat="45.2719086" lon="10.9889612"><ele>28.0</ele><time>2026-04-18T13:50:50.101Z</time></trkpt><trkpt lat="45.2719336" lon="10.9891429"><ele>28.0</ele><time>2026-04-18T13:50:51.102Z</time></trkpt><trkpt lat="45.2719686" lon="10.9893347"><ele>28.0</ele><time>2026-04-18T13:50:52.1Z</time></trkpt><trkpt lat="45.272012" lon="10.9895334"><ele>27.666666666666668</ele><time>2026-04-18T13:50:53.104Z</time></trkpt><trkpt lat="45.2720638" lon="10.9897356"><ele>27.333333333333336</ele><time>2026-04-18T13:50:54.101Z</time></trkpt><trkpt lat="45.2721238" lon="10.9899317"><ele>27.0</ele><time>2026-04-18T13:50:55.099Z</time></trkpt><trkpt lat="45.2721821" lon="10.9901738"><ele>27.0</ele><time>2026-04-18T13:50:56.111Z</time></trkpt><trkpt lat="45.2722436" lon="10.9904155"><ele>27.0</ele><time>2026-04-18T13:50:57.118Z</time></trkpt><trkpt lat="45.272306" lon="10.9906628"><ele>27.0</ele><time>2026-04-18T13:50:58.116Z</time></trkpt><trkpt lat="45.2723852" lon="10.9909161"><ele>27.0</ele><time>2026-04-18T13:50:59.111Z</time></trkpt><trkpt lat="45.2724676" lon="10.9911752"><ele>27.0</ele><time>2026-04-18T13:51:00.122Z</time></trkpt><trkpt lat="45.272548" lon="10.9914276"><ele>27.0</ele><time>2026-04-18T13:51:01.127Z</time></trkpt><trkpt lat="45.2726175" lon="10.9916554"><ele>26.5</ele><time>2026-04-18T13:51:02.113Z</time></trkpt><trkpt lat="45.2726799" lon="10.9918499"><ele>26.0</ele><time>2026-04-18T13:51:03.112Z</time></trkpt><trkpt lat="45.2727379" lon="10.9920375"><ele>25.5</ele><time>2026-04-18T13:51:04.11Z</time></trkpt><trkpt lat="45.2727938" lon="10.9922199"><ele>25.0</ele><time>2026-04-18T13:51:05.111Z</time></trkpt><trkpt lat="45.2728658" lon="10.9923937"><ele>24.666666666666668</ele><time>2026-04-18T13:51:06.106Z</time></trkpt><trkpt lat="45.2729791" lon="10.9925523"><ele>24.333333333333336</ele><time>2026-04-18T13:51:07.113Z</time></trkpt><trkpt lat="45.2731173" lon="10.9926775"><ele>24.0</ele><time>2026-04-18T13:51:08.112Z</time></trkpt><trkpt lat="45.2732576" lon="10.992751"><ele>25.0</ele><time>2026-04-18T13:51:09.105Z</time></trkpt><trkpt lat="45.2734153" lon="10.9927632"><ele>26.0</ele><time>2026-04-18T13:51:10.108Z</time></trkpt><trkpt lat="45.2735732" lon="10.9927065"><ele>27.0</ele><time>2026-04-18T13:51:11.105Z</time></trkpt><trkpt lat="45.273729" lon="10.9926125"><ele>27.0</ele><time>2026-04-18T13:51:12.091Z</time></trkpt><trkpt lat="45.2738866" lon="10.9924885"><ele>27.0</ele><time>2026-04-18T13:51:13.097Z</time></trkpt><trkpt lat="45.2740423" lon="10.9923673"><ele>27.0</ele><time>2026-04-18T13:51:14.116Z</time></trkpt><trkpt lat="45.2742086" lon="10.9922419"><ele>27.0</ele><time>2026-04-18T13:51:15.105Z</time></trkpt><trkpt lat="45.2743771" lon="10.9921085"><ele>27.0</ele><time>2026-04-18T13:51:16.105Z</time></trkpt><trkpt lat="45.2745396" lon="10.9919673"><ele>27.0</ele><time>2026-04-18T13:51:17.117Z</time></trkpt><trkpt lat="45.2747004" lon="10.9918161"><ele>26.333333333333336</ele><time>2026-04-18T13:51:18.113Z</time></trkpt><trkpt lat="45.2748635" lon="10.9916764"><ele>25.666666666666668</ele><time>2026-04-18T13:51:19.113Z</time></trkpt><trkpt lat="45.2750298" lon="10.9915315"><ele>25.0</ele><time>2026-04-18T13:51:20.107Z</time></trkpt><trkpt lat="45.2751848" lon="10.9913869"><ele>25.0</ele><time>2026-04-18T13:51:21.11Z</time></trkpt><trkpt lat="45.2753272" lon="10.9912613"><ele>25.0</ele><time>2026-04-18T13:51:22.102Z</time></trkpt><trkpt lat="45.2754583" lon="10.9911358"><ele>25.0</ele><time>2026-04-18T13:51:23.104Z</time></trkpt><trkpt lat="45.2755924" lon="10.991004"><ele>25.0</ele><time>2026-04-18T13:51:24.098Z</time></trkpt><trkpt lat="45.2757319" lon="10.9908619"><ele>25.0</ele><time>2026-04-18T13:51:25.092Z</time></trkpt><trkpt lat="45.275849" lon="10.9907711"><ele>25.0</ele><time>2026-04-18T13:51:26.101Z</time></trkpt><trkpt lat="45.2759303" lon="10.9907119"><ele>25.0</ele><time>2026-04-18T13:51:27.092Z</time></trkpt><trkpt lat="45.2760101" lon="10.9907062"><ele>25.500000000000004</ele><time>2026-04-18T13:51:28.104Z</time></trkpt><trkpt lat="45.2760856" lon="10.9907617"><ele>26.0</ele><time>2026-04-18T13:51:29.095Z</time></trkpt><trkpt lat="45.2761589" lon="10.9907996"><ele>26.5</ele><time>2026-04-18T13:51:30.103Z</time></trkpt><trkpt lat="45.2762204" lon="10.9908259"><ele>27.0</ele><time>2026-04-18T13:51:31.096Z</time></trkpt><trkpt lat="45.276282" lon="10.9908067"><ele>27.500000000000004</ele><time>2026-04-18T13:51:32.113Z</time></trkpt><trkpt lat="45.2763436" lon="10.9907413"><ele>28.0</ele><time>2026-04-18T13:51:33.106Z</time></trkpt><trkpt lat="45.2763831" lon="10.9906375"><ele>28.0</ele><time>2026-04-18T13:51:34.104Z</time></trkpt><trkpt lat="45.2763823" lon="10.9905078"><ele>27.999999999999996</ele><time>2026-04-18T13:51:35.103Z</time></trkpt><trkpt lat="45.2763353" lon="10.9903802"><ele>27.999999999999996</ele><time>2026-04-18T13:51:36.097Z</time></trkpt><trkpt lat="45.2762562" lon="10.9902983"><ele>28.0</ele><time>2026-04-18T13:51:37.094Z</time></trkpt><trkpt lat="45.2761532" lon="10.9902131"><ele>28.0</ele><time>2026-04-18T13:51:38.097Z</time></trkpt><trkpt lat="45.2760492" lon="10.9900932"><ele>28.333333333333336</ele><time>2026-04-18T13:51:39.1Z</time></trkpt><trkpt lat="45.2759766" lon="10.9898976"><ele>28.666666666666664</ele><time>2026-04-18T13:51:40.103Z</time></trkpt><trkpt lat="45.2759271" lon="10.9896762"><ele>29.0</ele><time>2026-04-18T13:51:41.089Z</time></trkpt><trkpt lat="45.2758764" lon="10.989421"><ele>28.333333333333332</ele><time>2026-04-18T13:51:42.099Z</time></trkpt><trkpt lat="45.2758239" lon="10.9891553"><ele>27.666666666666664</ele><time>2026-04-18T13:51:43.1Z</time></trkpt><trkpt lat="45.2757678" lon="10.9888727"><ele>27.0</ele><time>2026-04-18T13:51:44.11Z</time></trkpt><trkpt lat="45.2757136" lon="10.9885723"><ele>27.0</ele><time>2026-04-18T13:51:45.104Z</time></trkpt><trkpt lat="45.2756577" lon="10.9882606"><ele>27.0</ele><time>2026-04-18T13:51:46.103Z</time></trkpt><trkpt lat="45.2756089" lon="10.9879541"><ele>27.0</ele><time>2026-04-18T13:51:47.11Z</time></trkpt><trkpt lat="45.2755585" lon="10.9876431"><ele>27.0</ele><time>2026-04-18T13:51:48.104Z</time></trkpt><trkpt lat="45.2755147" lon="10.9873482"><ele>27.0</ele><time>2026-04-18T13:51:49.103Z</time></trkpt><trkpt lat="45.2754735" lon="10.9870576"><ele>27.0</ele><time>2026-04-18T13:51:50.098Z</time></trkpt><trkpt lat="45.2754341" lon="10.9867727"><ele>27.0</ele><time>2026-04-18T13:51:51.106Z</time></trkpt><trkpt lat="45.2753902" lon="10.9864869"><ele>27.0</ele><time>2026-04-18T13:51:52.104Z</time></trkpt><trkpt lat="45.2753508" lon="10.9861886"><ele>27.0</ele><time>2026-04-18T13:51:53.102Z</time></trkpt><trkpt lat="45.2753196" lon="10.9858864"><ele>27.333333333333336</ele><time>2026-04-18T13:51:54.101Z</time></trkpt><trkpt lat="45.2753088" lon="10.9855905"><ele>27.666666666666668</ele><time>2026-04-18T13:51:55.098Z</time></trkpt><trkpt lat="45.2753172" lon="10.9853035"><ele>28.0</ele><time>2026-04-18T13:51:56.105Z</time></trkpt><trkpt lat="45.275335" lon="10.9850221"><ele>28.333333333333336</ele><time>2026-04-18T13:51:57.108Z</time></trkpt><trkpt lat="45.2753645" lon="10.9847391"><ele>28.666666666666664</ele><time>2026-04-18T13:51:58.106Z</time></trkpt><trkpt lat="45.2753966" lon="10.9844606"><ele>29.0</ele><time>2026-04-18T13:51:59.108Z</time></trkpt><trkpt lat="45.2754423" lon="10.9841736"><ele>29.0</ele><time>2026-04-18T13:52:00.118Z</time></trkpt><trkpt lat="45.2754773" lon="10.9838821"><ele>29.0</ele><time>2026-04-18T13:52:01.106Z</time></trkpt><trkpt lat="45.2755132" lon="10.98359"><ele>29.0</ele><time>2026-04-18T13:52:02.097Z</time></trkpt><trkpt lat="45.2755521" lon="10.9832947"><ele>29.0</ele><time>2026-04-18T13:52:03.131Z</time></trkpt><trkpt lat="45.2755857" lon="10.9829944"><ele>29.0</ele><time>2026-04-18T13:52:04.105Z</time></trkpt><trkpt lat="45.2756169" lon="10.9826914"><ele>29.0</ele><time>2026-04-18T13:52:05.103Z</time></trkpt><trkpt lat="45.2756516" lon="10.9823936"><ele>28.333333333333332</ele><time>2026-04-18T13:52:06.106Z</time></trkpt><trkpt lat="45.275688" lon="10.9820902"><ele>27.666666666666664</ele><time>2026-04-18T13:52:07.107Z</time></trkpt><trkpt lat="45.2757202" lon="10.981798"><ele>27.0</ele><time>2026-04-18T13:52:08.108Z</time></trkpt><trkpt lat="45.2757523" lon="10.9815066"><ele>27.0</ele><time>2026-04-18T13:52:09.106Z</time></trkpt><trkpt lat="45.2757818" lon="10.981222"><ele>27.0</ele><time>2026-04-18T13:52:10.105Z</time></trkpt><trkpt lat="45.2758065" lon="10.9809363"><ele>27.0</ele><time>2026-04-18T13:52:11.105Z</time></trkpt><trkpt lat="45.2758303" lon="10.9806454"><ele>27.0</ele><time>2026-04-18T13:52:12.109Z</time></trkpt><trkpt lat="45.2758422" lon="10.9803468"><ele>27.0</ele><time>2026-04-18T13:52:13.102Z</time></trkpt><trkpt lat="45.2758452" lon="10.9800445"><ele>27.0</ele><time>2026-04-18T13:52:14.103Z</time></trkpt><trkpt lat="45.2758383" lon="10.9797522"><ele>27.333333333333336</ele><time>2026-04-18T13:52:15.106Z</time></trkpt><trkpt lat="45.275834" lon="10.9794537"><ele>27.666666666666668</ele><time>2026-04-18T13:52:16.108Z</time></trkpt><trkpt lat="45.2758336" lon="10.979152"><ele>28.0</ele><time>2026-04-18T13:52:17.106Z</time></trkpt><trkpt lat="45.2758247" lon="10.9788475"><ele>28.0</ele><time>2026-04-18T13:52:18.106Z</time></trkpt><trkpt lat="45.2758149" lon="10.9785437"><ele>28.0</ele><time>2026-04-18T13:52:19.109Z</time></trkpt><trkpt lat="45.2758049" lon="10.9782438"><ele>28.0</ele><time>2026-04-18T13:52:20.106Z</time></trkpt><trkpt lat="45.2757922" lon="10.9779358"><ele>28.0</ele><time>2026-04-18T13:52:21.106Z</time></trkpt><trkpt lat="45.275786" lon="10.9776212"><ele>28.0</ele><time>2026-04-18T13:52:22.109Z</time></trkpt><trkpt lat="45.2757876" lon="10.9773005"><ele>28.0</ele><time>2026-04-18T13:52:23.108Z</time></trkpt><trkpt lat="45.2757908" lon="10.9769879"><ele>28.666666666666668</ele><time>2026-04-18T13:52:24.106Z</time></trkpt><trkpt lat="45.2757899" lon="10.9766712"><ele>29.333333333333336</ele><time>2026-04-18T13:52:25.108Z</time></trkpt><trkpt lat="45.2757863" lon="10.9763493"><ele>30.0</ele><time>2026-04-18T13:52:26.111Z</time></trkpt><trkpt lat="45.2757836" lon="10.97603"><ele>30.5</ele><time>2026-04-18T13:52:27.112Z</time></trkpt><trkpt lat="45.2757733" lon="10.9757061"><ele>31.0</ele><time>2026-04-18T13:52:28.105Z</time></trkpt><trkpt lat="45.2757618" lon="10.9753863"><ele>31.0</ele><time>2026-04-18T13:52:29.105Z</time></trkpt><trkpt lat="45.2757426" lon="10.9750666"><ele>31.0</ele><time>2026-04-18T13:52:30.109Z</time></trkpt><trkpt lat="45.2757344" lon="10.9747511"><ele>31.0</ele><time>2026-04-18T13:52:31.105Z</time></trkpt><trkpt lat="45.2757291" lon="10.9744335"><ele>30.666666666666668</ele><time>2026-04-18T13:52:32.104Z</time></trkpt><trkpt lat="45.2757361" lon="10.9741112"><ele>30.333333333333336</ele><time>2026-04-18T13:52:33.115Z</time></trkpt><trkpt lat="45.2757429" lon="10.9737996"><ele>30.0</ele><time>2026-04-18T13:52:34.107Z</time></trkpt><trkpt lat="45.2757513" lon="10.9734778"><ele>30.0</ele><time>2026-04-18T13:52:35.107Z</time></trkpt><trkpt lat="45.2757654" lon="10.9731587"><ele>30.0</ele><time>2026-04-18T13:52:36.101Z</time></trkpt><trkpt lat="45.2757831" lon="10.9728408"><ele>30.0</ele><time>2026-04-18T13:52:37.107Z</time></trkpt><trkpt lat="45.2758013" lon="10.9725197"><ele>30.0</ele><time>2026-04-18T13:52:38.105Z</time></trkpt><trkpt lat="45.2758191" lon="10.9722068"><ele>30.0</ele><time>2026-04-18T13:52:39.111Z</time></trkpt><trkpt lat="45.2758423" lon="10.9718996"><ele>30.0</ele><time>2026-04-18T13:52:40.104Z</time></trkpt><trkpt lat="45.2758673" lon="10.9715882"><ele>30.0</ele><time>2026-04-18T13:52:41.103Z</time></trkpt><trkpt lat="45.2758869" lon="10.9712814"><ele>30.0</ele><time>2026-04-18T13:52:42.106Z</time></trkpt><trkpt lat="45.2759068" lon="10.9709695"><ele>30.0</ele><time>2026-04-18T13:52:43.102Z</time></trkpt><trkpt lat="45.2759313" lon="10.9706526"><ele>29.666666666666664</ele><time>2026-04-18T13:52:44.109Z</time></trkpt><trkpt lat="45.2759623" lon="10.9703427"><ele>29.333333333333332</ele><time>2026-04-18T13:52:45.106Z</time></trkpt><trkpt lat="45.275983" lon="10.9700574"><ele>29.0</ele><time>2026-04-18T13:52:46.106Z</time></trkpt><trkpt lat="45.2759918" lon="10.9697997"><ele>29.0</ele><time>2026-04-18T13:52:47.105Z</time></trkpt><trkpt lat="45.2759873" lon="10.9695528"><ele>29.0</ele><time>2026-04-18T13:52:48.103Z</time></trkpt><trkpt lat="45.2759612" lon="10.9692912"><ele>29.0</ele><time>2026-04-18T13:52:49.104Z</time></trkpt><trkpt lat="45.2759224" lon="10.9690389"><ele>29.5</ele><time>2026-04-18T13:52:50.107Z</time></trkpt><trkpt lat="45.2758831" lon="10.9688133"><ele>30.0</ele><time>2026-04-18T13:52:51.104Z</time></trkpt><trkpt lat="45.2758483" lon="10.968614"><ele>30.5</ele><time>2026-04-18T13:52:52.105Z</time></trkpt><trkpt lat="45.275816" lon="10.9684555"><ele>31.0</ele><time>2026-04-18T13:52:53.102Z</time></trkpt><trkpt lat="45.2757879" lon="10.9683245"><ele>31.333333333333336</ele><time>2026-04-18T13:52:54.103Z</time></trkpt><trkpt lat="45.2757537" lon="10.9682391"><ele>31.666666666666668</ele><time>2026-04-18T13:52:55.1Z</time></trkpt><trkpt lat="45.2757597" lon="10.9681289"><ele>32.0</ele><time>2026-04-18T13:52:57.103Z</time></trkpt><trkpt lat="45.2758362" lon="10.9680893"><ele>32.333333333333336</ele><time>2026-04-18T13:52:59.109Z</time></trkpt><trkpt lat="45.2759143" lon="10.9680909"><ele>32.666666666666664</ele><time>2026-04-18T13:53:00.115Z</time></trkpt><trkpt lat="45.2760431" lon="10.968103"><ele>33.0</ele><time>2026-04-18T13:53:01.112Z</time></trkpt><trkpt lat="45.2761958" lon="10.9681103"><ele>33.0</ele><time>2026-04-18T13:53:02.101Z</time></trkpt><trkpt lat="45.2763743" lon="10.9681095"><ele>33.0</ele><time>2026-04-18T13:53:03.091Z</time></trkpt><trkpt lat="45.2765768" lon="10.9680984"><ele>33.0</ele><time>2026-04-18T13:53:04.109Z</time></trkpt><trkpt lat="45.2767646" lon="10.9680882"><ele>33.333333333333336</ele><time>2026-04-18T13:53:05.103Z</time></trkpt><trkpt lat="45.2769515" lon="10.9680683"><ele>33.66666666666667</ele><time>2026-04-18T13:53:06.102Z</time></trkpt><trkpt lat="45.2771398" lon="10.9680235"><ele>34.0</ele><time>2026-04-18T13:53:07.103Z</time></trkpt><trkpt lat="45.277337" lon="10.9679486"><ele>33.333333333333336</ele><time>2026-04-18T13:53:08.102Z</time></trkpt><trkpt lat="45.2775354" lon="10.9678569"><ele>32.666666666666664</ele><time>2026-04-18T13:53:09.104Z</time></trkpt><trkpt lat="45.2777423" lon="10.9677597"><ele>32.0</ele><time>2026-04-18T13:53:10.098Z</time></trkpt><trkpt lat="45.2779558" lon="10.9676593"><ele>31.666666666666664</ele><time>2026-04-18T13:53:11.1Z</time></trkpt><trkpt lat="45.2781713" lon="10.9675497"><ele>31.333333333333336</ele><time>2026-04-18T13:53:12.102Z</time></trkpt><trkpt lat="45.2783685" lon="10.9674485"><ele>31.0</ele><time>2026-04-18T13:53:13.094Z</time></trkpt><trkpt lat="45.2785516" lon="10.9673643"><ele>31.333333333333336</ele><time>2026-04-18T13:53:14.101Z</time></trkpt><trkpt lat="45.2787162" lon="10.9673053"><ele>31.666666666666664</ele><time>2026-04-18T13:53:15.095Z</time></trkpt><trkpt lat="45.2788793" lon="10.9672604"><ele>32.0</ele><time>2026-04-18T13:53:16.103Z</time></trkpt><trkpt lat="45.2790399" lon="10.967189"><ele>32.0</ele><time>2026-04-18T13:53:17.108Z</time></trkpt><trkpt lat="45.2791987" lon="10.9671124"><ele>32.0</ele><time>2026-04-18T13:53:18.099Z</time></trkpt><trkpt lat="45.2793456" lon="10.9670317"><ele>32.0</ele><time>2026-04-18T13:53:19.103Z</time></trkpt><trkpt lat="45.2794749" lon="10.9669511"><ele>32.0</ele><time>2026-04-18T13:53:20.104Z</time></trkpt><trkpt lat="45.2796051" lon="10.9668767"><ele>32.0</ele><time>2026-04-18T13:53:21.105Z</time></trkpt><trkpt lat="45.2797166" lon="10.9667822"><ele>32.0</ele><time>2026-04-18T13:53:22.103Z</time></trkpt><trkpt lat="45.279835" lon="10.966683"><ele>32.0</ele><time>2026-04-18T13:53:23.104Z</time></trkpt><trkpt lat="45.2799577" lon="10.96659"><ele>32.0</ele><time>2026-04-18T13:53:24.102Z</time></trkpt><trkpt lat="45.2800933" lon="10.9665047"><ele>32.0</ele><time>2026-04-18T13:53:25.105Z</time></trkpt><trkpt lat="45.2802298" lon="10.9664326"><ele>32.0</ele><time>2026-04-18T13:53:26.112Z</time></trkpt><trkpt lat="45.2803656" lon="10.9663677"><ele>32.0</ele><time>2026-04-18T13:53:27.107Z</time></trkpt><trkpt lat="45.2804995" lon="10.9662989"><ele>31.75</ele><time>2026-04-18T13:53:28.108Z</time></trkpt><trkpt lat="45.2806288" lon="10.9662206"><ele>31.5</ele><time>2026-04-18T13:53:29.11Z</time></trkpt><trkpt lat="45.2807566" lon="10.9661526"><ele>31.25</ele><time>2026-04-18T13:53:30.107Z</time></trkpt><trkpt lat="45.2808888" lon="10.9660997"><ele>31.0</ele><time>2026-04-18T13:53:31.109Z</time></trkpt><trkpt lat="45.2810325" lon="10.9660825"><ele>31.0</ele><time>2026-04-18T13:53:32.098Z</time></trkpt><trkpt lat="45.2811786" lon="10.9660874"><ele>31.0</ele><time>2026-04-18T13:53:33.099Z</time></trkpt><trkpt lat="45.2813327" lon="10.9660784"><ele>31.0</ele><time>2026-04-18T13:53:34.105Z</time></trkpt><trkpt lat="45.2814966" lon="10.9660586"><ele>31.0</ele><time>2026-04-18T13:53:35.11Z</time></trkpt><trkpt lat="45.2816707" lon="10.9660328"><ele>31.0</ele><time>2026-04-18T13:53:36.1Z</time></trkpt><trkpt lat="45.2818502" lon="10.9659868"><ele>31.0</ele><time>2026-04-18T13:53:37.103Z</time></trkpt><trkpt lat="45.2820276" lon="10.9659506"><ele>31.0</ele><time>2026-04-18T13:53:38.099Z</time></trkpt><trkpt lat="45.2822165" lon="10.9659033"><ele>31.0</ele><time>2026-04-18T13:53:39.104Z</time></trkpt><trkpt lat="45.2824013" lon="10.9658446"><ele>31.0</ele><time>2026-04-18T13:53:40.106Z</time></trkpt><trkpt lat="45.2825873" lon="10.9657783"><ele>31.666666666666668</ele><time>2026-04-18T13:53:41.107Z</time></trkpt><trkpt lat="45.2827767" lon="10.9657058"><ele>32.333333333333336</ele><time>2026-04-18T13:53:42.104Z</time></trkpt><trkpt lat="45.282956" lon="10.9656432"><ele>33.0</ele><time>2026-04-18T13:53:43.109Z</time></trkpt><trkpt lat="45.2831273" lon="10.9655931"><ele>33.0</ele><time>2026-04-18T13:53:44.11Z</time></trkpt><trkpt lat="45.283302" lon="10.9655511"><ele>33.0</ele><time>2026-04-18T13:53:45.101Z</time></trkpt><trkpt lat="45.2834849" lon="10.9655034"><ele>33.0</ele><time>2026-04-18T13:53:46.104Z</time></trkpt><trkpt lat="45.2836662" lon="10.9654542"><ele>33.0</ele><time>2026-04-18T13:53:47.109Z</time></trkpt><trkpt lat="45.2838375" lon="10.9654153"><ele>33.0</ele><time>2026-04-18T13:53:48.109Z</time></trkpt><trkpt lat="45.2840103" lon="10.965382"><ele>33.0</ele><time>2026-04-18T13:53:49.105Z</time></trkpt><trkpt lat="45.2841819" lon="10.965334"><ele>32.333333333333336</ele><time>2026-04-18T13:53:50.105Z</time></trkpt><trkpt lat="45.2843605" lon="10.9652687"><ele>31.666666666666668</ele><time>2026-04-18T13:53:51.107Z</time></trkpt><trkpt lat="45.2845432" lon="10.9652076"><ele>31.0</ele><time>2026-04-18T13:53:52.101Z</time></trkpt><trkpt lat="45.2847317" lon="10.965143"><ele>31.0</ele><time>2026-04-18T13:53:53.105Z</time></trkpt><trkpt lat="45.2849217" lon="10.9650853"><ele>31.0</ele><time>2026-04-18T13:53:54.105Z</time></trkpt><trkpt lat="45.2851145" lon="10.9650315"><ele>31.0</ele><time>2026-04-18T13:53:55.109Z</time></trkpt><trkpt lat="45.2852936" lon="10.9649652"><ele>31.333333333333336</ele><time>2026-04-18T13:53:56.105Z</time></trkpt><trkpt lat="45.2854865" lon="10.9648843"><ele>31.666666666666664</ele><time>2026-04-18T13:53:57.103Z</time></trkpt><trkpt lat="45.2856781" lon="10.964786"><ele>32.0</ele><time>2026-04-18T13:53:58.112Z</time></trkpt><trkpt lat="45.2858598" lon="10.9646825"><ele>32.0</ele><time>2026-04-18T13:53:59.109Z</time></trkpt><trkpt lat="45.2860336" lon="10.9645732"><ele>32.0</ele><time>2026-04-18T13:54:00.111Z</time></trkpt><trkpt lat="45.2862033" lon="10.9644541"><ele>32.0</ele><time>2026-04-18T13:54:01.108Z</time></trkpt><trkpt lat="45.286371" lon="10.9643183"><ele>32.0</ele><time>2026-04-18T13:54:02.105Z</time></trkpt><trkpt lat="45.2865365" lon="10.9641743"><ele>32.0</ele><time>2026-04-18T13:54:03.108Z</time></trkpt><trkpt lat="45.2866974" lon="10.9640472"><ele>32.0</ele><time>2026-04-18T13:54:04.099Z</time></trkpt><trkpt lat="45.286873" lon="10.9639327"><ele>32.0</ele><time>2026-04-18T13:54:05.101Z</time></trkpt><trkpt lat="45.2870486" lon="10.9638276"><ele>32.0</ele><time>2026-04-18T13:54:06.111Z</time></trkpt><trkpt lat="45.287223" lon="10.9637435"><ele>32.0</ele><time>2026-04-18T13:54:07.104Z</time></trkpt><trkpt lat="45.2874138" lon="10.9636878"><ele>32.0</ele><time>2026-04-18T13:54:08.099Z</time></trkpt><trkpt lat="45.2875837" lon="10.9636284"><ele>32.0</ele><time>2026-04-18T13:54:09.106Z</time></trkpt><trkpt lat="45.2877612" lon="10.9635778"><ele>32.0</ele><time>2026-04-18T13:54:10.104Z</time></trkpt><trkpt lat="45.2879424" lon="10.9635067"><ele>31.666666666666664</ele><time>2026-04-18T13:54:11.1Z</time></trkpt><trkpt lat="45.2881328" lon="10.9634157"><ele>31.333333333333336</ele><time>2026-04-18T13:54:12.104Z</time></trkpt><trkpt lat="45.2883181" lon="10.9633028"><ele>31.0</ele><time>2026-04-18T13:54:13.106Z</time></trkpt><trkpt lat="45.2885125" lon="10.9631726"><ele>31.0</ele><time>2026-04-18T13:54:14.108Z</time></trkpt><trkpt lat="45.2886995" lon="10.9630546"><ele>31.0</ele><time>2026-04-18T13:54:15.104Z</time></trkpt><trkpt lat="45.288885" lon="10.962947"><ele>31.0</ele><time>2026-04-18T13:54:16.101Z</time></trkpt><trkpt lat="45.2890719" lon="10.9628602"><ele>31.0</ele><time>2026-04-18T13:54:17.109Z</time></trkpt><trkpt lat="45.289269" lon="10.9627874"><ele>31.0</ele><time>2026-04-18T13:54:18.099Z</time></trkpt><trkpt lat="45.289472" lon="10.9627177"><ele>31.0</ele><time>2026-04-18T13:54:19.111Z</time></trkpt><trkpt lat="45.2896566" lon="10.9626552"><ele>30.666666666666668</ele><time>2026-04-18T13:54:20.106Z</time></trkpt><trkpt lat="45.2898428" lon="10.9625898"><ele>30.333333333333336</ele><time>2026-04-18T13:54:21.106Z</time></trkpt><trkpt lat="45.2900351" lon="10.9625162"><ele>30.0</ele><time>2026-04-18T13:54:22.109Z</time></trkpt><trkpt lat="45.2902354" lon="10.9624562"><ele>30.333333333333336</ele><time>2026-04-18T13:54:23.108Z</time></trkpt><trkpt lat="45.2904378" lon="10.9624089"><ele>30.666666666666668</ele><time>2026-04-18T13:54:24.105Z</time></trkpt><trkpt lat="45.2906408" lon="10.9623736"><ele>31.0</ele><time>2026-04-18T13:54:25.1Z</time></trkpt><trkpt lat="45.2908489" lon="10.9623505"><ele>31.0</ele><time>2026-04-18T13:54:26.101Z</time></trkpt><trkpt lat="45.291055" lon="10.9623401"><ele>31.0</ele><time>2026-04-18T13:54:27.103Z</time></trkpt><trkpt lat="45.291261" lon="10.9623338"><ele>31.0</ele><time>2026-04-18T13:54:28.104Z</time></trkpt><trkpt lat="45.2914523" lon="10.9623057"><ele>31.0</ele><time>2026-04-18T13:54:29.107Z</time></trkpt><trkpt lat="45.2916422" lon="10.9622572"><ele>31.0</ele><time>2026-04-18T13:54:30.114Z</time></trkpt><trkpt lat="45.2918296" lon="10.9621977"><ele>31.0</ele><time>2026-04-18T13:54:31.11Z</time></trkpt><trkpt lat="45.2920014" lon="10.9621149"><ele>31.0</ele><time>2026-04-18T13:54:32.112Z</time></trkpt><trkpt lat="45.2921642" lon="10.9620307"><ele>31.0</ele><time>2026-04-18T13:54:33.108Z</time></trkpt><trkpt lat="45.2923319" lon="10.9619456"><ele>31.0</ele><time>2026-04-18T13:54:34.108Z</time></trkpt><trkpt lat="45.2925" lon="10.961881"><ele>30.75</ele><time>2026-04-18T13:54:35.108Z</time></trkpt><trkpt lat="45.2926563" lon="10.9618074"><ele>30.5</ele><time>2026-04-18T13:54:36.105Z</time></trkpt><trkpt lat="45.292789" lon="10.9617305"><ele>30.25</ele><time>2026-04-18T13:54:37.12Z</time></trkpt><trkpt lat="45.2929128" lon="10.9616625"><ele>30.0</ele><time>2026-04-18T13:54:38.111Z</time></trkpt><trkpt lat="45.2930476" lon="10.9615983"><ele>30.75</ele><time>2026-04-18T13:54:39.111Z</time></trkpt><trkpt lat="45.2931785" lon="10.9615338"><ele>31.5</ele><time>2026-04-18T13:54:40.11Z</time></trkpt><trkpt lat="45.2933063" lon="10.961477"><ele>32.25</ele><time>2026-04-18T13:54:41.11Z</time></trkpt><trkpt lat="45.293423" lon="10.9614213"><ele>33.0</ele><time>2026-04-18T13:54:42.107Z</time></trkpt><trkpt lat="45.2935216" lon="10.9613745"><ele>33.0</ele><time>2026-04-18T13:54:43.107Z</time></trkpt><trkpt lat="45.2936153" lon="10.9613334"><ele>33.0</ele><time>2026-04-18T13:54:44.109Z</time></trkpt><trkpt lat="45.2937021" lon="10.9613004"><ele>33.0</ele><time>2026-04-18T13:54:45.108Z</time></trkpt><trkpt lat="45.2937814" lon="10.9612681"><ele>33.0</ele><time>2026-04-18T13:54:46.106Z</time></trkpt><trkpt lat="45.2938613" lon="10.9612295"><ele>33.0</ele><time>2026-04-18T13:54:47.115Z</time></trkpt><trkpt lat="45.2939563" lon="10.9611817"><ele>32.6</ele><time>2026-04-18T13:54:48.115Z</time></trkpt><trkpt lat="45.2940644" lon="10.9611249"><ele>32.199999999999996</ele><time>2026-04-18T13:54:49.116Z</time></trkpt><trkpt lat="45.2941696" lon="10.9610711"><ele>31.8</ele><time>2026-04-18T13:54:50.113Z</time></trkpt><trkpt lat="45.294269" lon="10.9610149"><ele>31.4</ele><time>2026-04-18T13:54:51.111Z</time></trkpt><trkpt lat="45.2943567" lon="10.9609662"><ele>31.0</ele><time>2026-04-18T13:54:52.115Z</time></trkpt><trkpt lat="45.294421" lon="10.9609358"><ele>31.0</ele><time>2026-04-18T13:54:53.115Z</time></trkpt><trkpt lat="45.2944931" lon="10.9609937"><ele>31.0</ele><time>2026-04-18T13:54:55.114Z</time></trkpt><trkpt lat="45.2945156" lon="10.961165"><ele>31.0</ele><time>2026-04-18T13:54:57.111Z</time></trkpt><trkpt lat="45.2945209" lon="10.9613174"><ele>31.0</ele><time>2026-04-18T13:54:58.11Z</time></trkpt><trkpt lat="45.2945279" lon="10.9615285"><ele>31.0</ele><time>2026-04-18T13:54:59.113Z</time></trkpt><trkpt lat="45.2945511" lon="10.9617753"><ele>31.0</ele><time>2026-04-18T13:55:00.105Z</time></trkpt><trkpt lat="45.2945808" lon="10.9620376"><ele>31.0</ele><time>2026-04-18T13:55:01.104Z</time></trkpt><trkpt lat="45.2946074" lon="10.962275"><ele>31.0</ele><time>2026-04-18T13:55:02.104Z</time></trkpt><trkpt lat="45.2946287" lon="10.9624741"><ele>31.0</ele><time>2026-04-18T13:55:03.107Z</time></trkpt><trkpt lat="45.2946511" lon="10.9626581"><ele>31.0</ele><time>2026-04-18T13:55:04.104Z</time></trkpt><trkpt lat="45.2946776" lon="10.9628297"><ele>31.0</ele><time>2026-04-18T13:55:05.105Z</time></trkpt><trkpt lat="45.2947003" lon="10.9629709"><ele>31.0</ele><time>2026-04-18T13:55:06.102Z</time></trkpt><trkpt lat="45.2947179" lon="10.963076"><ele>31.0</ele><time>2026-04-18T13:55:07.107Z</time></trkpt><trkpt lat="45.2947327" lon="10.9632397"><ele>31.0</ele><time>2026-04-18T13:55:09.096Z</time></trkpt><trkpt lat="45.2946885" lon="10.9633526"><ele>31.0</ele><time>2026-04-18T13:55:11.112Z</time></trkpt><trkpt lat="45.2946223" lon="10.9634089"><ele>31.0</ele><time>2026-04-18T13:55:12.111Z</time></trkpt><trkpt lat="45.294515" lon="10.9634776"><ele>31.0</ele><time>2026-04-18T13:55:13.095Z</time></trkpt><trkpt lat="45.2944038" lon="10.9635559"><ele>31.0</ele><time>2026-04-18T13:55:14.111Z</time></trkpt><trkpt lat="45.2942928" lon="10.9636394"><ele>31.0</ele><time>2026-04-18T13:55:15.097Z</time></trkpt><trkpt lat="45.2941699" lon="10.9637382"><ele>31.0</ele><time>2026-04-18T13:55:16.103Z</time></trkpt><trkpt lat="45.2940266" lon="10.9638576"><ele>31.0</ele><time>2026-04-18T13:55:17.107Z</time></trkpt><trkpt lat="45.2938697" lon="10.9639976"><ele>31.0</ele><time>2026-04-18T13:55:18.1Z</time></trkpt><trkpt lat="45.2936989" lon="10.9641394"><ele>31.0</ele><time>2026-04-18T13:55:19.109Z</time></trkpt><trkpt lat="45.293527" lon="10.9642724"><ele>31.0</ele><time>2026-04-18T13:55:20.102Z</time></trkpt><trkpt lat="45.2933605" lon="10.9644149"><ele>31.0</ele><time>2026-04-18T13:55:21.106Z</time></trkpt><trkpt lat="45.2931887" lon="10.9645533"><ele>31.0</ele><time>2026-04-18T13:55:22.107Z</time></trkpt><trkpt lat="45.2930137" lon="10.9647002"><ele>31.0</ele><time>2026-04-18T13:55:23.111Z</time></trkpt><trkpt lat="45.292836" lon="10.9648513"><ele>31.0</ele><time>2026-04-18T13:55:24.108Z</time></trkpt><trkpt lat="45.2926633" lon="10.9650035"><ele>31.0</ele><time>2026-04-18T13:55:25.113Z</time></trkpt><trkpt lat="45.2924975" lon="10.9651434"><ele>31.0</ele><time>2026-04-18T13:55:26.106Z</time></trkpt><trkpt lat="45.2923333" lon="10.9652732"><ele>31.0</ele><time>2026-04-18T13:55:27.105Z</time></trkpt><trkpt lat="45.2921704" lon="10.965399"><ele>31.0</ele><time>2026-04-18T13:55:28.108Z</time></trkpt><trkpt lat="45.2919884" lon="10.9655135"><ele>31.0</ele><time>2026-04-18T13:55:29.108Z</time></trkpt><trkpt lat="45.2918034" lon="10.9656061"><ele>31.0</ele><time>2026-04-18T13:55:30.103Z</time></trkpt><trkpt lat="45.2916256" lon="10.9656853"><ele>31.0</ele><time>2026-04-18T13:55:31.11Z</time></trkpt><trkpt lat="45.2914297" lon="10.9657531"><ele>30.333333333333336</ele><time>2026-04-18T13:55:32.11Z</time></trkpt><trkpt lat="45.2912458" lon="10.9658213"><ele>29.666666666666664</ele><time>2026-04-18T13:55:33.111Z</time></trkpt><trkpt lat="45.2910664" lon="10.9658939"><ele>29.0</ele><time>2026-04-18T13:55:34.105Z</time></trkpt><trkpt lat="45.290909" lon="10.9659625"><ele>29.0</ele><time>2026-04-18T13:55:35.107Z</time></trkpt><trkpt lat="45.2907634" lon="10.9660353"><ele>29.0</ele><time>2026-04-18T13:55:36.107Z</time></trkpt><trkpt lat="45.2906348" lon="10.9661119"><ele>29.0</ele><time>2026-04-18T13:55:37.109Z</time></trkpt><trkpt lat="45.2905088" lon="10.9661742"><ele>29.0</ele><time>2026-04-18T13:55:38.108Z</time></trkpt><trkpt lat="45.2903916" lon="10.9662394"><ele>29.25</ele><time>2026-04-18T13:55:39.118Z</time></trkpt><trkpt lat="45.2902849" lon="10.9663202"><ele>29.5</ele><time>2026-04-18T13:55:40.102Z</time></trkpt><trkpt lat="45.2901996" lon="10.9664285"><ele>29.75</ele><time>2026-04-18T13:55:41.105Z</time></trkpt><trkpt lat="45.2901309" lon="10.9665735"><ele>30.0</ele><time>2026-04-18T13:55:42.11Z</time></trkpt><trkpt lat="45.2901182" lon="10.9667638"><ele>30.333333333333336</ele><time>2026-04-18T13:55:43.101Z</time></trkpt><trkpt lat="45.290134" lon="10.966962"><ele>30.666666666666668</ele><time>2026-04-18T13:55:44.096Z</time></trkpt><trkpt lat="45.2901832" lon="10.9671778"><ele>31.0</ele><time>2026-04-18T13:55:45.103Z</time></trkpt><trkpt lat="45.2902392" lon="10.9673929"><ele>31.0</ele><time>2026-04-18T13:55:46.1Z</time></trkpt><trkpt lat="45.2902909" lon="10.9676188"><ele>31.0</ele><time>2026-04-18T13:55:47.104Z</time></trkpt><trkpt lat="45.2903462" lon="10.967855"><ele>31.0</ele><time>2026-04-18T13:55:48.115Z</time></trkpt><trkpt lat="45.2903964" lon="10.9680766"><ele>31.0</ele><time>2026-04-18T13:55:49.111Z</time></trkpt><trkpt lat="45.2904469" lon="10.9682816"><ele>31.0</ele><time>2026-04-18T13:55:50.107Z</time></trkpt><trkpt lat="45.29048" lon="10.96847"><ele>31.0</ele><time>2026-04-18T13:55:51.107Z</time></trkpt><trkpt lat="45.2905013" lon="10.9686456"><ele>31.0</ele><time>2026-04-18T13:55:52.109Z</time></trkpt><trkpt lat="45.290495" lon="10.9688399"><ele>30.333333333333336</ele><time>2026-04-18T13:55:53.112Z</time></trkpt><trkpt lat="45.2904206" lon="10.9690426"><ele>29.666666666666664</ele><time>2026-04-18T13:55:54.108Z</time></trkpt><trkpt lat="45.2903062" lon="10.9692312"><ele>29.0</ele><time>2026-04-18T13:55:55.1Z</time></trkpt><trkpt lat="45.2901769" lon="10.9694143"><ele>29.0</ele><time>2026-04-18T13:55:56.101Z</time></trkpt><trkpt lat="45.2900364" lon="10.9696061"><ele>29.0</ele><time>2026-04-18T13:55:57.105Z</time></trkpt><trkpt lat="45.2898878" lon="10.9697962"><ele>29.0</ele><time>2026-04-18T13:55:58.105Z</time></trkpt><trkpt lat="45.2897471" lon="10.9699846"><ele>29.0</ele><time>2026-04-18T13:55:59.113Z</time></trkpt><trkpt lat="45.2896056" lon="10.9701792"><ele>29.0</ele><time>2026-04-18T13:56:00.116Z</time></trkpt><trkpt lat="45.2894753" lon="10.9703719"><ele>29.0</ele><time>2026-04-18T13:56:01.111Z</time></trkpt><trkpt lat="45.289339" lon="10.9705686"><ele>29.0</ele><time>2026-04-18T13:56:02.113Z</time></trkpt><trkpt lat="45.2892077" lon="10.9707664"><ele>29.0</ele><time>2026-04-18T13:56:03.111Z</time></trkpt><trkpt lat="45.2890717" lon="10.9709708"><ele>29.0</ele><time>2026-04-18T13:56:04.108Z</time></trkpt><trkpt lat="45.2889293" lon="10.9711717"><ele>29.333333333333332</ele><time>2026-04-18T13:56:05.113Z</time></trkpt><trkpt lat="45.2887842" lon="10.9713741"><ele>29.666666666666664</ele><time>2026-04-18T13:56:06.114Z</time></trkpt><trkpt lat="45.2886403" lon="10.9715923"><ele>30.0</ele><time>2026-04-18T13:56:07.108Z</time></trkpt><trkpt lat="45.2884921" lon="10.9718284"><ele>30.0</ele><time>2026-04-18T13:56:08.111Z</time></trkpt><trkpt lat="45.2883349" lon="10.9720565"><ele>30.0</ele><time>2026-04-18T13:56:09.111Z</time></trkpt><trkpt lat="45.2881793" lon="10.9722676"><ele>30.0</ele><time>2026-04-18T13:56:10.127Z</time></trkpt><trkpt lat="45.2880206" lon="10.9724709"><ele>30.333333333333336</ele><time>2026-04-18T13:56:11.107Z</time></trkpt><trkpt lat="45.2878469" lon="10.9726544"><ele>30.666666666666668</ele><time>2026-04-18T13:56:12.11Z</time></trkpt><trkpt lat="45.2876506" lon="10.9728178"><ele>31.0</ele><time>2026-04-18T13:56:13.103Z</time></trkpt><trkpt lat="45.2874538" lon="10.9729622"><ele>30.5</ele><time>2026-04-18T13:56:14.11Z</time></trkpt><trkpt lat="45.2872442" lon="10.9730902"><ele>30.0</ele><time>2026-04-18T13:56:15.111Z</time></trkpt><trkpt lat="45.2870242" lon="10.9732117"><ele>30.0</ele><time>2026-04-18T13:56:16.114Z</time></trkpt><trkpt lat="45.2868198" lon="10.9733269"><ele>30.0</ele><time>2026-04-18T13:56:17.115Z</time></trkpt><trkpt lat="45.2866325" lon="10.9734258"><ele>30.0</ele><time>2026-04-18T13:56:18.109Z</time></trkpt><trkpt lat="45.2864573" lon="10.9735098"><ele>30.333333333333336</ele><time>2026-04-18T13:56:19.112Z</time></trkpt><trkpt lat="45.2862861" lon="10.9736034"><ele>30.666666666666668</ele><time>2026-04-18T13:56:20.114Z</time></trkpt><trkpt lat="45.2861138" lon="10.9736856"><ele>31.0</ele><time>2026-04-18T13:56:21.114Z</time></trkpt><trkpt lat="45.2859283" lon="10.9737775"><ele>31.0</ele><time>2026-04-18T13:56:22.113Z</time></trkpt><trkpt lat="45.2857348" lon="10.9738878"><ele>31.0</ele><time>2026-04-18T13:56:23.111Z</time></trkpt><trkpt lat="45.2855412" lon="10.9740031"><ele>31.0</ele><time>2026-04-18T13:56:24.118Z</time></trkpt><trkpt lat="45.2853413" lon="10.9741431"><ele>30.666666666666668</ele><time>2026-04-18T13:56:25.111Z</time></trkpt><trkpt lat="45.285161" lon="10.9742597"><ele>30.333333333333336</ele><time>2026-04-18T13:56:26.107Z</time></trkpt><trkpt lat="45.2850031" lon="10.974378"><ele>30.0</ele><time>2026-04-18T13:56:27.107Z</time></trkpt><trkpt lat="45.2848512" lon="10.9745297"><ele>30.333333333333336</ele><time>2026-04-18T13:56:28.108Z</time></trkpt><trkpt lat="45.2847037" lon="10.9747052"><ele>30.666666666666668</ele><time>2026-04-18T13:56:29.118Z</time></trkpt><trkpt lat="45.2845688" lon="10.9749133"><ele>31.0</ele><time>2026-04-18T13:56:30.112Z</time></trkpt><trkpt lat="45.2844421" lon="10.9751537"><ele>31.0</ele><time>2026-04-18T13:56:31.115Z</time></trkpt><trkpt lat="45.2843079" lon="10.9754035"><ele>31.0</ele><time>2026-04-18T13:56:32.112Z</time></trkpt><trkpt lat="45.2841658" lon="10.9756446"><ele>31.0</ele><time>2026-04-18T13:56:33.105Z</time></trkpt><trkpt lat="45.2840207" lon="10.9758967"><ele>30.666666666666668</ele><time>2026-04-18T13:56:34.11Z</time></trkpt><trkpt lat="45.2838759" lon="10.9761367"><ele>30.333333333333336</ele><time>2026-04-18T13:56:35.107Z</time></trkpt><trkpt lat="45.2837287" lon="10.9763732"><ele>30.0</ele><time>2026-04-18T13:56:36.113Z</time></trkpt><trkpt lat="45.283577" lon="10.9766149"><ele>29.5</ele><time>2026-04-18T13:56:37.115Z</time></trkpt><trkpt lat="45.2834276" lon="10.9768671"><ele>29.0</ele><time>2026-04-18T13:56:38.108Z</time></trkpt><trkpt lat="45.283278" lon="10.9771225"><ele>29.0</ele><time>2026-04-18T13:56:39.118Z</time></trkpt><trkpt lat="45.2831341" lon="10.9773778"><ele>29.0</ele><time>2026-04-18T13:56:40.128Z</time></trkpt><trkpt lat="45.2829914" lon="10.9776374"><ele>29.0</ele><time>2026-04-18T13:56:41.131Z</time></trkpt><trkpt lat="45.2828526" lon="10.9778906"><ele>29.0</ele><time>2026-04-18T13:56:42.12Z</time></trkpt><trkpt lat="45.2827157" lon="10.9781487"><ele>29.0</ele><time>2026-04-18T13:56:43.121Z</time></trkpt><trkpt lat="45.2825778" lon="10.9784063"><ele>29.0</ele><time>2026-04-18T13:56:44.113Z</time></trkpt><trkpt lat="45.2824324" lon="10.9786523"><ele>29.0</ele><time>2026-04-18T13:56:45.119Z</time></trkpt><trkpt lat="45.2822997" lon="10.9789093"><ele>29.0</ele><time>2026-04-18T13:56:46.108Z</time></trkpt><trkpt lat="45.2821542" lon="10.9791649"><ele>29.0</ele><time>2026-04-18T13:56:47.108Z</time></trkpt><trkpt lat="45.2820141" lon="10.9794139"><ele>29.0</ele><time>2026-04-18T13:56:48.103Z</time></trkpt><trkpt lat="45.2818776" lon="10.9796604"><ele>29.0</ele><time>2026-04-18T13:56:49.109Z</time></trkpt><trkpt lat="45.2817378" lon="10.9799119"><ele>29.0</ele><time>2026-04-18T13:56:50.102Z</time></trkpt><trkpt lat="45.2815984" lon="10.9801642"><ele>29.0</ele><time>2026-04-18T13:56:51.102Z</time></trkpt><trkpt lat="45.2814601" lon="10.9804142"><ele>29.0</ele><time>2026-04-18T13:56:52.109Z</time></trkpt><trkpt lat="45.2813196" lon="10.9806627"><ele>29.0</ele><time>2026-04-18T13:56:53.11Z</time></trkpt><trkpt lat="45.2811834" lon="10.9809072"><ele>29.0</ele><time>2026-04-18T13:56:54.113Z</time></trkpt><trkpt lat="45.2810514" lon="10.9811555"><ele>29.0</ele><time>2026-04-18T13:56:55.111Z</time></trkpt><trkpt lat="45.2809114" lon="10.981409"><ele>29.0</ele><time>2026-04-18T13:56:56.12Z</time></trkpt><trkpt lat="45.2807706" lon="10.9816586"><ele>29.0</ele><time>2026-04-18T13:56:57.109Z</time></trkpt><trkpt lat="45.2806326" lon="10.9819083"><ele>29.0</ele><time>2026-04-18T13:56:58.138Z</time></trkpt><trkpt lat="45.2804921" lon="10.9821548"><ele>29.0</ele><time>2026-04-18T13:56:59.111Z</time></trkpt><trkpt lat="45.2803548" lon="10.9824008"><ele>29.0</ele><time>2026-04-18T13:57:00.112Z</time></trkpt><trkpt lat="45.2802215" lon="10.9826486"><ele>29.0</ele><time>2026-04-18T13:57:01.116Z</time></trkpt><trkpt lat="45.2800807" lon="10.9828862"><ele>29.0</ele><time>2026-04-18T13:57:02.117Z</time></trkpt><trkpt lat="45.2799477" lon="10.9831265"><ele>29.0</ele><time>2026-04-18T13:57:03.114Z</time></trkpt><trkpt lat="45.2798138" lon="10.9833631"><ele>29.0</ele><time>2026-04-18T13:57:04.118Z</time></trkpt><trkpt lat="45.2796749" lon="10.9836016"><ele>29.0</ele><time>2026-04-18T13:57:05.113Z</time></trkpt><trkpt lat="45.2795375" lon="10.983834"><ele>29.0</ele><time>2026-04-18T13:57:06.117Z</time></trkpt><trkpt lat="45.2794056" lon="10.9840762"><ele>29.0</ele><time>2026-04-18T13:57:07.111Z</time></trkpt><trkpt lat="45.2792778" lon="10.9843266"><ele>29.0</ele><time>2026-04-18T13:57:08.11Z</time></trkpt><trkpt lat="45.2791539" lon="10.9845914"><ele>29.0</ele><time>2026-04-18T13:57:09.111Z</time></trkpt><trkpt lat="45.2790266" lon="10.9848549"><ele>29.0</ele><time>2026-04-18T13:57:10.108Z</time></trkpt><trkpt lat="45.2788887" lon="10.9851282"><ele>29.0</ele><time>2026-04-18T13:57:11.108Z</time></trkpt><trkpt lat="45.2787358" lon="10.9854006"><ele>29.0</ele><time>2026-04-18T13:57:12.129Z</time></trkpt><trkpt lat="45.2785744" lon="10.985679"><ele>29.0</ele><time>2026-04-18T13:57:13.112Z</time></trkpt><trkpt lat="45.2784135" lon="10.9859714"><ele>29.0</ele><time>2026-04-18T13:57:14.111Z</time></trkpt><trkpt lat="45.2782506" lon="10.9862615"><ele>28.5</ele><time>2026-04-18T13:57:15.12Z</time></trkpt><trkpt lat="45.2780855" lon="10.9865641"><ele>28.0</ele><time>2026-04-18T13:57:16.128Z</time></trkpt><trkpt lat="45.2779206" lon="10.9868708"><ele>29.5</ele><time>2026-04-18T13:57:17.123Z</time></trkpt><trkpt lat="45.2777475" lon="10.9871692"><ele>31.0</ele><time>2026-04-18T13:57:18.116Z</time></trkpt><trkpt lat="45.277581" lon="10.9874672"><ele>30.0</ele><time>2026-04-18T13:57:19.116Z</time></trkpt><trkpt lat="45.2774182" lon="10.9877771"><ele>29.0</ele><time>2026-04-18T13:57:20.115Z</time></trkpt><trkpt lat="45.2772599" lon="10.98809"><ele>28.0</ele><time>2026-04-18T13:57:21.117Z</time></trkpt><trkpt lat="45.277116" lon="10.9883838"><ele>27.0</ele><time>2026-04-18T13:57:22.104Z</time></trkpt><trkpt lat="45.2769945" lon="10.9886373"><ele>27.0</ele><time>2026-04-18T13:57:23.118Z</time></trkpt><trkpt lat="45.2768903" lon="10.9888697"><ele>27.0</ele><time>2026-04-18T13:57:24.105Z</time></trkpt><trkpt lat="45.2767953" lon="10.989089"><ele>27.0</ele><time>2026-04-18T13:57:25.104Z</time></trkpt><trkpt lat="45.2767013" lon="10.9892834"><ele>26.75</ele><time>2026-04-18T13:57:26.113Z</time></trkpt><trkpt lat="45.2766089" lon="10.9894611"><ele>26.5</ele><time>2026-04-18T13:57:27.123Z</time></trkpt><trkpt lat="45.276524" lon="10.9896322"><ele>26.25</ele><time>2026-04-18T13:57:28.116Z</time></trkpt><trkpt lat="45.2764513" lon="10.9897993"><ele>26.0</ele><time>2026-04-18T13:57:29.116Z</time></trkpt><trkpt lat="45.2763894" lon="10.9899607"><ele>26.4</ele><time>2026-04-18T13:57:30.113Z</time></trkpt><trkpt lat="45.2763345" lon="10.990105"><ele>26.8</ele><time>2026-04-18T13:57:31.116Z</time></trkpt><trkpt lat="45.2762864" lon="10.9902261"><ele>27.199999999999996</ele><time>2026-04-18T13:57:32.116Z</time></trkpt><trkpt lat="45.2762293" lon="10.9903201"><ele>27.599999999999998</ele><time>2026-04-18T13:57:33.117Z</time></trkpt><trkpt lat="45.2761612" lon="10.9903739"><ele>28.0</ele><time>2026-04-18T13:57:34.125Z</time></trkpt><trkpt lat="45.2760899" lon="10.9904325"><ele>28.0</ele><time>2026-04-18T13:57:35.112Z</time></trkpt><trkpt lat="45.2760329" lon="10.9904945"><ele>27.999999999999996</ele><time>2026-04-18T13:57:36.108Z</time></trkpt><trkpt lat="45.2759905" lon="10.9905733"><ele>27.999999999999996</ele><time>2026-04-18T13:57:37.119Z</time></trkpt><trkpt lat="45.2760118" lon="10.9907303"><ele>28.0</ele><time>2026-04-18T13:57:39.121Z</time></trkpt><trkpt lat="45.2760682" lon="10.9908313"><ele>28.0</ele><time>2026-04-18T13:57:41.116Z</time></trkpt><trkpt lat="45.2760987" lon="10.9909915"><ele>27.25</ele><time>2026-04-18T13:57:43.135Z</time></trkpt><trkpt lat="45.2760578" lon="10.9912268"><ele>26.5</ele><time>2026-04-18T13:57:45.124Z</time></trkpt><trkpt lat="45.2760166" lon="10.9913914"><ele>25.75</ele><time>2026-04-18T13:57:46.117Z</time></trkpt><trkpt lat="45.2759813" lon="10.991587"><ele>25.0</ele><time>2026-04-18T13:57:47.116Z</time></trkpt><trkpt lat="45.2759585" lon="10.9918022"><ele>25.0</ele><time>2026-04-18T13:57:48.114Z</time></trkpt><trkpt lat="45.2759317" lon="10.9920596"><ele>25.0</ele><time>2026-04-18T13:57:49.115Z</time></trkpt><trkpt lat="45.2759187" lon="10.9923392"><ele>25.0</ele><time>2026-04-18T13:57:50.117Z</time></trkpt><trkpt lat="45.2759128" lon="10.9926001"><ele>25.0</ele><time>2026-04-18T13:57:51.121Z</time></trkpt><trkpt lat="45.2758968" lon="10.9928538"><ele>25.0</ele><time>2026-04-18T13:57:52.126Z</time></trkpt><trkpt lat="45.2758786" lon="10.9930944"><ele>25.0</ele><time>2026-04-18T13:57:53.115Z</time></trkpt><trkpt lat="45.2758597" lon="10.9933168"><ele>25.0</ele><time>2026-04-18T13:57:54.113Z</time></trkpt><trkpt lat="45.2758319" lon="10.9935248"><ele>25.0</ele><time>2026-04-18T13:57:55.119Z</time></trkpt><trkpt lat="45.2758181" lon="10.9937128"><ele>25.0</ele><time>2026-04-18T13:57:56.119Z</time></trkpt><trkpt lat="45.2758225" lon="10.9938208"><ele>25.0</ele><time>2026-04-18T13:57:57.117Z</time></trkpt><trkpt lat="45.2759051" lon="10.9939087"><ele>25.0</ele><time>2026-04-18T13:57:59.117Z</time></trkpt><trkpt lat="45.276048" lon="10.9939172"><ele>25.0</ele><time>2026-04-18T13:58:01.1Z</time></trkpt><trkpt lat="45.2761666" lon="10.9939118"><ele>25.0</ele><time>2026-04-18T13:58:02.111Z</time></trkpt><trkpt lat="45.2762993" lon="10.993914"><ele>25.0</ele><time>2026-04-18T13:58:03.112Z</time></trkpt><trkpt lat="45.2764437" lon="10.9939132"><ele>25.0</ele><time>2026-04-18T13:58:04.114Z</time></trkpt><trkpt lat="45.2766034" lon="10.9939135"><ele>25.0</ele><time>2026-04-18T13:58:05.113Z</time></trkpt><trkpt lat="45.2767783" lon="10.9939132"><ele>25.0</ele><time>2026-04-18T13:58:06.107Z</time></trkpt><trkpt lat="45.2769683" lon="10.9939189"><ele>25.0</ele><time>2026-04-18T13:58:07.116Z</time></trkpt><trkpt lat="45.2771626" lon="10.993929"><ele>25.0</ele><time>2026-04-18T13:58:08.117Z</time></trkpt><trkpt lat="45.2773631" lon="10.9939332"><ele>25.0</ele><time>2026-04-18T13:58:09.119Z</time></trkpt><trkpt lat="45.2775452" lon="10.9939417"><ele>25.666666666666668</ele><time>2026-04-18T13:58:10.126Z</time></trkpt><trkpt lat="45.2777124" lon="10.9939521"><ele>26.333333333333336</ele><time>2026-04-18T13:58:11.117Z</time></trkpt><trkpt lat="45.2778621" lon="10.9939585"><ele>27.0</ele><time>2026-04-18T13:58:12.113Z</time></trkpt><trkpt lat="45.2779975" lon="10.9939624"><ele>27.75</ele><time>2026-04-18T13:58:13.117Z</time></trkpt><trkpt lat="45.2781146" lon="10.9939721"><ele>28.5</ele><time>2026-04-18T13:58:14.132Z</time></trkpt><trkpt lat="45.2782263" lon="10.9939794"><ele>29.25</ele><time>2026-04-18T13:58:15.116Z</time></trkpt><trkpt lat="45.2783387" lon="10.9939485"><ele>30.0</ele><time>2026-04-18T13:58:16.117Z</time></trkpt><trkpt lat="45.2784511" lon="10.9938993"><ele>30.0</ele><time>2026-04-18T13:58:17.122Z</time></trkpt><trkpt lat="45.2785632" lon="10.9938409"><ele>30.0</ele><time>2026-04-18T13:58:18.115Z</time></trkpt><trkpt lat="45.2786888" lon="10.9937774"><ele>30.0</ele><time>2026-04-18T13:58:19.116Z</time></trkpt><trkpt lat="45.278823" lon="10.9937167"><ele>30.0</ele><time>2026-04-18T13:58:20.118Z</time></trkpt><trkpt lat="45.2789598" lon="10.9936546"><ele>29.75</ele><time>2026-04-18T13:58:21.109Z</time></trkpt><trkpt lat="45.2790916" lon="10.9935849"><ele>29.5</ele><time>2026-04-18T13:58:22.115Z</time></trkpt><trkpt lat="45.2792243" lon="10.9935216"><ele>29.25</ele><time>2026-04-18T13:58:23.119Z</time></trkpt><trkpt lat="45.2793572" lon="10.9934471"><ele>29.0</ele><time>2026-04-18T13:58:24.117Z</time></trkpt><trkpt lat="45.2794843" lon="10.9933826"><ele>28.75</ele><time>2026-04-18T13:58:25.122Z</time></trkpt><trkpt lat="45.2796112" lon="10.99332"><ele>28.5</ele><time>2026-04-18T13:58:26.121Z</time></trkpt><trkpt lat="45.2797234" lon="10.9932677"><ele>28.25</ele><time>2026-04-18T13:58:27.126Z</time></trkpt><trkpt lat="45.2798349" lon="10.9932022"><ele>28.0</ele><time>2026-04-18T13:58:28.128Z</time></trkpt><trkpt lat="45.2799452" lon="10.9931383"><ele>28.0</ele><time>2026-04-18T13:58:29.117Z</time></trkpt><trkpt lat="45.2800687" lon="10.9930896"><ele>28.0</ele><time>2026-04-18T13:58:30.123Z</time></trkpt><trkpt lat="45.280207" lon="10.9930084"><ele>28.0</ele><time>2026-04-18T13:58:31.117Z</time></trkpt><trkpt lat="45.2803676" lon="10.9929323"><ele>28.0</ele><time>2026-04-18T13:58:32.106Z</time></trkpt><trkpt lat="45.2805299" lon="10.9928616"><ele>28.333333333333336</ele><time>2026-04-18T13:58:33.103Z</time></trkpt><trkpt lat="45.2806907" lon="10.9927833"><ele>28.666666666666664</ele><time>2026-04-18T13:58:34.109Z</time></trkpt><trkpt lat="45.280863" lon="10.9927086"><ele>29.0</ele><time>2026-04-18T13:58:35.106Z</time></trkpt><trkpt lat="45.2810465" lon="10.9926274"><ele>29.0</ele><time>2026-04-18T13:58:36.116Z</time></trkpt><trkpt lat="45.2812293" lon="10.9925488"><ele>29.0</ele><time>2026-04-18T13:58:37.115Z</time></trkpt><trkpt lat="45.2814208" lon="10.9924639"><ele>29.0</ele><time>2026-04-18T13:58:38.119Z</time></trkpt><trkpt lat="45.2816113" lon="10.9923873"><ele>28.666666666666664</ele><time>2026-04-18T13:58:39.118Z</time></trkpt><trkpt lat="45.2818132" lon="10.9923073"><ele>28.333333333333336</ele><time>2026-04-18T13:58:40.126Z</time></trkpt><trkpt lat="45.2820228" lon="10.9922267"><ele>28.0</ele><time>2026-04-18T13:58:41.125Z</time></trkpt><trkpt lat="45.2822387" lon="10.992134"><ele>28.0</ele><time>2026-04-18T13:58:42.127Z</time></trkpt><trkpt lat="45.2824664" lon="10.9920392"><ele>28.0</ele><time>2026-04-18T13:58:43.126Z</time></trkpt><trkpt lat="45.2827052" lon="10.99194"><ele>28.0</ele><time>2026-04-18T13:58:44.123Z</time></trkpt><trkpt lat="45.2829417" lon="10.9918359"><ele>28.0</ele><time>2026-04-18T13:58:45.14Z</time></trkpt><trkpt lat="45.2831673" lon="10.9917488"><ele>27.333333333333336</ele><time>2026-04-18T13:58:46.13Z</time></trkpt><trkpt lat="45.2833691" lon="10.9916635"><ele>26.666666666666664</ele><time>2026-04-18T13:58:47.129Z</time></trkpt><trkpt lat="45.28356" lon="10.9915819"><ele>26.0</ele><time>2026-04-18T13:58:48.119Z</time></trkpt><trkpt lat="45.2837378" lon="10.9914974"><ele>26.0</ele><time>2026-04-18T13:58:49.118Z</time></trkpt><trkpt lat="45.2839042" lon="10.9914204"><ele>26.0</ele><time>2026-04-18T13:58:50.121Z</time></trkpt><trkpt lat="45.2840646" lon="10.991351"><ele>26.0</ele><time>2026-04-18T13:58:51.121Z</time></trkpt><trkpt lat="45.2842208" lon="10.9912838"><ele>25.666666666666664</ele><time>2026-04-18T13:58:52.121Z</time></trkpt><trkpt lat="45.2843778" lon="10.9912124"><ele>25.333333333333336</ele><time>2026-04-18T13:58:53.125Z</time></trkpt><trkpt lat="45.2845313" lon="10.9911315"><ele>25.0</ele><time>2026-04-18T13:58:54.122Z</time></trkpt><trkpt lat="45.2846729" lon="10.9910441"><ele>25.333333333333336</ele><time>2026-04-18T13:58:55.117Z</time></trkpt><trkpt lat="45.2848116" lon="10.9909505"><ele>25.666666666666664</ele><time>2026-04-18T13:58:56.116Z</time></trkpt><trkpt lat="45.2849467" lon="10.9908454"><ele>26.0</ele><time>2026-04-18T13:58:57.116Z</time></trkpt><trkpt lat="45.2850844" lon="10.990731"><ele>27.0</ele><time>2026-04-18T13:58:58.12Z</time></trkpt><trkpt lat="45.2852301" lon="10.9906089"><ele>28.0</ele><time>2026-04-18T13:58:59.113Z</time></trkpt><trkpt lat="45.2853794" lon="10.9904725"><ele>29.0</ele><time>2026-04-18T13:59:00.117Z</time></trkpt><trkpt lat="45.2855149" lon="10.9903409"><ele>29.333333333333332</ele><time>2026-04-18T13:59:01.121Z</time></trkpt><trkpt lat="45.2856418" lon="10.9902084"><ele>29.666666666666664</ele><time>2026-04-18T13:59:02.117Z</time></trkpt><trkpt lat="45.2857667" lon="10.9900698"><ele>30.0</ele><time>2026-04-18T13:59:03.122Z</time></trkpt><trkpt lat="45.285891" lon="10.9899404"><ele>30.25</ele><time>2026-04-18T13:59:04.118Z</time></trkpt><trkpt lat="45.2860012" lon="10.9898213"><ele>30.5</ele><time>2026-04-18T13:59:05.11Z</time></trkpt><trkpt lat="45.2861029" lon="10.9897145"><ele>30.75</ele><time>2026-04-18T13:59:06.105Z</time></trkpt><trkpt lat="45.2861947" lon="10.9896127"><ele>31.0</ele><time>2026-04-18T13:59:07.105Z</time></trkpt><trkpt lat="45.2862722" lon="10.9895191"><ele>31.0</ele><time>2026-04-18T13:59:08.114Z</time></trkpt><trkpt lat="45.2863595" lon="10.9894411"><ele>31.0</ele><time>2026-04-18T13:59:09.118Z</time></trkpt><trkpt lat="45.2864739" lon="10.9893623"><ele>31.0</ele><time>2026-04-18T13:59:10.114Z</time></trkpt><trkpt lat="45.2866018" lon="10.9892865"><ele>31.0</ele><time>2026-04-18T13:59:11.115Z</time></trkpt><trkpt lat="45.2867529" lon="10.9891974"><ele>30.333333333333336</ele><time>2026-04-18T13:59:12.119Z</time></trkpt><trkpt lat="45.2869113" lon="10.9891009"><ele>29.666666666666664</ele><time>2026-04-18T13:59:13.112Z</time></trkpt><trkpt lat="45.2870678" lon="10.9890028"><ele>29.0</ele><time>2026-04-18T13:59:14.117Z</time></trkpt><trkpt lat="45.2872399" lon="10.9889147"><ele>29.0</ele><time>2026-04-18T13:59:15.113Z</time></trkpt><trkpt lat="45.28742" lon="10.9888384"><ele>29.0</ele><time>2026-04-18T13:59:16.131Z</time></trkpt><trkpt lat="45.2875996" lon="10.9887676"><ele>29.0</ele><time>2026-04-18T13:59:17.117Z</time></trkpt><trkpt lat="45.2877854" lon="10.9886873"><ele>29.0</ele><time>2026-04-18T13:59:18.121Z</time></trkpt><trkpt lat="45.2879552" lon="10.9886169"><ele>29.0</ele><time>2026-04-18T13:59:19.114Z</time></trkpt><trkpt lat="45.2881242" lon="10.9885439"><ele>29.0</ele><time>2026-04-18T13:59:20.116Z</time></trkpt><trkpt lat="45.2882919" lon="10.9884754"><ele>28.333333333333332</ele><time>2026-04-18T13:59:21.128Z</time></trkpt><trkpt lat="45.2884708" lon="10.9884184"><ele>27.666666666666664</ele><time>2026-04-18T13:59:22.134Z</time></trkpt><trkpt lat="45.288653" lon="10.9883649"><ele>27.0</ele><time>2026-04-18T13:59:23.121Z</time></trkpt><trkpt lat="45.2888291" lon="10.9883337"><ele>27.333333333333336</ele><time>2026-04-18T13:59:24.12Z</time></trkpt><trkpt lat="45.2890018" lon="10.9883171"><ele>27.666666666666668</ele><time>2026-04-18T13:59:25.123Z</time></trkpt><trkpt lat="45.2891732" lon="10.9882869"><ele>28.0</ele><time>2026-04-18T13:59:26.126Z</time></trkpt><trkpt lat="45.289347" lon="10.9882395"><ele>28.0</ele><time>2026-04-18T13:59:27.129Z</time></trkpt><trkpt lat="45.2895205" lon="10.9881763"><ele>28.0</ele><time>2026-04-18T13:59:28.125Z</time></trkpt><trkpt lat="45.2896884" lon="10.9881052"><ele>28.0</ele><time>2026-04-18T13:59:29.12Z</time></trkpt><trkpt lat="45.290039" lon="10.9879167"><ele>28.333333333333336</ele><time>2026-04-18T13:59:31.128Z</time></trkpt><trkpt lat="45.2902083" lon="10.9877821"><ele>28.666666666666664</ele><time>2026-04-18T13:59:32.128Z</time></trkpt><trkpt lat="45.290385" lon="10.9876268"><ele>29.0</ele><time>2026-04-18T13:59:33.122Z</time></trkpt><trkpt lat="45.2905506" lon="10.9874665"><ele>28.666666666666664</ele><time>2026-04-18T13:59:34.129Z</time></trkpt><trkpt lat="45.2907094" lon="10.9873291"><ele>28.333333333333336</ele><time>2026-04-18T13:59:35.13Z</time></trkpt><trkpt lat="45.2908529" lon="10.9872094"><ele>28.0</ele><time>2026-04-18T13:59:36.128Z</time></trkpt><trkpt lat="45.2909869" lon="10.9870816"><ele>28.0</ele><time>2026-04-18T13:59:37.128Z</time></trkpt><trkpt lat="45.2911267" lon="10.9869421"><ele>28.0</ele><time>2026-04-18T13:59:38.13Z</time></trkpt><trkpt lat="45.2912692" lon="10.9868099"><ele>28.0</ele><time>2026-04-18T13:59:39.131Z</time></trkpt><trkpt lat="45.2914329" lon="10.986678"><ele>28.333333333333336</ele><time>2026-04-18T13:59:40.136Z</time></trkpt><trkpt lat="45.2916163" lon="10.9865335"><ele>28.666666666666664</ele><time>2026-04-18T13:59:41.134Z</time></trkpt><trkpt lat="45.291794" lon="10.9864015"><ele>29.0</ele><time>2026-04-18T13:59:42.133Z</time></trkpt><trkpt lat="45.2919647" lon="10.9862885"><ele>29.0</ele><time>2026-04-18T13:59:43.121Z</time></trkpt><trkpt lat="45.2921328" lon="10.9861793"><ele>29.0</ele><time>2026-04-18T13:59:44.131Z</time></trkpt><trkpt lat="45.2922993" lon="10.9860758"><ele>29.0</ele><time>2026-04-18T13:59:45.109Z</time></trkpt><trkpt lat="45.2924631" lon="10.9859936"><ele>29.0</ele><time>2026-04-18T13:59:46.111Z</time></trkpt><trkpt lat="45.2926229" lon="10.9859092"><ele>29.0</ele><time>2026-04-18T13:59:47.129Z</time></trkpt><trkpt lat="45.2927846" lon="10.9858202"><ele>29.0</ele><time>2026-04-18T13:59:48.115Z</time></trkpt><trkpt lat="45.2929384" lon="10.9857305"><ele>29.0</ele><time>2026-04-18T13:59:49.117Z</time></trkpt><trkpt lat="45.2930752" lon="10.9856368"><ele>29.0</ele><time>2026-04-18T13:59:50.112Z</time></trkpt><trkpt lat="45.2931991" lon="10.9855146"><ele>29.0</ele><time>2026-04-18T13:59:51.118Z</time></trkpt><trkpt lat="45.2933316" lon="10.9853629"><ele>29.0</ele><time>2026-04-18T13:59:52.116Z</time></trkpt><trkpt lat="45.2934655" lon="10.9851819"><ele>29.0</ele><time>2026-04-18T13:59:53.116Z</time></trkpt><trkpt lat="45.2936186" lon="10.9849841"><ele>29.0</ele><time>2026-04-18T13:59:54.118Z</time></trkpt><trkpt lat="45.2937765" lon="10.9847832"><ele>29.0</ele><time>2026-04-18T13:59:55.114Z</time></trkpt><trkpt lat="45.2939291" lon="10.9845817"><ele>29.0</ele><time>2026-04-18T13:59:56.11Z</time></trkpt><trkpt lat="45.2940888" lon="10.9843808"><ele>29.0</ele><time>2026-04-18T13:59:57.079Z</time></trkpt><trkpt lat="45.2942552" lon="10.9841846"><ele>29.333333333333332</ele><time>2026-04-18T13:59:58.116Z</time></trkpt><trkpt lat="45.294417" lon="10.9839782"><ele>29.666666666666664</ele><time>2026-04-18T13:59:59.095Z</time></trkpt><trkpt lat="45.2945772" lon="10.9837835"><ele>30.0</ele><time>2026-04-18T14:00:00.099Z</time></trkpt><trkpt lat="45.2947307" lon="10.9835951"><ele>30.0</ele><time>2026-04-18T14:00:01.103Z</time></trkpt><trkpt lat="45.2948781" lon="10.9834117"><ele>30.0</ele><time>2026-04-18T14:00:02.095Z</time></trkpt><trkpt lat="45.2950167" lon="10.9832445"><ele>30.0</ele><time>2026-04-18T14:00:03.096Z</time></trkpt><trkpt lat="45.2951555" lon="10.9830873"><ele>29.666666666666664</ele><time>2026-04-18T14:00:04.099Z</time></trkpt><trkpt lat="45.295284" lon="10.982926"><ele>29.333333333333332</ele><time>2026-04-18T14:00:05.094Z</time></trkpt><trkpt lat="45.2954105" lon="10.9827588"><ele>29.0</ele><time>2026-04-18T14:00:06.094Z</time></trkpt><trkpt lat="45.295541" lon="10.9825838"><ele>29.333333333333332</ele><time>2026-04-18T14:00:07.094Z</time></trkpt><trkpt lat="45.2956766" lon="10.9824155"><ele>29.666666666666664</ele><time>2026-04-18T14:00:08.095Z</time></trkpt><trkpt lat="45.2958112" lon="10.9822493"><ele>30.0</ele><time>2026-04-18T14:00:09.122Z</time></trkpt><trkpt lat="45.2959508" lon="10.9820791"><ele>30.0</ele><time>2026-04-18T14:00:10.095Z</time></trkpt><trkpt lat="45.2960919" lon="10.981911"><ele>30.0</ele><time>2026-04-18T14:00:11.098Z</time></trkpt><trkpt lat="45.2962301" lon="10.9817581"><ele>30.0</ele><time>2026-04-18T14:00:12.096Z</time></trkpt><trkpt lat="45.2963539" lon="10.9816111"><ele>30.0</ele><time>2026-04-18T14:00:13.09Z</time></trkpt><trkpt lat="45.2964862" lon="10.9814685"><ele>30.0</ele><time>2026-04-18T14:00:14.104Z</time></trkpt><trkpt lat="45.2966151" lon="10.9813288"><ele>30.0</ele><time>2026-04-18T14:00:15.093Z</time></trkpt><trkpt lat="45.2967379" lon="10.9812091"><ele>30.0</ele><time>2026-04-18T14:00:16.099Z</time></trkpt><trkpt lat="45.2968632" lon="10.9811054"><ele>30.0</ele><time>2026-04-18T14:00:17.101Z</time></trkpt><trkpt lat="45.2969899" lon="10.9810102"><ele>30.0</ele><time>2026-04-18T14:00:18.091Z</time></trkpt><trkpt lat="45.2972599" lon="10.9808356"><ele>30.0</ele><time>2026-04-18T14:00:20.093Z</time></trkpt><trkpt lat="45.2974065" lon="10.9807478"><ele>30.0</ele><time>2026-04-18T14:00:21.093Z</time></trkpt><trkpt lat="45.2975545" lon="10.9806505"><ele>30.0</ele><time>2026-04-18T14:00:22.095Z</time></trkpt><trkpt lat="45.2976965" lon="10.9805603"><ele>30.0</ele><time>2026-04-18T14:00:23.096Z</time></trkpt><trkpt lat="45.2978402" lon="10.9804937"><ele>30.0</ele><time>2026-04-18T14:00:24.095Z</time></trkpt><trkpt lat="45.2979778" lon="10.9804291"><ele>30.0</ele><time>2026-04-18T14:00:25.093Z</time></trkpt><trkpt lat="45.29813" lon="10.9803916"><ele>29.75</ele><time>2026-04-18T14:00:26.091Z</time></trkpt><trkpt lat="45.2982625" lon="10.9803621"><ele>29.5</ele><time>2026-04-18T14:00:27.089Z</time></trkpt><trkpt lat="45.2983972" lon="10.9803273"><ele>29.25</ele><time>2026-04-18T14:00:28.1Z</time></trkpt><trkpt lat="45.2985183" lon="10.9802936"><ele>29.0</ele><time>2026-04-18T14:00:29.09Z</time></trkpt><trkpt lat="45.2986228" lon="10.9802668"><ele>28.999999999999996</ele><time>2026-04-18T14:00:30.092Z</time></trkpt><trkpt lat="45.2987137" lon="10.9802275"><ele>29.0</ele><time>2026-04-18T14:00:31.097Z</time></trkpt><trkpt lat="45.2987917" lon="10.9801844"><ele>29.0</ele><time>2026-04-18T14:00:32.089Z</time></trkpt><trkpt lat="45.2988628" lon="10.980127"><ele>29.0</ele><time>2026-04-18T14:00:33.091Z</time></trkpt><trkpt lat="45.2989321" lon="10.9800602"><ele>28.999999999999996</ele><time>2026-04-18T14:00:34.093Z</time></trkpt><trkpt lat="45.2989994" lon="10.9799829"><ele>29.0</ele><time>2026-04-18T14:00:35.098Z</time></trkpt><trkpt lat="45.2990715" lon="10.9798999"><ele>28.799999999999997</ele><time>2026-04-18T14:00:36.093Z</time></trkpt><trkpt lat="45.299141" lon="10.9798102"><ele>28.599999999999998</ele><time>2026-04-18T14:00:37.098Z</time></trkpt><trkpt lat="45.2992086" lon="10.9797255"><ele>28.4</ele><time>2026-04-18T14:00:38.094Z</time></trkpt><trkpt lat="45.299276" lon="10.9796361"><ele>28.2</ele><time>2026-04-18T14:00:39.103Z</time></trkpt><trkpt lat="45.2993459" lon="10.9795463"><ele>28.0</ele><time>2026-04-18T14:00:40.089Z</time></trkpt><trkpt lat="45.2994274" lon="10.9794494"><ele>28.0</ele><time>2026-04-18T14:00:41.086Z</time></trkpt><trkpt lat="45.299522" lon="10.9793462"><ele>28.0</ele><time>2026-04-18T14:00:42.095Z</time></trkpt><trkpt lat="45.2996421" lon="10.9792398"><ele>28.0</ele><time>2026-04-18T14:00:43.099Z</time></trkpt><trkpt lat="45.299792" lon="10.9791438"><ele>28.0</ele><time>2026-04-18T14:00:44.088Z</time></trkpt><trkpt lat="45.2999645" lon="10.9790612"><ele>29.333333333333336</ele><time>2026-04-18T14:00:45.087Z</time></trkpt><trkpt lat="45.3001488" lon="10.978989"><ele>30.666666666666664</ele><time>2026-04-18T14:00:46.086Z</time></trkpt><trkpt lat="45.3003455" lon="10.9789135"><ele>32.0</ele><time>2026-04-18T14:00:47.096Z</time></trkpt><trkpt lat="45.3005515" lon="10.9788347"><ele>31.333333333333332</ele><time>2026-04-18T14:00:48.093Z</time></trkpt><trkpt lat="45.3007643" lon="10.9787655"><ele>30.666666666666664</ele><time>2026-04-18T14:00:49.1Z</time></trkpt><trkpt lat="45.300982" lon="10.9786753"><ele>30.0</ele><time>2026-04-18T14:00:50.102Z</time></trkpt><trkpt lat="45.3011996" lon="10.9785871"><ele>30.0</ele><time>2026-04-18T14:00:51.098Z</time></trkpt><trkpt lat="45.3014114" lon="10.978507"><ele>30.0</ele><time>2026-04-18T14:00:52.1Z</time></trkpt><trkpt lat="45.3016285" lon="10.9784131"><ele>30.0</ele><time>2026-04-18T14:00:53.093Z</time></trkpt><trkpt lat="45.3018402" lon="10.978321"><ele>30.0</ele><time>2026-04-18T14:00:54.095Z</time></trkpt><trkpt lat="45.3020431" lon="10.9782383"><ele>30.0</ele><time>2026-04-18T14:00:55.091Z</time></trkpt><trkpt lat="45.3022541" lon="10.9781532"><ele>30.0</ele><time>2026-04-18T14:00:56.096Z</time></trkpt><trkpt lat="45.3024712" lon="10.9780674"><ele>30.0</ele><time>2026-04-18T14:00:57.096Z</time></trkpt><trkpt lat="45.302676" lon="10.9779778"><ele>30.0</ele><time>2026-04-18T14:00:58.093Z</time></trkpt><trkpt lat="45.3028851" lon="10.9778871"><ele>30.0</ele><time>2026-04-18T14:00:59.098Z</time></trkpt><trkpt lat="45.3030919" lon="10.977804"><ele>30.333333333333336</ele><time>2026-04-18T14:01:00.102Z</time></trkpt><trkpt lat="45.3032995" lon="10.9777236"><ele>30.666666666666668</ele><time>2026-04-18T14:01:01.099Z</time></trkpt><trkpt lat="45.303496" lon="10.9776424"><ele>31.0</ele><time>2026-04-18T14:01:02.091Z</time></trkpt><trkpt lat="45.3036758" lon="10.9775726"><ele>30.666666666666668</ele><time>2026-04-18T14:01:03.087Z</time></trkpt><trkpt lat="45.303852" lon="10.9774957"><ele>30.333333333333336</ele><time>2026-04-18T14:01:04.087Z</time></trkpt><trkpt lat="45.304017" lon="10.9774263"><ele>30.0</ele><time>2026-04-18T14:01:05.095Z</time></trkpt><trkpt lat="45.3041832" lon="10.9773646"><ele>29.666666666666664</ele><time>2026-04-18T14:01:06.091Z</time></trkpt><trkpt lat="45.3043547" lon="10.9772942"><ele>29.333333333333332</ele><time>2026-04-18T14:01:07.093Z</time></trkpt><trkpt lat="45.3045259" lon="10.9772196"><ele>29.0</ele><time>2026-04-18T14:01:08.093Z</time></trkpt><trkpt lat="45.3046992" lon="10.9771467"><ele>29.666666666666664</ele><time>2026-04-18T14:01:09.109Z</time></trkpt><trkpt lat="45.3048794" lon="10.9770744"><ele>30.333333333333336</ele><time>2026-04-18T14:01:10.1Z</time></trkpt><trkpt lat="45.3050476" lon="10.9770055"><ele>31.0</ele><time>2026-04-18T14:01:11.101Z</time></trkpt><trkpt lat="45.3052073" lon="10.976943"><ele>31.0</ele><time>2026-04-18T14:01:12.096Z</time></trkpt><trkpt lat="45.3053584" lon="10.9768817"><ele>31.0</ele><time>2026-04-18T14:01:13.095Z</time></trkpt><trkpt lat="45.3054808" lon="10.976836"><ele>31.0</ele><time>2026-04-18T14:01:14.107Z</time></trkpt><trkpt lat="45.3055757" lon="10.9767966"><ele>31.0</ele><time>2026-04-18T14:01:15.087Z</time></trkpt><trkpt lat="45.3056418" lon="10.9767726"><ele>30.8</ele><time>2026-04-18T14:01:16.09Z</time></trkpt><trkpt lat="45.3056692" lon="10.9769089"><ele>30.6</ele><time>2026-04-18T14:01:21.085Z</time></trkpt><trkpt lat="45.3056929" lon="10.9770204"><ele>30.4</ele><time>2026-04-18T14:01:22.095Z</time></trkpt><trkpt lat="45.3057302" lon="10.9771438"><ele>30.2</ele><time>2026-04-18T14:01:23.086Z</time></trkpt><trkpt lat="45.3057795" lon="10.9772796"><ele>30.0</ele><time>2026-04-18T14:01:24.09Z</time></trkpt><trkpt lat="45.3058347" lon="10.9774292"><ele>29.666666666666664</ele><time>2026-04-18T14:01:25.09Z</time></trkpt><trkpt lat="45.3058933" lon="10.9776085"><ele>29.333333333333332</ele><time>2026-04-18T14:01:26.095Z</time></trkpt><trkpt lat="45.3059605" lon="10.9778133"><ele>29.0</ele><time>2026-04-18T14:01:27.1Z</time></trkpt><trkpt lat="45.3060335" lon="10.9780482"><ele>29.0</ele><time>2026-04-18T14:01:28.094Z</time></trkpt><trkpt lat="45.3061198" lon="10.9782919"><ele>29.0</ele><time>2026-04-18T14:01:29.092Z</time></trkpt><trkpt lat="45.3062121" lon="10.9785252"><ele>29.0</ele><time>2026-04-18T14:01:30.092Z</time></trkpt><trkpt lat="45.3062926" lon="10.9787429"><ele>29.25</ele><time>2026-04-18T14:01:31.1Z</time></trkpt><trkpt lat="45.3063659" lon="10.9789309"><ele>29.5</ele><time>2026-04-18T14:01:32.083Z</time></trkpt><trkpt lat="45.3064281" lon="10.9791117"><ele>29.75</ele><time>2026-04-18T14:01:33.094Z</time></trkpt><trkpt lat="45.3064863" lon="10.9792706"><ele>30.0</ele><time>2026-04-18T14:01:34.077Z</time></trkpt><trkpt lat="45.3065527" lon="10.9794281"><ele>31.25</ele><time>2026-04-18T14:01:35.092Z</time></trkpt><trkpt lat="45.3066146" lon="10.979587"><ele>32.5</ele><time>2026-04-18T14:01:36.098Z</time></trkpt><trkpt lat="45.3066777" lon="10.979748"><ele>33.75</ele><time>2026-04-18T14:01:37.095Z</time></trkpt><trkpt lat="45.3067281" lon="10.9799074"><ele>35.0</ele><time>2026-04-18T14:01:38.099Z</time></trkpt><trkpt lat="45.3067786" lon="10.9800616"><ele>35.0</ele><time>2026-04-18T14:01:39.093Z</time></trkpt><trkpt lat="45.3068301" lon="10.9802148"><ele>35.0</ele><time>2026-04-18T14:01:40.092Z</time></trkpt><trkpt lat="45.3068816" lon="10.98036"><ele>35.0</ele><time>2026-04-18T14:01:41.082Z</time></trkpt><trkpt lat="45.3069309" lon="10.9804904"><ele>35.0</ele><time>2026-04-18T14:01:42.086Z</time></trkpt><trkpt lat="45.3069782" lon="10.9806109"><ele>35.0</ele><time>2026-04-18T14:01:43.075Z</time></trkpt><trkpt lat="45.3070203" lon="10.980731"><ele>35.0</ele><time>2026-04-18T14:01:44.098Z</time></trkpt><trkpt lat="45.3070566" lon="10.9808425"><ele>35.0</ele><time>2026-04-18T14:01:45.089Z</time></trkpt><trkpt lat="45.3070913" lon="10.9809472"><ele>35.0</ele><time>2026-04-18T14:01:46.089Z</time></trkpt><trkpt lat="45.3071245" lon="10.9810461"><ele>35.0</ele><time>2026-04-18T14:01:47.091Z</time></trkpt><trkpt lat="45.3071602" lon="10.9811399"><ele>35.0</ele><time>2026-04-18T14:01:48.09Z</time></trkpt><trkpt lat="45.3071939" lon="10.981231"><ele>35.0</ele><time>2026-04-18T14:01:49.089Z</time></trkpt><trkpt lat="45.3072265" lon="10.981324"><ele>34.666666666666664</ele><time>2026-04-18T14:01:50.103Z</time></trkpt><trkpt lat="45.3072575" lon="10.9814097"><ele>34.33333333333333</ele><time>2026-04-18T14:01:51.09Z</time></trkpt><trkpt lat="45.3073133" lon="10.9815519"><ele>34.0</ele><time>2026-04-18T14:01:53.078Z</time></trkpt><trkpt lat="45.3073827" lon="10.9815998"><ele>33.666666666666664</ele><time>2026-04-18T14:01:55.076Z</time></trkpt><trkpt lat="45.3074569" lon="10.981542"><ele>33.333333333333336</ele><time>2026-04-18T14:01:57.071Z</time></trkpt><trkpt lat="45.307514" lon="10.9814906"><ele>33.0</ele><time>2026-04-18T14:01:58.071Z</time></trkpt><trkpt lat="45.3075875" lon="10.9814463"><ele>33.0</ele><time>2026-04-18T14:01:59.068Z</time></trkpt><trkpt lat="45.3076631" lon="10.9813927"><ele>33.0</ele><time>2026-04-18T14:02:00.08Z</time></trkpt><trkpt lat="45.3077562" lon="10.9813263"><ele>33.0</ele><time>2026-04-18T14:02:01.075Z</time></trkpt><trkpt lat="45.307874" lon="10.9812576"><ele>33.0</ele><time>2026-04-18T14:02:02.066Z</time></trkpt><trkpt lat="45.3080086" lon="10.9811783"><ele>32.666666666666664</ele><time>2026-04-18T14:02:03.07Z</time></trkpt><trkpt lat="45.3081626" lon="10.9810817"><ele>32.33333333333333</ele><time>2026-04-18T14:02:04.083Z</time></trkpt><trkpt lat="45.3083445" lon="10.98095"><ele>32.0</ele><time>2026-04-18T14:02:05.077Z</time></trkpt><trkpt lat="45.3085229" lon="10.9807784"><ele>32.0</ele><time>2026-04-18T14:02:06.078Z</time></trkpt><trkpt lat="45.3087164" lon="10.9805846"><ele>32.0</ele><time>2026-04-18T14:02:07.068Z</time></trkpt><trkpt lat="45.3089125" lon="10.9803976"><ele>32.0</ele><time>2026-04-18T14:02:08.078Z</time></trkpt><trkpt lat="45.309111" lon="10.980196"><ele>32.0</ele><time>2026-04-18T14:02:09.082Z</time></trkpt><trkpt lat="45.3092904" lon="10.9800277"><ele>32.33333333333333</ele><time>2026-04-18T14:02:10.077Z</time></trkpt><trkpt lat="45.309454" lon="10.9798952"><ele>32.666666666666664</ele><time>2026-04-18T14:02:11.082Z</time></trkpt><trkpt lat="45.3095986" lon="10.9797695"><ele>33.0</ele><time>2026-04-18T14:02:12.075Z</time></trkpt><trkpt lat="45.3097198" lon="10.9796795"><ele>32.4</ele><time>2026-04-18T14:02:13.074Z</time></trkpt><trkpt lat="45.3098105" lon="10.9796047"><ele>31.799999999999997</ele><time>2026-04-18T14:02:14.087Z</time></trkpt><trkpt lat="45.3098849" lon="10.9795573"><ele>31.2</ele><time>2026-04-18T14:02:15.085Z</time></trkpt><trkpt lat="45.3099526" lon="10.9795256"><ele>30.6</ele><time>2026-04-18T14:02:16.081Z</time></trkpt><trkpt lat="45.3100569" lon="10.9796652"><ele>30.0</ele><time>2026-04-18T14:02:18.084Z</time></trkpt><trkpt lat="45.3100928" lon="10.979826"><ele>30.0</ele><time>2026-04-18T14:02:19.078Z</time></trkpt><trkpt lat="45.3101379" lon="10.9800024"><ele>30.0</ele><time>2026-04-18T14:02:20.073Z</time></trkpt><trkpt lat="45.3101852" lon="10.9802002"><ele>30.0</ele><time>2026-04-18T14:02:21.085Z</time></trkpt><trkpt lat="45.3102329" lon="10.9803747"><ele>30.0</ele><time>2026-04-18T14:02:22.073Z</time></trkpt><trkpt lat="45.3102803" lon="10.9805251"><ele>30.0</ele><time>2026-04-18T14:02:23.083Z</time></trkpt><trkpt lat="45.310315" lon="10.9806366"><ele>30.0</ele><time>2026-04-18T14:02:24.074Z</time></trkpt><trkpt lat="45.3103467" lon="10.9807321"><ele>30.0</ele><time>2026-04-18T14:02:25.085Z</time></trkpt><trkpt lat="45.3104408" lon="10.9807881"><ele>30.0</ele><time>2026-04-18T14:02:27.087Z</time></trkpt><trkpt lat="45.3105429" lon="10.980731"><ele>30.0</ele><time>2026-04-18T14:02:29.083Z</time></trkpt><trkpt lat="45.3106138" lon="10.9806769"><ele>30.25</ele><time>2026-04-18T14:02:30.095Z</time></trkpt><trkpt lat="45.3107167" lon="10.9805995"><ele>30.5</ele><time>2026-04-18T14:02:31.085Z</time></trkpt><trkpt lat="45.3108381" lon="10.9805189"><ele>30.75</ele><time>2026-04-18T14:02:32.09Z</time></trkpt><trkpt lat="45.3109601" lon="10.9804299"><ele>31.0</ele><time>2026-04-18T14:02:33.091Z</time></trkpt><trkpt lat="45.3110972" lon="10.9803341"><ele>31.0</ele><time>2026-04-18T14:02:34.081Z</time></trkpt><trkpt lat="45.3112493" lon="10.9802341"><ele>31.0</ele><time>2026-04-18T14:02:35.086Z</time></trkpt><trkpt lat="45.3114268" lon="10.9801234"><ele>31.0</ele><time>2026-04-18T14:02:36.085Z</time></trkpt><trkpt lat="45.311606" lon="10.9800195"><ele>30.666666666666668</ele><time>2026-04-18T14:02:37.084Z</time></trkpt><trkpt lat="45.3118023" lon="10.9799025"><ele>30.333333333333336</ele><time>2026-04-18T14:02:38.087Z</time></trkpt><trkpt lat="45.3119993" lon="10.9797873"><ele>30.0</ele><time>2026-04-18T14:02:39.093Z</time></trkpt><trkpt lat="45.3121989" lon="10.9796755"><ele>30.5</ele><time>2026-04-18T14:02:40.091Z</time></trkpt><trkpt lat="45.3124136" lon="10.9795512"><ele>31.0</ele><time>2026-04-18T14:02:41.087Z</time></trkpt><trkpt lat="45.3126325" lon="10.9794237"><ele>31.0</ele><time>2026-04-18T14:02:42.092Z</time></trkpt><trkpt lat="45.3128465" lon="10.9792933"><ele>31.0</ele><time>2026-04-18T14:02:43.094Z</time></trkpt><trkpt lat="45.3130573" lon="10.9791649"><ele>30.666666666666668</ele><time>2026-04-18T14:02:44.095Z</time></trkpt><trkpt lat="45.3132622" lon="10.9790395"><ele>30.333333333333336</ele><time>2026-04-18T14:02:45.09Z</time></trkpt><trkpt lat="45.3134602" lon="10.9789173"><ele>30.0</ele><time>2026-04-18T14:02:46.095Z</time></trkpt><trkpt lat="45.3136604" lon="10.9788028"><ele>30.0</ele><time>2026-04-18T14:02:47.097Z</time></trkpt><trkpt lat="45.3138693" lon="10.9786803"><ele>30.0</ele><time>2026-04-18T14:02:48.094Z</time></trkpt><trkpt lat="45.3140802" lon="10.9785535"><ele>29.5</ele><time>2026-04-18T14:02:49.092Z</time></trkpt><trkpt lat="45.3143029" lon="10.9784212"><ele>29.0</ele><time>2026-04-18T14:02:50.099Z</time></trkpt><trkpt lat="45.3145203" lon="10.9782915"><ele>30.0</ele><time>2026-04-18T14:02:51.095Z</time></trkpt><trkpt lat="45.3147424" lon="10.9781602"><ele>31.0</ele><time>2026-04-18T14:02:52.096Z</time></trkpt><trkpt lat="45.314968" lon="10.9780326"><ele>31.0</ele><time>2026-04-18T14:02:53.092Z</time></trkpt><trkpt lat="45.3152019" lon="10.9778983"><ele>31.0</ele><time>2026-04-18T14:02:54.091Z</time></trkpt><trkpt lat="45.3154309" lon="10.9777611"><ele>31.0</ele><time>2026-04-18T14:02:55.093Z</time></trkpt><trkpt lat="45.3156661" lon="10.977629"><ele>31.0</ele><time>2026-04-18T14:02:56.097Z</time></trkpt><trkpt lat="45.3158951" lon="10.9774918"><ele>31.0</ele><time>2026-04-18T14:02:57.095Z</time></trkpt><trkpt lat="45.3161256" lon="10.9773546"><ele>31.0</ele><time>2026-04-18T14:02:58.096Z</time></trkpt><trkpt lat="45.3163632" lon="10.9772199"><ele>30.5</ele><time>2026-04-18T14:02:59.085Z</time></trkpt><trkpt lat="45.3166109" lon="10.9770808"><ele>30.0</ele><time>2026-04-18T14:03:00.097Z</time></trkpt><trkpt lat="45.3168517" lon="10.9769441"><ele>30.0</ele><time>2026-04-18T14:03:01.092Z</time></trkpt><trkpt lat="45.3170907" lon="10.976814"><ele>30.0</ele><time>2026-04-18T14:03:02.092Z</time></trkpt><trkpt lat="45.3173194" lon="10.9766761"><ele>30.5</ele><time>2026-04-18T14:03:03.094Z</time></trkpt><trkpt lat="45.3175505" lon="10.9765404"><ele>31.0</ele><time>2026-04-18T14:03:04.09Z</time></trkpt><trkpt lat="45.317784" lon="10.9764018"><ele>31.0</ele><time>2026-04-18T14:03:05.094Z</time></trkpt><trkpt lat="45.3180233" lon="10.9762522"><ele>31.0</ele><time>2026-04-18T14:03:06.09Z</time></trkpt><trkpt lat="45.3182655" lon="10.9761036"><ele>30.5</ele><time>2026-04-18T14:03:07.089Z</time></trkpt><trkpt lat="45.3185059" lon="10.9759561"><ele>30.0</ele><time>2026-04-18T14:03:08.091Z</time></trkpt><trkpt lat="45.3187411" lon="10.9758111"><ele>30.0</ele><time>2026-04-18T14:03:09.09Z</time></trkpt><trkpt lat="45.3189673" lon="10.9756722"><ele>30.0</ele><time>2026-04-18T14:03:10.089Z</time></trkpt><trkpt lat="45.3192022" lon="10.9755357"><ele>30.0</ele><time>2026-04-18T14:03:11.092Z</time></trkpt><trkpt lat="45.3194447" lon="10.9753954"><ele>30.0</ele><time>2026-04-18T14:03:12.093Z</time></trkpt><trkpt lat="45.3196849" lon="10.9752513"><ele>30.0</ele><time>2026-04-18T14:03:13.089Z</time></trkpt><trkpt lat="45.3199271" lon="10.9751114"><ele>30.0</ele><time>2026-04-18T14:03:14.091Z</time></trkpt><trkpt lat="45.3201643" lon="10.9749752"><ele>30.0</ele><time>2026-04-18T14:03:15.087Z</time></trkpt><trkpt lat="45.3203864" lon="10.9748412"><ele>30.0</ele><time>2026-04-18T14:03:16.087Z</time></trkpt><trkpt lat="45.3205859" lon="10.9747193"><ele>30.666666666666664</ele><time>2026-04-18T14:03:17.091Z</time></trkpt><trkpt lat="45.3207935" lon="10.9746094"><ele>31.333333333333332</ele><time>2026-04-18T14:03:18.09Z</time></trkpt><trkpt lat="45.3209975" lon="10.9744995"><ele>32.0</ele><time>2026-04-18T14:03:19.085Z</time></trkpt><trkpt lat="45.3211958" lon="10.9743883"><ele>32.0</ele><time>2026-04-18T14:03:20.096Z</time></trkpt><trkpt lat="45.3213904" lon="10.974275"><ele>32.0</ele><time>2026-04-18T14:03:21.09Z</time></trkpt><trkpt lat="45.3215923" lon="10.9741458"><ele>32.0</ele><time>2026-04-18T14:03:22.092Z</time></trkpt><trkpt lat="45.321812" lon="10.974016"><ele>32.0</ele><time>2026-04-18T14:03:23.09Z</time></trkpt><trkpt lat="45.3220384" lon="10.9738785"><ele>32.0</ele><time>2026-04-18T14:03:24.089Z</time></trkpt><trkpt lat="45.3222653" lon="10.9737453"><ele>32.0</ele><time>2026-04-18T14:03:25.085Z</time></trkpt><trkpt lat="45.3224846" lon="10.9736156"><ele>32.0</ele><time>2026-04-18T14:03:26.088Z</time></trkpt><trkpt lat="45.3227004" lon="10.9734865"><ele>32.0</ele><time>2026-04-18T14:03:27.091Z</time></trkpt><trkpt lat="45.3229143" lon="10.9733587"><ele>32.0</ele><time>2026-04-18T14:03:28.091Z</time></trkpt><trkpt lat="45.3231315" lon="10.9732306"><ele>32.0</ele><time>2026-04-18T14:03:29.09Z</time></trkpt><trkpt lat="45.3233619" lon="10.9731045"><ele>32.0</ele><time>2026-04-18T14:03:30.089Z</time></trkpt><trkpt lat="45.3235898" lon="10.9729672"><ele>32.0</ele><time>2026-04-18T14:03:31.098Z</time></trkpt><trkpt lat="45.3238254" lon="10.9728341"><ele>32.0</ele><time>2026-04-18T14:03:32.09Z</time></trkpt><trkpt lat="45.3240667" lon="10.9726896"><ele>32.0</ele><time>2026-04-18T14:03:33.093Z</time></trkpt><trkpt lat="45.3242959" lon="10.9725507"><ele>32.0</ele><time>2026-04-18T14:03:34.087Z</time></trkpt><trkpt lat="45.3245049" lon="10.9724238"><ele>32.0</ele><time>2026-04-18T14:03:35.086Z</time></trkpt><trkpt lat="45.3247068" lon="10.9723023"><ele>32.0</ele><time>2026-04-18T14:03:36.088Z</time></trkpt><trkpt lat="45.3248971" lon="10.972184"><ele>32.0</ele><time>2026-04-18T14:03:37.09Z</time></trkpt><trkpt lat="45.3250768" lon="10.9720778"><ele>32.33333333333333</ele><time>2026-04-18T14:03:38.09Z</time></trkpt><trkpt lat="45.3252526" lon="10.9719851"><ele>32.666666666666664</ele><time>2026-04-18T14:03:39.09Z</time></trkpt><trkpt lat="45.3254261" lon="10.9718873"><ele>33.0</ele><time>2026-04-18T14:03:40.087Z</time></trkpt><trkpt lat="45.3255918" lon="10.9717901"><ele>33.0</ele><time>2026-04-18T14:03:41.088Z</time></trkpt><trkpt lat="45.3257484" lon="10.9716983"><ele>33.0</ele><time>2026-04-18T14:03:42.09Z</time></trkpt><trkpt lat="45.3258948" lon="10.9716105"><ele>33.0</ele><time>2026-04-18T14:03:43.09Z</time></trkpt><trkpt lat="45.3260433" lon="10.9715131"><ele>33.0</ele><time>2026-04-18T14:03:44.09Z</time></trkpt><trkpt lat="45.3261976" lon="10.971416"><ele>33.0</ele><time>2026-04-18T14:03:45.089Z</time></trkpt><trkpt lat="45.3263414" lon="10.971324"><ele>33.0</ele><time>2026-04-18T14:03:46.088Z</time></trkpt><trkpt lat="45.3264809" lon="10.9712394"><ele>33.0</ele><time>2026-04-18T14:03:47.092Z</time></trkpt><trkpt lat="45.3266117" lon="10.9711604"><ele>33.0</ele><time>2026-04-18T14:03:48.098Z</time></trkpt><trkpt lat="45.3267312" lon="10.9710817"><ele>33.0</ele><time>2026-04-18T14:03:49.087Z</time></trkpt><trkpt lat="45.3268306" lon="10.9710255"><ele>33.0</ele><time>2026-04-18T14:03:50.096Z</time></trkpt><trkpt lat="45.3268926" lon="10.9709865"><ele>33.0</ele><time>2026-04-18T14:03:51.102Z</time></trkpt><trkpt lat="45.3269465" lon="10.9708827"><ele>32.8</ele><time>2026-04-18T14:03:53.1Z</time></trkpt><trkpt lat="45.3269631" lon="10.9707634"><ele>32.599999999999994</ele><time>2026-04-18T14:03:55.1Z</time></trkpt><trkpt lat="45.3270161" lon="10.970709"><ele>32.400000000000006</ele><time>2026-04-18T14:03:56.102Z</time></trkpt><trkpt lat="45.3270986" lon="10.9706559"><ele>32.2</ele><time>2026-04-18T14:03:57.096Z</time></trkpt><trkpt lat="45.3271953" lon="10.9706068"><ele>32.0</ele><time>2026-04-18T14:03:58.09Z</time></trkpt><trkpt lat="45.327308" lon="10.9705506"><ele>32.666666666666664</ele><time>2026-04-18T14:03:59.098Z</time></trkpt><trkpt lat="45.3274424" lon="10.9704773"><ele>33.333333333333336</ele><time>2026-04-18T14:04:00.107Z</time></trkpt><trkpt lat="45.3275992" lon="10.9703851"><ele>34.0</ele><time>2026-04-18T14:04:01.098Z</time></trkpt><trkpt lat="45.32775" lon="10.9702895"><ele>34.0</ele><time>2026-04-18T14:04:02.091Z</time></trkpt><trkpt lat="45.3278645" lon="10.9702083"><ele>34.0</ele><time>2026-04-18T14:04:03.09Z</time></trkpt><trkpt lat="45.3279339" lon="10.9701767"><ele>34.0</ele><time>2026-04-18T14:04:04.082Z</time></trkpt><trkpt lat="45.327985" lon="10.9701155"><ele>34.0</ele><time>2026-04-18T14:04:05.086Z</time></trkpt><trkpt lat="45.3280416" lon="10.9699481"><ele>34.0</ele><time>2026-04-18T14:04:07.078Z</time></trkpt><trkpt lat="45.3280648" lon="10.9698015"><ele>34.16666666666667</ele><time>2026-04-18T14:04:08.083Z</time></trkpt><trkpt lat="45.3280697" lon="10.9696778"><ele>34.333333333333336</ele><time>2026-04-18T14:04:09.078Z</time></trkpt><trkpt lat="45.3280733" lon="10.9695633"><ele>34.5</ele><time>2026-04-18T14:04:10.075Z</time></trkpt><trkpt lat="45.328099" lon="10.9694541"><ele>34.666666666666664</ele><time>2026-04-18T14:04:11.079Z</time></trkpt><trkpt lat="45.3281375" lon="10.9693509"><ele>34.83333333333333</ele><time>2026-04-18T14:04:12.088Z</time></trkpt><trkpt lat="45.3282139" lon="10.9692645"><ele>35.0</ele><time>2026-04-18T14:04:13.083Z</time></trkpt><trkpt lat="45.3283372" lon="10.969193"><ele>34.8</ele><time>2026-04-18T14:04:14.082Z</time></trkpt><trkpt lat="45.3284742" lon="10.9691362"><ele>34.6</ele><time>2026-04-18T14:04:15.082Z</time></trkpt><trkpt lat="45.3285966" lon="10.9690843"><ele>34.4</ele><time>2026-04-18T14:04:16.086Z</time></trkpt><trkpt lat="45.3286906" lon="10.9690483"><ele>34.2</ele><time>2026-04-18T14:04:17.096Z</time></trkpt><trkpt lat="45.3287546" lon="10.9690281"><ele>34.0</ele><time>2026-04-18T14:04:18.083Z</time></trkpt><trkpt lat="45.3287813" lon="10.9689404"><ele>34.0</ele><time>2026-04-18T14:04:28.083Z</time></trkpt><trkpt lat="45.3287369" lon="10.9688373"><ele>34.0</ele><time>2026-04-18T14:04:30.082Z</time></trkpt><trkpt lat="45.328671" lon="10.9686749"><ele>34.0</ele><time>2026-04-18T14:04:32.079Z</time></trkpt><trkpt lat="45.3286153" lon="10.9685405"><ele>34.0</ele><time>2026-04-18T14:04:33.082Z</time></trkpt><trkpt lat="45.3285541" lon="10.9683614"><ele>33.66666666666667</ele><time>2026-04-18T14:04:34.078Z</time></trkpt><trkpt lat="45.3284841" lon="10.9681754"><ele>33.333333333333336</ele><time>2026-04-18T14:04:35.079Z</time></trkpt><trkpt lat="45.3284106" lon="10.9679775"><ele>33.0</ele><time>2026-04-18T14:04:36.08Z</time></trkpt><trkpt lat="45.3283329" lon="10.9677735"><ele>33.0</ele><time>2026-04-18T14:04:37.086Z</time></trkpt><trkpt lat="45.3282541" lon="10.9675639"><ele>33.0</ele><time>2026-04-18T14:04:38.087Z</time></trkpt><trkpt lat="45.3281636" lon="10.9673765"><ele>33.0</ele><time>2026-04-18T14:04:39.079Z</time></trkpt><trkpt lat="45.3280447" lon="10.9672278"><ele>33.0</ele><time>2026-04-18T14:04:40.086Z</time></trkpt><trkpt lat="45.3278928" lon="10.9671143"><ele>33.0</ele><time>2026-04-18T14:04:41.07Z</time></trkpt><trkpt lat="45.3277347" lon="10.9670198"><ele>33.0</ele><time>2026-04-18T14:04:42.079Z</time></trkpt><trkpt lat="45.3275513" lon="10.9669686"><ele>33.0</ele><time>2026-04-18T14:04:43.078Z</time></trkpt><trkpt lat="45.327367" lon="10.9669721"><ele>33.0</ele><time>2026-04-18T14:04:44.074Z</time></trkpt><trkpt lat="45.327188" lon="10.967026"><ele>33.0</ele><time>2026-04-18T14:04:45.074Z</time></trkpt><trkpt lat="45.3270199" lon="10.9671286"><ele>33.0</ele><time>2026-04-18T14:04:46.065Z</time></trkpt><trkpt lat="45.3268348" lon="10.9672489"><ele>33.0</ele><time>2026-04-18T14:04:47.077Z</time></trkpt><trkpt lat="45.3266396" lon="10.9674209"><ele>33.0</ele><time>2026-04-18T14:04:48.069Z</time></trkpt><trkpt lat="45.3264526" lon="10.9675715"><ele>33.333333333333336</ele><time>2026-04-18T14:04:49.065Z</time></trkpt><trkpt lat="45.3262858" lon="10.967753"><ele>33.66666666666667</ele><time>2026-04-18T14:04:50.073Z</time></trkpt><trkpt lat="45.3261035" lon="10.9679447"><ele>34.0</ele><time>2026-04-18T14:04:51.079Z</time></trkpt><trkpt lat="45.3259303" lon="10.968122"><ele>34.0</ele><time>2026-04-18T14:04:52.081Z</time></trkpt><trkpt lat="45.3257515" lon="10.9683014"><ele>34.0</ele><time>2026-04-18T14:04:53.083Z</time></trkpt><trkpt lat="45.3255773" lon="10.9684802"><ele>34.0</ele><time>2026-04-18T14:04:54.089Z</time></trkpt><trkpt lat="45.3254011" lon="10.9686557"><ele>34.333333333333336</ele><time>2026-04-18T14:04:55.08Z</time></trkpt><trkpt lat="45.3252261" lon="10.9688328"><ele>34.666666666666664</ele><time>2026-04-18T14:04:56.081Z</time></trkpt><trkpt lat="45.3250632" lon="10.9690106"><ele>35.0</ele><time>2026-04-18T14:04:57.078Z</time></trkpt><trkpt lat="45.3249115" lon="10.9691617"><ele>35.0</ele><time>2026-04-18T14:04:58.082Z</time></trkpt><trkpt lat="45.3247734" lon="10.9692955"><ele>35.0</ele><time>2026-04-18T14:04:59.075Z</time></trkpt><trkpt lat="45.3246416" lon="10.9694235"><ele>35.0</ele><time>2026-04-18T14:05:00.087Z</time></trkpt><trkpt lat="45.324523" lon="10.9695403"><ele>35.0</ele><time>2026-04-18T14:05:01.072Z</time></trkpt><trkpt lat="45.3244159" lon="10.9696282"><ele>35.0</ele><time>2026-04-18T14:05:02.08Z</time></trkpt><trkpt lat="45.3243208" lon="10.9696429"><ele>35.0</ele><time>2026-04-18T14:05:03.074Z</time></trkpt><trkpt lat="45.3242374" lon="10.9696301"><ele>35.0</ele><time>2026-04-18T14:05:04.071Z</time></trkpt><trkpt lat="45.324156" lon="10.9695159"><ele>35.0</ele><time>2026-04-18T14:05:05.075Z</time></trkpt><trkpt lat="45.3240952" lon="10.9693512"><ele>35.666666666666664</ele><time>2026-04-18T14:05:06.071Z</time></trkpt><trkpt lat="45.3240802" lon="10.9691416"><ele>36.333333333333336</ele><time>2026-04-18T14:05:07.068Z</time></trkpt><trkpt lat="45.324072" lon="10.9688901"><ele>37.0</ele><time>2026-04-18T14:05:08.065Z</time></trkpt><trkpt lat="45.3240458" lon="10.968645"><ele>37.0</ele><time>2026-04-18T14:05:09.063Z</time></trkpt><trkpt lat="45.3240264" lon="10.9683847"><ele>37.0</ele><time>2026-04-18T14:05:10.069Z</time></trkpt><trkpt lat="45.3240163" lon="10.9680975"><ele>37.0</ele><time>2026-04-18T14:05:11.066Z</time></trkpt><trkpt lat="45.3240084" lon="10.9678018"><ele>36.66666666666667</ele><time>2026-04-18T14:05:12.08Z</time></trkpt><trkpt lat="45.3239974" lon="10.9675132"><ele>36.333333333333336</ele><time>2026-04-18T14:05:13.082Z</time></trkpt><trkpt lat="45.3239723" lon="10.9672339"><ele>36.0</ele><time>2026-04-18T14:05:14.08Z</time></trkpt><trkpt lat="45.3239371" lon="10.9669536"><ele>36.0</ele><time>2026-04-18T14:05:15.078Z</time></trkpt><trkpt lat="45.323919" lon="10.9666663"><ele>36.0</ele><time>2026-04-18T14:05:16.077Z</time></trkpt><trkpt lat="45.3238964" lon="10.9663713"><ele>36.0</ele><time>2026-04-18T14:05:17.083Z</time></trkpt><trkpt lat="45.3238709" lon="10.966074"><ele>36.666666666666664</ele><time>2026-04-18T14:05:18.081Z</time></trkpt><trkpt lat="45.3238406" lon="10.9657771"><ele>37.33333333333333</ele><time>2026-04-18T14:05:19.082Z</time></trkpt><trkpt lat="45.323817" lon="10.9654763"><ele>38.0</ele><time>2026-04-18T14:05:20.081Z</time></trkpt><trkpt lat="45.3237897" lon="10.9651756"><ele>37.666666666666664</ele><time>2026-04-18T14:05:21.082Z</time></trkpt><trkpt lat="45.3237601" lon="10.9648817"><ele>37.333333333333336</ele><time>2026-04-18T14:05:22.083Z</time></trkpt><trkpt lat="45.3237363" lon="10.9645896"><ele>37.0</ele><time>2026-04-18T14:05:23.083Z</time></trkpt><trkpt lat="45.3237122" lon="10.9642932"><ele>36.333333333333336</ele><time>2026-04-18T14:05:24.091Z</time></trkpt><trkpt lat="45.3236886" lon="10.9640066"><ele>35.666666666666664</ele><time>2026-04-18T14:05:25.085Z</time></trkpt><trkpt lat="45.323664" lon="10.963718"><ele>35.0</ele><time>2026-04-18T14:05:26.087Z</time></trkpt><trkpt lat="45.3236364" lon="10.9634236"><ele>35.33333333333333</ele><time>2026-04-18T14:05:27.095Z</time></trkpt><trkpt lat="45.3236092" lon="10.9631137"><ele>35.666666666666664</ele><time>2026-04-18T14:05:28.083Z</time></trkpt><trkpt lat="45.3235804" lon="10.9628046"><ele>36.0</ele><time>2026-04-18T14:05:29.085Z</time></trkpt><trkpt lat="45.3235478" lon="10.9624871"><ele>36.0</ele><time>2026-04-18T14:05:30.084Z</time></trkpt><trkpt lat="45.3235264" lon="10.962196"><ele>36.0</ele><time>2026-04-18T14:05:31.087Z</time></trkpt><trkpt lat="45.323513" lon="10.9619275"><ele>36.0</ele><time>2026-04-18T14:05:32.079Z</time></trkpt><trkpt lat="45.3234875" lon="10.9616847"><ele>35.666666666666664</ele><time>2026-04-18T14:05:33.078Z</time></trkpt><trkpt lat="45.3234702" lon="10.9614453"><ele>35.33333333333333</ele><time>2026-04-18T14:05:34.086Z</time></trkpt><trkpt lat="45.323449" lon="10.9612053"><ele>35.0</ele><time>2026-04-18T14:05:35.078Z</time></trkpt><trkpt lat="45.3234274" lon="10.9609539"><ele>35.0</ele><time>2026-04-18T14:05:36.081Z</time></trkpt><trkpt lat="45.3234079" lon="10.9607051"><ele>35.0</ele><time>2026-04-18T14:05:37.076Z</time></trkpt><trkpt lat="45.3233837" lon="10.9604596"><ele>35.0</ele><time>2026-04-18T14:05:38.083Z</time></trkpt><trkpt lat="45.3233613" lon="10.9602112"><ele>34.666666666666664</ele><time>2026-04-18T14:05:39.078Z</time></trkpt><trkpt lat="45.3233407" lon="10.9599597"><ele>34.333333333333336</ele><time>2026-04-18T14:05:40.077Z</time></trkpt><trkpt lat="45.3233174" lon="10.9597013"><ele>34.0</ele><time>2026-04-18T14:05:41.077Z</time></trkpt><trkpt lat="45.3233038" lon="10.959442"><ele>34.0</ele><time>2026-04-18T14:05:42.079Z</time></trkpt><trkpt lat="45.3232895" lon="10.9591847"><ele>34.0</ele><time>2026-04-18T14:05:43.082Z</time></trkpt><trkpt lat="45.3232704" lon="10.95891"><ele>34.0</ele><time>2026-04-18T14:05:44.08Z</time></trkpt><trkpt lat="45.3232444" lon="10.9586419"><ele>34.0</ele><time>2026-04-18T14:05:45.08Z</time></trkpt><trkpt lat="45.3232243" lon="10.9583738"><ele>34.0</ele><time>2026-04-18T14:05:46.083Z</time></trkpt><trkpt lat="45.3232016" lon="10.9580995"><ele>34.0</ele><time>2026-04-18T14:05:47.083Z</time></trkpt><trkpt lat="45.3231794" lon="10.9578245"><ele>34.333333333333336</ele><time>2026-04-18T14:05:48.084Z</time></trkpt><trkpt lat="45.3231575" lon="10.9575471"><ele>34.666666666666664</ele><time>2026-04-18T14:05:49.084Z</time></trkpt><trkpt lat="45.3231414" lon="10.9572716"><ele>35.0</ele><time>2026-04-18T14:05:50.086Z</time></trkpt><trkpt lat="45.3231165" lon="10.9570047"><ele>34.666666666666664</ele><time>2026-04-18T14:05:51.082Z</time></trkpt><trkpt lat="45.32309" lon="10.9567382"><ele>34.333333333333336</ele><time>2026-04-18T14:05:52.084Z</time></trkpt><trkpt lat="45.3230674" lon="10.9564701"><ele>34.0</ele><time>2026-04-18T14:05:53.082Z</time></trkpt><trkpt lat="45.3230451" lon="10.9562151"><ele>34.0</ele><time>2026-04-18T14:05:54.08Z</time></trkpt><trkpt lat="45.3230243" lon="10.9559833"><ele>34.0</ele><time>2026-04-18T14:05:55.083Z</time></trkpt><trkpt lat="45.3230155" lon="10.955757"><ele>34.0</ele><time>2026-04-18T14:05:56.082Z</time></trkpt><trkpt lat="45.3229991" lon="10.9555404"><ele>33.66666666666667</ele><time>2026-04-18T14:05:57.085Z</time></trkpt><trkpt lat="45.3229673" lon="10.9553161"><ele>33.333333333333336</ele><time>2026-04-18T14:05:58.08Z</time></trkpt><trkpt lat="45.322914" lon="10.9550707"><ele>33.0</ele><time>2026-04-18T14:05:59.078Z</time></trkpt><trkpt lat="45.3228559" lon="10.9548196"><ele>33.0</ele><time>2026-04-18T14:06:00.083Z</time></trkpt><trkpt lat="45.3228034" lon="10.9545636"><ele>33.0</ele><time>2026-04-18T14:06:01.079Z</time></trkpt><trkpt lat="45.3227574" lon="10.9543047"><ele>33.0</ele><time>2026-04-18T14:06:02.08Z</time></trkpt><trkpt lat="45.3227214" lon="10.9540534"><ele>33.0</ele><time>2026-04-18T14:06:03.08Z</time></trkpt><trkpt lat="45.322691" lon="10.9538032"><ele>33.0</ele><time>2026-04-18T14:06:04.08Z</time></trkpt><trkpt lat="45.3226655" lon="10.9535521"><ele>33.0</ele><time>2026-04-18T14:06:05.08Z</time></trkpt><trkpt lat="45.3226359" lon="10.9532895"><ele>33.666666666666664</ele><time>2026-04-18T14:06:06.081Z</time></trkpt><trkpt lat="45.3225956" lon="10.9530221"><ele>34.33333333333333</ele><time>2026-04-18T14:06:07.082Z</time></trkpt><trkpt lat="45.3225615" lon="10.9527682"><ele>35.0</ele><time>2026-04-18T14:06:08.081Z</time></trkpt><trkpt lat="45.3225304" lon="10.9525191"><ele>35.0</ele><time>2026-04-18T14:06:09.079Z</time></trkpt><trkpt lat="45.3224915" lon="10.9522748"><ele>35.0</ele><time>2026-04-18T14:06:10.074Z</time></trkpt><trkpt lat="45.3224546" lon="10.9520306"><ele>35.0</ele><time>2026-04-18T14:06:11.077Z</time></trkpt><trkpt lat="45.3224022" lon="10.9518046"><ele>35.25</ele><time>2026-04-18T14:06:12.071Z</time></trkpt><trkpt lat="45.3223452" lon="10.9516052"><ele>35.5</ele><time>2026-04-18T14:06:13.069Z</time></trkpt><trkpt lat="45.3222738" lon="10.9514263"><ele>35.75</ele><time>2026-04-18T14:06:14.072Z</time></trkpt><trkpt lat="45.322201" lon="10.9512773"><ele>36.0</ele><time>2026-04-18T14:06:15.072Z</time></trkpt><trkpt lat="45.3221473" lon="10.9511341"><ele>36.0</ele><time>2026-04-18T14:06:16.074Z</time></trkpt><trkpt lat="45.3221134" lon="10.9510254"><ele>36.0</ele><time>2026-04-18T14:06:17.088Z</time></trkpt><trkpt lat="45.3220973" lon="10.9509131"><ele>36.0</ele><time>2026-04-18T14:06:19.072Z</time></trkpt><trkpt lat="45.3220872" lon="10.9508195"><ele>36.0</ele><time>2026-04-18T14:07:15.078Z</time></trkpt><trkpt lat="45.322078" lon="10.9506881"><ele>36.0</ele><time>2026-04-18T14:07:16.081Z</time></trkpt><trkpt lat="45.3220655" lon="10.9505217"><ele>36.0</ele><time>2026-04-18T14:07:17.087Z</time></trkpt><trkpt lat="45.3220563" lon="10.9503204"><ele>36.0</ele><time>2026-04-18T14:07:18.073Z</time></trkpt><trkpt lat="45.3220507" lon="10.9501031"><ele>36.0</ele><time>2026-04-18T14:07:19.072Z</time></trkpt><trkpt lat="45.3220502" lon="10.9498769"><ele>36.0</ele><time>2026-04-18T14:07:20.077Z</time></trkpt><trkpt lat="45.3220573" lon="10.9496519"><ele>35.666666666666664</ele><time>2026-04-18T14:07:21.076Z</time></trkpt><trkpt lat="45.3220743" lon="10.9494249"><ele>35.33333333333333</ele><time>2026-04-18T14:07:22.077Z</time></trkpt><trkpt lat="45.3220981" lon="10.9491978"><ele>35.0</ele><time>2026-04-18T14:07:23.079Z</time></trkpt><trkpt lat="45.322138" lon="10.9489718"><ele>35.666666666666664</ele><time>2026-04-18T14:07:24.076Z</time></trkpt><trkpt lat="45.3221771" lon="10.9487365"><ele>36.333333333333336</ele><time>2026-04-18T14:07:25.075Z</time></trkpt><trkpt lat="45.3221953" lon="10.9485006"><ele>37.0</ele><time>2026-04-18T14:07:26.07Z</time></trkpt><trkpt lat="45.3222073" lon="10.9482701"><ele>37.25</ele><time>2026-04-18T14:07:27.073Z</time></trkpt><trkpt lat="45.3222348" lon="10.9480573"><ele>37.5</ele><time>2026-04-18T14:07:28.072Z</time></trkpt><trkpt lat="45.3222544" lon="10.9478678"><ele>37.75</ele><time>2026-04-18T14:07:29.069Z</time></trkpt><trkpt lat="45.3222678" lon="10.9476985"><ele>38.0</ele><time>2026-04-18T14:07:30.076Z</time></trkpt><trkpt lat="45.3222805" lon="10.9475416"><ele>38.166666666666664</ele><time>2026-04-18T14:07:31.068Z</time></trkpt><trkpt lat="45.3222924" lon="10.9474102"><ele>38.33333333333333</ele><time>2026-04-18T14:07:32.07Z</time></trkpt><trkpt lat="45.3222987" lon="10.9472978"><ele>38.5</ele><time>2026-04-18T14:07:33.073Z</time></trkpt><trkpt lat="45.3223161" lon="10.9471945"><ele>38.666666666666664</ele><time>2026-04-18T14:07:34.068Z</time></trkpt><trkpt lat="45.3223452" lon="10.9471099"><ele>38.833333333333336</ele><time>2026-04-18T14:07:37.077Z</time></trkpt><trkpt lat="45.3224727" lon="10.9470828"><ele>39.0</ele><time>2026-04-18T14:07:40.077Z</time></trkpt><trkpt lat="45.3225746" lon="10.9471006"><ele>39.0</ele><time>2026-04-18T14:07:41.07Z</time></trkpt><trkpt lat="45.3226947" lon="10.9471279"><ele>39.0</ele><time>2026-04-18T14:07:42.077Z</time></trkpt><trkpt lat="45.3228161" lon="10.9471587"><ele>39.0</ele><time>2026-04-18T14:07:43.075Z</time></trkpt><trkpt lat="45.3229371" lon="10.9471952"><ele>39.0</ele><time>2026-04-18T14:07:44.074Z</time></trkpt><trkpt lat="45.3230674" lon="10.9472327"><ele>38.75</ele><time>2026-04-18T14:07:45.07Z</time></trkpt><trkpt lat="45.323204" lon="10.9472756"><ele>38.5</ele><time>2026-04-18T14:07:46.076Z</time></trkpt><trkpt lat="45.3233408" lon="10.9473182"><ele>38.25</ele><time>2026-04-18T14:07:47.087Z</time></trkpt><trkpt lat="45.3234681" lon="10.9473619"><ele>38.0</ele><time>2026-04-18T14:07:48.08Z</time></trkpt><trkpt lat="45.3235883" lon="10.9474032"><ele>38.0</ele><time>2026-04-18T14:07:49.075Z</time></trkpt><trkpt lat="45.3236991" lon="10.9474398"><ele>38.0</ele><time>2026-04-18T14:07:50.07Z</time></trkpt><trkpt lat="45.3237932" lon="10.9474726"><ele>38.0</ele><time>2026-04-18T14:07:51.07Z</time></trkpt><trkpt lat="45.323874" lon="10.9474888"><ele>38.0</ele><time>2026-04-18T14:07:52.067Z</time></trkpt><trkpt lat="45.3239495" lon="10.9474985"><ele>38.0</ele><time>2026-04-18T14:07:53.077Z</time></trkpt><trkpt lat="45.324031" lon="10.9474154"><ele>38.0</ele><time>2026-04-18T14:07:55.066Z</time></trkpt><trkpt lat="45.3240284" lon="10.9473185"><ele>38.0</ele><time>2026-04-18T14:07:56.061Z</time></trkpt><trkpt lat="45.3240287" lon="10.9471997"><ele>38.0</ele><time>2026-04-18T14:07:57.073Z</time></trkpt><trkpt lat="45.3240524" lon="10.9470717"><ele>38.0</ele><time>2026-04-18T14:07:58.068Z</time></trkpt><trkpt lat="45.3240921" lon="10.9469244"><ele>38.0</ele><time>2026-04-18T14:07:59.063Z</time></trkpt><trkpt lat="45.3241347" lon="10.9467683"><ele>38.25</ele><time>2026-04-18T14:08:00.072Z</time></trkpt><trkpt lat="45.3241785" lon="10.9466102"><ele>38.5</ele><time>2026-04-18T14:08:01.073Z</time></trkpt><trkpt lat="45.3242265" lon="10.9464431"><ele>38.75</ele><time>2026-04-18T14:08:02.071Z</time></trkpt><trkpt lat="45.3242774" lon="10.9462786"><ele>39.0</ele><time>2026-04-18T14:08:03.07Z</time></trkpt><trkpt lat="45.3243268" lon="10.9461147"><ele>39.0</ele><time>2026-04-18T14:08:04.069Z</time></trkpt><trkpt lat="45.3243736" lon="10.9459565"><ele>39.0</ele><time>2026-04-18T14:08:05.067Z</time></trkpt><trkpt lat="45.3244187" lon="10.9458109"><ele>39.0</ele><time>2026-04-18T14:08:06.062Z</time></trkpt><trkpt lat="45.3244537" lon="10.9456766"><ele>39.0</ele><time>2026-04-18T14:08:07.067Z</time></trkpt><trkpt lat="45.3244844" lon="10.9455641"><ele>39.0</ele><time>2026-04-18T14:08:08.063Z</time></trkpt><trkpt lat="45.3245063" lon="10.9454718"><ele>39.0</ele><time>2026-04-18T14:08:09.069Z</time></trkpt><trkpt lat="45.3245754" lon="10.9454717"><ele>39.0</ele><time>2026-04-18T14:08:12.062Z</time></trkpt><trkpt lat="45.3246374" lon="10.9455391"><ele>39.0</ele><time>2026-04-18T14:08:13.063Z</time></trkpt><trkpt lat="45.324706" lon="10.9456079"><ele>39.0</ele><time>2026-04-18T14:08:14.061Z</time></trkpt><trkpt lat="45.3247725" lon="10.9456735"><ele>39.0</ele><time>2026-04-18T14:08:15.07Z</time></trkpt><trkpt lat="45.3248347" lon="10.9456913"><ele>39.0</ele><time>2026-04-18T14:08:16.077Z</time></trkpt><trkpt lat="45.3249433" lon="10.9455825"><ele>38.5</ele><time>2026-04-18T14:08:18.08Z</time></trkpt><trkpt lat="45.3249956" lon="10.9454436"><ele>38.0</ele><time>2026-04-18T14:08:19.071Z</time></trkpt><trkpt lat="45.3250378" lon="10.945271"><ele>37.5</ele><time>2026-04-18T14:08:20.072Z</time></trkpt><trkpt lat="45.3250796" lon="10.9451042"><ele>37.0</ele><time>2026-04-18T14:08:21.073Z</time></trkpt><trkpt lat="45.325124" lon="10.9449427"><ele>37.0</ele><time>2026-04-18T14:08:22.068Z</time></trkpt><trkpt lat="45.325164" lon="10.9448091"><ele>37.0</ele><time>2026-04-18T14:08:23.066Z</time></trkpt><trkpt lat="45.3252052" lon="10.9447019"><ele>37.0</ele><time>2026-04-18T14:08:24.078Z</time></trkpt><trkpt lat="45.3252617" lon="10.9446244"><ele>37.0</ele><time>2026-04-18T14:08:25.077Z</time></trkpt><trkpt lat="45.3253433" lon="10.944577"><ele>37.0</ele><time>2026-04-18T14:08:26.08Z</time></trkpt><trkpt lat="45.3254583" lon="10.9445672"><ele>37.0</ele><time>2026-04-18T14:08:27.077Z</time></trkpt><trkpt lat="45.3255955" lon="10.9445632"><ele>37.0</ele><time>2026-04-18T14:08:28.083Z</time></trkpt><trkpt lat="45.3257339" lon="10.9445564"><ele>37.0</ele><time>2026-04-18T14:08:29.08Z</time></trkpt><trkpt lat="45.3258629" lon="10.9445469"><ele>37.0</ele><time>2026-04-18T14:08:30.083Z</time></trkpt><trkpt lat="45.3259908" lon="10.9445387"><ele>37.0</ele><time>2026-04-18T14:08:31.081Z</time></trkpt><trkpt lat="45.3261191" lon="10.9445336"><ele>37.0</ele><time>2026-04-18T14:08:32.078Z</time></trkpt><trkpt lat="45.3262485" lon="10.9445272"><ele>37.0</ele><time>2026-04-18T14:08:33.081Z</time></trkpt><trkpt lat="45.326368" lon="10.9445226"><ele>37.0</ele><time>2026-04-18T14:08:34.08Z</time></trkpt><trkpt lat="45.3264575" lon="10.944522"><ele>36.800000000000004</ele><time>2026-04-18T14:08:35.08Z</time></trkpt><trkpt lat="45.3265321" lon="10.9445227"><ele>36.6</ele><time>2026-04-18T14:08:37.079Z</time></trkpt><trkpt lat="45.3265739" lon="10.9443452"><ele>36.400000000000006</ele><time>2026-04-18T14:08:43.067Z</time></trkpt><trkpt lat="45.326579" lon="10.9442205"><ele>36.2</ele><time>2026-04-18T14:08:44.078Z</time></trkpt><trkpt lat="45.3265805" lon="10.9441075"><ele>36.0</ele><time>2026-04-18T14:08:45.078Z</time></trkpt><trkpt lat="45.326586" lon="10.9439917"><ele>36.0</ele><time>2026-04-18T14:08:46.077Z</time></trkpt><trkpt lat="45.3266003" lon="10.943843"><ele>36.0</ele><time>2026-04-18T14:08:47.08Z</time></trkpt><trkpt lat="45.3266232" lon="10.9436603"><ele>36.0</ele><time>2026-04-18T14:08:48.079Z</time></trkpt><trkpt lat="45.3266459" lon="10.9434675"><ele>36.0</ele><time>2026-04-18T14:08:49.078Z</time></trkpt><trkpt lat="45.3266691" lon="10.9432562"><ele>36.0</ele><time>2026-04-18T14:08:50.076Z</time></trkpt><trkpt lat="45.3266925" lon="10.9430445"><ele>36.0</ele><time>2026-04-18T14:08:51.074Z</time></trkpt><trkpt lat="45.3267167" lon="10.942841"><ele>36.0</ele><time>2026-04-18T14:08:52.081Z</time></trkpt><trkpt lat="45.3267311" lon="10.9426631"><ele>36.0</ele><time>2026-04-18T14:08:53.077Z</time></trkpt><trkpt lat="45.3267526" lon="10.9424725"><ele>36.0</ele><time>2026-04-18T14:08:54.071Z</time></trkpt><trkpt lat="45.3267835" lon="10.9422619"><ele>36.0</ele><time>2026-04-18T14:08:55.073Z</time></trkpt><trkpt lat="45.3268569" lon="10.9420626"><ele>36.0</ele><time>2026-04-18T14:08:56.069Z</time></trkpt><trkpt lat="45.3269451" lon="10.9418794"><ele>36.333333333333336</ele><time>2026-04-18T14:08:57.077Z</time></trkpt><trkpt lat="45.3270336" lon="10.9416885"><ele>36.66666666666667</ele><time>2026-04-18T14:08:58.081Z</time></trkpt><trkpt lat="45.3271259" lon="10.9414928"><ele>37.0</ele><time>2026-04-18T14:08:59.082Z</time></trkpt><trkpt lat="45.3272136" lon="10.9412823"><ele>36.66666666666667</ele><time>2026-04-18T14:09:00.09Z</time></trkpt><trkpt lat="45.3273045" lon="10.9410615"><ele>36.333333333333336</ele><time>2026-04-18T14:09:01.085Z</time></trkpt><trkpt lat="45.3273966" lon="10.9408315"><ele>36.0</ele><time>2026-04-18T14:09:02.083Z</time></trkpt><trkpt lat="45.327486" lon="10.9405861"><ele>36.0</ele><time>2026-04-18T14:09:03.084Z</time></trkpt><trkpt lat="45.3275806" lon="10.9403515"><ele>36.0</ele><time>2026-04-18T14:09:04.084Z</time></trkpt><trkpt lat="45.3276572" lon="10.9401494"><ele>36.0</ele><time>2026-04-18T14:09:05.079Z</time></trkpt><trkpt lat="45.3278031" lon="10.9397754"><ele>36.0</ele><time>2026-04-18T14:09:07.08Z</time></trkpt><trkpt lat="45.3278629" lon="10.9396075"><ele>36.0</ele><time>2026-04-18T14:09:08.076Z</time></trkpt><trkpt lat="45.3279248" lon="10.9394603"><ele>36.0</ele><time>2026-04-18T14:09:09.074Z</time></trkpt><trkpt lat="45.3279834" lon="10.9393122"><ele>36.0</ele><time>2026-04-18T14:09:10.073Z</time></trkpt><trkpt lat="45.3280292" lon="10.9391659"><ele>36.25</ele><time>2026-04-18T14:09:11.071Z</time></trkpt><trkpt lat="45.3280736" lon="10.938998"><ele>36.5</ele><time>2026-04-18T14:09:12.075Z</time></trkpt><trkpt lat="45.3280986" lon="10.9388098"><ele>36.75</ele><time>2026-04-18T14:09:13.075Z</time></trkpt><trkpt lat="45.3281128" lon="10.9386464"><ele>37.0</ele><time>2026-04-18T14:09:14.076Z</time></trkpt><trkpt lat="45.328135" lon="10.9384977"><ele>37.0</ele><time>2026-04-18T14:09:15.083Z</time></trkpt><trkpt lat="45.3281663" lon="10.9383497"><ele>37.0</ele><time>2026-04-18T14:09:16.082Z</time></trkpt><trkpt lat="45.3281986" lon="10.9381891"><ele>37.0</ele><time>2026-04-18T14:09:17.087Z</time></trkpt><trkpt lat="45.3282302" lon="10.9380156"><ele>37.0</ele><time>2026-04-18T14:09:18.077Z</time></trkpt><trkpt lat="45.3282521" lon="10.9378199"><ele>37.0</ele><time>2026-04-18T14:09:19.077Z</time></trkpt><trkpt lat="45.3282684" lon="10.9376045"><ele>37.0</ele><time>2026-04-18T14:09:20.083Z</time></trkpt><trkpt lat="45.3282643" lon="10.9373549"><ele>37.0</ele><time>2026-04-18T14:09:21.079Z</time></trkpt><trkpt lat="45.3282623" lon="10.9370975"><ele>37.0</ele><time>2026-04-18T14:09:22.08Z</time></trkpt><trkpt lat="45.3282747" lon="10.9368518"><ele>37.0</ele><time>2026-04-18T14:09:23.078Z</time></trkpt><trkpt lat="45.3282918" lon="10.9366435"><ele>37.0</ele><time>2026-04-18T14:09:24.079Z</time></trkpt><trkpt lat="45.3283034" lon="10.9364361"><ele>36.66666666666667</ele><time>2026-04-18T14:09:25.08Z</time></trkpt><trkpt lat="45.3283361" lon="10.9362129"><ele>36.333333333333336</ele><time>2026-04-18T14:09:26.077Z</time></trkpt><trkpt lat="45.3283846" lon="10.9359984"><ele>36.0</ele><time>2026-04-18T14:09:27.079Z</time></trkpt><trkpt lat="45.3284179" lon="10.9357875"><ele>35.666666666666664</ele><time>2026-04-18T14:09:28.079Z</time></trkpt><trkpt lat="45.3284381" lon="10.9355626"><ele>35.33333333333333</ele><time>2026-04-18T14:09:29.08Z</time></trkpt><trkpt lat="45.3284398" lon="10.9353266"><ele>35.0</ele><time>2026-04-18T14:09:30.082Z</time></trkpt><trkpt lat="45.3284311" lon="10.9350954"><ele>35.0</ele><time>2026-04-18T14:09:31.077Z</time></trkpt><trkpt lat="45.3284191" lon="10.9348788"><ele>35.0</ele><time>2026-04-18T14:09:32.071Z</time></trkpt><trkpt lat="45.3284056" lon="10.9346896"><ele>35.0</ele><time>2026-04-18T14:09:33.075Z</time></trkpt><trkpt lat="45.3283973" lon="10.9345267"><ele>35.0</ele><time>2026-04-18T14:09:34.075Z</time></trkpt><trkpt lat="45.3283894" lon="10.9343836"><ele>35.0</ele><time>2026-04-18T14:09:35.076Z</time></trkpt><trkpt lat="45.328398" lon="10.9342609"><ele>35.0</ele><time>2026-04-18T14:09:36.075Z</time></trkpt><trkpt lat="45.3284363" lon="10.9341591"><ele>35.0</ele><time>2026-04-18T14:09:37.079Z</time></trkpt><trkpt lat="45.3285034" lon="10.9340875"><ele>35.0</ele><time>2026-04-18T14:09:38.078Z</time></trkpt><trkpt lat="45.3285717" lon="10.9340063"><ele>35.0</ele><time>2026-04-18T14:09:39.079Z</time></trkpt><trkpt lat="45.3286455" lon="10.9339246"><ele>35.0</ele><time>2026-04-18T14:09:40.083Z</time></trkpt><trkpt lat="45.3287351" lon="10.9338389"><ele>34.5</ele><time>2026-04-18T14:09:41.079Z</time></trkpt><trkpt lat="45.3288409" lon="10.9337462"><ele>34.0</ele><time>2026-04-18T14:09:42.08Z</time></trkpt><trkpt lat="45.3289528" lon="10.9336459"><ele>33.5</ele><time>2026-04-18T14:09:43.082Z</time></trkpt><trkpt lat="45.3290662" lon="10.9335531"><ele>33.0</ele><time>2026-04-18T14:09:44.083Z</time></trkpt><trkpt lat="45.3291786" lon="10.9334659"><ele>33.75</ele><time>2026-04-18T14:09:45.086Z</time></trkpt><trkpt lat="45.3292935" lon="10.9333902"><ele>34.5</ele><time>2026-04-18T14:09:46.092Z</time></trkpt><trkpt lat="45.3294086" lon="10.9333236"><ele>35.25</ele><time>2026-04-18T14:09:47.096Z</time></trkpt><trkpt lat="45.3295293" lon="10.9332631"><ele>36.0</ele><time>2026-04-18T14:09:48.094Z</time></trkpt><trkpt lat="45.3296549" lon="10.9332082"><ele>36.25</ele><time>2026-04-18T14:09:49.088Z</time></trkpt><trkpt lat="45.329778" lon="10.9331522"><ele>36.5</ele><time>2026-04-18T14:09:50.09Z</time></trkpt><trkpt lat="45.3299018" lon="10.9330913"><ele>36.75</ele><time>2026-04-18T14:09:51.092Z</time></trkpt><trkpt lat="45.3300267" lon="10.9330224"><ele>37.0</ele><time>2026-04-18T14:09:52.091Z</time></trkpt><trkpt lat="45.3301518" lon="10.9329534"><ele>37.0</ele><time>2026-04-18T14:09:53.094Z</time></trkpt><trkpt lat="45.3302753" lon="10.9328878"><ele>37.0</ele><time>2026-04-18T14:09:54.091Z</time></trkpt><trkpt lat="45.3303982" lon="10.9328202"><ele>37.0</ele><time>2026-04-18T14:09:55.092Z</time></trkpt><trkpt lat="45.3305167" lon="10.9327546"><ele>37.0</ele><time>2026-04-18T14:09:56.092Z</time></trkpt><trkpt lat="45.3306315" lon="10.9326963"><ele>37.0</ele><time>2026-04-18T14:09:57.084Z</time></trkpt><trkpt lat="45.3307455" lon="10.9326364"><ele>37.0</ele><time>2026-04-18T14:09:58.085Z</time></trkpt><trkpt lat="45.3308556" lon="10.9325694"><ele>37.0</ele><time>2026-04-18T14:09:59.082Z</time></trkpt><trkpt lat="45.3309685" lon="10.9325013"><ele>37.0</ele><time>2026-04-18T14:10:00.089Z</time></trkpt><trkpt lat="45.3310848" lon="10.9324424"><ele>37.0</ele><time>2026-04-18T14:10:01.081Z</time></trkpt><trkpt lat="45.3311998" lon="10.9323811"><ele>37.0</ele><time>2026-04-18T14:10:02.081Z</time></trkpt><trkpt lat="45.3313183" lon="10.9323212"><ele>37.0</ele><time>2026-04-18T14:10:03.08Z</time></trkpt><trkpt lat="45.3314423" lon="10.9322654"><ele>37.0</ele><time>2026-04-18T14:10:04.081Z</time></trkpt><trkpt lat="45.3315664" lon="10.9322204"><ele>37.0</ele><time>2026-04-18T14:10:05.061Z</time></trkpt><trkpt lat="45.3317039" lon="10.9321848"><ele>37.0</ele><time>2026-04-18T14:10:06.067Z</time></trkpt><trkpt lat="45.3318478" lon="10.9321517"><ele>37.0</ele><time>2026-04-18T14:10:07.063Z</time></trkpt><trkpt lat="45.3320113" lon="10.9321192"><ele>37.0</ele><time>2026-04-18T14:10:08.067Z</time></trkpt><trkpt lat="45.3321812" lon="10.9321185"><ele>37.0</ele><time>2026-04-18T14:10:09.068Z</time></trkpt><trkpt lat="45.3323585" lon="10.9321048"><ele>37.0</ele><time>2026-04-18T14:10:10.074Z</time></trkpt><trkpt lat="45.332536" lon="10.9321045"><ele>37.66666666666667</ele><time>2026-04-18T14:10:11.081Z</time></trkpt><trkpt lat="45.3327082" lon="10.9321024"><ele>38.333333333333336</ele><time>2026-04-18T14:10:12.081Z</time></trkpt><trkpt lat="45.3328562" lon="10.9320939"><ele>39.0</ele><time>2026-04-18T14:10:13.081Z</time></trkpt><trkpt lat="45.333" lon="10.9320681"><ele>38.666666666666664</ele><time>2026-04-18T14:10:14.08Z</time></trkpt><trkpt lat="45.3331449" lon="10.9320252"><ele>38.33333333333333</ele><time>2026-04-18T14:10:15.075Z</time></trkpt><trkpt lat="45.3332983" lon="10.9319645"><ele>38.0</ele><time>2026-04-18T14:10:16.08Z</time></trkpt><trkpt lat="45.3334538" lon="10.9318836"><ele>38.0</ele><time>2026-04-18T14:10:17.085Z</time></trkpt><trkpt lat="45.3336152" lon="10.9317995"><ele>38.0</ele><time>2026-04-18T14:10:18.081Z</time></trkpt><trkpt lat="45.3337757" lon="10.9317187"><ele>38.0</ele><time>2026-04-18T14:10:19.077Z</time></trkpt><trkpt lat="45.3339179" lon="10.9316412"><ele>37.5</ele><time>2026-04-18T14:10:20.08Z</time></trkpt><trkpt lat="45.3340424" lon="10.9315778"><ele>37.0</ele><time>2026-04-18T14:10:21.074Z</time></trkpt><trkpt lat="45.3341556" lon="10.9315129"><ele>36.5</ele><time>2026-04-18T14:10:22.081Z</time></trkpt><trkpt lat="45.3342527" lon="10.9314642"><ele>36.0</ele><time>2026-04-18T14:10:23.08Z</time></trkpt><trkpt lat="45.3343494" lon="10.9314144"><ele>36.0</ele><time>2026-04-18T14:10:24.079Z</time></trkpt><trkpt lat="45.334445" lon="10.9313674"><ele>36.0</ele><time>2026-04-18T14:10:25.077Z</time></trkpt><trkpt lat="45.3345364" lon="10.9313211"><ele>36.0</ele><time>2026-04-18T14:10:26.079Z</time></trkpt><trkpt lat="45.3346248" lon="10.9312737"><ele>36.0</ele><time>2026-04-18T14:10:27.08Z</time></trkpt><trkpt lat="45.3347152" lon="10.9312275"><ele>36.0</ele><time>2026-04-18T14:10:28.082Z</time></trkpt><trkpt lat="45.3348079" lon="10.9311812"><ele>36.333333333333336</ele><time>2026-04-18T14:10:29.08Z</time></trkpt><trkpt lat="45.3348955" lon="10.9311381"><ele>36.666666666666664</ele><time>2026-04-18T14:10:30.08Z</time></trkpt><trkpt lat="45.3349892" lon="10.931098"><ele>37.0</ele><time>2026-04-18T14:10:31.081Z</time></trkpt><trkpt lat="45.3350687" lon="10.9310555"><ele>37.33333333333333</ele><time>2026-04-18T14:10:32.071Z</time></trkpt><trkpt lat="45.3351383" lon="10.931015"><ele>37.666666666666664</ele><time>2026-04-18T14:10:33.073Z</time></trkpt><trkpt lat="45.3352046" lon="10.9309715"><ele>38.0</ele><time>2026-04-18T14:10:34.08Z</time></trkpt><trkpt lat="45.3352755" lon="10.9309287"><ele>38.0</ele><time>2026-04-18T14:10:35.082Z</time></trkpt><trkpt lat="45.3353477" lon="10.9308857"><ele>38.0</ele><time>2026-04-18T14:10:36.081Z</time></trkpt><trkpt lat="45.3354147" lon="10.9308472"><ele>38.0</ele><time>2026-04-18T14:10:37.083Z</time></trkpt><trkpt lat="45.3354792" lon="10.9308131"><ele>38.0</ele><time>2026-04-18T14:10:38.081Z</time></trkpt><trkpt lat="45.3355443" lon="10.9307824"><ele>38.0</ele><time>2026-04-18T14:10:39.079Z</time></trkpt><trkpt lat="45.3356061" lon="10.9307554"><ele>38.0</ele><time>2026-04-18T14:10:40.08Z</time></trkpt><trkpt lat="45.3357196" lon="10.9307005"><ele>38.0</ele><time>2026-04-18T14:10:42.083Z</time></trkpt><trkpt lat="45.3357834" lon="10.9306739"><ele>38.0</ele><time>2026-04-18T14:10:43.081Z</time></trkpt><trkpt lat="45.3358533" lon="10.9306457"><ele>38.0</ele><time>2026-04-18T14:10:44.08Z</time></trkpt><trkpt lat="45.3359297" lon="10.9306074"><ele>38.0</ele><time>2026-04-18T14:10:45.077Z</time></trkpt><trkpt lat="45.3360221" lon="10.9305577"><ele>38.0</ele><time>2026-04-18T14:10:46.078Z</time></trkpt><trkpt lat="45.3361197" lon="10.9305069"><ele>38.0</ele><time>2026-04-18T14:10:47.088Z</time></trkpt><trkpt lat="45.3362264" lon="10.9304569"><ele>38.0</ele><time>2026-04-18T14:10:48.08Z</time></trkpt><trkpt lat="45.3363329" lon="10.9304094"><ele>38.0</ele><time>2026-04-18T14:10:49.079Z</time></trkpt><trkpt lat="45.3364307" lon="10.9303667"><ele>38.0</ele><time>2026-04-18T14:10:50.078Z</time></trkpt><trkpt lat="45.3365086" lon="10.9303211"><ele>38.0</ele><time>2026-04-18T14:10:51.074Z</time></trkpt><trkpt lat="45.336566" lon="10.9302686"><ele>38.0</ele><time>2026-04-18T14:10:52.072Z</time></trkpt><trkpt lat="45.3366023" lon="10.9301889"><ele>38.0</ele><time>2026-04-18T14:10:53.081Z</time></trkpt><trkpt lat="45.3366123" lon="10.9300838"><ele>37.75</ele><time>2026-04-18T14:10:54.072Z</time></trkpt><trkpt lat="45.3366043" lon="10.9299428"><ele>37.5</ele><time>2026-04-18T14:10:55.074Z</time></trkpt><trkpt lat="45.336587" lon="10.9297687"><ele>37.25</ele><time>2026-04-18T14:10:56.075Z</time></trkpt><trkpt lat="45.3365724" lon="10.9295841"><ele>37.0</ele><time>2026-04-18T14:10:57.077Z</time></trkpt><trkpt lat="45.3365534" lon="10.9293758"><ele>37.4</ele><time>2026-04-18T14:10:58.084Z</time></trkpt><trkpt lat="45.3365397" lon="10.9291756"><ele>37.800000000000004</ele><time>2026-04-18T14:10:59.07Z</time></trkpt><trkpt lat="45.3365342" lon="10.9290046"><ele>38.2</ele><time>2026-04-18T14:11:00.08Z</time></trkpt><trkpt lat="45.3365304" lon="10.9288704"><ele>38.6</ele><time>2026-04-18T14:11:01.075Z</time></trkpt><trkpt lat="45.3365385" lon="10.9287552"><ele>39.0</ele><time>2026-04-18T14:11:02.079Z</time></trkpt><trkpt lat="45.3365657" lon="10.9286728"><ele>39.0</ele><time>2026-04-18T14:11:03.073Z</time></trkpt><trkpt lat="45.3366806" lon="10.9285937"><ele>39.0</ele><time>2026-04-18T14:11:05.07Z</time></trkpt><trkpt lat="45.3367682" lon="10.9285821"><ele>39.0</ele><time>2026-04-18T14:11:06.068Z</time></trkpt><trkpt lat="45.3368786" lon="10.928568"><ele>39.0</ele><time>2026-04-18T14:11:07.065Z</time></trkpt><trkpt lat="45.3369927" lon="10.928544"><ele>39.0</ele><time>2026-04-18T14:11:08.067Z</time></trkpt><trkpt lat="45.3371001" lon="10.9285203"><ele>39.0</ele><time>2026-04-18T14:11:09.061Z</time></trkpt><trkpt lat="45.3371926" lon="10.9284922"><ele>39.0</ele><time>2026-04-18T14:11:10.065Z</time></trkpt><trkpt lat="45.3372631" lon="10.9284502"><ele>39.0</ele><time>2026-04-18T14:11:11.063Z</time></trkpt><trkpt lat="45.3373254" lon="10.9283884"><ele>39.0</ele><time>2026-04-18T14:11:12.057Z</time></trkpt><trkpt lat="45.3373797" lon="10.9283149"><ele>39.0</ele><time>2026-04-18T14:11:13.068Z</time></trkpt><trkpt lat="45.3374033" lon="10.9282213"><ele>39.0</ele><time>2026-04-18T14:11:14.066Z</time></trkpt><trkpt lat="45.3373888" lon="10.9281052"><ele>38.8</ele><time>2026-04-18T14:11:15.063Z</time></trkpt><trkpt lat="45.3373426" lon="10.9279828"><ele>38.599999999999994</ele><time>2026-04-18T14:11:16.051Z</time></trkpt><trkpt lat="45.3372922" lon="10.927848"><ele>38.4</ele><time>2026-04-18T14:11:17.061Z</time></trkpt><trkpt lat="45.337249" lon="10.927703"><ele>38.199999999999996</ele><time>2026-04-18T14:11:18.058Z</time></trkpt><trkpt lat="45.3372198" lon="10.9275484"><ele>38.0</ele><time>2026-04-18T14:11:19.056Z</time></trkpt><trkpt lat="45.3371963" lon="10.9273831"><ele>38.0</ele><time>2026-04-18T14:11:20.056Z</time></trkpt><trkpt lat="45.3371929" lon="10.9271866"><ele>38.0</ele><time>2026-04-18T14:11:21.056Z</time></trkpt><trkpt lat="45.3371869" lon="10.9269855"><ele>38.0</ele><time>2026-04-18T14:11:22.063Z</time></trkpt><trkpt lat="45.3371872" lon="10.9267606"><ele>38.0</ele><time>2026-04-18T14:11:23.065Z</time></trkpt><trkpt lat="45.3371883" lon="10.9265594"><ele>38.0</ele><time>2026-04-18T14:11:24.065Z</time></trkpt><trkpt lat="45.3371934" lon="10.9263645"><ele>38.0</ele><time>2026-04-18T14:11:25.058Z</time></trkpt><trkpt lat="45.3372033" lon="10.9261809"><ele>38.0</ele><time>2026-04-18T14:11:26.054Z</time></trkpt><trkpt lat="45.3372122" lon="10.9260281"><ele>38.0</ele><time>2026-04-18T14:11:27.063Z</time></trkpt><trkpt lat="45.337223" lon="10.9258924"><ele>37.8</ele><time>2026-04-18T14:11:28.059Z</time></trkpt><trkpt lat="45.3372274" lon="10.9257795"><ele>37.599999999999994</ele><time>2026-04-18T14:11:29.068Z</time></trkpt><trkpt lat="45.3371951" lon="10.925631"><ele>37.400000000000006</ele><time>2026-04-18T14:11:31.071Z</time></trkpt><trkpt lat="45.3371711" lon="10.9255209"><ele>37.2</ele><time>2026-04-18T14:11:33.064Z</time></trkpt><trkpt lat="45.3372487" lon="10.9254012"><ele>37.0</ele><time>2026-04-18T14:11:35.064Z</time></trkpt><trkpt lat="45.3373079" lon="10.9253421"><ele>37.0</ele><time>2026-04-18T14:11:36.064Z</time></trkpt><trkpt lat="45.3373693" lon="10.9252934"><ele>37.0</ele><time>2026-04-18T14:11:37.065Z</time></trkpt><trkpt lat="45.3374185" lon="10.9252364"><ele>37.0</ele><time>2026-04-18T14:11:38.065Z</time></trkpt><trkpt lat="45.3374652" lon="10.9251305"><ele>37.0</ele><time>2026-04-18T14:11:40.069Z</time></trkpt><trkpt lat="45.3373805" lon="10.9250011"><ele>37.0</ele><time>2026-04-18T14:11:42.067Z</time></trkpt><trkpt lat="45.3373011" lon="10.9249109"><ele>37.0</ele><time>2026-04-18T14:11:43.064Z</time></trkpt><trkpt lat="45.3372135" lon="10.9248065"><ele>37.25</ele><time>2026-04-18T14:11:44.066Z</time></trkpt><trkpt lat="45.3371261" lon="10.9246966"><ele>37.5</ele><time>2026-04-18T14:11:45.065Z</time></trkpt><trkpt lat="45.3370286" lon="10.9245776"><ele>37.75</ele><time>2026-04-18T14:11:46.064Z</time></trkpt><trkpt lat="45.3369234" lon="10.9244577"><ele>38.0</ele><time>2026-04-18T14:11:47.072Z</time></trkpt><trkpt lat="45.3368378" lon="10.9243544"><ele>38.0</ele><time>2026-04-18T14:11:48.062Z</time></trkpt><trkpt lat="45.3367654" lon="10.9242699"><ele>38.0</ele><time>2026-04-18T14:11:49.072Z</time></trkpt><trkpt lat="45.3367102" lon="10.9242048"><ele>38.0</ele><time>2026-04-18T14:11:50.069Z</time></trkpt><trkpt lat="45.3366753" lon="10.9241046"><ele>38.0</ele><time>2026-04-18T14:11:52.069Z</time></trkpt><trkpt lat="45.3367463" lon="10.9239808"><ele>38.0</ele><time>2026-04-18T14:11:54.071Z</time></trkpt><trkpt lat="45.3367857" lon="10.9238718"><ele>38.0</ele><time>2026-04-18T14:11:55.07Z</time></trkpt><trkpt lat="45.3368166" lon="10.9237539"><ele>38.166666666666664</ele><time>2026-04-18T14:11:56.066Z</time></trkpt><trkpt lat="45.3368404" lon="10.9236283"><ele>38.33333333333333</ele><time>2026-04-18T14:11:57.065Z</time></trkpt><trkpt lat="45.3368682" lon="10.9234897"><ele>38.5</ele><time>2026-04-18T14:11:58.068Z</time></trkpt><trkpt lat="45.3368935" lon="10.9233578"><ele>38.666666666666664</ele><time>2026-04-18T14:11:59.062Z</time></trkpt><trkpt lat="45.3369196" lon="10.9232409"><ele>38.833333333333336</ele><time>2026-04-18T14:12:00.069Z</time></trkpt><trkpt lat="45.3369499" lon="10.9231521"><ele>39.0</ele><time>2026-04-18T14:12:01.071Z</time></trkpt><trkpt lat="45.3369874" lon="10.9230729"><ele>39.4</ele><time>2026-04-18T14:12:02.066Z</time></trkpt><trkpt lat="45.3370391" lon="10.9229995"><ele>39.8</ele><time>2026-04-18T14:12:03.069Z</time></trkpt><trkpt lat="45.3371221" lon="10.9229227"><ele>40.199999999999996</ele><time>2026-04-18T14:12:04.069Z</time></trkpt><trkpt lat="45.3372173" lon="10.9228123"><ele>40.599999999999994</ele><time>2026-04-18T14:12:05.071Z</time></trkpt><trkpt lat="45.337309" lon="10.9226551"><ele>41.0</ele><time>2026-04-18T14:12:06.071Z</time></trkpt><trkpt lat="45.3374002" lon="10.9224571"><ele>41.25</ele><time>2026-04-18T14:12:07.065Z</time></trkpt><trkpt lat="45.3374843" lon="10.9222744"><ele>41.5</ele><time>2026-04-18T14:12:08.065Z</time></trkpt><trkpt lat="45.3375598" lon="10.9221211"><ele>41.75</ele><time>2026-04-18T14:12:09.066Z</time></trkpt><trkpt lat="45.3376404" lon="10.9219788"><ele>42.0</ele><time>2026-04-18T14:12:10.067Z</time></trkpt><trkpt lat="45.3376948" lon="10.9218396"><ele>41.8</ele><time>2026-04-18T14:12:11.071Z</time></trkpt><trkpt lat="45.3377565" lon="10.9217177"><ele>41.6</ele><time>2026-04-18T14:12:12.069Z</time></trkpt><trkpt lat="45.3378009" lon="10.9215725"><ele>41.4</ele><time>2026-04-18T14:12:13.066Z</time></trkpt><trkpt lat="45.337826" lon="10.92142"><ele>41.199999999999996</ele><time>2026-04-18T14:12:14.063Z</time></trkpt><trkpt lat="45.3378423" lon="10.9212675"><ele>41.0</ele><time>2026-04-18T14:12:15.06Z</time></trkpt><trkpt lat="45.33786" lon="10.9211336"><ele>41.0</ele><time>2026-04-18T14:12:16.059Z</time></trkpt><trkpt lat="45.3378615" lon="10.9210101"><ele>41.0</ele><time>2026-04-18T14:12:17.064Z</time></trkpt><trkpt lat="45.3378511" lon="10.9208939"><ele>41.0</ele><time>2026-04-18T14:12:18.069Z</time></trkpt><trkpt lat="45.3378504" lon="10.9207823"><ele>41.0</ele><time>2026-04-18T14:12:19.069Z</time></trkpt><trkpt lat="45.3378478" lon="10.9206577"><ele>41.0</ele><time>2026-04-18T14:12:20.074Z</time></trkpt><trkpt lat="45.3378511" lon="10.9205144"><ele>41.0</ele><time>2026-04-18T14:12:21.073Z</time></trkpt><trkpt lat="45.3378482" lon="10.9203423"><ele>40.666666666666664</ele><time>2026-04-18T14:12:22.071Z</time></trkpt><trkpt lat="45.3378433" lon="10.9201451"><ele>40.333333333333336</ele><time>2026-04-18T14:12:23.073Z</time></trkpt><trkpt lat="45.3378371" lon="10.9199106"><ele>40.0</ele><time>2026-04-18T14:12:24.071Z</time></trkpt><trkpt lat="45.337831" lon="10.9196501"><ele>39.333333333333336</ele><time>2026-04-18T14:12:25.072Z</time></trkpt><trkpt lat="45.3378225" lon="10.9193836"><ele>38.666666666666664</ele><time>2026-04-18T14:12:26.072Z</time></trkpt><trkpt lat="45.3378205" lon="10.9191316"><ele>38.0</ele><time>2026-04-18T14:12:27.067Z</time></trkpt><trkpt lat="45.3378183" lon="10.9189101"><ele>38.0</ele><time>2026-04-18T14:12:28.074Z</time></trkpt><trkpt lat="45.3378153" lon="10.9187117"><ele>38.0</ele><time>2026-04-18T14:12:29.071Z</time></trkpt><trkpt lat="45.3378098" lon="10.9185706"><ele>38.0</ele><time>2026-04-18T14:12:30.076Z</time></trkpt><trkpt lat="45.3378118" lon="10.9184616"><ele>38.0</ele><time>2026-04-18T14:12:31.065Z</time></trkpt><trkpt lat="45.3377853" lon="10.9183777"><ele>38.0</ele><time>2026-04-18T14:12:32.067Z</time></trkpt><trkpt lat="45.3376549" lon="10.91831"><ele>38.0</ele><time>2026-04-18T14:12:34.068Z</time></trkpt><trkpt lat="45.3375408" lon="10.9183196"><ele>38.0</ele><time>2026-04-18T14:12:35.064Z</time></trkpt><trkpt lat="45.3374137" lon="10.918318"><ele>38.0</ele><time>2026-04-18T14:12:36.062Z</time></trkpt><trkpt lat="45.3372818" lon="10.9183244"><ele>38.0</ele><time>2026-04-18T14:12:37.066Z</time></trkpt><trkpt lat="45.3371454" lon="10.9183235"><ele>38.75</ele><time>2026-04-18T14:12:38.067Z</time></trkpt><trkpt lat="45.3369952" lon="10.9183201"><ele>39.5</ele><time>2026-04-18T14:12:39.072Z</time></trkpt><trkpt lat="45.3368378" lon="10.9183322"><ele>40.25</ele><time>2026-04-18T14:12:40.064Z</time></trkpt><trkpt lat="45.336707" lon="10.9183556"><ele>41.0</ele><time>2026-04-18T14:12:41.066Z</time></trkpt><trkpt lat="45.3365993" lon="10.9183841"><ele>41.0</ele><time>2026-04-18T14:12:42.066Z</time></trkpt><trkpt lat="45.3365044" lon="10.9184185"><ele>41.0</ele><time>2026-04-18T14:12:43.066Z</time></trkpt><trkpt lat="45.3364303" lon="10.9184157"><ele>41.0</ele><time>2026-04-18T14:12:44.072Z</time></trkpt><trkpt lat="45.3363873" lon="10.9183255"><ele>41.0</ele><time>2026-04-18T14:12:48.067Z</time></trkpt><trkpt lat="45.3364179" lon="10.9182229"><ele>41.0</ele><time>2026-04-18T14:12:50.075Z</time></trkpt><trkpt lat="45.3364776" lon="10.9181255"><ele>41.0</ele><time>2026-04-18T14:12:51.074Z</time></trkpt><trkpt lat="45.3365642" lon="10.9180157"><ele>41.0</ele><time>2026-04-18T14:12:52.069Z</time></trkpt><trkpt lat="45.3366529" lon="10.9179064"><ele>41.0</ele><time>2026-04-18T14:12:53.064Z</time></trkpt><trkpt lat="45.3367436" lon="10.9177852"><ele>41.0</ele><time>2026-04-18T14:12:54.072Z</time></trkpt><trkpt lat="45.336856" lon="10.91764"><ele>41.0</ele><time>2026-04-18T14:12:55.07Z</time></trkpt><trkpt lat="45.3369712" lon="10.9174716"><ele>40.666666666666664</ele><time>2026-04-18T14:12:56.066Z</time></trkpt><trkpt lat="45.3370938" lon="10.9172738"><ele>40.333333333333336</ele><time>2026-04-18T14:12:57.074Z</time></trkpt><trkpt lat="45.3372389" lon="10.9170399"><ele>40.0</ele><time>2026-04-18T14:12:58.065Z</time></trkpt><trkpt lat="45.3373887" lon="10.9168161"><ele>39.0</ele><time>2026-04-18T14:12:59.063Z</time></trkpt><trkpt lat="45.3375392" lon="10.916572"><ele>38.0</ele><time>2026-04-18T14:13:00.066Z</time></trkpt><trkpt lat="45.3376974" lon="10.916322"><ele>38.0</ele><time>2026-04-18T14:13:01.067Z</time></trkpt><trkpt lat="45.3378629" lon="10.9160784"><ele>38.0</ele><time>2026-04-18T14:13:02.07Z</time></trkpt><trkpt lat="45.3380057" lon="10.9158403"><ele>38.0</ele><time>2026-04-18T14:13:03.068Z</time></trkpt><trkpt lat="45.3381426" lon="10.9156073"><ele>38.0</ele><time>2026-04-18T14:13:04.063Z</time></trkpt><trkpt lat="45.3382743" lon="10.9153608"><ele>38.0</ele><time>2026-04-18T14:13:05.067Z</time></trkpt><trkpt lat="45.3383961" lon="10.9151202"><ele>37.666666666666664</ele><time>2026-04-18T14:13:06.062Z</time></trkpt><trkpt lat="45.3384837" lon="10.9148661"><ele>37.333333333333336</ele><time>2026-04-18T14:13:07.066Z</time></trkpt><trkpt lat="45.3385616" lon="10.9145845"><ele>37.0</ele><time>2026-04-18T14:13:08.069Z</time></trkpt><trkpt lat="45.3386269" lon="10.9142999"><ele>37.66666666666667</ele><time>2026-04-18T14:13:09.064Z</time></trkpt><trkpt lat="45.3386899" lon="10.9140059"><ele>38.333333333333336</ele><time>2026-04-18T14:13:10.068Z</time></trkpt><trkpt lat="45.3387508" lon="10.9137213"><ele>39.0</ele><time>2026-04-18T14:13:11.063Z</time></trkpt><trkpt lat="45.3388111" lon="10.9134472"><ele>39.0</ele><time>2026-04-18T14:13:12.06Z</time></trkpt><trkpt lat="45.3388676" lon="10.9131936"><ele>39.0</ele><time>2026-04-18T14:13:13.067Z</time></trkpt><trkpt lat="45.3389218" lon="10.9129507"><ele>39.0</ele><time>2026-04-18T14:13:14.069Z</time></trkpt><trkpt lat="45.3389724" lon="10.9127192"><ele>38.333333333333336</ele><time>2026-04-18T14:13:15.069Z</time></trkpt><trkpt lat="45.3390219" lon="10.9124771"><ele>37.66666666666667</ele><time>2026-04-18T14:13:16.068Z</time></trkpt><trkpt lat="45.3390754" lon="10.9122476"><ele>37.0</ele><time>2026-04-18T14:13:17.074Z</time></trkpt><trkpt lat="45.3391263" lon="10.9120179"><ele>37.0</ele><time>2026-04-18T14:13:18.067Z</time></trkpt><trkpt lat="45.3391766" lon="10.9117854"><ele>37.0</ele><time>2026-04-18T14:13:19.072Z</time></trkpt><trkpt lat="45.3392284" lon="10.9115659"><ele>37.0</ele><time>2026-04-18T14:13:20.075Z</time></trkpt><trkpt lat="45.3392792" lon="10.9113437"><ele>37.333333333333336</ele><time>2026-04-18T14:13:21.07Z</time></trkpt><trkpt lat="45.3393338" lon="10.9111155"><ele>37.666666666666664</ele><time>2026-04-18T14:13:22.073Z</time></trkpt><trkpt lat="45.339388" lon="10.9108863"><ele>38.0</ele><time>2026-04-18T14:13:23.071Z</time></trkpt><trkpt lat="45.3394357" lon="10.9106604"><ele>38.199999999999996</ele><time>2026-04-18T14:13:24.074Z</time></trkpt><trkpt lat="45.3394854" lon="10.9104463"><ele>38.4</ele><time>2026-04-18T14:13:25.067Z</time></trkpt><trkpt lat="45.3395283" lon="10.9102772"><ele>38.599999999999994</ele><time>2026-04-18T14:13:26.071Z</time></trkpt><trkpt lat="45.3395681" lon="10.9101985"><ele>38.8</ele><time>2026-04-18T14:13:28.073Z</time></trkpt><trkpt lat="45.3396323" lon="10.9102937"><ele>39.0</ele><time>2026-04-18T14:13:31.066Z</time></trkpt><trkpt lat="45.3396757" lon="10.9103657"><ele>38.25</ele><time>2026-04-18T14:13:32.066Z</time></trkpt><trkpt lat="45.3397599" lon="10.9104437"><ele>37.5</ele><time>2026-04-18T14:13:33.069Z</time></trkpt><trkpt lat="45.3398535" lon="10.9105232"><ele>36.75</ele><time>2026-04-18T14:13:34.066Z</time></trkpt><trkpt lat="45.3399534" lon="10.9106167"><ele>36.0</ele><time>2026-04-18T14:13:35.067Z</time></trkpt><trkpt lat="45.3400691" lon="10.9106955"><ele>36.0</ele><time>2026-04-18T14:13:36.066Z</time></trkpt><trkpt lat="45.3402011" lon="10.9107564"><ele>36.0</ele><time>2026-04-18T14:13:37.067Z</time></trkpt><trkpt lat="45.3403496" lon="10.9107907"><ele>36.0</ele><time>2026-04-18T14:13:38.061Z</time></trkpt><trkpt lat="45.3405076" lon="10.9107898"><ele>36.0</ele><time>2026-04-18T14:13:39.059Z</time></trkpt><trkpt lat="45.3406569" lon="10.9107762"><ele>36.25</ele><time>2026-04-18T14:13:40.062Z</time></trkpt><trkpt lat="45.3407849" lon="10.9107687"><ele>36.5</ele><time>2026-04-18T14:13:41.067Z</time></trkpt><trkpt lat="45.3409013" lon="10.9107636"><ele>36.75</ele><time>2026-04-18T14:13:42.068Z</time></trkpt><trkpt lat="45.3410111" lon="10.9107425"><ele>37.0</ele><time>2026-04-18T14:13:43.072Z</time></trkpt><trkpt lat="45.3411155" lon="10.9107002"><ele>37.0</ele><time>2026-04-18T14:13:44.067Z</time></trkpt><trkpt lat="45.3412236" lon="10.9106567"><ele>37.0</ele><time>2026-04-18T14:13:45.07Z</time></trkpt><trkpt lat="45.3413625" lon="10.9105912"><ele>37.0</ele><time>2026-04-18T14:13:46.069Z</time></trkpt><trkpt lat="45.3415081" lon="10.9105224"><ele>37.0</ele><time>2026-04-18T14:13:47.074Z</time></trkpt><trkpt lat="45.3416793" lon="10.9104595"><ele>38.0</ele><time>2026-04-18T14:13:48.064Z</time></trkpt><trkpt lat="45.3418629" lon="10.9104149"><ele>39.0</ele><time>2026-04-18T14:13:49.069Z</time></trkpt><trkpt lat="45.3420366" lon="10.9103812"><ele>40.0</ele><time>2026-04-18T14:13:50.071Z</time></trkpt><trkpt lat="45.3421848" lon="10.9103616"><ele>39.5</ele><time>2026-04-18T14:13:51.071Z</time></trkpt><trkpt lat="45.3423138" lon="10.9103395"><ele>39.0</ele><time>2026-04-18T14:13:52.075Z</time></trkpt><trkpt lat="45.3424371" lon="10.9103298"><ele>38.5</ele><time>2026-04-18T14:13:53.076Z</time></trkpt><trkpt lat="45.3425493" lon="10.9103333"><ele>38.0</ele><time>2026-04-18T14:13:54.068Z</time></trkpt><trkpt lat="45.3426537" lon="10.9103442"><ele>38.0</ele><time>2026-04-18T14:13:55.067Z</time></trkpt><trkpt lat="45.3427584" lon="10.9103683"><ele>38.0</ele><time>2026-04-18T14:13:56.07Z</time></trkpt><trkpt lat="45.3428608" lon="10.9103879"><ele>38.0</ele><time>2026-04-18T14:13:57.073Z</time></trkpt><trkpt lat="45.3429482" lon="10.9104093"><ele>38.0</ele><time>2026-04-18T14:13:58.072Z</time></trkpt><trkpt lat="45.3430403" lon="10.9104223"><ele>38.0</ele><time>2026-04-18T14:13:59.073Z</time></trkpt><trkpt lat="45.3431377" lon="10.9104331"><ele>38.25</ele><time>2026-04-18T14:14:00.074Z</time></trkpt><trkpt lat="45.3432419" lon="10.9104453"><ele>38.5</ele><time>2026-04-18T14:14:01.075Z</time></trkpt><trkpt lat="45.3433574" lon="10.9104501"><ele>38.75</ele><time>2026-04-18T14:14:02.072Z</time></trkpt><trkpt lat="45.3434809" lon="10.9104599"><ele>39.0</ele><time>2026-04-18T14:14:03.074Z</time></trkpt><trkpt lat="45.343609" lon="10.9104692"><ele>39.0</ele><time>2026-04-18T14:14:04.071Z</time></trkpt><trkpt lat="45.3437433" lon="10.9104817"><ele>39.0</ele><time>2026-04-18T14:14:05.07Z</time></trkpt><trkpt lat="45.343884" lon="10.9104944"><ele>39.0</ele><time>2026-04-18T14:14:06.073Z</time></trkpt><trkpt lat="45.3440177" lon="10.9105073"><ele>39.0</ele><time>2026-04-18T14:14:07.071Z</time></trkpt><trkpt lat="45.3441392" lon="10.9105162"><ele>39.2</ele><time>2026-04-18T14:14:08.071Z</time></trkpt><trkpt lat="45.3442498" lon="10.9105262"><ele>39.4</ele><time>2026-04-18T14:14:09.063Z</time></trkpt><trkpt lat="45.3443451" lon="10.9105309"><ele>39.6</ele><time>2026-04-18T14:14:10.067Z</time></trkpt><trkpt lat="45.3444364" lon="10.9105109"><ele>39.8</ele><time>2026-04-18T14:14:11.073Z</time></trkpt><trkpt lat="45.3445105" lon="10.9104545"><ele>40.0</ele><time>2026-04-18T14:14:12.073Z</time></trkpt><trkpt lat="45.3445714" lon="10.9103596"><ele>40.0</ele><time>2026-04-18T14:14:13.075Z</time></trkpt><trkpt lat="45.3446237" lon="10.9102285"><ele>40.0</ele><time>2026-04-18T14:14:14.076Z</time></trkpt><trkpt lat="45.3446756" lon="10.9100557"><ele>40.0</ele><time>2026-04-18T14:14:15.069Z</time></trkpt><trkpt lat="45.3447309" lon="10.9098755"><ele>40.0</ele><time>2026-04-18T14:14:16.072Z</time></trkpt><trkpt lat="45.3447933" lon="10.909692"><ele>40.333333333333336</ele><time>2026-04-18T14:14:17.079Z</time></trkpt><trkpt lat="45.3448666" lon="10.9095181"><ele>40.666666666666664</ele><time>2026-04-18T14:14:18.064Z</time></trkpt><trkpt lat="45.3449525" lon="10.9093471"><ele>41.0</ele><time>2026-04-18T14:14:19.063Z</time></trkpt><trkpt lat="45.3450598" lon="10.909155"><ele>41.0</ele><time>2026-04-18T14:14:20.064Z</time></trkpt><trkpt lat="45.3451715" lon="10.9089672"><ele>41.0</ele><time>2026-04-18T14:14:21.073Z</time></trkpt><trkpt lat="45.3452902" lon="10.9087877"><ele>41.0</ele><time>2026-04-18T14:14:22.074Z</time></trkpt><trkpt lat="45.3454089" lon="10.9086016"><ele>40.666666666666664</ele><time>2026-04-18T14:14:23.074Z</time></trkpt><trkpt lat="45.3455132" lon="10.908403"><ele>40.333333333333336</ele><time>2026-04-18T14:14:24.076Z</time></trkpt><trkpt lat="45.3456222" lon="10.9082171"><ele>40.0</ele><time>2026-04-18T14:14:25.072Z</time></trkpt><trkpt lat="45.3457368" lon="10.9080422"><ele>40.0</ele><time>2026-04-18T14:14:26.071Z</time></trkpt><trkpt lat="45.3458603" lon="10.9078581"><ele>40.0</ele><time>2026-04-18T14:14:27.075Z</time></trkpt><trkpt lat="45.3459746" lon="10.907682"><ele>40.0</ele><time>2026-04-18T14:14:28.071Z</time></trkpt><trkpt lat="45.3460724" lon="10.9075217"><ele>40.0</ele><time>2026-04-18T14:14:29.071Z</time></trkpt><trkpt lat="45.3461601" lon="10.9073756"><ele>40.0</ele><time>2026-04-18T14:14:30.07Z</time></trkpt><trkpt lat="45.3462367" lon="10.9072459"><ele>40.0</ele><time>2026-04-18T14:14:31.066Z</time></trkpt><trkpt lat="45.3462865" lon="10.9071301"><ele>40.0</ele><time>2026-04-18T14:14:32.062Z</time></trkpt><trkpt lat="45.3463275" lon="10.9070427"><ele>40.0</ele><time>2026-04-18T14:14:33.073Z</time></trkpt><trkpt lat="45.3463791" lon="10.9069551"><ele>40.4</ele><time>2026-04-18T14:14:35.074Z</time></trkpt><trkpt lat="45.3464138" lon="10.9068761"><ele>40.8</ele><time>2026-04-18T14:14:37.063Z</time></trkpt><trkpt lat="45.3465113" lon="10.9068735"><ele>41.2</ele><time>2026-04-18T14:14:40.071Z</time></trkpt><trkpt lat="45.3465788" lon="10.9069405"><ele>41.6</ele><time>2026-04-18T14:14:41.072Z</time></trkpt><trkpt lat="45.3466641" lon="10.9070315"><ele>42.0</ele><time>2026-04-18T14:14:42.064Z</time></trkpt><trkpt lat="45.3467595" lon="10.9071184"><ele>42.0</ele><time>2026-04-18T14:14:43.066Z</time></trkpt><trkpt lat="45.3468639" lon="10.9072077"><ele>42.0</ele><time>2026-04-18T14:14:44.063Z</time></trkpt><trkpt lat="45.3469901" lon="10.9073055"><ele>42.0</ele><time>2026-04-18T14:14:45.064Z</time></trkpt><trkpt lat="45.3471314" lon="10.9074129"><ele>42.0</ele><time>2026-04-18T14:14:46.061Z</time></trkpt><trkpt lat="45.3472786" lon="10.9075195"><ele>42.0</ele><time>2026-04-18T14:14:47.067Z</time></trkpt><trkpt lat="45.347436" lon="10.9076266"><ele>42.0</ele><time>2026-04-18T14:14:48.061Z</time></trkpt><trkpt lat="45.3476036" lon="10.9077425"><ele>42.0</ele><time>2026-04-18T14:14:49.066Z</time></trkpt><trkpt lat="45.3477666" lon="10.9078444"><ele>42.0</ele><time>2026-04-18T14:14:50.074Z</time></trkpt><trkpt lat="45.3479238" lon="10.9079488"><ele>42.0</ele><time>2026-04-18T14:14:51.07Z</time></trkpt><trkpt lat="45.3480747" lon="10.9080572"><ele>42.0</ele><time>2026-04-18T14:14:52.069Z</time></trkpt><trkpt lat="45.3482193" lon="10.9081512"><ele>42.0</ele><time>2026-04-18T14:14:53.07Z</time></trkpt><trkpt lat="45.348362" lon="10.9082492"><ele>42.0</ele><time>2026-04-18T14:14:54.066Z</time></trkpt><trkpt lat="45.3485007" lon="10.9083496"><ele>42.0</ele><time>2026-04-18T14:14:55.065Z</time></trkpt><trkpt lat="45.3486385" lon="10.9084407"><ele>42.0</ele><time>2026-04-18T14:14:56.066Z</time></trkpt><trkpt lat="45.3487572" lon="10.9085094"><ele>42.0</ele><time>2026-04-18T14:14:57.064Z</time></trkpt><trkpt lat="45.3488612" lon="10.9085915"><ele>42.0</ele><time>2026-04-18T14:14:58.063Z</time></trkpt><trkpt lat="45.3489466" lon="10.9086613"><ele>42.0</ele><time>2026-04-18T14:14:59.068Z</time></trkpt><trkpt lat="45.3490247" lon="10.9087204"><ele>42.0</ele><time>2026-04-18T14:15:00.073Z</time></trkpt><trkpt lat="45.3491115" lon="10.9087629"><ele>42.0</ele><time>2026-04-18T14:15:01.073Z</time></trkpt><trkpt lat="45.3492049" lon="10.9088186"><ele>42.0</ele><time>2026-04-18T14:15:02.067Z</time></trkpt><trkpt lat="45.3492988" lon="10.9088837"><ele>42.0</ele><time>2026-04-18T14:15:03.071Z</time></trkpt><trkpt lat="45.349405" lon="10.9089571"><ele>42.0</ele><time>2026-04-18T14:15:04.069Z</time></trkpt><trkpt lat="45.3495175" lon="10.9090439"><ele>42.0</ele><time>2026-04-18T14:15:05.068Z</time></trkpt><trkpt lat="45.3496399" lon="10.9091427"><ele>42.0</ele><time>2026-04-18T14:15:06.072Z</time></trkpt><trkpt lat="45.3497672" lon="10.909238"><ele>42.0</ele><time>2026-04-18T14:15:07.07Z</time></trkpt><trkpt lat="45.3498813" lon="10.9093223"><ele>42.0</ele><time>2026-04-18T14:15:08.067Z</time></trkpt><trkpt lat="45.3499715" lon="10.9093882"><ele>42.2</ele><time>2026-04-18T14:15:09.071Z</time></trkpt><trkpt lat="45.3500593" lon="10.9094588"><ele>42.400000000000006</ele><time>2026-04-18T14:15:10.072Z</time></trkpt><trkpt lat="45.3501609" lon="10.9095215"><ele>42.599999999999994</ele><time>2026-04-18T14:15:11.07Z</time></trkpt><trkpt lat="45.3502616" lon="10.9095856"><ele>42.8</ele><time>2026-04-18T14:15:12.07Z</time></trkpt><trkpt lat="45.3503521" lon="10.9096514"><ele>43.0</ele><time>2026-04-18T14:15:13.068Z</time></trkpt><trkpt lat="45.3504463" lon="10.9097195"><ele>43.2</ele><time>2026-04-18T14:15:14.069Z</time></trkpt><trkpt lat="45.3505427" lon="10.9097893"><ele>43.4</ele><time>2026-04-18T14:15:15.07Z</time></trkpt><trkpt lat="45.3506334" lon="10.909857"><ele>43.6</ele><time>2026-04-18T14:15:16.07Z</time></trkpt><trkpt lat="45.350714" lon="10.9099165"><ele>43.800000000000004</ele><time>2026-04-18T14:15:17.077Z</time></trkpt><trkpt lat="45.3507957" lon="10.9099857"><ele>44.0</ele><time>2026-04-18T14:15:18.068Z</time></trkpt><trkpt lat="45.3508773" lon="10.9100721"><ele>43.6</ele><time>2026-04-18T14:15:19.061Z</time></trkpt><trkpt lat="45.3509549" lon="10.9101731"><ele>43.2</ele><time>2026-04-18T14:15:20.066Z</time></trkpt><trkpt lat="45.3510263" lon="10.9102603"><ele>42.800000000000004</ele><time>2026-04-18T14:15:21.067Z</time></trkpt><trkpt lat="45.3510978" lon="10.9103665"><ele>42.400000000000006</ele><time>2026-04-18T14:15:22.064Z</time></trkpt><trkpt lat="45.3511765" lon="10.9104822"><ele>42.0</ele><time>2026-04-18T14:15:23.067Z</time></trkpt><trkpt lat="45.3512691" lon="10.9106037"><ele>42.25</ele><time>2026-04-18T14:15:24.069Z</time></trkpt><trkpt lat="45.3513741" lon="10.9107333"><ele>42.5</ele><time>2026-04-18T14:15:25.061Z</time></trkpt><trkpt lat="45.3514918" lon="10.9108389"><ele>42.75</ele><time>2026-04-18T14:15:26.072Z</time></trkpt><trkpt lat="45.3516174" lon="10.9109095"><ele>43.0</ele><time>2026-04-18T14:15:27.072Z</time></trkpt><trkpt lat="45.3517612" lon="10.9109899"><ele>43.25</ele><time>2026-04-18T14:15:28.068Z</time></trkpt><trkpt lat="45.3519095" lon="10.9110511"><ele>43.5</ele><time>2026-04-18T14:15:29.064Z</time></trkpt><trkpt lat="45.3520333" lon="10.9111039"><ele>43.75</ele><time>2026-04-18T14:15:30.072Z</time></trkpt><trkpt lat="45.3521407" lon="10.9111593"><ele>44.0</ele><time>2026-04-18T14:15:31.064Z</time></trkpt><trkpt lat="45.3522408" lon="10.9111938"><ele>44.166666666666664</ele><time>2026-04-18T14:15:32.067Z</time></trkpt><trkpt lat="45.3523197" lon="10.9112229"><ele>44.33333333333333</ele><time>2026-04-18T14:15:33.066Z</time></trkpt><trkpt lat="45.352381" lon="10.9112616"><ele>44.5</ele><time>2026-04-18T14:15:34.064Z</time></trkpt><trkpt lat="45.352459" lon="10.9113337"><ele>44.666666666666664</ele><time>2026-04-18T14:15:36.064Z</time></trkpt><trkpt lat="45.3523863" lon="10.9112539"><ele>44.833333333333336</ele><time>2026-04-18T14:15:44.069Z</time></trkpt><trkpt lat="45.352329" lon="10.9112137"><ele>45.0</ele><time>2026-04-18T14:15:45.071Z</time></trkpt><trkpt lat="45.3522614" lon="10.9111706"><ele>45.0</ele><time>2026-04-18T14:15:47.069Z</time></trkpt><trkpt lat="45.3523374" lon="10.9111754"><ele>45.0</ele><time>2026-04-18T14:17:11.069Z</time></trkpt><trkpt lat="45.3523804" lon="10.9112482"><ele>45.0</ele><time>2026-04-18T14:19:04.068Z</time></trkpt><trkpt lat="45.3524403" lon="10.9113037"><ele>45.0</ele><time>2026-04-18T14:19:06.07Z</time></trkpt><trkpt lat="45.3525022" lon="10.9113309"><ele>45.0</ele><time>2026-04-18T14:19:08.072Z</time></trkpt><trkpt lat="45.352598" lon="10.9113778"><ele>45.0</ele><time>2026-04-18T14:19:11.065Z</time></trkpt><trkpt lat="45.3526642" lon="10.9114182"><ele>45.0</ele><time>2026-04-18T14:19:13.07Z</time></trkpt><trkpt lat="45.3527381" lon="10.9114695"><ele>45.0</ele><time>2026-04-18T14:19:15.068Z</time></trkpt><trkpt lat="45.3528254" lon="10.9115193"><ele>45.0</ele><time>2026-04-18T14:19:17.075Z</time></trkpt><trkpt lat="45.3529267" lon="10.9115995"><ele>45.0</ele><time>2026-04-18T14:19:20.07Z</time></trkpt><trkpt lat="45.352998" lon="10.9116536"><ele>45.0</ele><time>2026-04-18T14:19:22.07Z</time></trkpt><trkpt lat="45.3530688" lon="10.9117038"><ele>45.0</ele><time>2026-04-18T14:19:24.07Z</time></trkpt><trkpt lat="45.3531551" lon="10.9117616"><ele>44.0</ele><time>2026-04-18T14:19:26.069Z</time></trkpt><trkpt lat="45.3532115" lon="10.9118063"><ele>44.0</ele><time>2026-04-18T14:19:28.073Z</time></trkpt><trkpt lat="45.3532856" lon="10.9118779"><ele>44.0</ele><time>2026-04-18T14:19:31.074Z</time></trkpt><trkpt lat="45.3533401" lon="10.9119457"><ele>44.0</ele><time>2026-04-18T14:19:34.061Z</time></trkpt></trkseg></trk></gpx>